<?xml version='1.0' encoding='UTF-8'?><gpx version="1.1" creator="JPX - https://github.com/jenetics/jpx" xmlns="http://www.topografix.com/GPX/1/1"><trk><trkseg><trkpt lat="44.284078316106665" lon="11.1111077659655"><ele>209.00000000000003</ele><time>2026-04-04T07:28:14.999Z</time></trkpt><trkpt lat="44.28403723932538" lon="11.11101156723265"><ele>209.0</ele><time>2026-04-04T07:28:17.999Z</time></trkpt><trkpt lat="44.283974846162685" lon="11.110949232473379"><ele>209.0</ele><time>2026-04-04T07:28:23.999Z</time></trkpt><trkpt lat="44.28392554837198" lon="11.111011259783488"><ele>209.0</ele><time>2026-04-04T07:28:25.999Z</time></trkpt><trkpt lat="44.283850280590684" lon="11.11107927595493"><ele>209.00000000000003</ele><time>2026-04-04T07:28:29Z</time></trkpt><trkpt lat="44.28376295681398" lon="11.111164279083745"><ele>209.0</ele><time>2026-04-04T07:28:31Z</time></trkpt><trkpt lat="44.28368212978139" lon="11.111220236985528"><ele>207.83333333333334</ele><time>2026-04-04T07:28:32Z</time></trkpt><trkpt lat="44.28365941577989" lon="11.111321498480127"><ele>206.66666666666669</ele><time>2026-04-04T07:28:33Z</time></trkpt><trkpt lat="44.28355820391348" lon="11.11138758262965"><ele>205.5</ele><time>2026-04-04T07:28:35Z</time></trkpt><trkpt lat="44.28348448805642" lon="11.11144215187361"><ele>204.33333333333331</ele><time>2026-04-04T07:28:38Z</time></trkpt><trkpt lat="44.283426730930245" lon="11.111510729166172"><ele>203.16666666666666</ele><time>2026-04-04T07:29:28Z</time></trkpt><trkpt lat="44.2833833820314" lon="11.111593631020671"><ele>202.0</ele><time>2026-04-04T07:29:31Z</time></trkpt><trkpt lat="44.28344279272769" lon="11.11170999896162"><ele>201.75</ele><time>2026-04-04T07:29:32Z</time></trkpt><trkpt lat="44.28347431073077" lon="11.111796676762186"><ele>201.5</ele><time>2026-04-04T07:29:33Z</time></trkpt><trkpt lat="44.28351012539353" lon="11.111943952764038"><ele>201.25</ele><time>2026-04-04T07:29:35Z</time></trkpt><trkpt lat="44.2837580398662" lon="11.111916029334315"><ele>201.0</ele><time>2026-04-04T07:29:37Z</time></trkpt><trkpt lat="44.28387887520059" lon="11.11198371401292"><ele>202.0</ele><time>2026-04-04T07:29:38Z</time></trkpt><trkpt lat="44.2841478911859" lon="11.112024657507778"><ele>203.0</ele><time>2026-04-04T07:29:40Z</time></trkpt><trkpt lat="44.284235112721156" lon="11.11208358605675"><ele>204.0</ele><time>2026-04-04T07:29:41Z</time></trkpt><trkpt lat="44.284340912622724" lon="11.112159326099503"><ele>204.0</ele><time>2026-04-04T07:29:42Z</time></trkpt><trkpt lat="44.284452407849486" lon="11.112192736389051"><ele>204.0</ele><time>2026-04-04T07:29:43Z</time></trkpt><trkpt lat="44.284545917936875" lon="11.112268519570948"><ele>204.0</ele><time>2026-04-04T07:29:44Z</time></trkpt><trkpt lat="44.28463333332379" lon="11.112314145855915"><ele>204.0</ele><time>2026-04-04T07:29:45Z</time></trkpt><trkpt lat="44.28473633997801" lon="11.112365570580778"><ele>204.0</ele><time>2026-04-04T07:29:46.001Z</time></trkpt><trkpt lat="44.28483138272114" lon="11.112408868073492"><ele>202.5</ele><time>2026-04-04T07:29:47.001Z</time></trkpt><trkpt lat="44.284936368372904" lon="11.11243782475597"><ele>201.0</ele><time>2026-04-04T07:29:48.001Z</time></trkpt><trkpt lat="44.285053661849616" lon="11.11250046468239"><ele>199.5</ele><time>2026-04-04T07:29:50.001Z</time></trkpt><trkpt lat="44.2851554903196" lon="11.112549189166321"><ele>198.0</ele><time>2026-04-04T07:29:51.001Z</time></trkpt><trkpt lat="44.285300329785336" lon="11.112579574375577"><ele>198.0</ele><time>2026-04-04T07:29:52.001Z</time></trkpt><trkpt lat="44.28545973316135" lon="11.112595708463093"><ele>198.0</ele><time>2026-04-04T07:29:53.001Z</time></trkpt><trkpt lat="44.285582904403554" lon="11.112595525062472"><ele>198.0</ele><time>2026-04-04T07:29:54.001Z</time></trkpt><trkpt lat="44.28571935364602" lon="11.112579873053962"><ele>198.0</ele><time>2026-04-04T07:29:55Z</time></trkpt><trkpt lat="44.28582683145367" lon="11.112566756367805"><ele>198.0</ele><time>2026-04-04T07:29:56Z</time></trkpt><trkpt lat="44.28592982544442" lon="11.11254743909224"><ele>198.0</ele><time>2026-04-04T07:29:57Z</time></trkpt><trkpt lat="44.28601873539129" lon="11.11251922120819"><ele>198.0</ele><time>2026-04-04T07:29:58Z</time></trkpt><trkpt lat="44.28610820957935" lon="11.112495875603926"><ele>198.0</ele><time>2026-04-04T07:29:59Z</time></trkpt><trkpt lat="44.286181628369185" lon="11.112480746764149"><ele>198.0</ele><time>2026-04-04T07:30:00Z</time></trkpt><trkpt lat="44.2862509755159" lon="11.112466582036193"><ele>198.0</ele><time>2026-04-04T07:30:01Z</time></trkpt><trkpt lat="44.28632024894745" lon="11.112455349438791"><ele>198.0</ele><time>2026-04-04T07:30:02Z</time></trkpt><trkpt lat="44.2863918229301" lon="11.1124379520693"><ele>198.0</ele><time>2026-04-04T07:30:03Z</time></trkpt><trkpt lat="44.28647333984948" lon="11.112420807535765"><ele>198.0</ele><time>2026-04-04T07:30:04Z</time></trkpt><trkpt lat="44.28656031526445" lon="11.112398364751563"><ele>198.0</ele><time>2026-04-04T07:30:05Z</time></trkpt><trkpt lat="44.28665099416006" lon="11.112380479910264"><ele>198.0</ele><time>2026-04-04T07:30:06Z</time></trkpt><trkpt lat="44.286740712227164" lon="11.112358205879753"><ele>198.0</ele><time>2026-04-04T07:30:07Z</time></trkpt><trkpt lat="44.28683110693966" lon="11.112340139223251"><ele>198.5</ele><time>2026-04-04T07:30:08Z</time></trkpt><trkpt lat="44.28691937213608" lon="11.11231431029189"><ele>199.0</ele><time>2026-04-04T07:30:09Z</time></trkpt><trkpt lat="44.287007101128864" lon="11.112293516473695"><ele>199.5</ele><time>2026-04-04T07:30:10Z</time></trkpt><trkpt lat="44.287080833231364" lon="11.112273389465413"><ele>200.0</ele><time>2026-04-04T07:30:11Z</time></trkpt><trkpt lat="44.287160185529345" lon="11.112252501288824"><ele>200.5</ele><time>2026-04-04T07:30:12Z</time></trkpt><trkpt lat="44.287231685987855" lon="11.112220133320005"><ele>201.0</ele><time>2026-04-04T07:30:13Z</time></trkpt><trkpt lat="44.28729307049297" lon="11.112198501693385"><ele>201.0</ele><time>2026-04-04T07:30:14Z</time></trkpt><trkpt lat="44.287367670836296" lon="11.112175078179794"><ele>201.0</ele><time>2026-04-04T07:30:15Z</time></trkpt><trkpt lat="44.287453430721825" lon="11.112160305985448"><ele>201.0</ele><time>2026-04-04T07:30:16Z</time></trkpt><trkpt lat="44.28753402486053" lon="11.112132294358148"><ele>201.0</ele><time>2026-04-04T07:30:17Z</time></trkpt><trkpt lat="44.287620885872876" lon="11.112120805329385"><ele>201.0</ele><time>2026-04-04T07:30:18Z</time></trkpt><trkpt lat="44.28771556436333" lon="11.11209435104385"><ele>201.0</ele><time>2026-04-04T07:30:19Z</time></trkpt><trkpt lat="44.28780409461222" lon="11.112046457642307"><ele>201.0</ele><time>2026-04-04T07:30:20Z</time></trkpt><trkpt lat="44.28788533147073" lon="11.11205137529387"><ele>201.0</ele><time>2026-04-04T07:30:21Z</time></trkpt><trkpt lat="44.28798400106748" lon="11.112015724467016"><ele>201.0</ele><time>2026-04-04T07:30:22Z</time></trkpt><trkpt lat="44.28807057689157" lon="11.112008992046796"><ele>201.0</ele><time>2026-04-04T07:30:23Z</time></trkpt><trkpt lat="44.28814594661527" lon="11.112002609427362"><ele>201.0</ele><time>2026-04-04T07:30:24Z</time></trkpt><trkpt lat="44.288206825256175" lon="11.111978056952617"><ele>201.0</ele><time>2026-04-04T07:30:25Z</time></trkpt><trkpt lat="44.28827814408839" lon="11.111905789529507"><ele>201.0</ele><time>2026-04-04T07:30:27Z</time></trkpt><trkpt lat="44.288229308507034" lon="11.111835908996936"><ele>201.0</ele><time>2026-04-04T07:30:29Z</time></trkpt><trkpt lat="44.28811103802245" lon="11.111790250240333"><ele>201.0</ele><time>2026-04-04T07:30:36Z</time></trkpt><trkpt lat="44.28811181178975" lon="11.11188597631681"><ele>201.0</ele><time>2026-04-04T07:30:38Z</time></trkpt><trkpt lat="44.28809240158953" lon="11.111797276743102"><ele>201.0</ele><time>2026-04-04T07:30:43Z</time></trkpt><trkpt lat="44.28808556667669" lon="11.111662336545198"><ele>201.0</ele><time>2026-04-04T07:30:45Z</time></trkpt><trkpt lat="44.288084812791055" lon="11.111767704224778"><ele>201.0</ele><time>2026-04-04T07:30:54Z</time></trkpt><trkpt lat="44.28809202293792" lon="11.111869101461217"><ele>201.0</ele><time>2026-04-04T07:30:55Z</time></trkpt><trkpt lat="44.28808256585601" lon="11.111740322606252"><ele>201.0</ele><time>2026-04-04T07:31:08Z</time></trkpt><trkpt lat="44.28804932165943" lon="11.111589888052558"><ele>201.0</ele><time>2026-04-04T07:31:36.999Z</time></trkpt><trkpt lat="44.288126903214625" lon="11.111551771049758"><ele>201.0</ele><time>2026-04-04T07:31:45.999Z</time></trkpt><trkpt lat="44.28815568881274" lon="11.111691961094142"><ele>201.0</ele><time>2026-04-04T07:31:53Z</time></trkpt><trkpt lat="44.288147897829425" lon="11.112072341291775"><ele>201.0</ele><time>2026-04-04T07:32:15.914Z</time></trkpt><trkpt lat="44.288150396866" lon="11.111828002119672"><ele>201.0</ele><time>2026-04-04T07:32:26Z</time></trkpt><trkpt lat="44.28805997045915" lon="11.111885635904354"><ele>201.0</ele><time>2026-04-04T07:32:28Z</time></trkpt><trkpt lat="44.288106813063074" lon="11.111801032904118"><ele>201.0</ele><time>2026-04-04T07:33:17Z</time></trkpt><trkpt lat="44.28803309260886" lon="11.111879546953398"><ele>201.0</ele><time>2026-04-04T07:33:38.999Z</time></trkpt><trkpt lat="44.288047368035976" lon="11.111992515279516"><ele>201.0</ele><time>2026-04-04T07:33:41.999Z</time></trkpt><trkpt lat="44.28804771600193" lon="11.11187102248608"><ele>201.0</ele><time>2026-04-04T07:33:48.999Z</time></trkpt><trkpt lat="44.287987727549876" lon="11.111918560649537"><ele>201.0</ele><time>2026-04-04T07:34:41Z</time></trkpt><trkpt lat="44.28805787909427" lon="11.112058617803541"><ele>201.16666666666666</ele><time>2026-04-04T07:34:53Z</time></trkpt><trkpt lat="44.28812839423851" lon="11.112059752928724"><ele>201.33333333333331</ele><time>2026-04-04T07:34:54Z</time></trkpt><trkpt lat="44.28820289796526" lon="11.112060876471487"><ele>201.5</ele><time>2026-04-04T07:34:55Z</time></trkpt><trkpt lat="44.28826659156968" lon="11.112107247093352"><ele>201.66666666666666</ele><time>2026-04-04T07:34:56Z</time></trkpt><trkpt lat="44.288307441795055" lon="11.112176853296408"><ele>201.83333333333331</ele><time>2026-04-04T07:34:57Z</time></trkpt><trkpt lat="44.28834748940722" lon="11.112313917424324"><ele>202.0</ele><time>2026-04-04T07:34:59Z</time></trkpt><trkpt lat="44.288357808769995" lon="11.112463482206515"><ele>199.5</ele><time>2026-04-04T07:35:01Z</time></trkpt><trkpt lat="44.28835937268293" lon="11.11256283179979"><ele>197.0</ele><time>2026-04-04T07:35:03Z</time></trkpt><trkpt lat="44.28822745890139" lon="11.112569824761838"><ele>194.5</ele><time>2026-04-04T07:35:04Z</time></trkpt><trkpt lat="44.28805076958395" lon="11.112576086225788"><ele>192.0</ele><time>2026-04-04T07:35:05Z</time></trkpt><trkpt lat="44.28792969574131" lon="11.112656183571978"><ele>192.0</ele><time>2026-04-04T07:35:07Z</time></trkpt><trkpt lat="44.28786609236569" lon="11.112679865270932"><ele>192.0</ele><time>2026-04-04T07:35:08Z</time></trkpt><trkpt lat="44.287779869046005" lon="11.112791057324365"><ele>192.0</ele><time>2026-04-04T07:35:09Z</time></trkpt><trkpt lat="44.287744134698904" lon="11.1128864114989"><ele>192.0</ele><time>2026-04-04T07:35:10Z</time></trkpt><trkpt lat="44.28772334401134" lon="11.112987012752773"><ele>192.0</ele><time>2026-04-04T07:35:11Z</time></trkpt><trkpt lat="44.287716305088765" lon="11.113109323267963"><ele>192.0</ele><time>2026-04-04T07:35:12Z</time></trkpt><trkpt lat="44.28771026282533" lon="11.113235444296928"><ele>190.83333333333334</ele><time>2026-04-04T07:35:13Z</time></trkpt><trkpt lat="44.28771747094212" lon="11.113353382443202"><ele>189.66666666666666</ele><time>2026-04-04T07:35:14Z</time></trkpt><trkpt lat="44.28771327838306" lon="11.113460194312523"><ele>188.5</ele><time>2026-04-04T07:35:15Z</time></trkpt><trkpt lat="44.28771027220529" lon="11.11357383998143"><ele>187.33333333333331</ele><time>2026-04-04T07:35:16Z</time></trkpt><trkpt lat="44.287705523137156" lon="11.113686341385351"><ele>186.16666666666666</ele><time>2026-04-04T07:35:17Z</time></trkpt><trkpt lat="44.287700084740635" lon="11.113851011119747"><ele>185.0</ele><time>2026-04-04T07:35:18Z</time></trkpt><trkpt lat="44.28770110443133" lon="11.114005197898267"><ele>185.4</ele><time>2026-04-04T07:35:19Z</time></trkpt><trkpt lat="44.28767138818636" lon="11.114150135829878"><ele>185.8</ele><time>2026-04-04T07:35:20Z</time></trkpt><trkpt lat="44.28765442001177" lon="11.114290034817149"><ele>186.2</ele><time>2026-04-04T07:35:20.999Z</time></trkpt><trkpt lat="44.2876436321795" lon="11.114429268650671"><ele>186.6</ele><time>2026-04-04T07:35:21.999Z</time></trkpt><trkpt lat="44.28765627562582" lon="11.11457509166972"><ele>187.0</ele><time>2026-04-04T07:35:22.999Z</time></trkpt><trkpt lat="44.28764763830406" lon="11.11471761625783"><ele>187.0</ele><time>2026-04-04T07:35:23.999Z</time></trkpt><trkpt lat="44.287642138225934" lon="11.11486889778943"><ele>187.0</ele><time>2026-04-04T07:35:24.999Z</time></trkpt><trkpt lat="44.28764294511232" lon="11.115030140854854"><ele>187.0</ele><time>2026-04-04T07:35:25.999Z</time></trkpt><trkpt lat="44.2876368069912" lon="11.115172609005654"><ele>187.0</ele><time>2026-04-04T07:35:26.999Z</time></trkpt><trkpt lat="44.28761976235971" lon="11.115302842414563"><ele>187.0</ele><time>2026-04-04T07:35:27.999Z</time></trkpt><trkpt lat="44.287594372306756" lon="11.115430255763997"><ele>188.0</ele><time>2026-04-04T07:35:28.999Z</time></trkpt><trkpt lat="44.28757621491277" lon="11.115592468539901"><ele>189.0</ele><time>2026-04-04T07:35:29.999Z</time></trkpt><trkpt lat="44.28755559358786" lon="11.115703523708632"><ele>190.0</ele><time>2026-04-04T07:35:30.999Z</time></trkpt><trkpt lat="44.28767305474305" lon="11.115896032538144"><ele>191.0</ele><time>2026-04-04T07:35:33.999Z</time></trkpt><trkpt lat="44.28777647897335" lon="11.115952510112288"><ele>191.4</ele><time>2026-04-04T07:35:34.999Z</time></trkpt><trkpt lat="44.28787989531628" lon="11.115965648255436"><ele>191.8</ele><time>2026-04-04T07:35:35.999Z</time></trkpt><trkpt lat="44.287967771371896" lon="11.11594898534571"><ele>192.20000000000002</ele><time>2026-04-04T07:35:36.999Z</time></trkpt><trkpt lat="44.28807871359683" lon="11.115917730877538"><ele>192.60000000000002</ele><time>2026-04-04T07:35:37.999Z</time></trkpt><trkpt lat="44.288203516571805" lon="11.115906387926506"><ele>193.0</ele><time>2026-04-04T07:35:38.999Z</time></trkpt><trkpt lat="44.28832151560642" lon="11.115878763253086"><ele>193.0</ele><time>2026-04-04T07:35:39.999Z</time></trkpt><trkpt lat="44.28841433970939" lon="11.11588508945075"><ele>193.0</ele><time>2026-04-04T07:35:40.999Z</time></trkpt><trkpt lat="44.28851690654984" lon="11.115954914745515"><ele>193.0</ele><time>2026-04-04T07:35:41.999Z</time></trkpt><trkpt lat="44.28861567090041" lon="11.116049713867408"><ele>193.0</ele><time>2026-04-04T07:35:42.999Z</time></trkpt><trkpt lat="44.2887096793521" lon="11.116149847384994"><ele>193.0</ele><time>2026-04-04T07:35:43.999Z</time></trkpt><trkpt lat="44.28881601595617" lon="11.11622981089244"><ele>193.0</ele><time>2026-04-04T07:35:44.999Z</time></trkpt><trkpt lat="44.288887539266035" lon="11.116342921451105"><ele>193.0</ele><time>2026-04-04T07:35:45.999Z</time></trkpt><trkpt lat="44.288982083491526" lon="11.116475056632405"><ele>193.0</ele><time>2026-04-04T07:35:46.999Z</time></trkpt><trkpt lat="44.28907186791088" lon="11.116589962851549"><ele>193.0</ele><time>2026-04-04T07:35:47.999Z</time></trkpt><trkpt lat="44.289150776155445" lon="11.116721327108193"><ele>192.25</ele><time>2026-04-04T07:35:48.999Z</time></trkpt><trkpt lat="44.289206555313335" lon="11.116870744265318"><ele>191.5</ele><time>2026-04-04T07:35:49.999Z</time></trkpt><trkpt lat="44.289241889489674" lon="11.11701690869322"><ele>190.75</ele><time>2026-04-04T07:35:50.999Z</time></trkpt><trkpt lat="44.28932874311898" lon="11.117124869609018"><ele>190.0</ele><time>2026-04-04T07:35:51.999Z</time></trkpt><trkpt lat="44.28942053058573" lon="11.117230850875808"><ele>190.0</ele><time>2026-04-04T07:35:52.999Z</time></trkpt><trkpt lat="44.28951562442987" lon="11.117344265735973"><ele>190.0</ele><time>2026-04-04T07:35:53.999Z</time></trkpt><trkpt lat="44.28959545518493" lon="11.11745298189631"><ele>190.0</ele><time>2026-04-04T07:35:54.999Z</time></trkpt><trkpt lat="44.2896664344975" lon="11.11758054697325"><ele>190.0</ele><time>2026-04-04T07:35:55.999Z</time></trkpt><trkpt lat="44.289739429445355" lon="11.117690505918263"><ele>189.5</ele><time>2026-04-04T07:35:56.999Z</time></trkpt><trkpt lat="44.28980319416267" lon="11.117807725427749"><ele>189.0</ele><time>2026-04-04T07:35:57.999Z</time></trkpt><trkpt lat="44.28988316037165" lon="11.117931297269093"><ele>188.5</ele><time>2026-04-04T07:35:58.999Z</time></trkpt><trkpt lat="44.289977115540545" lon="11.118038805627688"><ele>188.0</ele><time>2026-04-04T07:35:59.999Z</time></trkpt><trkpt lat="44.29007779391595" lon="11.118131410451767"><ele>188.0</ele><time>2026-04-04T07:36:00.999Z</time></trkpt><trkpt lat="44.290185114092644" lon="11.118214421508736"><ele>188.0</ele><time>2026-04-04T07:36:01.999Z</time></trkpt><trkpt lat="44.290299272423034" lon="11.11827558065254"><ele>188.0</ele><time>2026-04-04T07:36:02.999Z</time></trkpt><trkpt lat="44.29041415852366" lon="11.118309873794722"><ele>188.0</ele><time>2026-04-04T07:36:04Z</time></trkpt><trkpt lat="44.29051462156208" lon="11.118330781790783"><ele>188.5</ele><time>2026-04-04T07:36:05Z</time></trkpt><trkpt lat="44.290632371022284" lon="11.11834001235784"><ele>189.0</ele><time>2026-04-04T07:36:06Z</time></trkpt><trkpt lat="44.290758911239855" lon="11.118358801916822"><ele>189.5</ele><time>2026-04-04T07:36:07Z</time></trkpt><trkpt lat="44.290896524140436" lon="11.118380848902548"><ele>190.0</ele><time>2026-04-04T07:36:08Z</time></trkpt><trkpt lat="44.29102340728426" lon="11.11840232786676"><ele>190.0</ele><time>2026-04-04T07:36:09Z</time></trkpt><trkpt lat="44.29114649073791" lon="11.11842913519819"><ele>190.0</ele><time>2026-04-04T07:36:10Z</time></trkpt><trkpt lat="44.29125813292025" lon="11.118478975463168"><ele>190.0</ele><time>2026-04-04T07:36:11Z</time></trkpt><trkpt lat="44.29135850567186" lon="11.118555883066533"><ele>190.0</ele><time>2026-04-04T07:36:12Z</time></trkpt><trkpt lat="44.29146271245231" lon="11.118603562236835"><ele>190.0</ele><time>2026-04-04T07:36:13Z</time></trkpt><trkpt lat="44.29158288118174" lon="11.11859339910324"><ele>190.0</ele><time>2026-04-04T07:36:14Z</time></trkpt><trkpt lat="44.29169823269116" lon="11.11855225011007"><ele>190.0</ele><time>2026-04-04T07:36:15Z</time></trkpt><trkpt lat="44.291809103080695" lon="11.11849891524966"><ele>190.0</ele><time>2026-04-04T07:36:16Z</time></trkpt><trkpt lat="44.291913466570804" lon="11.118437787872637"><ele>190.0</ele><time>2026-04-04T07:36:17Z</time></trkpt><trkpt lat="44.292017614313984" lon="11.118369978659413"><ele>190.0</ele><time>2026-04-04T07:36:18Z</time></trkpt><trkpt lat="44.29212409083357" lon="11.118339607343527"><ele>190.0</ele><time>2026-04-04T07:36:19Z</time></trkpt><trkpt lat="44.292234781819765" lon="11.118345972011822"><ele>190.0</ele><time>2026-04-04T07:36:20Z</time></trkpt><trkpt lat="44.29235636619354" lon="11.118347012256455"><ele>189.0</ele><time>2026-04-04T07:36:21Z</time></trkpt><trkpt lat="44.29247144651394" lon="11.118388979732037"><ele>188.0</ele><time>2026-04-04T07:36:22Z</time></trkpt><trkpt lat="44.292594310289246" lon="11.11846046487944"><ele>187.0</ele><time>2026-04-04T07:36:23Z</time></trkpt><trkpt lat="44.292720126104854" lon="11.11855259088491"><ele>186.0</ele><time>2026-04-04T07:36:24Z</time></trkpt><trkpt lat="44.29284071315767" lon="11.11861671369502"><ele>186.0</ele><time>2026-04-04T07:36:25Z</time></trkpt><trkpt lat="44.2930023480953" lon="11.118658289609305"><ele>186.0</ele><time>2026-04-04T07:36:26Z</time></trkpt><trkpt lat="44.29312940746812" lon="11.118702659232557"><ele>186.0</ele><time>2026-04-04T07:36:27Z</time></trkpt><trkpt lat="44.29324394462937" lon="11.118734404338353"><ele>186.0</ele><time>2026-04-04T07:36:28Z</time></trkpt><trkpt lat="44.293342018631506" lon="11.118805815696764"><ele>184.0</ele><time>2026-04-04T07:36:29Z</time></trkpt><trkpt lat="44.29345335945051" lon="11.118858284798469"><ele>182.0</ele><time>2026-04-04T07:36:30Z</time></trkpt><trkpt lat="44.293568646700926" lon="11.118933266517136"><ele>180.0</ele><time>2026-04-04T07:36:31Z</time></trkpt><trkpt lat="44.29368409801759" lon="11.119005551232442"><ele>178.0</ele><time>2026-04-04T07:36:32Z</time></trkpt><trkpt lat="44.29382337550629" lon="11.119060015554975"><ele>180.0</ele><time>2026-04-04T07:36:33Z</time></trkpt><trkpt lat="44.293948245372135" lon="11.119129015334444"><ele>182.0</ele><time>2026-04-04T07:36:34Z</time></trkpt><trkpt lat="44.29408565271184" lon="11.119163395187185"><ele>184.0</ele><time>2026-04-04T07:36:35Z</time></trkpt><trkpt lat="44.29423049402809" lon="11.119192771624615"><ele>186.0</ele><time>2026-04-04T07:36:36Z</time></trkpt><trkpt lat="44.294349511616566" lon="11.119208317553301"><ele>186.0</ele><time>2026-04-04T07:36:37Z</time></trkpt><trkpt lat="44.29447980448158" lon="11.119237116357716"><ele>186.0</ele><time>2026-04-04T07:36:38Z</time></trkpt><trkpt lat="44.294596270089386" lon="11.119244252002632"><ele>186.0</ele><time>2026-04-04T07:36:39Z</time></trkpt><trkpt lat="44.29471359077815" lon="11.119257483330887"><ele>186.0</ele><time>2026-04-04T07:36:40Z</time></trkpt><trkpt lat="44.294842805055296" lon="11.119259249025035"><ele>184.5</ele><time>2026-04-04T07:36:41Z</time></trkpt><trkpt lat="44.294970046327904" lon="11.119246962291925"><ele>183.0</ele><time>2026-04-04T07:36:42Z</time></trkpt><trkpt lat="44.29508486640436" lon="11.119238143509593"><ele>181.5</ele><time>2026-04-04T07:36:43Z</time></trkpt><trkpt lat="44.29522361795052" lon="11.119264047684723"><ele>180.0</ele><time>2026-04-04T07:36:44Z</time></trkpt><trkpt lat="44.29538665365164" lon="11.119291720396529"><ele>180.0</ele><time>2026-04-04T07:36:45Z</time></trkpt><trkpt lat="44.29554216652721" lon="11.119306193491644"><ele>180.0</ele><time>2026-04-04T07:36:46Z</time></trkpt><trkpt lat="44.29567357486362" lon="11.119331816507705"><ele>180.0</ele><time>2026-04-04T07:36:47Z</time></trkpt><trkpt lat="44.29579719191673" lon="11.11939112620957"><ele>180.0</ele><time>2026-04-04T07:36:48Z</time></trkpt><trkpt lat="44.29594190981387" lon="11.119428708131629"><ele>180.0</ele><time>2026-04-04T07:36:49Z</time></trkpt><trkpt lat="44.29606829952871" lon="11.1194748359116"><ele>180.0</ele><time>2026-04-04T07:36:50Z</time></trkpt><trkpt lat="44.29615710981549" lon="11.119579021623268"><ele>180.0</ele><time>2026-04-04T07:36:51Z</time></trkpt><trkpt lat="44.29622037944412" lon="11.119743174054696"><ele>180.0</ele><time>2026-04-04T07:36:52Z</time></trkpt><trkpt lat="44.29624849661847" lon="11.119926943123486"><ele>180.25</ele><time>2026-04-04T07:36:53Z</time></trkpt><trkpt lat="44.296284774653344" lon="11.120108670398784"><ele>180.5</ele><time>2026-04-04T07:36:54Z</time></trkpt><trkpt lat="44.296382240917616" lon="11.120271780613203"><ele>180.75</ele><time>2026-04-04T07:36:55Z</time></trkpt><trkpt lat="44.29644847237356" lon="11.120425617470058"><ele>181.0</ele><time>2026-04-04T07:36:56Z</time></trkpt><trkpt lat="44.296535815244034" lon="11.120546823678268"><ele>181.0</ele><time>2026-04-04T07:36:57Z</time></trkpt><trkpt lat="44.296614969598956" lon="11.120660663259168"><ele>181.0</ele><time>2026-04-04T07:36:58Z</time></trkpt><trkpt lat="44.29673177226307" lon="11.120745387693729"><ele>181.0</ele><time>2026-04-04T07:36:59Z</time></trkpt><trkpt lat="44.296837009059" lon="11.120816600543838"><ele>181.0</ele><time>2026-04-04T07:37:00Z</time></trkpt><trkpt lat="44.296935761376815" lon="11.120959705983966"><ele>181.0</ele><time>2026-04-04T07:37:01Z</time></trkpt><trkpt lat="44.297023274542994" lon="11.121090393789967"><ele>181.0</ele><time>2026-04-04T07:37:02Z</time></trkpt><trkpt lat="44.29712477858245" lon="11.121206979634174"><ele>181.0</ele><time>2026-04-04T07:37:03Z</time></trkpt><trkpt lat="44.297228173481194" lon="11.121314435240041"><ele>181.0</ele><time>2026-04-04T07:37:04Z</time></trkpt><trkpt lat="44.29734515837085" lon="11.121413103801641"><ele>181.0</ele><time>2026-04-04T07:37:05Z</time></trkpt><trkpt lat="44.29745015824715" lon="11.12150205525142"><ele>181.0</ele><time>2026-04-04T07:37:06Z</time></trkpt><trkpt lat="44.297549235504135" lon="11.12160475930232"><ele>181.0</ele><time>2026-04-04T07:37:07Z</time></trkpt><trkpt lat="44.29765098059264" lon="11.121691759151886"><ele>181.0</ele><time>2026-04-04T07:37:08Z</time></trkpt><trkpt lat="44.29776113069367" lon="11.121786652685062"><ele>181.75</ele><time>2026-04-04T07:37:09Z</time></trkpt><trkpt lat="44.29785528771861" lon="11.121906790424253"><ele>182.5</ele><time>2026-04-04T07:37:10Z</time></trkpt><trkpt lat="44.297937544769" lon="11.122045087779506"><ele>183.25</ele><time>2026-04-04T07:37:11Z</time></trkpt><trkpt lat="44.29799463160799" lon="11.122199130015634"><ele>184.0</ele><time>2026-04-04T07:37:12Z</time></trkpt><trkpt lat="44.29804429087246" lon="11.122360021447438"><ele>184.0</ele><time>2026-04-04T07:37:13Z</time></trkpt><trkpt lat="44.298087871252044" lon="11.12253147141348"><ele>184.0</ele><time>2026-04-04T07:37:14Z</time></trkpt><trkpt lat="44.298155260820664" lon="11.122682747667666"><ele>184.0</ele><time>2026-04-04T07:37:15Z</time></trkpt><trkpt lat="44.29821531752688" lon="11.122842994134743"><ele>184.0</ele><time>2026-04-04T07:37:16Z</time></trkpt><trkpt lat="44.29827432038235" lon="11.123000883284698"><ele>184.0</ele><time>2026-04-04T07:37:17Z</time></trkpt><trkpt lat="44.29833341295188" lon="11.123168724409108"><ele>184.0</ele><time>2026-04-04T07:37:18Z</time></trkpt><trkpt lat="44.29838978033096" lon="11.123340841866156"><ele>184.0</ele><time>2026-04-04T07:37:19Z</time></trkpt><trkpt lat="44.29845444194255" lon="11.123531876793514"><ele>184.0</ele><time>2026-04-04T07:37:20Z</time></trkpt><trkpt lat="44.298518471141215" lon="11.123729023798738"><ele>185.0</ele><time>2026-04-04T07:37:21Z</time></trkpt><trkpt lat="44.29856236229886" lon="11.123920503657613"><ele>186.0</ele><time>2026-04-04T07:37:22Z</time></trkpt><trkpt lat="44.29860715342866" lon="11.124106739357483"><ele>187.0</ele><time>2026-04-04T07:37:22.999Z</time></trkpt><trkpt lat="44.298651925517554" lon="11.124296959663335"><ele>188.0</ele><time>2026-04-04T07:37:24Z</time></trkpt><trkpt lat="44.29869470822414" lon="11.124490603856295"><ele>188.5</ele><time>2026-04-04T07:37:24.999Z</time></trkpt><trkpt lat="44.29874773425796" lon="11.124684298912124"><ele>189.0</ele><time>2026-04-04T07:37:25.999Z</time></trkpt><trkpt lat="44.29879852406713" lon="11.12487029746883"><ele>189.5</ele><time>2026-04-04T07:37:26.999Z</time></trkpt><trkpt lat="44.29885282451576" lon="11.125058286800495"><ele>190.0</ele><time>2026-04-04T07:37:27.999Z</time></trkpt><trkpt lat="44.29889334871805" lon="11.125234680209479"><ele>188.25</ele><time>2026-04-04T07:37:28.999Z</time></trkpt><trkpt lat="44.29893598707786" lon="11.125417510145505"><ele>186.5</ele><time>2026-04-04T07:37:29.999Z</time></trkpt><trkpt lat="44.298977046281664" lon="11.125597493016762"><ele>184.75</ele><time>2026-04-04T07:37:30.999Z</time></trkpt><trkpt lat="44.29902045019689" lon="11.125789148894047"><ele>183.0</ele><time>2026-04-04T07:37:31.999Z</time></trkpt><trkpt lat="44.299055258669625" lon="11.125970281752027"><ele>183.0</ele><time>2026-04-04T07:37:32.999Z</time></trkpt><trkpt lat="44.29907551987054" lon="11.126156603507141"><ele>183.0</ele><time>2026-04-04T07:37:33.999Z</time></trkpt><trkpt lat="44.29908099092082" lon="11.126346248111878"><ele>183.0</ele><time>2026-04-04T07:37:34.999Z</time></trkpt><trkpt lat="44.299074976267406" lon="11.12652119531745"><ele>183.0</ele><time>2026-04-04T07:37:35.999Z</time></trkpt><trkpt lat="44.29906703437057" lon="11.126714562310756"><ele>183.5</ele><time>2026-04-04T07:37:36.999Z</time></trkpt><trkpt lat="44.299064381831435" lon="11.126917812162107"><ele>184.0</ele><time>2026-04-04T07:37:37.999Z</time></trkpt><trkpt lat="44.29906913604894" lon="11.1271137596102"><ele>184.5</ele><time>2026-04-04T07:37:38.999Z</time></trkpt><trkpt lat="44.29908320623707" lon="11.12730819503058"><ele>185.0</ele><time>2026-04-04T07:37:39.999Z</time></trkpt><trkpt lat="44.29908733551109" lon="11.127517205455044"><ele>185.5</ele><time>2026-04-04T07:37:40.999Z</time></trkpt><trkpt lat="44.29910558803062" lon="11.127702442480784"><ele>186.0</ele><time>2026-04-04T07:37:41.999Z</time></trkpt><trkpt lat="44.29914011246824" lon="11.127917400876338"><ele>186.5</ele><time>2026-04-04T07:37:42.999Z</time></trkpt><trkpt lat="44.299167484116076" lon="11.128106103703898"><ele>187.0</ele><time>2026-04-04T07:37:43.999Z</time></trkpt><trkpt lat="44.2991964929999" lon="11.1282912678008"><ele>187.25</ele><time>2026-04-04T07:37:44.999Z</time></trkpt><trkpt lat="44.29922127953771" lon="11.12848456896476"><ele>187.5</ele><time>2026-04-04T07:37:45.999Z</time></trkpt><trkpt lat="44.29923724625928" lon="11.128674595454022"><ele>187.75</ele><time>2026-04-04T07:37:46.999Z</time></trkpt><trkpt lat="44.2992298145741" lon="11.12887375085979"><ele>188.0</ele><time>2026-04-04T07:37:47.999Z</time></trkpt><trkpt lat="44.29921072455925" lon="11.129066550855692"><ele>189.0</ele><time>2026-04-04T07:37:48.999Z</time></trkpt><trkpt lat="44.299173739873915" lon="11.129241571958588"><ele>190.0</ele><time>2026-04-04T07:37:49.999Z</time></trkpt><trkpt lat="44.29912728625336" lon="11.129439414680858"><ele>191.0</ele><time>2026-04-04T07:37:50.999Z</time></trkpt><trkpt lat="44.29910873320044" lon="11.129633441975722"><ele>192.0</ele><time>2026-04-04T07:37:51.999Z</time></trkpt><trkpt lat="44.29912780217829" lon="11.129836811064116"><ele>190.5</ele><time>2026-04-04T07:37:52.999Z</time></trkpt><trkpt lat="44.29914338830995" lon="11.130017721203856"><ele>189.0</ele><time>2026-04-04T07:37:53.999Z</time></trkpt><trkpt lat="44.29916912987917" lon="11.130197730195155"><ele>187.5</ele><time>2026-04-04T07:37:54.999Z</time></trkpt><trkpt lat="44.299172035857026" lon="11.130392530516275"><ele>186.0</ele><time>2026-04-04T07:37:55.999Z</time></trkpt><trkpt lat="44.299160495446465" lon="11.13059345641483"><ele>186.0</ele><time>2026-04-04T07:37:56.999Z</time></trkpt><trkpt lat="44.299180326302256" lon="11.13076912146477"><ele>186.0</ele><time>2026-04-04T07:37:57.999Z</time></trkpt><trkpt lat="44.29920767186547" lon="11.130944769119667"><ele>186.0</ele><time>2026-04-04T07:37:58.999Z</time></trkpt><trkpt lat="44.29924818612598" lon="11.131130189451975"><ele>186.0</ele><time>2026-04-04T07:37:59.999Z</time></trkpt><trkpt lat="44.29929033461463" lon="11.131303364583593"><ele>186.0</ele><time>2026-04-04T07:38:00.999Z</time></trkpt><trkpt lat="44.2993407570392" lon="11.131475485173608"><ele>186.0</ele><time>2026-04-04T07:38:01.999Z</time></trkpt><trkpt lat="44.29938219493806" lon="11.131638776693203"><ele>186.0</ele><time>2026-04-04T07:38:02.999Z</time></trkpt><trkpt lat="44.29941696605274" lon="11.131817308654714"><ele>186.0</ele><time>2026-04-04T07:38:03.999Z</time></trkpt><trkpt lat="44.29945402846807" lon="11.13199280518424"><ele>188.75</ele><time>2026-04-04T07:38:04.999Z</time></trkpt><trkpt lat="44.299488749157305" lon="11.132154718603728"><ele>191.5</ele><time>2026-04-04T07:38:05.999Z</time></trkpt><trkpt lat="44.29950782940449" lon="11.132326403052009"><ele>194.25</ele><time>2026-04-04T07:38:06.999Z</time></trkpt><trkpt lat="44.299527359483285" lon="11.132485858557581"><ele>197.0</ele><time>2026-04-04T07:38:07.999Z</time></trkpt><trkpt lat="44.29954721404589" lon="11.132642871168473"><ele>197.0</ele><time>2026-04-04T07:38:08.999Z</time></trkpt><trkpt lat="44.29956728594626" lon="11.132793140719505"><ele>197.0</ele><time>2026-04-04T07:38:10Z</time></trkpt><trkpt lat="44.29958734417826" lon="11.132955859744955"><ele>197.0</ele><time>2026-04-04T07:38:11Z</time></trkpt><trkpt lat="44.29959577192387" lon="11.133100994115688"><ele>197.0</ele><time>2026-04-04T07:38:12Z</time></trkpt><trkpt lat="44.29962157691889" lon="11.13325506193539"><ele>197.0</ele><time>2026-04-04T07:38:13Z</time></trkpt><trkpt lat="44.299651269702665" lon="11.13338183182651"><ele>195.50000000000003</ele><time>2026-04-04T07:38:14Z</time></trkpt><trkpt lat="44.29960738794081" lon="11.133543985775482"><ele>194.0</ele><time>2026-04-04T07:38:15Z</time></trkpt><trkpt lat="44.299603841185245" lon="11.133678830487893"><ele>192.5</ele><time>2026-04-04T07:38:16Z</time></trkpt><trkpt lat="44.299591251644436" lon="11.13378438366693"><ele>191.0</ele><time>2026-04-04T07:38:17Z</time></trkpt><trkpt lat="44.29958598044082" lon="11.133881440179811"><ele>189.5</ele><time>2026-04-04T07:38:18Z</time></trkpt><trkpt lat="44.2995880884797" lon="11.133984669247997"><ele>188.0</ele><time>2026-04-04T07:38:19Z</time></trkpt><trkpt lat="44.299602928386406" lon="11.134094141292104"><ele>187.5</ele><time>2026-04-04T07:38:20Z</time></trkpt><trkpt lat="44.29962844970095" lon="11.134183080653619"><ele>187.0</ele><time>2026-04-04T07:38:21Z</time></trkpt><trkpt lat="44.299661863091345" lon="11.134274331981606"><ele>186.5</ele><time>2026-04-04T07:38:22Z</time></trkpt><trkpt lat="44.29970346015167" lon="11.134398174316608"><ele>186.0</ele><time>2026-04-04T07:38:23Z</time></trkpt><trkpt lat="44.299734795241626" lon="11.134527538990401"><ele>185.5</ele><time>2026-04-04T07:38:24Z</time></trkpt><trkpt lat="44.2997973082026" lon="11.134640429890624"><ele>185.0</ele><time>2026-04-04T07:38:25Z</time></trkpt><trkpt lat="44.299843575694645" lon="11.134757755783118"><ele>183.25</ele><time>2026-04-04T07:38:26Z</time></trkpt><trkpt lat="44.299893771320356" lon="11.134893999317226"><ele>181.5</ele><time>2026-04-04T07:38:27Z</time></trkpt><trkpt lat="44.29993758729355" lon="11.135047725346356"><ele>179.75</ele><time>2026-04-04T07:38:28Z</time></trkpt><trkpt lat="44.299972300467275" lon="11.13519947447006"><ele>178.0</ele><time>2026-04-04T07:38:29Z</time></trkpt><trkpt lat="44.299992684307846" lon="11.135370609185765"><ele>178.0</ele><time>2026-04-04T07:38:30Z</time></trkpt><trkpt lat="44.30002020678375" lon="11.135543439508268"><ele>178.0</ele><time>2026-04-04T07:38:31Z</time></trkpt><trkpt lat="44.30004036313301" lon="11.135716693702992"><ele>178.0</ele><time>2026-04-04T07:38:32Z</time></trkpt><trkpt lat="44.300062790982075" lon="11.135892317561424"><ele>178.0</ele><time>2026-04-04T07:38:33Z</time></trkpt><trkpt lat="44.300087725712864" lon="11.136064918746015"><ele>178.5</ele><time>2026-04-04T07:38:34Z</time></trkpt><trkpt lat="44.30012176850027" lon="11.136229615063105"><ele>179.0</ele><time>2026-04-04T07:38:35Z</time></trkpt><trkpt lat="44.30015380449039" lon="11.136387850090749"><ele>179.5</ele><time>2026-04-04T07:38:36Z</time></trkpt><trkpt lat="44.30020049901575" lon="11.136554181712665"><ele>180.0</ele><time>2026-04-04T07:38:37Z</time></trkpt><trkpt lat="44.3002427705898" lon="11.136717997285531"><ele>182.0</ele><time>2026-04-04T07:38:38Z</time></trkpt><trkpt lat="44.300289308439055" lon="11.136882588652993"><ele>184.0</ele><time>2026-04-04T07:38:39Z</time></trkpt><trkpt lat="44.300337040543674" lon="11.137041716929339"><ele>186.0</ele><time>2026-04-04T07:38:40Z</time></trkpt><trkpt lat="44.30039691384481" lon="11.137210592705147"><ele>188.0</ele><time>2026-04-04T07:38:41Z</time></trkpt><trkpt lat="44.30044669361008" lon="11.137377050047599"><ele>189.0</ele><time>2026-04-04T07:38:42Z</time></trkpt><trkpt lat="44.30049245838421" lon="11.137558182582103"><ele>190.0</ele><time>2026-04-04T07:38:43Z</time></trkpt><trkpt lat="44.30054821804134" lon="11.137736744048942"><ele>191.0</ele><time>2026-04-04T07:38:44Z</time></trkpt><trkpt lat="44.30060274429682" lon="11.137902864256658"><ele>192.0</ele><time>2026-04-04T07:38:45Z</time></trkpt><trkpt lat="44.300621922544885" lon="11.138088383776653"><ele>187.5</ele><time>2026-04-04T07:38:46Z</time></trkpt><trkpt lat="44.300625590849" lon="11.138277330942715"><ele>183.0</ele><time>2026-04-04T07:38:47Z</time></trkpt><trkpt lat="44.300618159654775" lon="11.138474088558015"><ele>178.5</ele><time>2026-04-04T07:38:48Z</time></trkpt><trkpt lat="44.30061063813321" lon="11.13867051786469"><ele>174.0</ele><time>2026-04-04T07:38:49Z</time></trkpt><trkpt lat="44.30062095999813" lon="11.138838135788504"><ele>174.0</ele><time>2026-04-04T07:38:50Z</time></trkpt><trkpt lat="44.30063685276321" lon="11.13900455102694"><ele>174.0</ele><time>2026-04-04T07:38:51Z</time></trkpt><trkpt lat="44.300665329435255" lon="11.139191288683328"><ele>174.0</ele><time>2026-04-04T07:38:52Z</time></trkpt><trkpt lat="44.300699233020744" lon="11.139374088272373"><ele>174.0</ele><time>2026-04-04T07:38:53Z</time></trkpt><trkpt lat="44.300712099626594" lon="11.139568027591203"><ele>174.75</ele><time>2026-04-04T07:38:54Z</time></trkpt><trkpt lat="44.30073790571552" lon="11.139748198598852"><ele>175.5</ele><time>2026-04-04T07:38:55Z</time></trkpt><trkpt lat="44.30075331755021" lon="11.139927923520911"><ele>176.25</ele><time>2026-04-04T07:38:56Z</time></trkpt><trkpt lat="44.30076828273452" lon="11.140105343197723"><ele>177.0</ele><time>2026-04-04T07:38:57Z</time></trkpt><trkpt lat="44.30077840599729" lon="11.140283685560453"><ele>176.5</ele><time>2026-04-04T07:38:58Z</time></trkpt><trkpt lat="44.30078190984204" lon="11.140446553331406"><ele>176.0</ele><time>2026-04-04T07:38:59Z</time></trkpt><trkpt lat="44.300773465425245" lon="11.140602338845582"><ele>175.5</ele><time>2026-04-04T07:39:00Z</time></trkpt><trkpt lat="44.300751957047225" lon="11.140783652395394"><ele>175.0</ele><time>2026-04-04T07:39:01Z</time></trkpt><trkpt lat="44.30073119134068" lon="11.140959582497121"><ele>175.0</ele><time>2026-04-04T07:39:02Z</time></trkpt><trkpt lat="44.3007022154104" lon="11.14114106703167"><ele>175.0</ele><time>2026-04-04T07:39:03Z</time></trkpt><trkpt lat="44.3006711336058" lon="11.141319048029429"><ele>175.0</ele><time>2026-04-04T07:39:04Z</time></trkpt><trkpt lat="44.3006362666599" lon="11.141504555374793"><ele>175.0</ele><time>2026-04-04T07:39:05Z</time></trkpt><trkpt lat="44.30060537585993" lon="11.141685472518546"><ele>176.5</ele><time>2026-04-04T07:39:06Z</time></trkpt><trkpt lat="44.3005719784258" lon="11.141857099281633"><ele>178.0</ele><time>2026-04-04T07:39:07Z</time></trkpt><trkpt lat="44.30054031034654" lon="11.142044938856177"><ele>179.5</ele><time>2026-04-04T07:39:08Z</time></trkpt><trkpt lat="44.30051612186829" lon="11.142243007493239"><ele>181.0</ele><time>2026-04-04T07:39:09Z</time></trkpt><trkpt lat="44.300482571899806" lon="11.14241768766983"><ele>181.0</ele><time>2026-04-04T07:39:10Z</time></trkpt><trkpt lat="44.30045039265109" lon="11.14259130091703"><ele>181.0</ele><time>2026-04-04T07:39:11Z</time></trkpt><trkpt lat="44.300417996916394" lon="11.142782641501979"><ele>181.0</ele><time>2026-04-04T07:39:12Z</time></trkpt><trkpt lat="44.30039842098564" lon="11.142983062811375"><ele>181.0</ele><time>2026-04-04T07:39:13Z</time></trkpt><trkpt lat="44.30038015692737" lon="11.143156121466541"><ele>180.75</ele><time>2026-04-04T07:39:14Z</time></trkpt><trkpt lat="44.300364905968244" lon="11.143328203470038"><ele>180.5</ele><time>2026-04-04T07:39:15Z</time></trkpt><trkpt lat="44.300348667459645" lon="11.143523121148311"><ele>180.25</ele><time>2026-04-04T07:39:16Z</time></trkpt><trkpt lat="44.30032995583262" lon="11.143718956281353"><ele>180.0</ele><time>2026-04-04T07:39:16.999Z</time></trkpt><trkpt lat="44.30030598792773" lon="11.143916775227108"><ele>181.0</ele><time>2026-04-04T07:39:17.999Z</time></trkpt><trkpt lat="44.30027214388966" lon="11.144123508744181"><ele>182.0</ele><time>2026-04-04T07:39:18.999Z</time></trkpt><trkpt lat="44.30024217217774" lon="11.144309560286427"><ele>183.0</ele><time>2026-04-04T07:39:19.999Z</time></trkpt><trkpt lat="44.30020713873678" lon="11.144492360131764"><ele>184.0</ele><time>2026-04-04T07:39:20.999Z</time></trkpt><trkpt lat="44.300163204157776" lon="11.144678461628548"><ele>184.0</ele><time>2026-04-04T07:39:21.999Z</time></trkpt><trkpt lat="44.30012045844836" lon="11.14484723587076"><ele>184.0</ele><time>2026-04-04T07:39:22.999Z</time></trkpt><trkpt lat="44.30008815227781" lon="11.145031230014782"><ele>184.0</ele><time>2026-04-04T07:39:23.999Z</time></trkpt><trkpt lat="44.300048745370624" lon="11.145214247454666"><ele>184.0</ele><time>2026-04-04T07:39:24.999Z</time></trkpt><trkpt lat="44.30000823830891" lon="11.145397165467713"><ele>183.75</ele><time>2026-04-04T07:39:25.999Z</time></trkpt><trkpt lat="44.299968794144746" lon="11.145578886699518"><ele>183.5</ele><time>2026-04-04T07:39:26.999Z</time></trkpt><trkpt lat="44.29993164267469" lon="11.145757141964115"><ele>183.25</ele><time>2026-04-04T07:39:27.999Z</time></trkpt><trkpt lat="44.29989338626729" lon="11.145931719930966"><ele>183.0</ele><time>2026-04-04T07:39:28.999Z</time></trkpt><trkpt lat="44.29985079683775" lon="11.146097815259093"><ele>182.25</ele><time>2026-04-04T07:39:29.999Z</time></trkpt><trkpt lat="44.299805881965796" lon="11.14627259780637"><ele>181.5</ele><time>2026-04-04T07:39:30.999Z</time></trkpt><trkpt lat="44.29975058606783" lon="11.146447455692952"><ele>180.75</ele><time>2026-04-04T07:39:31.999Z</time></trkpt><trkpt lat="44.29969670452715" lon="11.146624085398706"><ele>180.0</ele><time>2026-04-04T07:39:32.999Z</time></trkpt><trkpt lat="44.29963042519186" lon="11.146799129352159"><ele>180.0</ele><time>2026-04-04T07:39:33.999Z</time></trkpt><trkpt lat="44.29957292104997" lon="11.146982889899935"><ele>180.0</ele><time>2026-04-04T07:39:34.999Z</time></trkpt><trkpt lat="44.29951714199118" lon="11.14715621223559"><ele>180.0</ele><time>2026-04-04T07:39:35.999Z</time></trkpt><trkpt lat="44.299458326229015" lon="11.147320449795368"><ele>180.0</ele><time>2026-04-04T07:39:36.999Z</time></trkpt><trkpt lat="44.299388093639834" lon="11.147475835295792"><ele>178.0</ele><time>2026-04-04T07:39:37.999Z</time></trkpt><trkpt lat="44.29931639166398" lon="11.147617564469229"><ele>176.0</ele><time>2026-04-04T07:39:38.999Z</time></trkpt><trkpt lat="44.29923510299619" lon="11.147749396706097"><ele>174.0</ele><time>2026-04-04T07:39:39.999Z</time></trkpt><trkpt lat="44.29914614528406" lon="11.147889690407101"><ele>172.0</ele><time>2026-04-04T07:39:40.999Z</time></trkpt><trkpt lat="44.299063291749846" lon="11.148021823357512"><ele>172.0</ele><time>2026-04-04T07:39:41.999Z</time></trkpt><trkpt lat="44.298980551917445" lon="11.148138726033263"><ele>172.0</ele><time>2026-04-04T07:39:42.999Z</time></trkpt><trkpt lat="44.29888561361921" lon="11.14823645182804"><ele>172.0</ele><time>2026-04-04T07:39:43.999Z</time></trkpt><trkpt lat="44.29877627883613" lon="11.148321365750167"><ele>172.0</ele><time>2026-04-04T07:39:44.999Z</time></trkpt><trkpt lat="44.298656690459325" lon="11.148379994273759"><ele>174.75</ele><time>2026-04-04T07:39:45.999Z</time></trkpt><trkpt lat="44.298528651107794" lon="11.148408587447541"><ele>177.5</ele><time>2026-04-04T07:39:46.999Z</time></trkpt><trkpt lat="44.29841199264226" lon="11.148463693078668"><ele>180.25</ele><time>2026-04-04T07:39:47.999Z</time></trkpt><trkpt lat="44.29828998588058" lon="11.148527773424806"><ele>183.0</ele><time>2026-04-04T07:39:48.999Z</time></trkpt><trkpt lat="44.29818119480471" lon="11.148614316402947"><ele>187.75</ele><time>2026-04-04T07:39:49.999Z</time></trkpt><trkpt lat="44.298063572101874" lon="11.14868868184735"><ele>192.5</ele><time>2026-04-04T07:39:50.999Z</time></trkpt><trkpt lat="44.297950407353724" lon="11.148766888375023"><ele>197.25</ele><time>2026-04-04T07:39:51.999Z</time></trkpt><trkpt lat="44.29784466612441" lon="11.148851073588078"><ele>202.0</ele><time>2026-04-04T07:39:52.999Z</time></trkpt><trkpt lat="44.297724830348585" lon="11.148933384338044"><ele>202.0</ele><time>2026-04-04T07:39:53.999Z</time></trkpt><trkpt lat="44.29760948479583" lon="11.149004848414974"><ele>202.0</ele><time>2026-04-04T07:39:54.999Z</time></trkpt><trkpt lat="44.297490168640664" lon="11.149052683452279"><ele>202.0</ele><time>2026-04-04T07:39:55.999Z</time></trkpt><trkpt lat="44.29736608644166" lon="11.149066607257124"><ele>202.0</ele><time>2026-04-04T07:39:56.999Z</time></trkpt><trkpt lat="44.297254151584426" lon="11.149092716239728"><ele>200.39999999999998</ele><time>2026-04-04T07:39:57.999Z</time></trkpt><trkpt lat="44.29716440451993" lon="11.149121109306241"><ele>198.79999999999998</ele><time>2026-04-04T07:39:58.999Z</time></trkpt><trkpt lat="44.29710234430126" lon="11.149208186834658"><ele>197.2</ele><time>2026-04-04T07:39:59.999Z</time></trkpt><trkpt lat="44.29707225691946" lon="11.149295123631056"><ele>195.6</ele><time>2026-04-04T07:40:00.999Z</time></trkpt><trkpt lat="44.2970840629389" lon="11.149445330898056"><ele>194.0</ele><time>2026-04-04T07:40:01.999Z</time></trkpt><trkpt lat="44.29717384181894" lon="11.149570600008067"><ele>195.6</ele><time>2026-04-04T07:40:02.999Z</time></trkpt><trkpt lat="44.29727709636637" lon="11.14963999861128"><ele>197.2</ele><time>2026-04-04T07:40:03.999Z</time></trkpt><trkpt lat="44.297375909221216" lon="11.14970123044676"><ele>198.79999999999998</ele><time>2026-04-04T07:40:04.999Z</time></trkpt><trkpt lat="44.297479920772005" lon="11.149742731530488"><ele>200.39999999999998</ele><time>2026-04-04T07:40:05.999Z</time></trkpt><trkpt lat="44.29756211687642" lon="11.149821938759587"><ele>202.0</ele><time>2026-04-04T07:40:06.999Z</time></trkpt><trkpt lat="44.29765929515434" lon="11.149888026018278"><ele>202.0</ele><time>2026-04-04T07:40:07.999Z</time></trkpt><trkpt lat="44.297755860287246" lon="11.149958158001269"><ele>202.0</ele><time>2026-04-04T07:40:08.999Z</time></trkpt><trkpt lat="44.29784896427062" lon="11.150039045682416"><ele>202.0</ele><time>2026-04-04T07:40:09.999Z</time></trkpt><trkpt lat="44.297936388593634" lon="11.150126608271108"><ele>202.0</ele><time>2026-04-04T07:40:10.999Z</time></trkpt><trkpt lat="44.298018031771164" lon="11.150225564377081"><ele>202.0</ele><time>2026-04-04T07:40:11.999Z</time></trkpt><trkpt lat="44.29809571639695" lon="11.150331615362145"><ele>202.39999999999998</ele><time>2026-04-04T07:40:12.999Z</time></trkpt><trkpt lat="44.29816940899873" lon="11.150435292322788"><ele>202.79999999999998</ele><time>2026-04-04T07:40:13.999Z</time></trkpt><trkpt lat="44.29824250901825" lon="11.150542811930366"><ele>203.2</ele><time>2026-04-04T07:40:14.999Z</time></trkpt><trkpt lat="44.298314303317646" lon="11.150650638797245"><ele>203.6</ele><time>2026-04-04T07:40:16Z</time></trkpt><trkpt lat="44.298389638624826" lon="11.150764388691448"><ele>204.0</ele><time>2026-04-04T07:40:17Z</time></trkpt><trkpt lat="44.29846446627309" lon="11.150875667301447"><ele>204.0</ele><time>2026-04-04T07:40:18Z</time></trkpt><trkpt lat="44.29854268121211" lon="11.150979284683695"><ele>204.0</ele><time>2026-04-04T07:40:19Z</time></trkpt><trkpt lat="44.29861974434308" lon="11.151081974284024"><ele>204.0</ele><time>2026-04-04T07:40:20Z</time></trkpt><trkpt lat="44.29870147011598" lon="11.151179596900988"><ele>204.0</ele><time>2026-04-04T07:40:21Z</time></trkpt><trkpt lat="44.298799927409995" lon="11.151242004686093"><ele>204.0</ele><time>2026-04-04T07:40:22Z</time></trkpt><trkpt lat="44.29890191267332" lon="11.151275833063364"><ele>202.6</ele><time>2026-04-04T07:40:23Z</time></trkpt><trkpt lat="44.29901430459481" lon="11.151307181282027"><ele>201.2</ele><time>2026-04-04T07:40:24Z</time></trkpt><trkpt lat="44.29912581996144" lon="11.151333232105939"><ele>199.79999999999998</ele><time>2026-04-04T07:40:25Z</time></trkpt><trkpt lat="44.29923502142479" lon="11.151363510501396"><ele>198.39999999999998</ele><time>2026-04-04T07:40:26Z</time></trkpt><trkpt lat="44.29933338078182" lon="11.15139482915746"><ele>197.0</ele><time>2026-04-04T07:40:27Z</time></trkpt><trkpt lat="44.2994310666681" lon="11.151430622324686"><ele>197.0</ele><time>2026-04-04T07:40:28Z</time></trkpt><trkpt lat="44.299517377825296" lon="11.151500744708695"><ele>197.0</ele><time>2026-04-04T07:40:29Z</time></trkpt><trkpt lat="44.2995872251455" lon="11.151605677900205"><ele>197.0</ele><time>2026-04-04T07:40:30Z</time></trkpt><trkpt lat="44.299625658156906" lon="11.151733166767837"><ele>197.0</ele><time>2026-04-04T07:40:31Z</time></trkpt><trkpt lat="44.29963373927858" lon="11.15186888743061"><ele>197.0</ele><time>2026-04-04T07:40:32Z</time></trkpt><trkpt lat="44.29963705292464" lon="11.152029300929044"><ele>200.0</ele><time>2026-04-04T07:40:33Z</time></trkpt><trkpt lat="44.2996500852994" lon="11.152174112801767"><ele>203.0</ele><time>2026-04-04T07:40:34Z</time></trkpt><trkpt lat="44.29966496594703" lon="11.15231283575614"><ele>206.0</ele><time>2026-04-04T07:40:35Z</time></trkpt><trkpt lat="44.299697252739136" lon="11.152454872661316"><ele>209.0</ele><time>2026-04-04T07:40:36Z</time></trkpt><trkpt lat="44.29975178695973" lon="11.152574098435181"><ele>212.0</ele><time>2026-04-04T07:40:37Z</time></trkpt><trkpt lat="44.299820846761804" lon="11.15266816145265"><ele>213.2</ele><time>2026-04-04T07:40:38Z</time></trkpt><trkpt lat="44.299914313296725" lon="11.15273217836942"><ele>214.39999999999998</ele><time>2026-04-04T07:40:39Z</time></trkpt><trkpt lat="44.30001968325755" lon="11.152757927991445"><ele>215.60000000000002</ele><time>2026-04-04T07:40:40Z</time></trkpt><trkpt lat="44.300130395750784" lon="11.152757563785027"><ele>216.8</ele><time>2026-04-04T07:40:41Z</time></trkpt><trkpt lat="44.30023775176106" lon="11.15276863183737"><ele>218.0</ele><time>2026-04-04T07:40:42Z</time></trkpt><trkpt lat="44.300341000431125" lon="11.152786297016544"><ele>218.0</ele><time>2026-04-04T07:40:43Z</time></trkpt><trkpt lat="44.3004463500274" lon="11.152812575179448"><ele>218.0</ele><time>2026-04-04T07:40:44Z</time></trkpt><trkpt lat="44.30054384225206" lon="11.152858803442072"><ele>218.0</ele><time>2026-04-04T07:40:45Z</time></trkpt><trkpt lat="44.3006279393365" lon="11.152931074640806"><ele>218.0</ele><time>2026-04-04T07:40:46Z</time></trkpt><trkpt lat="44.30070087934174" lon="11.153027065128231"><ele>218.0</ele><time>2026-04-04T07:40:47Z</time></trkpt><trkpt lat="44.30074572846821" lon="11.153141810385904"><ele>219.4</ele><time>2026-04-04T07:40:48Z</time></trkpt><trkpt lat="44.30077677958737" lon="11.153273596573868"><ele>220.8</ele><time>2026-04-04T07:40:49Z</time></trkpt><trkpt lat="44.30078554817972" lon="11.153424052565214"><ele>222.2</ele><time>2026-04-04T07:40:50Z</time></trkpt><trkpt lat="44.30078126692022" lon="11.153585771917559"><ele>223.6</ele><time>2026-04-04T07:40:51Z</time></trkpt><trkpt lat="44.30074845642862" lon="11.153728681981635"><ele>225.0</ele><time>2026-04-04T07:40:52Z</time></trkpt><trkpt lat="44.30069672509575" lon="11.153855268196972"><ele>225.0</ele><time>2026-04-04T07:40:53Z</time></trkpt><trkpt lat="44.30061449371554" lon="11.153955122528362"><ele>225.0</ele><time>2026-04-04T07:40:54Z</time></trkpt><trkpt lat="44.300530998491205" lon="11.154051087149611"><ele>225.0</ele><time>2026-04-04T07:40:55Z</time></trkpt><trkpt lat="44.30044529310897" lon="11.154141130312807"><ele>225.0</ele><time>2026-04-04T07:40:56Z</time></trkpt><trkpt lat="44.30036409539195" lon="11.15423263703532"><ele>225.0</ele><time>2026-04-04T07:40:57Z</time></trkpt><trkpt lat="44.30028542820145" lon="11.15432854627432"><ele>227.8</ele><time>2026-04-04T07:40:58Z</time></trkpt><trkpt lat="44.30020842138371" lon="11.154403161473935"><ele>230.6</ele><time>2026-04-04T07:40:59Z</time></trkpt><trkpt lat="44.30017079761827" lon="11.15452704366842"><ele>233.39999999999998</ele><time>2026-04-04T07:41:00Z</time></trkpt><trkpt lat="44.30017003809259" lon="11.154673901651554"><ele>236.2</ele><time>2026-04-04T07:41:01Z</time></trkpt><trkpt lat="44.30025452692172" lon="11.154798835677221"><ele>239.0</ele><time>2026-04-04T07:41:02Z</time></trkpt><trkpt lat="44.30033278808565" lon="11.154895204051703"><ele>237.79999999999998</ele><time>2026-04-04T07:41:03Z</time></trkpt><trkpt lat="44.3003983334523" lon="11.155006386200752"><ele>236.59999999999997</ele><time>2026-04-04T07:41:04Z</time></trkpt><trkpt lat="44.30046388605769" lon="11.155121372214307"><ele>235.4</ele><time>2026-04-04T07:41:05Z</time></trkpt><trkpt lat="44.30052278973951" lon="11.155241892019806"><ele>234.2</ele><time>2026-04-04T07:41:06Z</time></trkpt><trkpt lat="44.30056891323936" lon="11.1553742479356"><ele>233.0</ele><time>2026-04-04T07:41:07Z</time></trkpt><trkpt lat="44.30058363420952" lon="11.155520437990694"><ele>235.8</ele><time>2026-04-04T07:41:08Z</time></trkpt><trkpt lat="44.3005686032553" lon="11.155664876008645"><ele>238.60000000000002</ele><time>2026-04-04T07:41:09Z</time></trkpt><trkpt lat="44.30053808797604" lon="11.155813000684056"><ele>241.39999999999998</ele><time>2026-04-04T07:41:10Z</time></trkpt><trkpt lat="44.30050350826781" lon="11.155958654447026"><ele>244.2</ele><time>2026-04-04T07:41:11Z</time></trkpt><trkpt lat="44.30047810727312" lon="11.156095012175875"><ele>247.0</ele><time>2026-04-04T07:41:12Z</time></trkpt><trkpt lat="44.30044432412191" lon="11.15622246575676"><ele>248.16666666666666</ele><time>2026-04-04T07:41:13Z</time></trkpt><trkpt lat="44.30041389878869" lon="11.156351159636229"><ele>249.33333333333331</ele><time>2026-04-04T07:41:14Z</time></trkpt><trkpt lat="44.30035544824524" lon="11.15644878820355"><ele>250.5</ele><time>2026-04-04T07:41:15Z</time></trkpt><trkpt lat="44.3002845251838" lon="11.156524410937582"><ele>251.66666666666669</ele><time>2026-04-04T07:41:16Z</time></trkpt><trkpt lat="44.30022984718665" lon="11.15661149710855"><ele>252.83333333333334</ele><time>2026-04-04T07:41:17Z</time></trkpt><trkpt lat="44.30022742889519" lon="11.156726791413538"><ele>254.0</ele><time>2026-04-04T07:41:18Z</time></trkpt><trkpt lat="44.30028119957165" lon="11.156837192565202"><ele>254.6</ele><time>2026-04-04T07:41:19Z</time></trkpt><trkpt lat="44.30038189212745" lon="11.156896265087987"><ele>255.2</ele><time>2026-04-04T07:41:20Z</time></trkpt><trkpt lat="44.300490171531806" lon="11.156952660846207"><ele>255.79999999999998</ele><time>2026-04-04T07:41:21Z</time></trkpt><trkpt lat="44.30059708312117" lon="11.156968562678934"><ele>256.4</ele><time>2026-04-04T07:41:22Z</time></trkpt><trkpt lat="44.30069411098435" lon="11.157003369292392"><ele>257.0</ele><time>2026-04-04T07:41:23Z</time></trkpt><trkpt lat="44.300789596543744" lon="11.157047688306463"><ele>256.0</ele><time>2026-04-04T07:41:24Z</time></trkpt><trkpt lat="44.300883951901504" lon="11.157094623617503"><ele>255.0</ele><time>2026-04-04T07:41:25Z</time></trkpt><trkpt lat="44.300983988132884" lon="11.157182558808309"><ele>254.0</ele><time>2026-04-04T07:41:26Z</time></trkpt><trkpt lat="44.301041149971844" lon="11.157298558245628"><ele>253.0</ele><time>2026-04-04T07:41:27Z</time></trkpt><trkpt lat="44.30110187273336" lon="11.157409273747126"><ele>252.0</ele><time>2026-04-04T07:41:28Z</time></trkpt><trkpt lat="44.3011650663483" lon="11.157523789403545"><ele>252.0</ele><time>2026-04-04T07:41:29Z</time></trkpt><trkpt lat="44.301232910648146" lon="11.157656833538908"><ele>252.0</ele><time>2026-04-04T07:41:29.999Z</time></trkpt><trkpt lat="44.30130685847606" lon="11.157792620719707"><ele>252.0</ele><time>2026-04-04T07:41:30.999Z</time></trkpt><trkpt lat="44.30137440053225" lon="11.157929890773255"><ele>252.0</ele><time>2026-04-04T07:41:31.999Z</time></trkpt><trkpt lat="44.301410191192524" lon="11.158085014333366"><ele>245.75</ele><time>2026-04-04T07:41:32.999Z</time></trkpt><trkpt lat="44.30144533800014" lon="11.15825177555379"><ele>239.5</ele><time>2026-04-04T07:41:33.999Z</time></trkpt><trkpt lat="44.30148356924989" lon="11.158424458305017"><ele>233.25</ele><time>2026-04-04T07:41:34.999Z</time></trkpt><trkpt lat="44.30152923741641" lon="11.158595568565563"><ele>227.0</ele><time>2026-04-04T07:41:35.999Z</time></trkpt><trkpt lat="44.30157903351446" lon="11.158763747726413"><ele>227.0</ele><time>2026-04-04T07:41:36.999Z</time></trkpt><trkpt lat="44.30163195392589" lon="11.158924316595595"><ele>227.0</ele><time>2026-04-04T07:41:37.999Z</time></trkpt><trkpt lat="44.30168601338818" lon="11.159088767489418"><ele>227.0</ele><time>2026-04-04T07:41:38.999Z</time></trkpt><trkpt lat="44.30172436197562" lon="11.159249691899754"><ele>227.0</ele><time>2026-04-04T07:41:39.999Z</time></trkpt><trkpt lat="44.30175505563881" lon="11.159406904560019"><ele>227.25</ele><time>2026-04-04T07:41:40.999Z</time></trkpt><trkpt lat="44.30179927274125" lon="11.159564684671322"><ele>227.5</ele><time>2026-04-04T07:41:41.999Z</time></trkpt><trkpt lat="44.3018442883688" lon="11.15973894992968"><ele>227.75</ele><time>2026-04-04T07:41:42.999Z</time></trkpt><trkpt lat="44.3018774258037" lon="11.159910613446385"><ele>228.0</ele><time>2026-04-04T07:41:43.999Z</time></trkpt><trkpt lat="44.30192698666518" lon="11.16004676839251"><ele>228.60000000000002</ele><time>2026-04-04T07:41:44.999Z</time></trkpt><trkpt lat="44.301994786747116" lon="11.160172588015465"><ele>229.20000000000002</ele><time>2026-04-04T07:41:45.999Z</time></trkpt><trkpt lat="44.302067431345485" lon="11.160276384360271"><ele>229.8</ele><time>2026-04-04T07:41:46.999Z</time></trkpt><trkpt lat="44.30214421241346" lon="11.160361122522636"><ele>230.4</ele><time>2026-04-04T07:41:47.999Z</time></trkpt><trkpt lat="44.302220782519896" lon="11.160432941092537"><ele>231.0</ele><time>2026-04-04T07:41:48.999Z</time></trkpt><trkpt lat="44.302297986996216" lon="11.160511902531251"><ele>231.25</ele><time>2026-04-04T07:41:49.999Z</time></trkpt><trkpt lat="44.302376012450026" lon="11.160598587271132"><ele>231.5</ele><time>2026-04-04T07:41:50.999Z</time></trkpt><trkpt lat="44.30248263674263" lon="11.160667843601784"><ele>231.75</ele><time>2026-04-04T07:41:51.999Z</time></trkpt><trkpt lat="44.302591113050056" lon="11.160732655601798"><ele>232.0</ele><time>2026-04-04T07:41:52.999Z</time></trkpt><trkpt lat="44.30270128582274" lon="11.160794468412613"><ele>232.0</ele><time>2026-04-04T07:41:53.999Z</time></trkpt><trkpt lat="44.302817006301794" lon="11.160850663010933"><ele>232.0</ele><time>2026-04-04T07:41:54.999Z</time></trkpt><trkpt lat="44.30292749784771" lon="11.160913991465291"><ele>232.0</ele><time>2026-04-04T07:41:55.999Z</time></trkpt><trkpt lat="44.303040744034064" lon="11.160978486527695"><ele>232.0</ele><time>2026-04-04T07:41:56.999Z</time></trkpt><trkpt lat="44.303143889062255" lon="11.161043090606023"><ele>229.25</ele><time>2026-04-04T07:41:57.999Z</time></trkpt><trkpt lat="44.30325198085467" lon="11.161108502949226"><ele>226.5</ele><time>2026-04-04T07:41:58.999Z</time></trkpt><trkpt lat="44.303364553439" lon="11.161177676442897"><ele>223.75</ele><time>2026-04-04T07:41:59.999Z</time></trkpt><trkpt lat="44.30346308859417" lon="11.161231017566262"><ele>221.0</ele><time>2026-04-04T07:42:00.999Z</time></trkpt><trkpt lat="44.30356544416576" lon="11.161293953649722"><ele>221.0</ele><time>2026-04-04T07:42:01.999Z</time></trkpt><trkpt lat="44.30368615272036" lon="11.161341120269412"><ele>221.0</ele><time>2026-04-04T07:42:02.999Z</time></trkpt><trkpt lat="44.30380342156829" lon="11.161385323028023"><ele>221.0</ele><time>2026-04-04T07:42:03.999Z</time></trkpt><trkpt lat="44.30392724094904" lon="11.161412789520977"><ele>221.0</ele><time>2026-04-04T07:42:04.999Z</time></trkpt><trkpt lat="44.304051701776906" lon="11.161426673377933"><ele>218.25</ele><time>2026-04-04T07:42:05.999Z</time></trkpt><trkpt lat="44.30416247573896" lon="11.161463166015368"><ele>215.5</ele><time>2026-04-04T07:42:06.999Z</time></trkpt><trkpt lat="44.30428656049974" lon="11.161481212586951"><ele>212.75</ele><time>2026-04-04T07:42:07.999Z</time></trkpt><trkpt lat="44.30440274356675" lon="11.16149725433953"><ele>210.0</ele><time>2026-04-04T07:42:08.999Z</time></trkpt><trkpt lat="44.304521140724724" lon="11.161515736992172"><ele>213.5</ele><time>2026-04-04T07:42:09.999Z</time></trkpt><trkpt lat="44.30464009664388" lon="11.161538848655999"><ele>217.0</ele><time>2026-04-04T07:42:10.999Z</time></trkpt><trkpt lat="44.30475743514445" lon="11.161579678020587"><ele>220.5</ele><time>2026-04-04T07:42:11.999Z</time></trkpt><trkpt lat="44.30486730858166" lon="11.161568792209751"><ele>224.0</ele><time>2026-04-04T07:42:12.999Z</time></trkpt><trkpt lat="44.30498803131709" lon="11.161582829540958"><ele>224.0</ele><time>2026-04-04T07:42:13.999Z</time></trkpt><trkpt lat="44.30510043426431" lon="11.161614852644357"><ele>224.0</ele><time>2026-04-04T07:42:14.999Z</time></trkpt><trkpt lat="44.30519513416855" lon="11.161654370694034"><ele>224.0</ele><time>2026-04-04T07:42:15.999Z</time></trkpt><trkpt lat="44.30531742411841" lon="11.16171518905868"><ele>224.0</ele><time>2026-04-04T07:42:16.999Z</time></trkpt><trkpt lat="44.30542104405025" lon="11.161770623706468"><ele>224.0</ele><time>2026-04-04T07:42:17.999Z</time></trkpt><trkpt lat="44.305530205071996" lon="11.161798981155863"><ele>224.0</ele><time>2026-04-04T07:42:18.999Z</time></trkpt><trkpt lat="44.30564094578487" lon="11.161832670866119"><ele>224.0</ele><time>2026-04-04T07:42:19.999Z</time></trkpt><trkpt lat="44.30576906287617" lon="11.161806568675123"><ele>224.0</ele><time>2026-04-04T07:42:20.999Z</time></trkpt><trkpt lat="44.30588887728896" lon="11.16176891908545"><ele>222.75</ele><time>2026-04-04T07:42:22Z</time></trkpt><trkpt lat="44.306018974237205" lon="11.161735295169926"><ele>221.5</ele><time>2026-04-04T07:42:23Z</time></trkpt><trkpt lat="44.306156305776476" lon="11.161702335580648"><ele>220.25</ele><time>2026-04-04T07:42:24Z</time></trkpt><trkpt lat="44.30628177501405" lon="11.16167303155245"><ele>219.0</ele><time>2026-04-04T07:42:25Z</time></trkpt><trkpt lat="44.3064200537207" lon="11.161641664997003"><ele>217.5</ele><time>2026-04-04T07:42:26Z</time></trkpt><trkpt lat="44.30654856536799" lon="11.161600522982136"><ele>216.0</ele><time>2026-04-04T07:42:27Z</time></trkpt><trkpt lat="44.30668012459045" lon="11.161578018743803"><ele>214.5</ele><time>2026-04-04T07:42:28Z</time></trkpt><trkpt lat="44.306806623214925" lon="11.161555651303685"><ele>213.0</ele><time>2026-04-04T07:42:29Z</time></trkpt><trkpt lat="44.306928332165626" lon="11.161540457561637"><ele>213.0</ele><time>2026-04-04T07:42:30Z</time></trkpt><trkpt lat="44.30706053667129" lon="11.161531804090494"><ele>213.0</ele><time>2026-04-04T07:42:31Z</time></trkpt><trkpt lat="44.30716193824926" lon="11.161609597783654"><ele>213.0</ele><time>2026-04-04T07:42:32Z</time></trkpt><trkpt lat="44.30725845672048" lon="11.161714479677526"><ele>213.0</ele><time>2026-04-04T07:42:33Z</time></trkpt><trkpt lat="44.307359226872066" lon="11.161813605372586"><ele>210.5</ele><time>2026-04-04T07:42:34Z</time></trkpt><trkpt lat="44.30746495729495" lon="11.161929963953522"><ele>208.0</ele><time>2026-04-04T07:42:35Z</time></trkpt><trkpt lat="44.30757473026747" lon="11.162043015206551"><ele>205.5</ele><time>2026-04-04T07:42:36Z</time></trkpt><trkpt lat="44.30766786015689" lon="11.162132963335495"><ele>203.0</ele><time>2026-04-04T07:42:37Z</time></trkpt><trkpt lat="44.30776575331891" lon="11.162225433416602"><ele>203.0</ele><time>2026-04-04T07:42:38Z</time></trkpt><trkpt lat="44.30787810375245" lon="11.162248790518266"><ele>203.0</ele><time>2026-04-04T07:42:39Z</time></trkpt><trkpt lat="44.307973830441206" lon="11.162281984791075"><ele>203.0</ele><time>2026-04-04T07:42:40Z</time></trkpt><trkpt lat="44.30806322459033" lon="11.162335981249663"><ele>203.0</ele><time>2026-04-04T07:42:41Z</time></trkpt><trkpt lat="44.30814589964338" lon="11.162428140644126"><ele>203.0</ele><time>2026-04-04T07:42:42Z</time></trkpt><trkpt lat="44.30820712195916" lon="11.162559649627191"><ele>202.4</ele><time>2026-04-04T07:42:43Z</time></trkpt><trkpt lat="44.30828631618098" lon="11.162689907199924"><ele>201.8</ele><time>2026-04-04T07:42:44Z</time></trkpt><trkpt lat="44.3083638388866" lon="11.162791355114479"><ele>201.2</ele><time>2026-04-04T07:42:45Z</time></trkpt><trkpt lat="44.30845763211278" lon="11.162876736081099"><ele>200.6</ele><time>2026-04-04T07:42:46Z</time></trkpt><trkpt lat="44.30855007146346" lon="11.162936992027982"><ele>200.0</ele><time>2026-04-04T07:42:47Z</time></trkpt><trkpt lat="44.30863744163377" lon="11.16298745981983"><ele>200.00000000000003</ele><time>2026-04-04T07:42:48Z</time></trkpt><trkpt lat="44.308724152630845" lon="11.163034800871712"><ele>200.0</ele><time>2026-04-04T07:42:49Z</time></trkpt><trkpt lat="44.30879749156508" lon="11.163081835157017"><ele>200.0</ele><time>2026-04-04T07:42:50Z</time></trkpt><trkpt lat="44.308857477362004" lon="11.163144307138143"><ele>200.0</ele><time>2026-04-04T07:42:51Z</time></trkpt><trkpt lat="44.308922582071965" lon="11.163211532730973"><ele>200.00000000000003</ele><time>2026-04-04T07:42:52Z</time></trkpt><trkpt lat="44.30897568173938" lon="11.16327782921156"><ele>200.0</ele><time>2026-04-04T07:42:53Z</time></trkpt><trkpt lat="44.30902697436406" lon="11.163348269623059"><ele>199.33333333333334</ele><time>2026-04-04T07:42:54Z</time></trkpt><trkpt lat="44.30907092642044" lon="11.16341714617621"><ele>198.66666666666669</ele><time>2026-04-04T07:42:55Z</time></trkpt><trkpt lat="44.309116283405295" lon="11.163483026922698"><ele>198.0</ele><time>2026-04-04T07:42:56Z</time></trkpt><trkpt lat="44.309213904648104" lon="11.163575811825478"><ele>197.33333333333331</ele><time>2026-04-04T07:42:58Z</time></trkpt><trkpt lat="44.30927712100705" lon="11.163561764183715"><ele>196.66666666666666</ele><time>2026-04-04T07:42:59Z</time></trkpt><trkpt lat="44.309390735056546" lon="11.163467318209161"><ele>196.0</ele><time>2026-04-04T07:43:01Z</time></trkpt><trkpt lat="44.30946932343439" lon="11.163452342800678"><ele>195.99999999999997</ele><time>2026-04-04T07:43:02Z</time></trkpt><trkpt lat="44.309532960632644" lon="11.163462102957704"><ele>196.0</ele><time>2026-04-04T07:43:03Z</time></trkpt><trkpt lat="44.30961286133759" lon="11.16345138624718"><ele>196.0</ele><time>2026-04-04T07:43:04Z</time></trkpt><trkpt lat="44.30967747496353" lon="11.16342504959651"><ele>196.0</ele><time>2026-04-04T07:43:05Z</time></trkpt><trkpt lat="44.30975681345664" lon="11.16339994715549"><ele>195.99999999999997</ele><time>2026-04-04T07:43:06Z</time></trkpt><trkpt lat="44.30983694055534" lon="11.163367129342454"><ele>196.0</ele><time>2026-04-04T07:43:07Z</time></trkpt><trkpt lat="44.30993131646621" lon="11.163343596435299"><ele>193.8</ele><time>2026-04-04T07:43:08Z</time></trkpt><trkpt lat="44.31001467776406" lon="11.163326654445614"><ele>191.60000000000002</ele><time>2026-04-04T07:43:09Z</time></trkpt><trkpt lat="44.31010272623861" lon="11.163323999386458"><ele>189.4</ele><time>2026-04-04T07:43:10Z</time></trkpt><trkpt lat="44.3102038230482" lon="11.16331942926759"><ele>187.2</ele><time>2026-04-04T07:43:11Z</time></trkpt><trkpt lat="44.310296844704716" lon="11.163303066335438"><ele>185.0</ele><time>2026-04-04T07:43:12Z</time></trkpt><trkpt lat="44.31039527021311" lon="11.163280890102355"><ele>185.0</ele><time>2026-04-04T07:43:13Z</time></trkpt><trkpt lat="44.310504700547526" lon="11.163230536790241"><ele>185.0</ele><time>2026-04-04T07:43:14Z</time></trkpt><trkpt lat="44.31059260413481" lon="11.163171774122453"><ele>185.0</ele><time>2026-04-04T07:43:15Z</time></trkpt><trkpt lat="44.310686676179294" lon="11.163038680991898"><ele>185.0</ele><time>2026-04-04T07:43:17Z</time></trkpt><trkpt lat="44.31067312991578" lon="11.1628860650729"><ele>183.8</ele><time>2026-04-04T07:43:18Z</time></trkpt><trkpt lat="44.31062195356027" lon="11.162768992736277"><ele>182.6</ele><time>2026-04-04T07:43:19Z</time></trkpt><trkpt lat="44.31057230145297" lon="11.16265262504475"><ele>181.39999999999998</ele><time>2026-04-04T07:43:20Z</time></trkpt><trkpt lat="44.31054743823173" lon="11.162545416626703"><ele>180.2</ele><time>2026-04-04T07:43:21Z</time></trkpt><trkpt lat="44.31055690149479" lon="11.162414724148269"><ele>179.0</ele><time>2026-04-04T07:43:22Z</time></trkpt><trkpt lat="44.310610514393524" lon="11.16231737163611"><ele>176.33333333333331</ele><time>2026-04-04T07:43:23Z</time></trkpt><trkpt lat="44.31068512112074" lon="11.16227020555069"><ele>173.66666666666666</ele><time>2026-04-04T07:43:24Z</time></trkpt><trkpt lat="44.31077997525302" lon="11.162219754653076"><ele>171.0</ele><time>2026-04-04T07:43:25Z</time></trkpt><trkpt lat="44.3108610075934" lon="11.162131386670547"><ele>168.33333333333334</ele><time>2026-04-04T07:43:26Z</time></trkpt><trkpt lat="44.31094440916174" lon="11.16211610200926"><ele>165.66666666666669</ele><time>2026-04-04T07:43:27Z</time></trkpt><trkpt lat="44.311020679255606" lon="11.162136345055695"><ele>163.0</ele><time>2026-04-04T07:43:28Z</time></trkpt><trkpt lat="44.31103786386179" lon="11.162271004460385"><ele>163.4</ele><time>2026-04-04T07:43:29Z</time></trkpt><trkpt lat="44.31112965433732" lon="11.162389055185997"><ele>163.8</ele><time>2026-04-04T07:43:31Z</time></trkpt><trkpt lat="44.311209127633134" lon="11.162461411902859"><ele>164.2</ele><time>2026-04-04T07:43:32Z</time></trkpt><trkpt lat="44.31127518698168" lon="11.162576208807375"><ele>164.6</ele><time>2026-04-04T07:43:33Z</time></trkpt><trkpt lat="44.311345951248256" lon="11.162667845139028"><ele>165.0</ele><time>2026-04-04T07:43:34Z</time></trkpt><trkpt lat="44.31142438568051" lon="11.162769414612754"><ele>163.66666666666666</ele><time>2026-04-04T07:43:35Z</time></trkpt><trkpt lat="44.31149739249238" lon="11.162863955247674"><ele>162.33333333333334</ele><time>2026-04-04T07:43:36Z</time></trkpt><trkpt lat="44.31157655496402" lon="11.16294192525487"><ele>161.0</ele><time>2026-04-04T07:43:37Z</time></trkpt><trkpt lat="44.31163971242011" lon="11.163028040415332"><ele>159.66666666666669</ele><time>2026-04-04T07:43:38Z</time></trkpt><trkpt lat="44.31169573034361" lon="11.163122136420307"><ele>158.33333333333334</ele><time>2026-04-04T07:43:39Z</time></trkpt><trkpt lat="44.31173333971077" lon="11.163199284180918"><ele>157.0</ele><time>2026-04-04T07:43:40Z</time></trkpt><trkpt lat="44.3118666347119" lon="11.163031328685936"><ele>157.0</ele><time>2026-04-04T07:43:44.999Z</time></trkpt><trkpt lat="44.311846983677704" lon="11.162926937868505"><ele>157.0</ele><time>2026-04-04T07:43:45.999Z</time></trkpt><trkpt lat="44.311762022738144" lon="11.162759850149033"><ele>157.0</ele><time>2026-04-04T07:43:47.999Z</time></trkpt><trkpt lat="44.31171833153028" lon="11.162684440769413"><ele>157.0</ele><time>2026-04-04T07:43:48.999Z</time></trkpt><trkpt lat="44.311710786286426" lon="11.162584701394104"><ele>157.0</ele><time>2026-04-04T07:43:49.999Z</time></trkpt><trkpt lat="44.31166648272172" lon="11.162429417415403"><ele>157.0</ele><time>2026-04-04T07:43:51.999Z</time></trkpt><trkpt lat="44.31162919847641" lon="11.162253499197332"><ele>157.0</ele><time>2026-04-04T07:43:53.999Z</time></trkpt><trkpt lat="44.31159418194226" lon="11.16209042458075"><ele>157.0</ele><time>2026-04-04T07:43:55.999Z</time></trkpt><trkpt lat="44.31156577300563" lon="11.161998760622266"><ele>157.0</ele><time>2026-04-04T07:43:56.999Z</time></trkpt><trkpt lat="44.311535312345974" lon="11.161830731648605"><ele>157.0</ele><time>2026-04-04T07:43:58.999Z</time></trkpt><trkpt lat="44.31152703950569" lon="11.161730673900058"><ele>157.0</ele><time>2026-04-04T07:43:59.999Z</time></trkpt><trkpt lat="44.31150077069905" lon="11.161640020105825"><ele>157.0</ele><time>2026-04-04T07:44:00.999Z</time></trkpt><trkpt lat="44.31146840404964" lon="11.16147437821689"><ele>157.0</ele><time>2026-04-04T07:44:02.999Z</time></trkpt><trkpt lat="44.311450916214504" lon="11.161387573951565"><ele>157.0</ele><time>2026-04-04T07:44:03.999Z</time></trkpt><trkpt lat="44.311419549205475" lon="11.161229589951336"><ele>157.0</ele><time>2026-04-04T07:44:05.999Z</time></trkpt><trkpt lat="44.311380433459696" lon="11.161082672055342"><ele>156.85714285714283</ele><time>2026-04-04T07:44:07.999Z</time></trkpt><trkpt lat="44.31137175475197" lon="11.16098191074514"><ele>156.71428571428572</ele><time>2026-04-04T07:46:56Z</time></trkpt><trkpt lat="44.31139341963213" lon="11.161065902376855"><ele>156.57142857142856</ele><time>2026-04-04T07:47:23Z</time></trkpt><trkpt lat="44.31132524081155" lon="11.161085502809712"><ele>156.42857142857142</ele><time>2026-04-04T07:51:17Z</time></trkpt><trkpt lat="44.311394597709146" lon="11.161027568958042"><ele>156.28571428571428</ele><time>2026-04-04T07:51:35Z</time></trkpt><trkpt lat="44.31134863868898" lon="11.161091082787452"><ele>156.14285714285714</ele><time>2026-04-04T07:52:35.999Z</time></trkpt><trkpt lat="44.3113728844866" lon="11.161187504252124"><ele>156.0</ele><time>2026-04-04T07:52:47.999Z</time></trkpt><trkpt lat="44.31141929550058" lon="11.16134618958626"><ele>156.0</ele><time>2026-04-04T07:52:49.999Z</time></trkpt><trkpt lat="44.311433013062995" lon="11.161432563162167"><ele>156.0</ele><time>2026-04-04T07:52:50.999Z</time></trkpt><trkpt lat="44.31146526870468" lon="11.161533395897047"><ele>156.0</ele><time>2026-04-04T07:52:52Z</time></trkpt><trkpt lat="44.3114815073218" lon="11.161624014595523"><ele>156.0</ele><time>2026-04-04T07:52:53Z</time></trkpt><trkpt lat="44.31149126526134" lon="11.161719193595182"><ele>156.0</ele><time>2026-04-04T07:52:54Z</time></trkpt><trkpt lat="44.311524835503796" lon="11.161803755548574"><ele>156.0</ele><time>2026-04-04T07:52:55Z</time></trkpt><trkpt lat="44.31153549612065" lon="11.16189320826074"><ele>156.0</ele><time>2026-04-04T07:52:56Z</time></trkpt><trkpt lat="44.31155651482558" lon="11.16199073050811"><ele>156.14285714285714</ele><time>2026-04-04T07:52:57Z</time></trkpt><trkpt lat="44.3115743647612" lon="11.162078415545201"><ele>156.28571428571428</ele><time>2026-04-04T07:52:58Z</time></trkpt><trkpt lat="44.31158757387339" lon="11.162167219923775"><ele>156.42857142857142</ele><time>2026-04-04T07:52:59Z</time></trkpt><trkpt lat="44.311590203206315" lon="11.162256662109991"><ele>156.57142857142856</ele><time>2026-04-04T07:53:00Z</time></trkpt><trkpt lat="44.311603871940896" lon="11.162351588444587"><ele>156.71428571428572</ele><time>2026-04-04T07:53:01Z</time></trkpt><trkpt lat="44.3116344463603" lon="11.162438601305153"><ele>156.85714285714283</ele><time>2026-04-04T07:53:02Z</time></trkpt><trkpt lat="44.311657750572124" lon="11.162530140851471"><ele>157.0</ele><time>2026-04-04T07:53:03Z</time></trkpt><trkpt lat="44.3116904976132" lon="11.162627444025839"><ele>157.0</ele><time>2026-04-04T07:53:04Z</time></trkpt><trkpt lat="44.31175876953916" lon="11.16273562604201"><ele>157.0</ele><time>2026-04-04T07:53:06Z</time></trkpt><trkpt lat="44.31185261204431" lon="11.162831090022035"><ele>157.0</ele><time>2026-04-04T07:53:08Z</time></trkpt><trkpt lat="44.311870469473796" lon="11.163053734344235"><ele>157.0</ele><time>2026-04-04T07:53:10Z</time></trkpt><trkpt lat="44.31191031942239" lon="11.163203759535708"><ele>157.0</ele><time>2026-04-04T07:53:12Z</time></trkpt><trkpt lat="44.31190817693984" lon="11.163427998887062"><ele>157.0</ele><time>2026-04-04T07:53:14Z</time></trkpt><trkpt lat="44.311838075697985" lon="11.16333806340622"><ele>157.0</ele><time>2026-04-04T07:53:16Z</time></trkpt><trkpt lat="44.31177964491454" lon="11.16324087183918"><ele>157.0</ele><time>2026-04-04T07:53:17Z</time></trkpt><trkpt lat="44.31163434257495" lon="11.163108173781177"><ele>157.0</ele><time>2026-04-04T07:53:18Z</time></trkpt><trkpt lat="44.311831274499184" lon="11.163429541222042"><ele>157.0</ele><time>2026-04-04T07:53:20Z</time></trkpt><trkpt lat="44.311880658313676" lon="11.163532413446271"><ele>157.0</ele><time>2026-04-04T07:53:21Z</time></trkpt><trkpt lat="44.31194492034101" lon="11.163622721614635"><ele>157.0</ele><time>2026-04-04T07:53:22Z</time></trkpt><trkpt lat="44.3120175117554" lon="11.163726347698127"><ele>157.0</ele><time>2026-04-04T07:53:23Z</time></trkpt><trkpt lat="44.312164603238024" lon="11.163782016256382"><ele>157.0</ele><time>2026-04-04T07:53:24Z</time></trkpt><trkpt lat="44.312282852804785" lon="11.163932335100384"><ele>157.0</ele><time>2026-04-04T07:53:25Z</time></trkpt><trkpt lat="44.31237707535052" lon="11.164054460866192"><ele>156.6</ele><time>2026-04-04T07:53:26Z</time></trkpt><trkpt lat="44.31246377158243" lon="11.164161606066958"><ele>156.2</ele><time>2026-04-04T07:53:27Z</time></trkpt><trkpt lat="44.31253086309826" lon="11.164247667461092"><ele>155.8</ele><time>2026-04-04T07:53:28Z</time></trkpt><trkpt lat="44.312580098574166" lon="11.164342961876574"><ele>155.4</ele><time>2026-04-04T07:53:29Z</time></trkpt><trkpt lat="44.31264244055409" lon="11.164439339103309"><ele>155.0</ele><time>2026-04-04T07:53:30Z</time></trkpt><trkpt lat="44.31270716384613" lon="11.16455408622814"><ele>155.0</ele><time>2026-04-04T07:53:31Z</time></trkpt><trkpt lat="44.31276249657418" lon="11.164660655839201"><ele>155.0</ele><time>2026-04-04T07:53:32Z</time></trkpt><trkpt lat="44.31279699658559" lon="11.164750401732796"><ele>155.0</ele><time>2026-04-04T07:53:33Z</time></trkpt><trkpt lat="44.312823724854546" lon="11.164836579324696"><ele>155.0</ele><time>2026-04-04T07:53:35Z</time></trkpt><trkpt lat="44.31266019013089" lon="11.16484023763709"><ele>155.0</ele><time>2026-04-04T07:53:36Z</time></trkpt><trkpt lat="44.31260231093296" lon="11.164893157303673"><ele>155.0</ele><time>2026-04-04T07:53:37Z</time></trkpt><trkpt lat="44.31250698296419" lon="11.164944823936953"><ele>155.0</ele><time>2026-04-04T07:53:39Z</time></trkpt><trkpt lat="44.31243287510255" lon="11.164959336403927"><ele>155.0</ele><time>2026-04-04T07:53:42Z</time></trkpt><trkpt lat="44.31238168221772" lon="11.164691635240715"><ele>155.0</ele><time>2026-04-04T07:53:43Z</time></trkpt><trkpt lat="44.312339752895916" lon="11.164585979040325"><ele>155.0</ele><time>2026-04-04T07:53:44Z</time></trkpt><trkpt lat="44.3123559404921" lon="11.16449824952514"><ele>155.0</ele><time>2026-04-04T07:53:45Z</time></trkpt><trkpt lat="44.312348927747" lon="11.164400334819256"><ele>155.0</ele><time>2026-04-04T07:53:46Z</time></trkpt><trkpt lat="44.31237328907155" lon="11.164315108531778"><ele>155.0</ele><time>2026-04-04T07:53:47Z</time></trkpt><trkpt lat="44.312438966623205" lon="11.164263602065908"><ele>155.0</ele><time>2026-04-04T07:53:48Z</time></trkpt><trkpt lat="44.31251455639738" lon="11.164178605341533"><ele>155.0</ele><time>2026-04-04T07:53:49Z</time></trkpt><trkpt lat="44.31261800363693" lon="11.164079968283563"><ele>155.2</ele><time>2026-04-04T07:53:51.026Z</time></trkpt><trkpt lat="44.31266504280185" lon="11.164021271059434"><ele>155.4</ele><time>2026-04-04T07:53:52.02Z</time></trkpt><trkpt lat="44.3127256761954" lon="11.163945610450785"><ele>155.6</ele><time>2026-04-04T07:53:54.02Z</time></trkpt><trkpt lat="44.31280617473399" lon="11.163862680316464"><ele>155.8</ele><time>2026-04-04T07:53:55.021Z</time></trkpt><trkpt lat="44.312874308220486" lon="11.163782748734873"><ele>156.0</ele><time>2026-04-04T07:53:58Z</time></trkpt><trkpt lat="44.31288193835894" lon="11.163605772942214"><ele>156.0</ele><time>2026-04-04T07:54:00Z</time></trkpt><trkpt lat="44.31289057266253" lon="11.163511138487209"><ele>156.0</ele><time>2026-04-04T07:54:01.018Z</time></trkpt><trkpt lat="44.31284494014051" lon="11.163449283532968"><ele>156.0</ele><time>2026-04-04T07:54:03.999Z</time></trkpt><trkpt lat="44.312934684323665" lon="11.163453321658814"><ele>156.0</ele><time>2026-04-04T07:54:05.999Z</time></trkpt><trkpt lat="44.31302643078115" lon="11.163895878072887"><ele>158.4</ele><time>2026-04-04T07:54:06.999Z</time></trkpt><trkpt lat="44.31315027382354" lon="11.163929421286646"><ele>160.8</ele><time>2026-04-04T07:54:07.999Z</time></trkpt><trkpt lat="44.31319759420451" lon="11.164015302364465"><ele>163.20000000000002</ele><time>2026-04-04T07:54:08.999Z</time></trkpt><trkpt lat="44.31326026373736" lon="11.164150673482924"><ele>165.6</ele><time>2026-04-04T07:54:09.999Z</time></trkpt><trkpt lat="44.313307182293165" lon="11.16425170729585"><ele>168.0</ele><time>2026-04-04T07:54:10.999Z</time></trkpt><trkpt lat="44.31335725943308" lon="11.164355740316404"><ele>168.0</ele><time>2026-04-04T07:54:11.999Z</time></trkpt><trkpt lat="44.313401484185725" lon="11.164447657618675"><ele>168.0</ele><time>2026-04-04T07:54:12.999Z</time></trkpt><trkpt lat="44.31343556631981" lon="11.164530681292737"><ele>168.0</ele><time>2026-04-04T07:54:13.999Z</time></trkpt><trkpt lat="44.31352447777947" lon="11.164554442829996"><ele>168.0</ele><time>2026-04-04T07:54:14.999Z</time></trkpt><trkpt lat="44.3135977602186" lon="11.164665346744954"><ele>168.0</ele><time>2026-04-04T07:54:16.999Z</time></trkpt><trkpt lat="44.313802942230694" lon="11.164422738330995"><ele>168.0</ele><time>2026-04-04T07:54:18.999Z</time></trkpt><trkpt lat="44.313863785413304" lon="11.16439742458393"><ele>168.0</ele><time>2026-04-04T07:54:19.999Z</time></trkpt><trkpt lat="44.313962617213875" lon="11.164355564334144"><ele>168.0</ele><time>2026-04-04T07:54:21.999Z</time></trkpt><trkpt lat="44.31404105960345" lon="11.164329235142025"><ele>168.0</ele><time>2026-04-04T07:54:22.999Z</time></trkpt><trkpt lat="44.314137050876774" lon="11.164321243231482"><ele>168.0</ele><time>2026-04-04T07:54:23.999Z</time></trkpt><trkpt lat="44.31419863335231" lon="11.164348289331057"><ele>168.0</ele><time>2026-04-04T07:54:26.999Z</time></trkpt><trkpt lat="44.31429963105687" lon="11.16436828980222"><ele>170.66666666666666</ele><time>2026-04-04T07:54:28.999Z</time></trkpt><trkpt lat="44.31438216192829" lon="11.16438463327885"><ele>173.33333333333334</ele><time>2026-04-04T07:54:29.999Z</time></trkpt><trkpt lat="44.31444772244546" lon="11.164348715934375"><ele>176.0</ele><time>2026-04-04T07:54:31.999Z</time></trkpt><trkpt lat="44.314518942648874" lon="11.164352285232578"><ele>178.66666666666669</ele><time>2026-04-04T07:54:33.999Z</time></trkpt><trkpt lat="44.31453383605861" lon="11.164236704640652"><ele>181.33333333333334</ele><time>2026-04-04T07:54:38.999Z</time></trkpt><trkpt lat="44.314597335181354" lon="11.16428302212495"><ele>184.0</ele><time>2026-04-04T07:54:46.999Z</time></trkpt><trkpt lat="44.31469595007779" lon="11.164311262338181"><ele>188.0</ele><time>2026-04-04T07:55:04Z</time></trkpt><trkpt lat="44.314805268866166" lon="11.164304244833017"><ele>192.0</ele><time>2026-04-04T07:55:06Z</time></trkpt><trkpt lat="44.31488611040528" lon="11.164297010993934"><ele>196.0</ele><time>2026-04-04T07:55:07Z</time></trkpt><trkpt lat="44.314991515057336" lon="11.164247822388699"><ele>200.0</ele><time>2026-04-04T07:55:09Z</time></trkpt><trkpt lat="44.31506604227673" lon="11.164110560886908"><ele>204.0</ele><time>2026-04-04T07:55:11Z</time></trkpt><trkpt lat="44.31509823451168" lon="11.16401317680359"><ele>208.33333333333331</ele><time>2026-04-04T07:55:12Z</time></trkpt><trkpt lat="44.315104875131674" lon="11.163845990788621"><ele>212.66666666666666</ele><time>2026-04-04T07:55:13Z</time></trkpt><trkpt lat="44.31499476406679" lon="11.163643749765109"><ele>217.0</ele><time>2026-04-04T07:55:14Z</time></trkpt><trkpt lat="44.31487930785994" lon="11.163405881066458"><ele>216.99999999999997</ele><time>2026-04-04T07:55:15Z</time></trkpt><trkpt lat="44.314808396314774" lon="11.163287484960652"><ele>217.0</ele><time>2026-04-04T07:55:16Z</time></trkpt><trkpt lat="44.314746337154155" lon="11.163230359836938"><ele>217.0</ele><time>2026-04-04T07:55:17Z</time></trkpt><trkpt lat="44.31464884336629" lon="11.163191777011274"><ele>217.0</ele><time>2026-04-04T07:55:18Z</time></trkpt><trkpt lat="44.31460735704146" lon="11.16309653071317"><ele>216.99999999999997</ele><time>2026-04-04T07:55:20Z</time></trkpt><trkpt lat="44.31467294197583" lon="11.163127195573185"><ele>217.0</ele><time>2026-04-04T07:55:23Z</time></trkpt><trkpt lat="44.31471852197024" lon="11.163234330750036"><ele>217.0</ele><time>2026-04-04T07:55:25Z</time></trkpt><trkpt lat="44.314797980605924" lon="11.163299339922931"><ele>217.0</ele><time>2026-04-04T07:55:27Z</time></trkpt><trkpt lat="44.31489584118429" lon="11.163345786380038"><ele>217.0</ele><time>2026-04-04T07:55:28Z</time></trkpt><trkpt lat="44.31496189908118" lon="11.163393994838128"><ele>217.0</ele><time>2026-04-04T07:55:29Z</time></trkpt><trkpt lat="44.31505488530385" lon="11.163474831522418"><ele>217.0</ele><time>2026-04-04T07:55:31Z</time></trkpt><trkpt lat="44.31515012323523" lon="11.163543957731493"><ele>217.0</ele><time>2026-04-04T07:55:33Z</time></trkpt><trkpt lat="44.3151894681" lon="11.163680129703655"><ele>217.0</ele><time>2026-04-04T07:55:34Z</time></trkpt><trkpt lat="44.31528825952156" lon="11.163767274473559"><ele>217.0</ele><time>2026-04-04T07:55:36Z</time></trkpt><trkpt lat="44.315377832014775" lon="11.163790023310519"><ele>217.0</ele><time>2026-04-04T07:55:37Z</time></trkpt><trkpt lat="44.31546589728357" lon="11.163825732326012"><ele>217.0</ele><time>2026-04-04T07:55:38Z</time></trkpt><trkpt lat="44.315593771668354" lon="11.163701013293954"><ele>221.8</ele><time>2026-04-04T07:55:40Z</time></trkpt><trkpt lat="44.31564685596738" lon="11.163639094743646"><ele>226.6</ele><time>2026-04-04T07:55:41Z</time></trkpt><trkpt lat="44.31573045544201" lon="11.163440151631947"><ele>231.40000000000003</ele><time>2026-04-04T07:55:43Z</time></trkpt><trkpt lat="44.31577429577014" lon="11.163375928838953"><ele>236.20000000000002</ele><time>2026-04-04T07:55:44Z</time></trkpt><trkpt lat="44.315808644133064" lon="11.1632571676068"><ele>241.0</ele><time>2026-04-04T07:55:46Z</time></trkpt><trkpt lat="44.315813402252886" lon="11.16311043965927"><ele>239.8</ele><time>2026-04-04T07:55:48Z</time></trkpt><trkpt lat="44.31573008625655" lon="11.16307871820304"><ele>238.60000000000002</ele><time>2026-04-04T07:55:52Z</time></trkpt><trkpt lat="44.31564776259257" lon="11.163060939892395"><ele>237.4</ele><time>2026-04-04T07:55:55Z</time></trkpt><trkpt lat="44.315556528582945" lon="11.16298660313651"><ele>236.2</ele><time>2026-04-04T07:55:57Z</time></trkpt><trkpt lat="44.31548634703985" lon="11.162890251130479"><ele>235.0</ele><time>2026-04-04T07:55:58Z</time></trkpt><trkpt lat="44.31542043039171" lon="11.1628248086507"><ele>234.99999999999997</ele><time>2026-04-04T07:56:00Z</time></trkpt><trkpt lat="44.31532762565856" lon="11.162772734708609"><ele>235.0</ele><time>2026-04-04T07:56:02Z</time></trkpt><trkpt lat="44.31531498835962" lon="11.162683639172988"><ele>235.0</ele><time>2026-04-04T07:56:05Z</time></trkpt><trkpt lat="44.315308655511" lon="11.162574370773033"><ele>235.0</ele><time>2026-04-04T07:56:06.999Z</time></trkpt><trkpt lat="44.31530104434842" lon="11.16248195596963"><ele>234.99999999999997</ele><time>2026-04-04T07:56:08.999Z</time></trkpt><trkpt lat="44.31531497741344" lon="11.162333099895267"><ele>235.0</ele><time>2026-04-04T07:56:12.999Z</time></trkpt><trkpt lat="44.31529494615629" lon="11.162246237283439"><ele>235.0</ele><time>2026-04-04T07:56:16.999Z</time></trkpt><trkpt lat="44.31535089791523" lon="11.16230889516588"><ele>235.0</ele><time>2026-04-04T07:56:18.999Z</time></trkpt><trkpt lat="44.31539715685859" lon="11.162402106683139"><ele>235.0</ele><time>2026-04-04T07:56:21.999Z</time></trkpt><trkpt lat="44.31550678594999" lon="11.162489785910418"><ele>235.0</ele><time>2026-04-04T07:56:30.999Z</time></trkpt><trkpt lat="44.31560385704389" lon="11.16254065607749"><ele>235.0</ele><time>2026-04-04T07:56:31.999Z</time></trkpt><trkpt lat="44.31567124643372" lon="11.162530352180635"><ele>240.6</ele><time>2026-04-04T07:56:32.999Z</time></trkpt><trkpt lat="44.31578194494044" lon="11.162505667418097"><ele>246.2</ele><time>2026-04-04T07:56:35.999Z</time></trkpt><trkpt lat="44.315885722527945" lon="11.162446274658707"><ele>251.8</ele><time>2026-04-04T07:56:37.999Z</time></trkpt><trkpt lat="44.3158927287685" lon="11.162349989994746"><ele>257.4</ele><time>2026-04-04T07:56:38.999Z</time></trkpt><trkpt lat="44.31592216372955" lon="11.162261493687772"><ele>263.0</ele><time>2026-04-04T07:56:39.999Z</time></trkpt><trkpt lat="44.31597744649355" lon="11.162157495352362"><ele>263.75</ele><time>2026-04-04T07:56:41.999Z</time></trkpt><trkpt lat="44.31602282138646" lon="11.162094204297919"><ele>264.5</ele><time>2026-04-04T07:56:44.999Z</time></trkpt><trkpt lat="44.31607184296088" lon="11.161856473904214"><ele>265.25</ele><time>2026-04-04T07:56:53.999Z</time></trkpt><trkpt lat="44.31610738186596" lon="11.161722224051436"><ele>266.0</ele><time>2026-04-04T07:56:55.999Z</time></trkpt><trkpt lat="44.31617372737658" lon="11.161575420451637"><ele>264.8</ele><time>2026-04-04T07:56:56.999Z</time></trkpt><trkpt lat="44.31623053397675" lon="11.161488748004738"><ele>263.6</ele><time>2026-04-04T07:56:57.999Z</time></trkpt><trkpt lat="44.316224166975275" lon="11.161356637074842"><ele>262.4</ele><time>2026-04-04T07:56:58.999Z</time></trkpt><trkpt lat="44.31624948507752" lon="11.161194426998621"><ele>261.2</ele><time>2026-04-04T07:56:59.999Z</time></trkpt><trkpt lat="44.31623957505405" lon="11.161024961626882"><ele>260.0</ele><time>2026-04-04T07:57:00.999Z</time></trkpt><trkpt lat="44.31626854323532" lon="11.160897795477203"><ele>260.0</ele><time>2026-04-04T07:57:01.999Z</time></trkpt><trkpt lat="44.31626449655454" lon="11.160773174175638"><ele>260.0</ele><time>2026-04-04T07:57:02.999Z</time></trkpt><trkpt lat="44.31627350071684" lon="11.16063779694289"><ele>260.0</ele><time>2026-04-04T07:57:04Z</time></trkpt><trkpt lat="44.316244037982884" lon="11.160449414856702"><ele>260.0</ele><time>2026-04-04T07:57:06Z</time></trkpt><trkpt lat="44.316243231011626" lon="11.160339644821736"><ele>260.0</ele><time>2026-04-04T07:57:07Z</time></trkpt><trkpt lat="44.31624773132685" lon="11.160234855301846"><ele>260.0</ele><time>2026-04-04T07:57:08Z</time></trkpt><trkpt lat="44.31635224301687" lon="11.160333399900736"><ele>260.0</ele><time>2026-04-04T07:57:09Z</time></trkpt><trkpt lat="44.31634754331885" lon="11.160518656711266"><ele>260.0</ele><time>2026-04-04T07:57:11Z</time></trkpt><trkpt lat="44.31630476440291" lon="11.160673811858112"><ele>260.0</ele><time>2026-04-04T07:57:12Z</time></trkpt><trkpt lat="44.316325348209695" lon="11.16077121120249"><ele>268.0</ele><time>2026-04-04T07:57:14Z</time></trkpt><trkpt lat="44.316427291885105" lon="11.160957736731874"><ele>276.0</ele><time>2026-04-04T07:57:16Z</time></trkpt><trkpt lat="44.31648553543493" lon="11.161040611218636"><ele>284.0</ele><time>2026-04-04T07:57:17Z</time></trkpt><trkpt lat="44.316538164150515" lon="11.161133173363064"><ele>292.0</ele><time>2026-04-04T07:57:18Z</time></trkpt><trkpt lat="44.316580914726764" lon="11.161199923121675"><ele>300.0</ele><time>2026-04-04T07:57:19Z</time></trkpt><trkpt lat="44.31662659467435" lon="11.161296902315977"><ele>300.0</ele><time>2026-04-04T07:57:21Z</time></trkpt><trkpt lat="44.31667051676946" lon="11.16139607626098"><ele>300.0</ele><time>2026-04-04T07:57:23Z</time></trkpt><trkpt lat="44.31673692532907" lon="11.161496599823655"><ele>300.0</ele><time>2026-04-04T07:57:25Z</time></trkpt><trkpt lat="44.31683908787373" lon="11.16151104733917"><ele>300.0</ele><time>2026-04-04T07:57:27Z</time></trkpt><trkpt lat="44.31692084190136" lon="11.161534303996383"><ele>300.0</ele><time>2026-04-04T07:57:29Z</time></trkpt><trkpt lat="44.317019624061864" lon="11.161545005178155"><ele>301.4</ele><time>2026-04-04T07:57:32Z</time></trkpt><trkpt lat="44.31712035838432" lon="11.161586093850314"><ele>302.8</ele><time>2026-04-04T07:58:01Z</time></trkpt><trkpt lat="44.31720224702059" lon="11.161544173731336"><ele>304.2</ele><time>2026-04-04T07:58:03Z</time></trkpt><trkpt lat="44.31726780646732" lon="11.161555480189845"><ele>305.6</ele><time>2026-04-04T07:58:04Z</time></trkpt><trkpt lat="44.317378283401304" lon="11.161591476719993"><ele>307.0</ele><time>2026-04-04T07:58:06Z</time></trkpt><trkpt lat="44.31749417533634" lon="11.161672525806644"><ele>312.5</ele><time>2026-04-04T07:58:08Z</time></trkpt><trkpt lat="44.31763100958085" lon="11.161750552279766"><ele>318.0</ele><time>2026-04-04T07:58:10Z</time></trkpt><trkpt lat="44.31771178627006" lon="11.161750939636358"><ele>323.5</ele><time>2026-04-04T07:58:11Z</time></trkpt><trkpt lat="44.31784680240523" lon="11.161814749948528"><ele>329.0</ele><time>2026-04-04T07:58:13Z</time></trkpt><trkpt lat="44.31793069266681" lon="11.161833703528723"><ele>329.0</ele><time>2026-04-04T07:58:14Z</time></trkpt><trkpt lat="44.31800227853096" lon="11.161840401273773"><ele>329.0</ele><time>2026-04-04T07:58:14.999Z</time></trkpt><trkpt lat="44.31810308507028" lon="11.161790701352441"><ele>329.0</ele><time>2026-04-04T07:58:16.999Z</time></trkpt><trkpt lat="44.31816750720788" lon="11.161739877194343"><ele>329.0</ele><time>2026-04-04T07:58:17.999Z</time></trkpt><trkpt lat="44.31824224685076" lon="11.161683952092181"><ele>329.0</ele><time>2026-04-04T07:58:18.999Z</time></trkpt><trkpt lat="44.31832246008566" lon="11.161624447929803"><ele>329.0</ele><time>2026-04-04T07:58:19.999Z</time></trkpt><trkpt lat="44.31839831473549" lon="11.161600523061928"><ele>332.79999999999995</ele><time>2026-04-04T07:58:20.999Z</time></trkpt><trkpt lat="44.31846851646256" lon="11.161536042210761"><ele>336.59999999999997</ele><time>2026-04-04T07:58:21.999Z</time></trkpt><trkpt lat="44.31857236289977" lon="11.16155387327282"><ele>340.4</ele><time>2026-04-04T07:58:23.999Z</time></trkpt><trkpt lat="44.31866150251075" lon="11.161554150278489"><ele>344.2</ele><time>2026-04-04T07:58:25.999Z</time></trkpt><trkpt lat="44.318710232382806" lon="11.161426356134918"><ele>348.0</ele><time>2026-04-04T07:58:28.999Z</time></trkpt><trkpt lat="44.318684390831216" lon="11.161303834408784"><ele>348.0</ele><time>2026-04-04T07:58:30.999Z</time></trkpt><trkpt lat="44.318623491520135" lon="11.161193660618357"><ele>348.0</ele><time>2026-04-04T07:58:32.999Z</time></trkpt><trkpt lat="44.31856515806206" lon="11.161087254921053"><ele>348.0</ele><time>2026-04-04T07:58:34.999Z</time></trkpt><trkpt lat="44.31853874148336" lon="11.160974780201059"><ele>348.0</ele><time>2026-04-04T07:58:36.999Z</time></trkpt><trkpt lat="44.318496125670904" lon="11.16085348430043"><ele>348.0</ele><time>2026-04-04T07:58:38.999Z</time></trkpt><trkpt lat="44.31845199494135" lon="11.16071111173608"><ele>346.6666666666667</ele><time>2026-04-04T07:58:40.999Z</time></trkpt><trkpt lat="44.31848770215889" lon="11.160618583736298"><ele>345.33333333333337</ele><time>2026-04-04T07:58:42.999Z</time></trkpt><trkpt lat="44.31849548493508" lon="11.160126489895088"><ele>344.0</ele><time>2026-04-04T07:58:50.999Z</time></trkpt><trkpt lat="44.3185315969798" lon="11.16001923966949"><ele>344.0</ele><time>2026-04-04T07:58:51.999Z</time></trkpt><trkpt lat="44.318564557627056" lon="11.159894777598923"><ele>344.0</ele><time>2026-04-04T07:58:52.999Z</time></trkpt><trkpt lat="44.31860806119277" lon="11.159787116716348"><ele>344.0</ele><time>2026-04-04T07:58:53.999Z</time></trkpt><trkpt lat="44.31866290687384" lon="11.159672368772753"><ele>344.0</ele><time>2026-04-04T07:58:54.999Z</time></trkpt><trkpt lat="44.31869335847621" lon="11.159545562688884"><ele>344.0</ele><time>2026-04-04T07:58:55.999Z</time></trkpt><trkpt lat="44.31874110118221" lon="11.159416022563823"><ele>343.4</ele><time>2026-04-04T07:58:56.999Z</time></trkpt><trkpt lat="44.31877765330461" lon="11.159299479347101"><ele>342.79999999999995</ele><time>2026-04-04T07:58:57.999Z</time></trkpt><trkpt lat="44.31879942490953" lon="11.159196594390485"><ele>342.20000000000005</ele><time>2026-04-04T07:58:58.999Z</time></trkpt><trkpt lat="44.3187828160013" lon="11.15907100643343"><ele>341.6</ele><time>2026-04-04T07:58:59.999Z</time></trkpt><trkpt lat="44.318784677484096" lon="11.158975554173685"><ele>341.0</ele><time>2026-04-04T07:59:00.999Z</time></trkpt><trkpt lat="44.31888145358534" lon="11.158856081105979"><ele>342.8</ele><time>2026-04-04T07:59:02.999Z</time></trkpt><trkpt lat="44.31898294168744" lon="11.158802756466889"><ele>344.6</ele><time>2026-04-04T07:59:03.999Z</time></trkpt><trkpt lat="44.3190797146367" lon="11.15876284573644"><ele>346.4</ele><time>2026-04-04T07:59:04.999Z</time></trkpt><trkpt lat="44.31915119006252" lon="11.158733219687955"><ele>348.2</ele><time>2026-04-04T07:59:05.999Z</time></trkpt><trkpt lat="44.319235299547536" lon="11.158672879471025"><ele>350.0</ele><time>2026-04-04T07:59:06.999Z</time></trkpt><trkpt lat="44.31932044982876" lon="11.15864104632846"><ele>350.0</ele><time>2026-04-04T07:59:07.999Z</time></trkpt><trkpt lat="44.3193561550194" lon="11.15850031129044"><ele>350.0</ele><time>2026-04-04T07:59:08.999Z</time></trkpt><trkpt lat="44.319384316524726" lon="11.158407036208"><ele>350.0</ele><time>2026-04-04T07:59:10Z</time></trkpt><trkpt lat="44.31944474874688" lon="11.158353590616047"><ele>350.0</ele><time>2026-04-04T07:59:11Z</time></trkpt><trkpt lat="44.319508154411935" lon="11.158294535954758"><ele>350.0</ele><time>2026-04-04T07:59:12Z</time></trkpt><trkpt lat="44.31956711093223" lon="11.158195505072282"><ele>350.0</ele><time>2026-04-04T07:59:13Z</time></trkpt><trkpt lat="44.31962833568584" lon="11.158102456287368"><ele>348.8</ele><time>2026-04-04T07:59:14Z</time></trkpt><trkpt lat="44.31967392658943" lon="11.157980535847551"><ele>347.6</ele><time>2026-04-04T07:59:15Z</time></trkpt><trkpt lat="44.319745491195675" lon="11.157924844936536"><ele>346.4</ele><time>2026-04-04T07:59:16Z</time></trkpt><trkpt lat="44.319833200310505" lon="11.15786302434211"><ele>345.2</ele><time>2026-04-04T07:59:17Z</time></trkpt><trkpt lat="44.319920241354936" lon="11.157840738293332"><ele>344.0</ele><time>2026-04-04T07:59:19Z</time></trkpt><trkpt lat="44.32001342100597" lon="11.157745431525136"><ele>344.0</ele><time>2026-04-04T07:59:21Z</time></trkpt><trkpt lat="44.32012321621381" lon="11.157648639801291"><ele>344.0</ele><time>2026-04-04T07:59:23Z</time></trkpt><trkpt lat="44.32020339996836" lon="11.157599631834408"><ele>344.0</ele><time>2026-04-04T07:59:24Z</time></trkpt><trkpt lat="44.32028951545316" lon="11.157593290165822"><ele>344.0</ele><time>2026-04-04T07:59:25Z</time></trkpt><trkpt lat="44.32037702584297" lon="11.15755078331857"><ele>344.0</ele><time>2026-04-04T07:59:26Z</time></trkpt><trkpt lat="44.320466553799214" lon="11.157516443887827"><ele>344.0</ele><time>2026-04-04T07:59:27Z</time></trkpt><trkpt lat="44.32054482159341" lon="11.157487392294808"><ele>344.0</ele><time>2026-04-04T07:59:28Z</time></trkpt><trkpt lat="44.32060429869504" lon="11.157412273747681"><ele>344.0</ele><time>2026-04-04T07:59:30Z</time></trkpt><trkpt lat="44.320608242915156" lon="11.157249186466197"><ele>344.0</ele><time>2026-04-04T07:59:32Z</time></trkpt><trkpt lat="44.320610016354586" lon="11.157086061578134"><ele>344.0</ele><time>2026-04-04T07:59:34Z</time></trkpt><trkpt lat="44.32060302220728" lon="11.15698688480111"><ele>344.0</ele><time>2026-04-04T07:59:35Z</time></trkpt><trkpt lat="44.320596317937316" lon="11.15682442005985"><ele>344.0</ele><time>2026-04-04T07:59:36Z</time></trkpt><trkpt lat="44.32046545710962" lon="11.156619758896877"><ele>344.0</ele><time>2026-04-04T07:59:37Z</time></trkpt><trkpt lat="44.32024162040687" lon="11.156564208547094"><ele>341.83333333333337</ele><time>2026-04-04T07:59:38Z</time></trkpt><trkpt lat="44.32019308971587" lon="11.156463313367533"><ele>339.6666666666667</ele><time>2026-04-04T07:59:39Z</time></trkpt><trkpt lat="44.32013576704465" lon="11.156355133082771"><ele>337.5</ele><time>2026-04-04T07:59:40Z</time></trkpt><trkpt lat="44.32007308498588" lon="11.156256213484255"><ele>335.3333333333333</ele><time>2026-04-04T07:59:41Z</time></trkpt><trkpt lat="44.32000306224737" lon="11.156176202788334"><ele>333.16666666666663</ele><time>2026-04-04T07:59:42Z</time></trkpt><trkpt lat="44.32003199008799" lon="11.156261700915145"><ele>331.0</ele><time>2026-04-04T07:59:44Z</time></trkpt><trkpt lat="44.320175862632674" lon="11.156184389715763"><ele>331.0</ele><time>2026-04-04T07:59:45Z</time></trkpt><trkpt lat="44.32032126518516" lon="11.156101359250012"><ele>331.0</ele><time>2026-04-04T07:59:46Z</time></trkpt><trkpt lat="44.32044779854405" lon="11.156076711687648"><ele>331.0</ele><time>2026-04-04T07:59:47Z</time></trkpt><trkpt lat="44.320572252899304" lon="11.156070382367941"><ele>331.0</ele><time>2026-04-04T07:59:48Z</time></trkpt><trkpt lat="44.32066081587761" lon="11.156077354374286"><ele>334.6</ele><time>2026-04-04T07:59:49Z</time></trkpt><trkpt lat="44.32076835571511" lon="11.156038862802863"><ele>338.20000000000005</ele><time>2026-04-04T07:59:50Z</time></trkpt><trkpt lat="44.32087345865278" lon="11.156090316166692"><ele>341.79999999999995</ele><time>2026-04-04T07:59:52Z</time></trkpt><trkpt lat="44.32097473873093" lon="11.156111836325188"><ele>345.4</ele><time>2026-04-04T07:59:54Z</time></trkpt><trkpt lat="44.321034397151934" lon="11.156155612979145"><ele>349.0</ele><time>2026-04-04T07:59:56Z</time></trkpt><trkpt lat="44.32111483198725" lon="11.156231843263882"><ele>349.0</ele><time>2026-04-04T07:59:58Z</time></trkpt><trkpt lat="44.32121018228295" lon="11.156280131333862"><ele>349.0</ele><time>2026-04-04T08:00:00Z</time></trkpt><trkpt lat="44.32131127644841" lon="11.156344191660208"><ele>349.0</ele><time>2026-04-04T08:00:02Z</time></trkpt><trkpt lat="44.321395309673164" lon="11.156378782479672"><ele>349.0</ele><time>2026-04-04T08:00:03Z</time></trkpt><trkpt lat="44.32148108526268" lon="11.156476982318917"><ele>349.0</ele><time>2026-04-04T08:00:05Z</time></trkpt><trkpt lat="44.321493386280714" lon="11.156569532354826"><ele>352.3333333333333</ele><time>2026-04-04T08:00:06Z</time></trkpt><trkpt lat="44.321544536306675" lon="11.156660280350184"><ele>355.66666666666663</ele><time>2026-04-04T08:00:07Z</time></trkpt><trkpt lat="44.321582284047714" lon="11.156740179254333"><ele>359.0</ele><time>2026-04-04T08:00:08Z</time></trkpt><trkpt lat="44.321633059263526" lon="11.156836530867508"><ele>362.3333333333333</ele><time>2026-04-04T08:00:10Z</time></trkpt><trkpt lat="44.321681758271914" lon="11.156770140571902"><ele>365.6666666666667</ele><time>2026-04-04T08:00:11Z</time></trkpt><trkpt lat="44.32178653267595" lon="11.156720497141386"><ele>369.0</ele><time>2026-04-04T08:00:13Z</time></trkpt><trkpt lat="44.321858716647355" lon="11.156689170734323"><ele>369.0</ele><time>2026-04-04T08:00:14Z</time></trkpt><trkpt lat="44.32194939488764" lon="11.156648472572675"><ele>369.0</ele><time>2026-04-04T08:00:15Z</time></trkpt><trkpt lat="44.32204663043444" lon="11.156592193478795"><ele>369.0</ele><time>2026-04-04T08:00:16Z</time></trkpt><trkpt lat="44.322158127070466" lon="11.156520633370826"><ele>369.0</ele><time>2026-04-04T08:00:17Z</time></trkpt><trkpt lat="44.32224622340774" lon="11.15645615115406"><ele>369.0</ele><time>2026-04-04T08:00:18Z</time></trkpt><trkpt lat="44.32231429942039" lon="11.156332885007158"><ele>371.3333333333333</ele><time>2026-04-04T08:00:19Z</time></trkpt><trkpt lat="44.322391794581726" lon="11.156264402523135"><ele>373.6666666666667</ele><time>2026-04-04T08:00:20Z</time></trkpt><trkpt lat="44.322472050645125" lon="11.156191166892613"><ele>376.0</ele><time>2026-04-04T08:00:21Z</time></trkpt><trkpt lat="44.322549904465724" lon="11.156185609386462"><ele>378.33333333333337</ele><time>2026-04-04T08:00:22Z</time></trkpt><trkpt lat="44.32262775214371" lon="11.156150970310593"><ele>380.6666666666667</ele><time>2026-04-04T08:00:23Z</time></trkpt><trkpt lat="44.32269356031223" lon="11.156111245079881"><ele>383.0</ele><time>2026-04-04T08:00:23.999Z</time></trkpt><trkpt lat="44.322754141742124" lon="11.156068191470426"><ele>383.0</ele><time>2026-04-04T08:00:24.999Z</time></trkpt><trkpt lat="44.32281990518901" lon="11.156014839081505"><ele>383.0</ele><time>2026-04-04T08:00:25.999Z</time></trkpt><trkpt lat="44.32286936681174" lon="11.155938528586745"><ele>383.0</ele><time>2026-04-04T08:00:26.999Z</time></trkpt><trkpt lat="44.32294882469732" lon="11.15585644110418"><ele>383.0</ele><time>2026-04-04T08:00:27.999Z</time></trkpt><trkpt lat="44.3229617882917" lon="11.15569794160733"><ele>383.0</ele><time>2026-04-04T08:00:28.999Z</time></trkpt><trkpt lat="44.323026203389176" lon="11.15562777739621"><ele>383.0</ele><time>2026-04-04T08:00:29.999Z</time></trkpt><trkpt lat="44.32309504075367" lon="11.15556675582559"><ele>390.5</ele><time>2026-04-04T08:00:30.999Z</time></trkpt><trkpt lat="44.323157825804984" lon="11.15551892888009"><ele>398.0</ele><time>2026-04-04T08:00:31.999Z</time></trkpt><trkpt lat="44.32323453583053" lon="11.155393985659686"><ele>405.5</ele><time>2026-04-04T08:00:33.999Z</time></trkpt><trkpt lat="44.323290146078904" lon="11.155325836857788"><ele>413.0</ele><time>2026-04-04T08:00:34.999Z</time></trkpt><trkpt lat="44.323197425039666" lon="11.154983535592732"><ele>407.3333333333333</ele><time>2026-04-04T08:00:35.999Z</time></trkpt><trkpt lat="44.32299682451636" lon="11.155085775066127"><ele>401.66666666666663</ele><time>2026-04-04T08:00:36.999Z</time></trkpt><trkpt lat="44.32280474791317" lon="11.155141053755278"><ele>396.0</ele><time>2026-04-04T08:00:38.999Z</time></trkpt><trkpt lat="44.322771942639626" lon="11.155228527427747"><ele>396.0</ele><time>2026-04-04T08:02:38.999Z</time></trkpt><trkpt lat="44.32277407053246" lon="11.155317727367207"><ele>396.0</ele><time>2026-04-04T08:02:39.999Z</time></trkpt><trkpt lat="44.32276111295021" lon="11.155514026069106"><ele>396.0</ele><time>2026-04-04T08:02:41.999Z</time></trkpt><trkpt lat="44.32275515778309" lon="11.15579054374329"><ele>396.0</ele><time>2026-04-04T08:02:43.999Z</time></trkpt><trkpt lat="44.32275305263714" lon="11.155886913412887"><ele>393.4</ele><time>2026-04-04T08:02:44.999Z</time></trkpt><trkpt lat="44.32270956339811" lon="11.156009293443931"><ele>390.8</ele><time>2026-04-04T08:02:45.999Z</time></trkpt><trkpt lat="44.322716486496645" lon="11.156114418707151"><ele>388.2</ele><time>2026-04-04T08:02:46.999Z</time></trkpt><trkpt lat="44.32267743269076" lon="11.156248557087032"><ele>385.59999999999997</ele><time>2026-04-04T08:02:47.999Z</time></trkpt><trkpt lat="44.32258100935344" lon="11.156296223939682"><ele>383.0</ele><time>2026-04-04T08:02:49.999Z</time></trkpt><trkpt lat="44.32248815796418" lon="11.15629162051904"><ele>383.0</ele><time>2026-04-04T08:02:51.999Z</time></trkpt><trkpt lat="44.32238612113789" lon="11.156180301737384"><ele>383.0</ele><time>2026-04-04T08:02:52.999Z</time></trkpt><trkpt lat="44.32228770330205" lon="11.156240141967738"><ele>383.0</ele><time>2026-04-04T08:02:53.999Z</time></trkpt><trkpt lat="44.32222960862359" lon="11.156310466183525"><ele>383.0</ele><time>2026-04-04T08:02:54.999Z</time></trkpt><trkpt lat="44.32217260736215" lon="11.156372551721272"><ele>383.0</ele><time>2026-04-04T08:02:55.999Z</time></trkpt><trkpt lat="44.32206954113792" lon="11.156454085951934"><ele>380.2</ele><time>2026-04-04T08:02:57.999Z</time></trkpt><trkpt lat="44.32200537936407" lon="11.156481686569768"><ele>377.4</ele><time>2026-04-04T08:02:58.999Z</time></trkpt><trkpt lat="44.321916482891595" lon="11.156556182552729"><ele>374.59999999999997</ele><time>2026-04-04T08:02:59.999Z</time></trkpt><trkpt lat="44.32184385713665" lon="11.156619578651537"><ele>371.79999999999995</ele><time>2026-04-04T08:03:00.999Z</time></trkpt><trkpt lat="44.32177875477867" lon="11.15668063726876"><ele>369.0</ele><time>2026-04-04T08:03:01.999Z</time></trkpt><trkpt lat="44.32166610176423" lon="11.156750565294208"><ele>369.0</ele><time>2026-04-04T08:03:03.999Z</time></trkpt><trkpt lat="44.32159431444383" lon="11.156767498525754"><ele>369.0</ele><time>2026-04-04T08:03:04.999Z</time></trkpt><trkpt lat="44.32150738300892" lon="11.156705444820144"><ele>369.0</ele><time>2026-04-04T08:03:06.999Z</time></trkpt><trkpt lat="44.321464842215995" lon="11.15660295822134"><ele>369.0</ele><time>2026-04-04T08:03:09.018Z</time></trkpt><trkpt lat="44.32149265776203" lon="11.156454319080016"><ele>369.0</ele><time>2026-04-04T08:03:11.999Z</time></trkpt><trkpt lat="44.32145424831686" lon="11.156378568608757"><ele>369.0</ele><time>2026-04-04T08:03:13.999Z</time></trkpt><trkpt lat="44.321461521048306" lon="11.156477888922026"><ele>369.0</ele><time>2026-04-04T08:03:18.999Z</time></trkpt><trkpt lat="44.32144390177824" lon="11.156580245076011"><ele>369.0</ele><time>2026-04-04T08:03:21.998Z</time></trkpt><trkpt lat="44.3215708623278" lon="11.156675082411397"><ele>369.0</ele><time>2026-04-04T08:03:23.998Z</time></trkpt><trkpt lat="44.321653985027616" lon="11.156677004602626"><ele>369.0</ele><time>2026-04-04T08:03:25.998Z</time></trkpt><trkpt lat="44.32175179349973" lon="11.15662237808142"><ele>369.0</ele><time>2026-04-04T08:03:27.998Z</time></trkpt><trkpt lat="44.32178019111495" lon="11.156496788405901"><ele>368.0</ele><time>2026-04-04T08:03:29.998Z</time></trkpt><trkpt lat="44.32185809868105" lon="11.156451086856396"><ele>367.0</ele><time>2026-04-04T08:03:31.998Z</time></trkpt><trkpt lat="44.32193931449868" lon="11.156340628587062"><ele>366.0</ele><time>2026-04-04T08:03:33.998Z</time></trkpt><trkpt lat="44.3219561974819" lon="11.156240301643939"><ele>365.0</ele><time>2026-04-04T08:03:35.999Z</time></trkpt><trkpt lat="44.32198934453229" lon="11.156132377519175"><ele>364.0</ele><time>2026-04-04T08:03:38.999Z</time></trkpt><trkpt lat="44.322037862058004" lon="11.15604494952965"><ele>363.0</ele><time>2026-04-04T08:03:42.999Z</time></trkpt><trkpt lat="44.32211975619188" lon="11.15603729348324"><ele>369.6666666666667</ele><time>2026-04-04T08:03:44.999Z</time></trkpt><trkpt lat="44.3222547144563" lon="11.156152078393696"><ele>376.33333333333337</ele><time>2026-04-04T08:03:47.999Z</time></trkpt><trkpt lat="44.322273711979506" lon="11.155891648495807"><ele>383.0</ele><time>2026-04-04T08:03:55.999Z</time></trkpt><trkpt lat="44.32229477950761" lon="11.155713228628782"><ele>389.5</ele><time>2026-04-04T08:03:56.999Z</time></trkpt><trkpt lat="44.3225606972329" lon="11.15525908965977"><ele>396.0</ele><time>2026-04-04T08:03:58.999Z</time></trkpt><trkpt lat="44.32264149737957" lon="11.15515491577631"><ele>396.0</ele><time>2026-04-04T08:04:02.999Z</time></trkpt><trkpt lat="44.32272676246312" lon="11.155089897160993"><ele>396.0</ele><time>2026-04-04T08:04:06.999Z</time></trkpt><trkpt lat="44.322787385188164" lon="11.155052364206608"><ele>396.0</ele><time>2026-04-04T08:04:09.999Z</time></trkpt><trkpt lat="44.32286081996019" lon="11.155042839975948"><ele>396.0</ele><time>2026-04-04T08:04:19.999Z</time></trkpt><trkpt lat="44.322788372062" lon="11.15510909342946"><ele>396.0</ele><time>2026-04-04T08:04:36.999Z</time></trkpt><trkpt lat="44.322783201333365" lon="11.155206388926908"><ele>396.0</ele><time>2026-04-04T08:04:38.999Z</time></trkpt><trkpt lat="44.322828279144396" lon="11.155359334079579"><ele>396.0</ele><time>2026-04-04T08:04:40.999Z</time></trkpt><trkpt lat="44.32282452500191" lon="11.155476479698521"><ele>396.0</ele><time>2026-04-04T08:04:41.999Z</time></trkpt><trkpt lat="44.322816344086135" lon="11.15559635775889"><ele>396.0</ele><time>2026-04-04T08:04:43.999Z</time></trkpt><trkpt lat="44.32275493919366" lon="11.155721743047403"><ele>396.0</ele><time>2026-04-04T08:04:44.999Z</time></trkpt><trkpt lat="44.32271993517227" lon="11.155863579324174"><ele>396.0</ele><time>2026-04-04T08:04:45.999Z</time></trkpt><trkpt lat="44.322703376845205" lon="11.156004291869872"><ele>392.75</ele><time>2026-04-04T08:04:46.999Z</time></trkpt><trkpt lat="44.32264234391799" lon="11.156121061538395"><ele>389.5</ele><time>2026-04-04T08:04:48.999Z</time></trkpt><trkpt lat="44.32258102653201" lon="11.15620091643599"><ele>386.25</ele><time>2026-04-04T08:04:50.999Z</time></trkpt><trkpt lat="44.32250172599712" lon="11.156143437706882"><ele>383.0</ele><time>2026-04-04T08:04:54.999Z</time></trkpt><trkpt lat="44.3227762770445" lon="11.156051491062957"><ele>383.0</ele><time>2026-04-04T08:05:01.999Z</time></trkpt><trkpt lat="44.32283707437844" lon="11.155850127372839"><ele>383.0</ele><time>2026-04-04T08:05:02.999Z</time></trkpt><trkpt lat="44.322925360042504" lon="11.155736468382482"><ele>383.0</ele><time>2026-04-04T08:05:04.999Z</time></trkpt><trkpt lat="44.32301088938519" lon="11.155685309826746"><ele>383.0</ele><time>2026-04-04T08:05:06.999Z</time></trkpt><trkpt lat="44.32290800265527" lon="11.155716837194621"><ele>385.59999999999997</ele><time>2026-04-04T08:05:08.999Z</time></trkpt><trkpt lat="44.322898541197105" lon="11.155626252646014"><ele>388.2</ele><time>2026-04-04T08:05:09.999Z</time></trkpt><trkpt lat="44.322866211801305" lon="11.155543065454683"><ele>390.8</ele><time>2026-04-04T08:05:10.999Z</time></trkpt><trkpt lat="44.32287917089043" lon="11.155413400490307"><ele>393.4</ele><time>2026-04-04T08:05:11.999Z</time></trkpt><trkpt lat="44.322858238478624" lon="11.155200982175185"><ele>396.0</ele><time>2026-04-04T08:05:12.999Z</time></trkpt><trkpt lat="44.3229647153733" lon="11.155225772859051"><ele>396.0</ele><time>2026-04-04T08:05:35Z</time></trkpt><trkpt lat="44.32302616219185" lon="11.155195525611406"><ele>396.0</ele><time>2026-04-04T08:05:36Z</time></trkpt><trkpt lat="44.32308942916619" lon="11.155170479654608"><ele>396.0</ele><time>2026-04-04T08:05:37Z</time></trkpt><trkpt lat="44.32317804198577" lon="11.15514504159334"><ele>396.0</ele><time>2026-04-04T08:05:38Z</time></trkpt><trkpt lat="44.32325989366468" lon="11.155099670648688"><ele>396.0</ele><time>2026-04-04T08:05:39Z</time></trkpt><trkpt lat="44.323351005675" lon="11.154994414726666"><ele>396.0</ele><time>2026-04-04T08:05:40Z</time></trkpt><trkpt lat="44.32343173217925" lon="11.154952724877692"><ele>399.4</ele><time>2026-04-04T08:05:41Z</time></trkpt><trkpt lat="44.323496292097815" lon="11.154929818693146"><ele>402.8</ele><time>2026-04-04T08:05:42Z</time></trkpt><trkpt lat="44.32361934151675" lon="11.15493061429651"><ele>406.2</ele><time>2026-04-04T08:05:44Z</time></trkpt><trkpt lat="44.32372355913998" lon="11.154877508583338"><ele>409.59999999999997</ele><time>2026-04-04T08:05:46Z</time></trkpt><trkpt lat="44.323803791482604" lon="11.15480943010086"><ele>413.0</ele><time>2026-04-04T08:05:48Z</time></trkpt><trkpt lat="44.323833545153384" lon="11.154640242839061"><ele>417.0</ele><time>2026-04-04T08:05:51Z</time></trkpt><trkpt lat="44.3238221528593" lon="11.154521485388285"><ele>421.0</ele><time>2026-04-04T08:05:53Z</time></trkpt><trkpt lat="44.32375289711157" lon="11.154489646175827"><ele>425.0</ele><time>2026-04-04T08:05:57Z</time></trkpt><trkpt lat="44.323826055842375" lon="11.154475827543987"><ele>429.0</ele><time>2026-04-04T08:06:17Z</time></trkpt><trkpt lat="44.32404996956041" lon="11.15440307570841"><ele>432.4</ele><time>2026-04-04T08:06:18Z</time></trkpt><trkpt lat="44.324191366631034" lon="11.154477114382914"><ele>435.79999999999995</ele><time>2026-04-04T08:06:19Z</time></trkpt><trkpt lat="44.324252433651225" lon="11.154451938672056"><ele>439.20000000000005</ele><time>2026-04-04T08:06:20Z</time></trkpt><trkpt lat="44.324350029673994" lon="11.15439039943856"><ele>442.6</ele><time>2026-04-04T08:06:21Z</time></trkpt><trkpt lat="44.3244478853732" lon="11.154360767648003"><ele>446.0</ele><time>2026-04-04T08:06:22Z</time></trkpt><trkpt lat="44.324529048310644" lon="11.154375604467253"><ele>446.0</ele><time>2026-04-04T08:06:23Z</time></trkpt><trkpt lat="44.324612006182726" lon="11.15436557294514"><ele>446.0</ele><time>2026-04-04T08:06:24Z</time></trkpt><trkpt lat="44.3246835238887" lon="11.154326845155262"><ele>446.0</ele><time>2026-04-04T08:06:25Z</time></trkpt><trkpt lat="44.32477415297615" lon="11.154298149016816"><ele>446.0</ele><time>2026-04-04T08:06:26Z</time></trkpt><trkpt lat="44.324860139927914" lon="11.154242095948735"><ele>446.0</ele><time>2026-04-04T08:06:27Z</time></trkpt><trkpt lat="44.32498138134068" lon="11.154184149978466"><ele>448.99999999999994</ele><time>2026-04-04T08:06:29Z</time></trkpt><trkpt lat="44.325090844963164" lon="11.154216731438854"><ele>452.0</ele><time>2026-04-04T08:06:31Z</time></trkpt><trkpt lat="44.32518170218388" lon="11.154260284698681"><ele>455.0</ele><time>2026-04-04T08:06:33Z</time></trkpt><trkpt lat="44.32525123843344" lon="11.154241693386844"><ele>458.0</ele><time>2026-04-04T08:06:34Z</time></trkpt><trkpt lat="44.325331506207654" lon="11.154161034387261"><ele>460.99999999999994</ele><time>2026-04-04T08:06:35Z</time></trkpt><trkpt lat="44.32539813384528" lon="11.154160429510195"><ele>464.0</ele><time>2026-04-04T08:06:36Z</time></trkpt><trkpt lat="44.325399026581294" lon="11.154042443723549"><ele>468.25</ele><time>2026-04-04T08:06:38Z</time></trkpt><trkpt lat="44.325501083257876" lon="11.15402935417635"><ele>472.5</ele><time>2026-04-04T08:06:40Z</time></trkpt><trkpt lat="44.32556484319288" lon="11.153973792314082"><ele>476.75</ele><time>2026-04-04T08:06:49Z</time></trkpt><trkpt lat="44.32559832251176" lon="11.153867837692879"><ele>481.0</ele><time>2026-04-04T08:06:58Z</time></trkpt><trkpt lat="44.32557920594939" lon="11.152768563678656"><ele>481.0</ele><time>2026-04-04T08:08:09Z</time></trkpt><trkpt lat="44.32557048191178" lon="11.152626181197805"><ele>481.0</ele><time>2026-04-04T08:08:10Z</time></trkpt><trkpt lat="44.32555542654728" lon="11.152506232063851"><ele>481.0</ele><time>2026-04-04T08:08:11Z</time></trkpt><trkpt lat="44.325515348230375" lon="11.151852328445193"><ele>487.20000000000005</ele><time>2026-04-04T08:08:20Z</time></trkpt><trkpt lat="44.32551782522522" lon="11.151759555423375"><ele>493.40000000000003</ele><time>2026-04-04T08:08:21Z</time></trkpt><trkpt lat="44.32537436397917" lon="11.151610994499745"><ele>499.6</ele><time>2026-04-04T08:08:22Z</time></trkpt><trkpt lat="44.32542226686118" lon="11.151470740273778"><ele>505.8</ele><time>2026-04-04T08:08:23Z</time></trkpt><trkpt lat="44.32540154665282" lon="11.151371975321814"><ele>512.0</ele><time>2026-04-04T08:08:24Z</time></trkpt><trkpt lat="44.32534335822125" lon="11.151284742818364"><ele>513.25</ele><time>2026-04-04T08:08:25Z</time></trkpt><trkpt lat="44.32530656739124" lon="11.15118811042368"><ele>514.5</ele><time>2026-04-04T08:08:26Z</time></trkpt><trkpt lat="44.32527428295556" lon="11.151107259860908"><ele>515.75</ele><time>2026-04-04T08:08:27Z</time></trkpt><trkpt lat="44.325236051881504" lon="11.151011307812627"><ele>517.0</ele><time>2026-04-04T08:08:28Z</time></trkpt><trkpt lat="44.32465307697537" lon="11.150401776549264"><ele>517.0</ele><time>2026-04-04T08:08:43Z</time></trkpt><trkpt lat="44.324607255915666" lon="11.150330012568253"><ele>517.0</ele><time>2026-04-04T08:08:47Z</time></trkpt><trkpt lat="44.32458356528507" lon="11.150213924623797"><ele>517.0</ele><time>2026-04-04T08:08:50Z</time></trkpt><trkpt lat="44.32457695458192" lon="11.150116286159397"><ele>517.0</ele><time>2026-04-04T08:08:52Z</time></trkpt><trkpt lat="44.32464568565789" lon="11.149996288760587"><ele>517.0</ele><time>2026-04-04T08:08:56Z</time></trkpt><trkpt lat="44.324660013103056" lon="11.149850178081113"><ele>517.0</ele><time>2026-04-04T08:08:58Z</time></trkpt><trkpt lat="44.324756739812806" lon="11.149628914364518"><ele>522.2</ele><time>2026-04-04T08:09:28Z</time></trkpt><trkpt lat="44.32481124482525" lon="11.149575315261906"><ele>527.4000000000001</ele><time>2026-04-04T08:09:29Z</time></trkpt><trkpt lat="44.324900333189994" lon="11.149508578466392"><ele>532.5999999999999</ele><time>2026-04-04T08:09:31Z</time></trkpt><trkpt lat="44.324968146814" lon="11.149429997108639"><ele>537.8</ele><time>2026-04-04T08:09:33Z</time></trkpt><trkpt lat="44.324956610620944" lon="11.149326365759492"><ele>543.0</ele><time>2026-04-04T08:09:35Z</time></trkpt><trkpt lat="44.32486475270362" lon="11.149215979814468"><ele>544.0</ele><time>2026-04-04T08:09:37Z</time></trkpt><trkpt lat="44.32488701594216" lon="11.14904150568034"><ele>545.0</ele><time>2026-04-04T08:09:39Z</time></trkpt><trkpt lat="44.32487036129236" lon="11.148918701130903"><ele>546.0</ele><time>2026-04-04T08:09:40.999Z</time></trkpt><trkpt lat="44.32487435058033" lon="11.14881771596887"><ele>547.0</ele><time>2026-04-04T08:09:43.999Z</time></trkpt><trkpt lat="44.32477202014811" lon="11.148769195962535"><ele>548.0</ele><time>2026-04-04T08:09:44.999Z</time></trkpt><trkpt lat="44.32459064258482" lon="11.14899429075866"><ele>548.0</ele><time>2026-04-04T08:09:45.999Z</time></trkpt><trkpt lat="44.32460945029368" lon="11.148751996850079"><ele>548.0</ele><time>2026-04-04T08:09:49.999Z</time></trkpt><trkpt lat="44.32468982788631" lon="11.148748919718816"><ele>548.0</ele><time>2026-04-04T08:09:59Z</time></trkpt><trkpt lat="44.324792913594074" lon="11.148691193497992"><ele>548.0</ele><time>2026-04-04T08:10:29Z</time></trkpt><trkpt lat="44.32486457812545" lon="11.148551042846233"><ele>548.0000000000001</ele><time>2026-04-04T08:10:31Z</time></trkpt><trkpt lat="44.324898488321715" lon="11.148474393085946"><ele>548.0</ele><time>2026-04-04T08:10:32Z</time></trkpt><trkpt lat="44.32493456353857" lon="11.148393651690919"><ele>548.0</ele><time>2026-04-04T08:10:33Z</time></trkpt><trkpt lat="44.32496945879029" lon="11.148307150371988"><ele>548.0</ele><time>2026-04-04T08:10:34Z</time></trkpt><trkpt lat="44.325024579033744" lon="11.14822669209708"><ele>548.0</ele><time>2026-04-04T08:10:35Z</time></trkpt><trkpt lat="44.32507618938932" lon="11.148156878812348"><ele>548.0000000000001</ele><time>2026-04-04T08:10:36Z</time></trkpt><trkpt lat="44.325125201171424" lon="11.148074627285665"><ele>548.0</ele><time>2026-04-04T08:10:37Z</time></trkpt><trkpt lat="44.32518075646856" lon="11.147998483154696"><ele>544.6</ele><time>2026-04-04T08:10:38Z</time></trkpt><trkpt lat="44.325270102323486" lon="11.147900871907192"><ele>541.1999999999999</ele><time>2026-04-04T08:10:39Z</time></trkpt><trkpt lat="44.325296653803484" lon="11.147758726553946"><ele>537.8</ele><time>2026-04-04T08:10:40Z</time></trkpt><trkpt lat="44.32529963097076" lon="11.147647409198935"><ele>534.4</ele><time>2026-04-04T08:10:41Z</time></trkpt><trkpt lat="44.32532078733471" lon="11.147543219695905"><ele>531.0</ele><time>2026-04-04T08:10:42Z</time></trkpt><trkpt lat="44.3253591916622" lon="11.14745230162991"><ele>527.6</ele><time>2026-04-04T08:10:43Z</time></trkpt><trkpt lat="44.32538579995724" lon="11.14727987883652"><ele>524.2</ele><time>2026-04-04T08:10:44Z</time></trkpt><trkpt lat="44.325406796946545" lon="11.14716699256951"><ele>520.8</ele><time>2026-04-04T08:10:45Z</time></trkpt><trkpt lat="44.32535037935643" lon="11.1469851648604"><ele>517.4</ele><time>2026-04-04T08:10:46Z</time></trkpt><trkpt lat="44.32535714523831" lon="11.146868417212222"><ele>514.0</ele><time>2026-04-04T08:10:47Z</time></trkpt><trkpt lat="44.32542034061626" lon="11.14679744429193"><ele>514.0</ele><time>2026-04-04T08:10:48Z</time></trkpt><trkpt lat="44.32550257533266" lon="11.146724931409867"><ele>514.0</ele><time>2026-04-04T08:10:50Z</time></trkpt><trkpt lat="44.32556855390434" lon="11.146571625019837"><ele>514.0</ele><time>2026-04-04T08:10:53Z</time></trkpt><trkpt lat="44.32560437005483" lon="11.14648554966051"><ele>514.0</ele><time>2026-04-04T08:10:54Z</time></trkpt><trkpt lat="44.32568244498287" lon="11.146353638658644"><ele>514.0</ele><time>2026-04-04T08:10:56Z</time></trkpt><trkpt lat="44.325711125443604" lon="11.14625425569009"><ele>524.8</ele><time>2026-04-04T08:10:57Z</time></trkpt><trkpt lat="44.32576865709847" lon="11.146117449313955"><ele>535.5999999999999</ele><time>2026-04-04T08:10:59Z</time></trkpt><trkpt lat="44.325764385504066" lon="11.146019310058142"><ele>546.4</ele><time>2026-04-04T08:11:01Z</time></trkpt><trkpt lat="44.32576330467751" lon="11.145871974517016"><ele>557.1999999999999</ele><time>2026-04-04T08:11:03Z</time></trkpt><trkpt lat="44.32572675795729" lon="11.145775632886846"><ele>568.0</ele><time>2026-04-04T08:11:05Z</time></trkpt><trkpt lat="44.325718671238526" lon="11.145640584210351"><ele>569.1666666666667</ele><time>2026-04-04T08:11:07Z</time></trkpt><trkpt lat="44.32576035499822" lon="11.14556128415832"><ele>570.3333333333334</ele><time>2026-04-04T08:11:09Z</time></trkpt><trkpt lat="44.32579322026989" lon="11.14547349944073"><ele>571.5</ele><time>2026-04-04T08:11:11Z</time></trkpt><trkpt lat="44.32578422270458" lon="11.145363466689883"><ele>572.6666666666666</ele><time>2026-04-04T08:11:13.023Z</time></trkpt><trkpt lat="44.32573306943168" lon="11.145274821818528"><ele>573.8333333333333</ele><time>2026-04-04T08:11:16.016Z</time></trkpt><trkpt lat="44.325761817770086" lon="11.145169215469146"><ele>575.0</ele><time>2026-04-04T08:11:18Z</time></trkpt><trkpt lat="44.325762733595106" lon="11.14504982653779"><ele>575.0</ele><time>2026-04-04T08:11:20Z</time></trkpt><trkpt lat="44.32575549782161" lon="11.144928655221415"><ele>575.0</ele><time>2026-04-04T08:11:22Z</time></trkpt><trkpt lat="44.32570710182027" lon="11.144817020618467"><ele>575.0</ele><time>2026-04-04T08:11:24Z</time></trkpt><trkpt lat="44.32565495445813" lon="11.144711500103986"><ele>575.0</ele><time>2026-04-04T08:11:26Z</time></trkpt><trkpt lat="44.3256553912163" lon="11.144597241699469"><ele>575.0</ele><time>2026-04-04T08:11:28Z</time></trkpt><trkpt lat="44.32561700963817" lon="11.144475637875983"><ele>575.0</ele><time>2026-04-04T08:11:30Z</time></trkpt><trkpt lat="44.325570635765104" lon="11.144402434944908"><ele>577.1428571428571</ele><time>2026-04-04T08:11:32Z</time></trkpt><trkpt lat="44.325552072374144" lon="11.144296948868028"><ele>579.2857142857142</ele><time>2026-04-04T08:11:34Z</time></trkpt><trkpt lat="44.32553421841849" lon="11.144175858944976"><ele>581.4285714285714</ele><time>2026-04-04T08:11:36Z</time></trkpt><trkpt lat="44.325497029988384" lon="11.14410045549858"><ele>583.5714285714286</ele><time>2026-04-04T08:11:39Z</time></trkpt><trkpt lat="44.32544507838931" lon="11.14404115645785"><ele>585.7142857142858</ele><time>2026-04-04T08:11:41Z</time></trkpt><trkpt lat="44.32536846747566" lon="11.143999024934566"><ele>587.8571428571429</ele><time>2026-04-04T08:11:43Z</time></trkpt><trkpt lat="44.32530656528288" lon="11.143967436669923"><ele>590.0</ele><time>2026-04-04T08:11:45Z</time></trkpt><trkpt lat="44.325306201407464" lon="11.143879407342318"><ele>590.0</ele><time>2026-04-04T08:11:51Z</time></trkpt><trkpt lat="44.32527428509063" lon="11.14379927804229"><ele>590.0</ele><time>2026-04-04T08:12:16Z</time></trkpt><trkpt lat="44.32532313215936" lon="11.143708084162277"><ele>590.0</ele><time>2026-04-04T08:12:35Z</time></trkpt><trkpt lat="44.32537283708456" lon="11.143630912301933"><ele>590.0</ele><time>2026-04-04T08:12:37Z</time></trkpt><trkpt lat="44.32540273455751" lon="11.143495278698984"><ele>590.0</ele><time>2026-04-04T08:12:40Z</time></trkpt><trkpt lat="44.32534648990553" lon="11.143312390678814"><ele>590.0</ele><time>2026-04-04T08:12:42Z</time></trkpt><trkpt lat="44.32522606893786" lon="11.143243033836198"><ele>590.0</ele><time>2026-04-04T08:12:44Z</time></trkpt><trkpt lat="44.32517247042958" lon="11.143118608114442"><ele>590.0</ele><time>2026-04-04T08:12:46Z</time></trkpt><trkpt lat="44.32503764208153" lon="11.14310777786318"><ele>590.0</ele><time>2026-04-04T08:12:47Z</time></trkpt><trkpt lat="44.32491254189442" lon="11.143095482851358"><ele>589.3333333333333</ele><time>2026-04-04T08:12:50Z</time></trkpt><trkpt lat="44.32483365699045" lon="11.143036121341117"><ele>588.6666666666666</ele><time>2026-04-04T08:12:52Z</time></trkpt><trkpt lat="44.32474577585658" lon="11.142997746905591"><ele>588.0</ele><time>2026-04-04T08:12:54Z</time></trkpt><trkpt lat="44.32467916024273" lon="11.142995141566763"><ele>587.3333333333334</ele><time>2026-04-04T08:12:55Z</time></trkpt><trkpt lat="44.324567185873455" lon="11.142975866951705"><ele>586.6666666666667</ele><time>2026-04-04T08:12:57Z</time></trkpt><trkpt lat="44.32451026706166" lon="11.142937952996066"><ele>586.0</ele><time>2026-04-04T08:12:58Z</time></trkpt><trkpt lat="44.32455517192854" lon="11.142786661193982"><ele>586.0</ele><time>2026-04-04T08:12:59Z</time></trkpt><trkpt lat="44.32455095397791" lon="11.142656073479971"><ele>586.0</ele><time>2026-04-04T08:13:01Z</time></trkpt><trkpt lat="44.324542354346896" lon="11.14255968874631"><ele>586.0</ele><time>2026-04-04T08:13:03Z</time></trkpt><trkpt lat="44.324545810814975" lon="11.142446267508536"><ele>586.0</ele><time>2026-04-04T08:13:05Z</time></trkpt><trkpt lat="44.324589642911135" lon="11.142317821401436"><ele>586.0</ele><time>2026-04-04T08:13:07Z</time></trkpt><trkpt lat="44.32464427268937" lon="11.142253182645884"><ele>586.0</ele><time>2026-04-04T08:13:10Z</time></trkpt><trkpt lat="44.324615258082225" lon="11.142149610211801"><ele>587.8571428571428</ele><time>2026-04-04T08:13:14Z</time></trkpt><trkpt lat="44.32464311188365" lon="11.142033056957635"><ele>589.7142857142857</ele><time>2026-04-04T08:13:21Z</time></trkpt><trkpt lat="44.32464587426283" lon="11.141943705981113"><ele>591.5714285714286</ele><time>2026-04-04T08:13:24Z</time></trkpt><trkpt lat="44.32462812689377" lon="11.141851544197005"><ele>593.4285714285713</ele><time>2026-04-04T08:13:27Z</time></trkpt><trkpt lat="44.32463048883798" lon="11.141731018706803"><ele>595.2857142857142</ele><time>2026-04-04T08:13:30Z</time></trkpt><trkpt lat="44.324655642226254" lon="11.141646452400764"><ele>597.1428571428571</ele><time>2026-04-04T08:13:33Z</time></trkpt><trkpt lat="44.32466821232727" lon="11.141551574357269"><ele>599.0</ele><time>2026-04-04T08:13:34Z</time></trkpt><trkpt lat="44.32469018421108" lon="11.141380922296548"><ele>602.3333333333333</ele><time>2026-04-04T08:13:36Z</time></trkpt><trkpt lat="44.3247032477963" lon="11.141290036804719"><ele>605.6666666666666</ele><time>2026-04-04T08:13:37Z</time></trkpt><trkpt lat="44.324759386319336" lon="11.141182191203683"><ele>609.0</ele><time>2026-04-04T08:13:40Z</time></trkpt><trkpt lat="44.32478553448404" lon="11.141069024219295"><ele>612.3333333333334</ele><time>2026-04-04T08:13:42Z</time></trkpt><trkpt lat="44.32484353964023" lon="11.141033525794743"><ele>615.6666666666667</ele><time>2026-04-04T08:18:12Z</time></trkpt><trkpt lat="44.32491997514852" lon="11.140974057594734"><ele>619.0</ele><time>2026-04-04T08:18:14Z</time></trkpt><trkpt lat="44.32497907451507" lon="11.140878075770221"><ele>620.8333333333334</ele><time>2026-04-04T08:18:15Z</time></trkpt><trkpt lat="44.32503977351551" lon="11.140820845357744"><ele>622.6666666666667</ele><time>2026-04-04T08:18:16Z</time></trkpt><trkpt lat="44.3251076406294" lon="11.140737749165067"><ele>624.5</ele><time>2026-04-04T08:18:17Z</time></trkpt><trkpt lat="44.32516568459711" lon="11.1406968580268"><ele>626.3333333333334</ele><time>2026-04-04T08:18:18Z</time></trkpt><trkpt lat="44.32521868855427" lon="11.140628694983093"><ele>628.1666666666666</ele><time>2026-04-04T08:18:19Z</time></trkpt><trkpt lat="44.325282000743876" lon="11.140483436604734"><ele>630.0</ele><time>2026-04-04T08:18:21Z</time></trkpt><trkpt lat="44.32531582825063" lon="11.140375409302592"><ele>634.2</ele><time>2026-04-04T08:18:22Z</time></trkpt><trkpt lat="44.32536588166525" lon="11.140251080046694"><ele>638.4</ele><time>2026-04-04T08:18:24Z</time></trkpt><trkpt lat="44.325402770801794" lon="11.140143323071474"><ele>642.5999999999999</ele><time>2026-04-04T08:18:26Z</time></trkpt><trkpt lat="44.32545964208314" lon="11.140004379496057"><ele>646.8</ele><time>2026-04-04T08:18:28Z</time></trkpt><trkpt lat="44.32550246241676" lon="11.13988954543408"><ele>651.0</ele><time>2026-04-04T08:18:30Z</time></trkpt><trkpt lat="44.32555621227618" lon="11.139772045896878"><ele>650.4</ele><time>2026-04-04T08:18:31Z</time></trkpt><trkpt lat="44.32557322382851" lon="11.139667511416398"><ele>649.8</ele><time>2026-04-04T08:18:32Z</time></trkpt><trkpt lat="44.32565906187975" lon="11.13956096741675"><ele>649.1999999999999</ele><time>2026-04-04T08:18:34Z</time></trkpt><trkpt lat="44.325677561253556" lon="11.139458673121345"><ele>648.5999999999999</ele><time>2026-04-04T08:18:35Z</time></trkpt><trkpt lat="44.32570120297169" lon="11.13933370371086"><ele>648.0</ele><time>2026-04-04T08:18:37Z</time></trkpt><trkpt lat="44.32574586429495" lon="11.139222022588282"><ele>648.0</ele><time>2026-04-04T08:18:39Z</time></trkpt><trkpt lat="44.32581056413872" lon="11.139131350332942"><ele>648.0</ele><time>2026-04-04T08:18:41Z</time></trkpt><trkpt lat="44.325880512001675" lon="11.139138241523755"><ele>648.0</ele><time>2026-04-04T08:18:42Z</time></trkpt><trkpt lat="44.32593770397761" lon="11.139097026400465"><ele>648.0</ele><time>2026-04-04T08:18:43Z</time></trkpt><trkpt lat="44.32603618522759" lon="11.139084827741698"><ele>648.0</ele><time>2026-04-04T08:18:44Z</time></trkpt><trkpt lat="44.32615457858008" lon="11.138983080121038"><ele>651.8</ele><time>2026-04-04T08:18:45Z</time></trkpt><trkpt lat="44.32622334386926" lon="11.13894106285119"><ele>655.5999999999999</ele><time>2026-04-04T08:18:46Z</time></trkpt><trkpt lat="44.32634328672759" lon="11.138901091774253"><ele>659.4000000000001</ele><time>2026-04-04T08:18:48Z</time></trkpt><trkpt lat="44.326409158441336" lon="11.13894698828464"><ele>663.2</ele><time>2026-04-04T08:18:50Z</time></trkpt><trkpt lat="44.326508629159264" lon="11.138898495950366"><ele>667.0</ele><time>2026-04-04T08:18:52Z</time></trkpt><trkpt lat="44.3265464346564" lon="11.138809502499807"><ele>667.0</ele><time>2026-04-04T08:18:53Z</time></trkpt><trkpt lat="44.32660359634028" lon="11.138881786497004"><ele>667.0</ele><time>2026-04-04T08:18:55Z</time></trkpt><trkpt lat="44.32664828962381" lon="11.138970851428128"><ele>667.0</ele><time>2026-04-04T08:18:57Z</time></trkpt><trkpt lat="44.326716400580054" lon="11.139042188349759"><ele>667.0</ele><time>2026-04-04T08:18:59Z</time></trkpt><trkpt lat="44.3267580640853" lon="11.139115302223423"><ele>667.0</ele><time>2026-04-04T08:19:00Z</time></trkpt><trkpt lat="44.326837942439994" lon="11.139187469192452"><ele>667.0</ele><time>2026-04-04T08:19:02Z</time></trkpt><trkpt lat="44.32692195866507" lon="11.139234264840077"><ele>662.2</ele><time>2026-04-04T08:19:04Z</time></trkpt><trkpt lat="44.32700074143763" lon="11.139234578400877"><ele>657.4000000000001</ele><time>2026-04-04T08:19:06Z</time></trkpt><trkpt lat="44.32709296236879" lon="11.13919348807294"><ele>652.5999999999999</ele><time>2026-04-04T08:19:08Z</time></trkpt><trkpt lat="44.32716967033996" lon="11.139165075035862"><ele>647.8</ele><time>2026-04-04T08:19:10Z</time></trkpt><trkpt lat="44.3272636995786" lon="11.139092492817783"><ele>643.0</ele><time>2026-04-04T08:19:12Z</time></trkpt><trkpt lat="44.327353155631066" lon="11.139087043655657"><ele>646.4</ele><time>2026-04-04T08:19:14Z</time></trkpt><trkpt lat="44.32745677092353" lon="11.139020674356834"><ele>649.8</ele><time>2026-04-04T08:19:16Z</time></trkpt><trkpt lat="44.32756729815495" lon="11.138987718027176"><ele>653.2</ele><time>2026-04-04T08:19:18Z</time></trkpt><trkpt lat="44.32767882831711" lon="11.13895986607677"><ele>656.6</ele><time>2026-04-04T08:19:20Z</time></trkpt><trkpt lat="44.32774019288031" lon="11.138986891287457"><ele>660.0</ele><time>2026-04-04T08:19:21Z</time></trkpt><trkpt lat="44.32784130690776" lon="11.138956905328763"><ele>660.0</ele><time>2026-04-04T08:19:23Z</time></trkpt><trkpt lat="44.3278733578843" lon="11.138859796125253"><ele>660.0</ele><time>2026-04-04T08:19:27Z</time></trkpt><trkpt lat="44.32784564584106" lon="11.138770916241668"><ele>660.0</ele><time>2026-04-04T08:19:29Z</time></trkpt><trkpt lat="44.32778555079581" lon="11.138732110095477"><ele>660.0</ele><time>2026-04-04T08:19:31Z</time></trkpt><trkpt lat="44.32771471490488" lon="11.138706215463856"><ele>660.0</ele><time>2026-04-04T08:19:32Z</time></trkpt><trkpt lat="44.32759965807426" lon="11.138696132547016"><ele>660.0</ele><time>2026-04-04T08:19:34Z</time></trkpt><trkpt lat="44.327502353256065" lon="11.138601392043967"><ele>660.0</ele><time>2026-04-04T08:19:36Z</time></trkpt><trkpt lat="44.32741356624183" lon="11.138531451860429"><ele>660.0</ele><time>2026-04-04T08:19:38Z</time></trkpt><trkpt lat="44.327351812336346" lon="11.138488567311237"><ele>660.0</ele><time>2026-04-04T08:19:42Z</time></trkpt><trkpt lat="44.327266809963305" lon="11.138383795243797"><ele>660.0</ele><time>2026-04-04T08:19:45Z</time></trkpt><trkpt lat="44.327191473046234" lon="11.13831323598618"><ele>660.0</ele><time>2026-04-04T08:19:46Z</time></trkpt><trkpt lat="44.32712317018554" lon="11.138256841330213"><ele>664.1666666666666</ele><time>2026-04-04T08:19:47Z</time></trkpt><trkpt lat="44.32706850333094" lon="11.138201269223396"><ele>668.3333333333334</ele><time>2026-04-04T08:19:49Z</time></trkpt><trkpt lat="44.327000232679026" lon="11.138152312452112"><ele>672.5</ele><time>2026-04-04T08:19:51Z</time></trkpt><trkpt lat="44.32695221946793" lon="11.138031125926327"><ele>676.6666666666667</ele><time>2026-04-04T08:22:57.999Z</time></trkpt><trkpt lat="44.32688146888473" lon="11.137946666243016"><ele>680.8333333333334</ele><time>2026-04-04T08:22:59.999Z</time></trkpt><trkpt lat="44.32678862623011" lon="11.13788434006104"><ele>685.0</ele><time>2026-04-04T08:23:01.999Z</time></trkpt><trkpt lat="44.32672707392784" lon="11.137825868843434"><ele>685.0</ele><time>2026-04-04T08:23:03.999Z</time></trkpt><trkpt lat="44.32646015523358" lon="11.137589040884244"><ele>685.0</ele><time>2026-04-04T08:24:02.999Z</time></trkpt><trkpt lat="44.326365909036454" lon="11.137530210862275"><ele>685.0</ele><time>2026-04-04T08:24:04.999Z</time></trkpt><trkpt lat="44.326285668163386" lon="11.137435679090636"><ele>684.5</ele><time>2026-04-04T08:24:06.999Z</time></trkpt><trkpt lat="44.32620826335698" lon="11.137576764284633"><ele>684.0</ele><time>2026-04-04T08:24:08.999Z</time></trkpt><trkpt lat="44.326145942777195" lon="11.137556267490071"><ele>683.5</ele><time>2026-04-04T08:24:10.999Z</time></trkpt><trkpt lat="44.32609667970157" lon="11.137495496313038"><ele>683.0</ele><time>2026-04-04T08:25:17Z</time></trkpt><trkpt lat="44.32604993636984" lon="11.13755799704646"><ele>682.5</ele><time>2026-04-04T08:25:19Z</time></trkpt><trkpt lat="44.326176801132796" lon="11.137570485270972"><ele>682.0</ele><time>2026-04-04T08:25:34Z</time></trkpt><trkpt lat="44.32631282586835" lon="11.137565030245002"><ele>682.0</ele><time>2026-04-04T08:25:35Z</time></trkpt><trkpt lat="44.32638545301214" lon="11.137480296542952"><ele>682.0</ele><time>2026-04-04T08:25:36Z</time></trkpt><trkpt lat="44.326451368738084" lon="11.13740942665803"><ele>682.0</ele><time>2026-04-04T08:25:38Z</time></trkpt><trkpt lat="44.32653697547394" lon="11.137289507363674"><ele>682.0</ele><time>2026-04-04T08:25:40Z</time></trkpt><trkpt lat="44.326592474310026" lon="11.137233233483348"><ele>682.0</ele><time>2026-04-04T08:25:41Z</time></trkpt><trkpt lat="44.326672927051206" lon="11.137192650605844"><ele>681.5</ele><time>2026-04-04T08:25:43Z</time></trkpt><trkpt lat="44.326764372225" lon="11.137129002799476"><ele>681.0</ele><time>2026-04-04T08:25:45Z</time></trkpt><trkpt lat="44.32684721987562" lon="11.137037700517167"><ele>680.5</ele><time>2026-04-04T08:25:47Z</time></trkpt><trkpt lat="44.32688996746221" lon="11.136968881608851"><ele>680.0</ele><time>2026-04-04T08:25:49Z</time></trkpt><trkpt lat="44.32694031403264" lon="11.136900340501963"><ele>679.5</ele><time>2026-04-04T08:25:51Z</time></trkpt><trkpt lat="44.3269995596557" lon="11.136803078265906"><ele>679.0</ele><time>2026-04-04T08:25:53Z</time></trkpt><trkpt lat="44.32703892942729" lon="11.13669342730903"><ele>679.0</ele><time>2026-04-04T08:26:54Z</time></trkpt><trkpt lat="44.32708474313776" lon="11.136562894315416"><ele>679.0</ele><time>2026-04-04T08:26:56Z</time></trkpt><trkpt lat="44.32712437665879" lon="11.136471689937629"><ele>679.0</ele><time>2026-04-04T08:26:58Z</time></trkpt><trkpt lat="44.32719580988967" lon="11.136360276144528"><ele>679.0</ele><time>2026-04-04T08:27:00Z</time></trkpt><trkpt lat="44.327227726291476" lon="11.136272457884234"><ele>679.0</ele><time>2026-04-04T08:27:01Z</time></trkpt><trkpt lat="44.32730596419522" lon="11.136146446357772"><ele>678.4000000000001</ele><time>2026-04-04T08:27:03Z</time></trkpt><trkpt lat="44.32733895575638" lon="11.135999912372027"><ele>677.8</ele><time>2026-04-04T08:27:05Z</time></trkpt><trkpt lat="44.32735816034235" lon="11.13585469746461"><ele>677.2</ele><time>2026-04-04T08:27:06Z</time></trkpt><trkpt lat="44.327352722051394" lon="11.135685922148626"><ele>676.5999999999999</ele><time>2026-04-04T08:27:08Z</time></trkpt><trkpt lat="44.32731193848157" lon="11.135603623506386"><ele>676.0</ele><time>2026-04-04T08:27:09Z</time></trkpt><trkpt lat="44.32729298020422" lon="11.1354496972565"><ele>675.4</ele><time>2026-04-04T08:27:11Z</time></trkpt><trkpt lat="44.32729162889487" lon="11.135301933356464"><ele>674.8</ele><time>2026-04-04T08:27:13Z</time></trkpt><trkpt lat="44.32723494342156" lon="11.135186318467497"><ele>674.1999999999999</ele><time>2026-04-04T08:27:14Z</time></trkpt><trkpt lat="44.327211214785805" lon="11.13507443344355"><ele>673.5999999999999</ele><time>2026-04-04T08:27:16Z</time></trkpt><trkpt lat="44.32727569917849" lon="11.135002525699992"><ele>673.0</ele><time>2026-04-04T08:27:21Z</time></trkpt><trkpt lat="44.32722783191046" lon="11.134898214197877"><ele>670.3333333333334</ele><time>2026-04-04T08:27:22Z</time></trkpt><trkpt lat="44.32724574835714" lon="11.134791643521421"><ele>667.6666666666667</ele><time>2026-04-04T08:27:25Z</time></trkpt><trkpt lat="44.32725087579972" lon="11.13468905374134"><ele>665.0</ele><time>2026-04-04T08:27:27Z</time></trkpt><trkpt lat="44.327244130057494" lon="11.134566576975287"><ele>662.3333333333334</ele><time>2026-04-04T08:27:30Z</time></trkpt><trkpt lat="44.32714448963788" lon="11.134501885423473"><ele>659.6666666666666</ele><time>2026-04-04T08:27:35Z</time></trkpt><trkpt lat="44.32706809889783" lon="11.134476280325387"><ele>657.0</ele><time>2026-04-04T08:27:46Z</time></trkpt><trkpt lat="44.32702440445582" lon="11.134388468900317"><ele>657.0</ele><time>2026-04-04T08:27:48Z</time></trkpt><trkpt lat="44.32700893713164" lon="11.134481913207598"><ele>657.0</ele><time>2026-04-04T08:27:56Z</time></trkpt><trkpt lat="44.3269914373312" lon="11.134389874683867"><ele>657.0</ele><time>2026-04-04T08:29:59Z</time></trkpt><trkpt lat="44.327058953883856" lon="11.13437564269296"><ele>657.0</ele><time>2026-04-04T08:30:02Z</time></trkpt><trkpt lat="44.32713226790463" lon="11.134310713300085"><ele>657.0</ele><time>2026-04-04T08:30:05Z</time></trkpt><trkpt lat="44.327191154984085" lon="11.134278501333393"><ele>657.0</ele><time>2026-04-04T08:30:06Z</time></trkpt><trkpt lat="44.32731242450135" lon="11.134220499910997"><ele>657.0</ele><time>2026-04-04T08:30:08Z</time></trkpt><trkpt lat="44.32729883256989" lon="11.134319487305316"><ele>657.0</ele><time>2026-04-04T08:30:11Z</time></trkpt><trkpt lat="44.327345695527555" lon="11.13424044506027"><ele>657.0</ele><time>2026-04-04T08:30:12Z</time></trkpt><trkpt lat="44.32748452257493" lon="11.13419582428267"><ele>657.0</ele><time>2026-04-04T08:30:13Z</time></trkpt><trkpt lat="44.32758488998108" lon="11.134231713126836"><ele>657.0</ele><time>2026-04-04T08:30:14Z</time></trkpt><trkpt lat="44.32765020928717" lon="11.134236320825272"><ele>657.0</ele><time>2026-04-04T08:30:59Z</time></trkpt><trkpt lat="44.32778485905124" lon="11.134146098648458"><ele>657.0</ele><time>2026-04-04T08:31:01Z</time></trkpt><trkpt lat="44.32786212219243" lon="11.134116382395664"><ele>657.0</ele><time>2026-04-04T08:31:02Z</time></trkpt><trkpt lat="44.32792621037187" lon="11.134054322153306"><ele>657.0</ele><time>2026-04-04T08:31:03Z</time></trkpt><trkpt lat="44.3280125917009" lon="11.133961723902388"><ele>657.0</ele><time>2026-04-04T08:31:04Z</time></trkpt><trkpt lat="44.32813834768003" lon="11.133817769052683"><ele>654.4000000000001</ele><time>2026-04-04T08:31:05Z</time></trkpt><trkpt lat="44.32819782999617" lon="11.133709228433354"><ele>651.8000000000001</ele><time>2026-04-04T08:31:06Z</time></trkpt><trkpt lat="44.32827032446695" lon="11.133627128417213"><ele>649.2</ele><time>2026-04-04T08:31:07Z</time></trkpt><trkpt lat="44.32830695776351" lon="11.13351519668855"><ele>646.6</ele><time>2026-04-04T08:31:08Z</time></trkpt><trkpt lat="44.32837996209837" lon="11.133383214094165"><ele>644.0</ele><time>2026-04-04T08:31:10Z</time></trkpt><trkpt lat="44.32842306564882" lon="11.133313607739"><ele>641.0</ele><time>2026-04-04T08:31:11Z</time></trkpt><trkpt lat="44.328485118046274" lon="11.133191276765977"><ele>638.0</ele><time>2026-04-04T08:31:13Z</time></trkpt><trkpt lat="44.328526943405265" lon="11.133067410900342"><ele>635.0</ele><time>2026-04-04T08:31:15Z</time></trkpt><trkpt lat="44.32857791620433" lon="11.133015191849257"><ele>632.0</ele><time>2026-04-04T08:31:17Z</time></trkpt><trkpt lat="44.32862998827192" lon="11.132905995797438"><ele>629.0</ele><time>2026-04-04T08:31:19Z</time></trkpt><trkpt lat="44.32867873067112" lon="11.132848718687205"><ele>626.0</ele><time>2026-04-04T08:31:21Z</time></trkpt><trkpt lat="44.32873478037416" lon="11.132770328386178"><ele>626.0</ele><time>2026-04-04T08:31:23Z</time></trkpt><trkpt lat="44.328778510977195" lon="11.132664072643308"><ele>626.0</ele><time>2026-04-04T08:31:25Z</time></trkpt><trkpt lat="44.328832957841236" lon="11.132546880077943"><ele>626.0</ele><time>2026-04-04T08:31:27Z</time></trkpt><trkpt lat="44.32888793666766" lon="11.13246902012276"><ele>626.0</ele><time>2026-04-04T08:31:29Z</time></trkpt><trkpt lat="44.328937250749874" lon="11.132369921277565"><ele>626.0</ele><time>2026-04-04T08:31:31Z</time></trkpt><trkpt lat="44.32898545529662" lon="11.132254359128327"><ele>626.0</ele><time>2026-04-04T08:31:33Z</time></trkpt><trkpt lat="44.32905941529006" lon="11.132180308650232"><ele>626.0</ele><time>2026-04-04T08:31:35Z</time></trkpt><trkpt lat="44.32909265553811" lon="11.132101254434108"><ele>626.0</ele><time>2026-04-04T08:31:37Z</time></trkpt><trkpt lat="44.32914842050928" lon="11.132029873249808"><ele>626.0</ele><time>2026-04-04T08:31:40Z</time></trkpt><trkpt lat="44.32922317694142" lon="11.131974949803704"><ele>626.0</ele><time>2026-04-04T08:31:44Z</time></trkpt><trkpt lat="44.329314839207015" lon="11.131927677506717"><ele>626.0</ele><time>2026-04-04T08:31:46Z</time></trkpt><trkpt lat="44.32943217872782" lon="11.131806085690153"><ele>626.0</ele><time>2026-04-04T08:31:48Z</time></trkpt><trkpt lat="44.329466114977215" lon="11.131688858387404"><ele>626.0</ele><time>2026-04-04T08:31:49Z</time></trkpt><trkpt lat="44.329540822719956" lon="11.131576407363855"><ele>626.0</ele><time>2026-04-04T08:31:50Z</time></trkpt><trkpt lat="44.329604642850974" lon="11.131462004050155"><ele>626.0</ele><time>2026-04-04T08:31:52Z</time></trkpt><trkpt lat="44.32966631208542" lon="11.131335090535028"><ele>626.0</ele><time>2026-04-04T08:31:54Z</time></trkpt><trkpt lat="44.32961210332453" lon="11.131163381103624"><ele>626.3333333333333</ele><time>2026-04-04T08:31:56Z</time></trkpt><trkpt lat="44.329591146524564" lon="11.13107702506134"><ele>626.6666666666666</ele><time>2026-04-04T08:31:57Z</time></trkpt><trkpt lat="44.32957552394221" lon="11.13093231980055"><ele>627.0</ele><time>2026-04-04T08:31:58Z</time></trkpt><trkpt lat="44.32957088567918" lon="11.130776822791136"><ele>627.3333333333334</ele><time>2026-04-04T08:32:00Z</time></trkpt><trkpt lat="44.32957486568073" lon="11.130683446960145"><ele>627.6666666666667</ele><time>2026-04-04T08:32:02Z</time></trkpt><trkpt lat="44.32964422158823" lon="11.13065115797408"><ele>628.0</ele><time>2026-04-04T08:32:11Z</time></trkpt><trkpt lat="44.32971653630525" lon="11.130629765572415"><ele>631.0</ele><time>2026-04-04T08:32:13Z</time></trkpt><trkpt lat="44.329770905768314" lon="11.130542452692024"><ele>634.0</ele><time>2026-04-04T08:32:15Z</time></trkpt><trkpt lat="44.32980950259454" lon="11.130463305153759"><ele>637.0</ele><time>2026-04-04T08:32:17Z</time></trkpt><trkpt lat="44.32985963881189" lon="11.130375460516907"><ele>640.0</ele><time>2026-04-04T08:32:19Z</time></trkpt><trkpt lat="44.32990711454961" lon="11.13030837218647"><ele>643.0</ele><time>2026-04-04T08:32:21Z</time></trkpt><trkpt lat="44.32994609448432" lon="11.130235402366539"><ele>646.0</ele><time>2026-04-04T08:32:22Z</time></trkpt><trkpt lat="44.33000006128135" lon="11.130100159668372"><ele>646.0</ele><time>2026-04-04T08:32:24Z</time></trkpt><trkpt lat="44.33003801860541" lon="11.129939701176705"><ele>646.0</ele><time>2026-04-04T08:32:26Z</time></trkpt><trkpt lat="44.33007480401" lon="11.12981296192583"><ele>646.0</ele><time>2026-04-04T08:32:27Z</time></trkpt><trkpt lat="44.33010659640562" lon="11.129699066628403"><ele>646.0</ele><time>2026-04-04T08:32:28Z</time></trkpt><trkpt lat="44.33013224543752" lon="11.129600020628667"><ele>646.0</ele><time>2026-04-04T08:32:29Z</time></trkpt><trkpt lat="44.33015151718378" lon="11.129499317959326"><ele>647.3333333333334</ele><time>2026-04-04T08:32:30Z</time></trkpt><trkpt lat="44.330178091957094" lon="11.129395963005805"><ele>648.6666666666667</ele><time>2026-04-04T08:32:31Z</time></trkpt><trkpt lat="44.3302001007829" lon="11.129287115713499"><ele>650.0</ele><time>2026-04-04T08:32:32Z</time></trkpt><trkpt lat="44.33022333009658" lon="11.129182102101026"><ele>651.3333333333334</ele><time>2026-04-04T08:32:33Z</time></trkpt><trkpt lat="44.33024380893118" lon="11.129077922898325"><ele>652.6666666666666</ele><time>2026-04-04T08:32:34Z</time></trkpt><trkpt lat="44.330263873626805" lon="11.12896434938668"><ele>654.0</ele><time>2026-04-04T08:32:35Z</time></trkpt><trkpt lat="44.330292990825285" lon="11.128875033682258"><ele>657.8000000000001</ele><time>2026-04-04T08:32:36Z</time></trkpt><trkpt lat="44.33033711035671" lon="11.12869145399942"><ele>661.6</ele><time>2026-04-04T08:32:38Z</time></trkpt><trkpt lat="44.33036271687203" lon="11.1286026961311"><ele>665.4</ele><time>2026-04-04T08:32:39Z</time></trkpt><trkpt lat="44.330398573335266" lon="11.128501608529243"><ele>669.2</ele><time>2026-04-04T08:32:40Z</time></trkpt><trkpt lat="44.33044245389467" lon="11.128406941768498"><ele>673.0</ele><time>2026-04-04T08:32:41Z</time></trkpt><trkpt lat="44.330504801789495" lon="11.128292779382313"><ele>671.4</ele><time>2026-04-04T08:32:42Z</time></trkpt><trkpt lat="44.33056940665719" lon="11.128171008364957"><ele>669.8</ele><time>2026-04-04T08:32:43Z</time></trkpt><trkpt lat="44.33061825400377" lon="11.128103314707719"><ele>668.2</ele><time>2026-04-04T08:32:44.001Z</time></trkpt><trkpt lat="44.330691689289345" lon="11.128008980312158"><ele>666.6</ele><time>2026-04-04T08:32:46.001Z</time></trkpt><trkpt lat="44.330793624060874" lon="11.127930130420552"><ele>665.0</ele><time>2026-04-04T08:32:48.001Z</time></trkpt><trkpt lat="44.33094818830341" lon="11.12784290277496"><ele>665.0</ele><time>2026-04-04T08:32:50.001Z</time></trkpt><trkpt lat="44.331061387601416" lon="11.127781644806547"><ele>665.0</ele><time>2026-04-04T08:32:51.001Z</time></trkpt><trkpt lat="44.3311952449437" lon="11.127684822979491"><ele>665.0</ele><time>2026-04-04T08:32:52.001Z</time></trkpt><trkpt lat="44.331288010355514" lon="11.127615056259483"><ele>665.0</ele><time>2026-04-04T08:32:53.001Z</time></trkpt><trkpt lat="44.33141453835872" lon="11.127520044264937"><ele>666.6</ele><time>2026-04-04T08:32:54.001Z</time></trkpt><trkpt lat="44.33150956267224" lon="11.127451467420608"><ele>668.2</ele><time>2026-04-04T08:32:55.001Z</time></trkpt><trkpt lat="44.33158323907428" lon="11.12740417341631"><ele>669.8</ele><time>2026-04-04T08:32:56.001Z</time></trkpt><trkpt lat="44.33164521184944" lon="11.127360745733956"><ele>671.4</ele><time>2026-04-04T08:32:57.001Z</time></trkpt><trkpt lat="44.33175602079209" lon="11.127339829320098"><ele>673.0</ele><time>2026-04-04T08:32:59.001Z</time></trkpt><trkpt lat="44.33187083539185" lon="11.127307910581196"><ele>673.3333333333334</ele><time>2026-04-04T08:33:00.001Z</time></trkpt><trkpt lat="44.33193933374535" lon="11.127283604703544"><ele>673.6666666666667</ele><time>2026-04-04T08:33:01.001Z</time></trkpt><trkpt lat="44.33200722568602" lon="11.127257959552072"><ele>674.0</ele><time>2026-04-04T08:33:02.001Z</time></trkpt><trkpt lat="44.33207787795723" lon="11.127229755806285"><ele>674.3333333333334</ele><time>2026-04-04T08:33:03.001Z</time></trkpt><trkpt lat="44.332144040177276" lon="11.127191965261131"><ele>674.6666666666666</ele><time>2026-04-04T08:33:04.001Z</time></trkpt><trkpt lat="44.33223381504197" lon="11.127141598422483"><ele>675.0</ele><time>2026-04-04T08:33:06.001Z</time></trkpt><trkpt lat="44.33232799994953" lon="11.127084500595666"><ele>675.0</ele><time>2026-04-04T08:33:08.001Z</time></trkpt><trkpt lat="44.33241275287205" lon="11.127006378033009"><ele>675.0</ele><time>2026-04-04T08:33:11.001Z</time></trkpt><trkpt lat="44.33249046467594" lon="11.126965955216686"><ele>675.0</ele><time>2026-04-04T08:33:15.001Z</time></trkpt><trkpt lat="44.332559320952015" lon="11.126918803559924"><ele>675.0</ele><time>2026-04-04T08:33:17.001Z</time></trkpt><trkpt lat="44.33261875433859" lon="11.126863466541595"><ele>675.0</ele><time>2026-04-04T08:33:19.001Z</time></trkpt><trkpt lat="44.33269640142791" lon="11.126815286578074"><ele>675.0</ele><time>2026-04-04T08:33:22Z</time></trkpt><trkpt lat="44.332728386137546" lon="11.126687745296072"><ele>675.0</ele><time>2026-04-04T08:33:25Z</time></trkpt><trkpt lat="44.33274723335469" lon="11.1265629516985"><ele>675.0</ele><time>2026-04-04T08:33:26Z</time></trkpt><trkpt lat="44.33281993867668" lon="11.126448652663534"><ele>675.0</ele><time>2026-04-04T08:33:27Z</time></trkpt><trkpt lat="44.33283852300479" lon="11.126289556923563"><ele>675.0</ele><time>2026-04-04T08:33:28Z</time></trkpt><trkpt lat="44.33287353342041" lon="11.126085541552454"><ele>674.5</ele><time>2026-04-04T08:33:29Z</time></trkpt><trkpt lat="44.33291453132189" lon="11.125951326808039"><ele>674.0</ele><time>2026-04-04T08:33:30Z</time></trkpt><trkpt lat="44.333002073960714" lon="11.125815424691837"><ele>673.5</ele><time>2026-04-04T08:33:31Z</time></trkpt><trkpt lat="44.33307703950392" lon="11.125669154641447"><ele>673.0</ele><time>2026-04-04T08:33:32Z</time></trkpt><trkpt lat="44.333088367430435" lon="11.12550631662948"><ele>673.0</ele><time>2026-04-04T08:33:33Z</time></trkpt><trkpt lat="44.33314727281078" lon="11.125334149771046"><ele>673.0</ele><time>2026-04-04T08:33:34Z</time></trkpt><trkpt lat="44.33320785308442" lon="11.125174651819748"><ele>673.0</ele><time>2026-04-04T08:33:35Z</time></trkpt><trkpt lat="44.333295103351475" lon="11.124950282592673"><ele>673.0</ele><time>2026-04-04T08:33:36Z</time></trkpt><trkpt lat="44.33335123789856" lon="11.124808509498566"><ele>675.0</ele><time>2026-04-04T08:33:37Z</time></trkpt><trkpt lat="44.33338598074612" lon="11.124703364814227"><ele>677.0</ele><time>2026-04-04T08:33:38Z</time></trkpt><trkpt lat="44.33343903832321" lon="11.124567826371472"><ele>679.0</ele><time>2026-04-04T08:33:39Z</time></trkpt><trkpt lat="44.33348862942637" lon="11.124434055679968"><ele>681.0</ele><time>2026-04-04T08:33:40Z</time></trkpt><trkpt lat="44.33355068954517" lon="11.124326637937262"><ele>683.0</ele><time>2026-04-04T08:33:41Z</time></trkpt><trkpt lat="44.333602458809956" lon="11.124224421290943"><ele>683.0</ele><time>2026-04-04T08:33:42Z</time></trkpt><trkpt lat="44.33364252611843" lon="11.124125690185581"><ele>683.0</ele><time>2026-04-04T08:33:43Z</time></trkpt><trkpt lat="44.33369706382691" lon="11.124035991773596"><ele>683.0</ele><time>2026-04-04T08:33:45Z</time></trkpt><trkpt lat="44.33371304305561" lon="11.123946652341687"><ele>683.0</ele><time>2026-04-04T08:33:47Z</time></trkpt><trkpt lat="44.33372036003067" lon="11.123856305611636"><ele>683.0</ele><time>2026-04-04T08:33:48Z</time></trkpt><trkpt lat="44.333677541335774" lon="11.123671708341094"><ele>683.0</ele><time>2026-04-04T08:33:50Z</time></trkpt><trkpt lat="44.33361202626569" lon="11.12358905780713"><ele>682.0</ele><time>2026-04-04T08:33:51Z</time></trkpt><trkpt lat="44.33354806502113" lon="11.123490173660178"><ele>681.0</ele><time>2026-04-04T08:33:53Z</time></trkpt><trkpt lat="44.33352685049076" lon="11.123394037834247"><ele>680.0</ele><time>2026-04-04T08:34:00Z</time></trkpt><trkpt lat="44.333457392045425" lon="11.12345249037127"><ele>679.0</ele><time>2026-04-04T08:34:05Z</time></trkpt><trkpt lat="44.33338772181751" lon="11.123545532057932"><ele>678.0</ele><time>2026-04-04T08:34:07Z</time></trkpt><trkpt lat="44.33336830057624" lon="11.123666210758506"><ele>677.0</ele><time>2026-04-04T08:34:09Z</time></trkpt><trkpt lat="44.33342142002721" lon="11.123614016167107"><ele>677.0</ele><time>2026-04-04T08:34:49Z</time></trkpt><trkpt lat="44.33348885973316" lon="11.123586523909804"><ele>677.0</ele><time>2026-04-04T08:34:50Z</time></trkpt><trkpt lat="44.33356563389154" lon="11.123472440887578"><ele>677.0</ele><time>2026-04-04T08:34:52.001Z</time></trkpt><trkpt lat="44.333537749019825" lon="11.123369186067444"><ele>677.0</ele><time>2026-04-04T08:35:34Z</time></trkpt><trkpt lat="44.33347381020441" lon="11.123395655991754"><ele>677.0</ele><time>2026-04-04T08:35:37Z</time></trkpt><trkpt lat="44.33354005076068" lon="11.123473442834797"><ele>677.0</ele><time>2026-04-04T08:35:38Z</time></trkpt><trkpt lat="44.333573402114354" lon="11.123569660455987"><ele>677.0</ele><time>2026-04-04T08:35:40Z</time></trkpt><trkpt lat="44.333628103263" lon="11.12365516008602"><ele>677.0</ele><time>2026-04-04T08:35:42Z</time></trkpt><trkpt lat="44.33366955091287" lon="11.123773005486187"><ele>677.0</ele><time>2026-04-04T08:35:44Z</time></trkpt><trkpt lat="44.3336913179696" lon="11.123899464232089"><ele>677.0</ele><time>2026-04-04T08:35:46Z</time></trkpt><trkpt lat="44.33371588698049" lon="11.12399269552345"><ele>677.0</ele><time>2026-04-04T08:35:47Z</time></trkpt><trkpt lat="44.33369585081094" lon="11.124087435167826"><ele>677.0</ele><time>2026-04-04T08:35:48Z</time></trkpt><trkpt lat="44.33363552781229" lon="11.124114067068698"><ele>677.0</ele><time>2026-04-04T08:35:49Z</time></trkpt><trkpt lat="44.333570494770164" lon="11.124205584821485"><ele>677.0</ele><time>2026-04-04T08:35:51Z</time></trkpt><trkpt lat="44.33353418983311" lon="11.124279593191316"><ele>677.0</ele><time>2026-04-04T08:35:53Z</time></trkpt><trkpt lat="44.33359904789312" lon="11.124225116127239"><ele>677.0</ele><time>2026-04-04T08:36:13Z</time></trkpt><trkpt lat="44.333662700484915" lon="11.124153187283662"><ele>677.0</ele><time>2026-04-04T08:36:57Z</time></trkpt><trkpt lat="44.33369188005641" lon="11.124022875022833"><ele>677.0</ele><time>2026-04-04T08:37:00.001Z</time></trkpt><trkpt lat="44.333695350145234" lon="11.12392962540194"><ele>677.0</ele><time>2026-04-04T08:37:01.001Z</time></trkpt><trkpt lat="44.33370070990484" lon="11.123787211850724"><ele>677.0</ele><time>2026-04-04T08:37:03.001Z</time></trkpt><trkpt lat="44.33369486527145" lon="11.123645598447006"><ele>677.0</ele><time>2026-04-04T08:37:05.001Z</time></trkpt><trkpt lat="44.333652934932424" lon="11.123566850940678"><ele>677.0</ele><time>2026-04-04T08:37:06.001Z</time></trkpt><trkpt lat="44.33356938925874" lon="11.123505853669053"><ele>677.0</ele><time>2026-04-04T08:37:07.001Z</time></trkpt><trkpt lat="44.33351541112647" lon="11.123424643969553"><ele>677.0</ele><time>2026-04-04T08:37:09.001Z</time></trkpt><trkpt lat="44.333428049038936" lon="11.123486374680734"><ele>677.0</ele><time>2026-04-04T08:37:38Z</time></trkpt><trkpt lat="44.333381621057974" lon="11.123574002468041"><ele>677.0</ele><time>2026-04-04T08:37:59Z</time></trkpt><trkpt lat="44.33343751037271" lon="11.123628159079935"><ele>677.0</ele><time>2026-04-04T08:38:07Z</time></trkpt><trkpt lat="44.333560647833636" lon="11.123561652028732"><ele>677.0</ele><time>2026-04-04T08:38:09Z</time></trkpt><trkpt lat="44.333595404663384" lon="11.12364858291189"><ele>677.0</ele><time>2026-04-04T08:38:14Z</time></trkpt><trkpt lat="44.333584817314936" lon="11.123805860116548"><ele>677.0</ele><time>2026-04-04T08:38:17Z</time></trkpt><trkpt lat="44.33345065321689" lon="11.12399630257286"><ele>677.0</ele><time>2026-04-04T08:38:20Z</time></trkpt><trkpt lat="44.33341657674494" lon="11.124083023556372"><ele>677.0</ele><time>2026-04-04T08:38:21Z</time></trkpt><trkpt lat="44.33338214806821" lon="11.124162862225292"><ele>677.0</ele><time>2026-04-04T08:38:22Z</time></trkpt><trkpt lat="44.33348826084111" lon="11.124381506373055"><ele>676.2</ele><time>2026-04-04T08:38:23Z</time></trkpt><trkpt lat="44.33341284544874" lon="11.124562440185773"><ele>675.4000000000001</ele><time>2026-04-04T08:38:24Z</time></trkpt><trkpt lat="44.333378339914894" lon="11.124647261302137"><ele>674.5999999999999</ele><time>2026-04-04T08:38:25Z</time></trkpt><trkpt lat="44.33334041239044" lon="11.124740494487051"><ele>673.8</ele><time>2026-04-04T08:38:26Z</time></trkpt><trkpt lat="44.33330216151964" lon="11.124836423855823"><ele>673.0</ele><time>2026-04-04T08:38:27Z</time></trkpt><trkpt lat="44.33327848954969" lon="11.124944172202358"><ele>673.0</ele><time>2026-04-04T08:38:28Z</time></trkpt><trkpt lat="44.33321548797906" lon="11.12505583547826"><ele>673.0</ele><time>2026-04-04T08:38:29Z</time></trkpt><trkpt lat="44.33318896272809" lon="11.125170933672548"><ele>673.0</ele><time>2026-04-04T08:38:30Z</time></trkpt><trkpt lat="44.333145944983585" lon="11.12526779053715"><ele>673.0</ele><time>2026-04-04T08:38:31Z</time></trkpt><trkpt lat="44.333104798656684" lon="11.125365843775999"><ele>673.0</ele><time>2026-04-04T08:38:32Z</time></trkpt><trkpt lat="44.3330721644556" lon="11.125462923390415"><ele>673.0</ele><time>2026-04-04T08:38:33Z</time></trkpt><trkpt lat="44.33302026599796" lon="11.125632270370124"><ele>668.75</ele><time>2026-04-04T08:38:36Z</time></trkpt><trkpt lat="44.333019618453925" lon="11.125860956079618"><ele>664.5</ele><time>2026-04-04T08:38:38Z</time></trkpt><trkpt lat="44.3330056318624" lon="11.125987447944848"><ele>660.25</ele><time>2026-04-04T08:38:39Z</time></trkpt><trkpt lat="44.33297031346318" lon="11.126104953391922"><ele>656.0</ele><time>2026-04-04T08:38:40Z</time></trkpt><trkpt lat="44.332914782162945" lon="11.126253325642889"><ele>656.0</ele><time>2026-04-04T08:38:42Z</time></trkpt><trkpt lat="44.33285739577684" lon="11.126378201504169"><ele>656.0</ele><time>2026-04-04T08:38:44Z</time></trkpt><trkpt lat="44.33280923287506" lon="11.126473262230274"><ele>656.0</ele><time>2026-04-04T08:38:45Z</time></trkpt><trkpt lat="44.33275587736046" lon="11.126565650426798"><ele>656.0</ele><time>2026-04-04T08:38:46Z</time></trkpt><trkpt lat="44.3326831506796" lon="11.126679352844853"><ele>656.0</ele><time>2026-04-04T08:38:47Z</time></trkpt><trkpt lat="44.33262757322467" lon="11.12675639688365"><ele>659.1666666666666</ele><time>2026-04-04T08:38:48Z</time></trkpt><trkpt lat="44.33257697948712" lon="11.126820422991822"><ele>662.3333333333333</ele><time>2026-04-04T08:38:49Z</time></trkpt><trkpt lat="44.332527547109244" lon="11.126877598206372"><ele>665.5</ele><time>2026-04-04T08:38:50Z</time></trkpt><trkpt lat="44.33245129995048" lon="11.126959587165265"><ele>668.6666666666666</ele><time>2026-04-04T08:38:51Z</time></trkpt><trkpt lat="44.332356314842315" lon="11.127034977477646"><ele>671.8333333333334</ele><time>2026-04-04T08:38:53Z</time></trkpt><trkpt lat="44.33229404820524" lon="11.127075018673004"><ele>675.0</ele><time>2026-04-04T08:38:54Z</time></trkpt><trkpt lat="44.33223108137148" lon="11.12711116306734"><ele>670.6666666666666</ele><time>2026-04-04T08:38:56Z</time></trkpt><trkpt lat="44.3321175684109" lon="11.127190839334897"><ele>666.3333333333334</ele><time>2026-04-04T08:38:58Z</time></trkpt><trkpt lat="44.332051445757614" lon="11.127208692212838"><ele>662.0</ele><time>2026-04-04T08:38:59Z</time></trkpt><trkpt lat="44.331989951279475" lon="11.127234209069604"><ele>657.6666666666667</ele><time>2026-04-04T08:39:00Z</time></trkpt><trkpt lat="44.33190750558246" lon="11.127264497327388"><ele>653.3333333333334</ele><time>2026-04-04T08:39:01Z</time></trkpt><trkpt lat="44.33183113460328" lon="11.127291358706989"><ele>649.0</ele><time>2026-04-04T08:39:02Z</time></trkpt><trkpt lat="44.33176088253872" lon="11.127308800379321"><ele>649.0</ele><time>2026-04-04T08:39:03Z</time></trkpt><trkpt lat="44.331692129544706" lon="11.127322045766952"><ele>649.0</ele><time>2026-04-04T08:39:04Z</time></trkpt><trkpt lat="44.331618486616534" lon="11.12735270420631"><ele>649.0</ele><time>2026-04-04T08:39:05Z</time></trkpt><trkpt lat="44.33155635603586" lon="11.12738859938485"><ele>649.0</ele><time>2026-04-04T08:39:06Z</time></trkpt><trkpt lat="44.331496348341716" lon="11.127427482187109"><ele>649.0</ele><time>2026-04-04T08:39:08Z</time></trkpt><trkpt lat="44.331423064816725" lon="11.127476267784145"><ele>649.0</ele><time>2026-04-04T08:39:10Z</time></trkpt><trkpt lat="44.331335278656745" lon="11.127537267462248"><ele>652.2</ele><time>2026-04-04T08:39:11Z</time></trkpt><trkpt lat="44.331237986179076" lon="11.127615447698963"><ele>655.4000000000001</ele><time>2026-04-04T08:39:12Z</time></trkpt><trkpt lat="44.331141385734625" lon="11.127696934342293"><ele>658.6</ele><time>2026-04-04T08:39:13Z</time></trkpt><trkpt lat="44.33104607708097" lon="11.127776809895915"><ele>661.8</ele><time>2026-04-04T08:39:14Z</time></trkpt><trkpt lat="44.33095595263074" lon="11.127807811213136"><ele>665.0</ele><time>2026-04-04T08:39:15Z</time></trkpt><trkpt lat="44.33086230095946" lon="11.127854707906389"><ele>665.0</ele><time>2026-04-04T08:39:16Z</time></trkpt><trkpt lat="44.3307694587005" lon="11.127924599089662"><ele>665.0</ele><time>2026-04-04T08:39:17Z</time></trkpt><trkpt lat="44.33066804805962" lon="11.127986902404368"><ele>665.0</ele><time>2026-04-04T08:39:18Z</time></trkpt><trkpt lat="44.33060821088024" lon="11.128091956907982"><ele>665.0</ele><time>2026-04-04T08:39:19Z</time></trkpt><trkpt lat="44.33052623846844" lon="11.128189371830214"><ele>665.0</ele><time>2026-04-04T08:39:20Z</time></trkpt><trkpt lat="44.330484554966496" lon="11.128280526472482"><ele>666.3333333333333</ele><time>2026-04-04T08:39:21Z</time></trkpt><trkpt lat="44.330427909308305" lon="11.128383652587663"><ele>667.6666666666666</ele><time>2026-04-04T08:39:22Z</time></trkpt><trkpt lat="44.330379244762305" lon="11.12848591637853"><ele>669.0</ele><time>2026-04-04T08:39:23Z</time></trkpt><trkpt lat="44.33034002203681" lon="11.12858660853389"><ele>670.3333333333334</ele><time>2026-04-04T08:39:24Z</time></trkpt><trkpt lat="44.330304443514734" lon="11.128710674233485"><ele>671.6666666666667</ele><time>2026-04-04T08:39:25Z</time></trkpt><trkpt lat="44.330282470152184" lon="11.128810481290278"><ele>673.0</ele><time>2026-04-04T08:39:26Z</time></trkpt><trkpt lat="44.33026094535027" lon="11.12892505022661"><ele>673.0</ele><time>2026-04-04T08:39:27Z</time></trkpt><trkpt lat="44.33024703133337" lon="11.129023662260005"><ele>673.0</ele><time>2026-04-04T08:39:28Z</time></trkpt><trkpt lat="44.33022696815053" lon="11.12911168665951"><ele>673.0</ele><time>2026-04-04T08:39:29Z</time></trkpt><trkpt lat="44.330195809872166" lon="11.129224968642829"><ele>673.0</ele><time>2026-04-04T08:39:30Z</time></trkpt><trkpt lat="44.33017852156581" lon="11.129333804598675"><ele>673.0</ele><time>2026-04-04T08:39:31Z</time></trkpt><trkpt lat="44.330157552469295" lon="11.12944158164551"><ele>673.0</ele><time>2026-04-04T08:39:32Z</time></trkpt><trkpt lat="44.33013530574313" lon="11.129535898998784"><ele>669.2</ele><time>2026-04-04T08:39:33Z</time></trkpt><trkpt lat="44.330096333803645" lon="11.129653413416472"><ele>665.4</ele><time>2026-04-04T08:39:34Z</time></trkpt><trkpt lat="44.33006684617915" lon="11.12976258154738"><ele>661.6</ele><time>2026-04-04T08:39:35Z</time></trkpt><trkpt lat="44.33004869453969" lon="11.129882635022488"><ele>657.8000000000001</ele><time>2026-04-04T08:39:36Z</time></trkpt><trkpt lat="44.330008572256205" lon="11.130005118812392"><ele>654.0</ele><time>2026-04-04T08:39:37Z</time></trkpt><trkpt lat="44.329957835980196" lon="11.130111726507915"><ele>652.6666666666666</ele><time>2026-04-04T08:39:38Z</time></trkpt><trkpt lat="44.32991228850123" lon="11.130232278733667"><ele>651.3333333333334</ele><time>2026-04-04T08:39:39Z</time></trkpt><trkpt lat="44.329859936785084" lon="11.130334549187623"><ele>650.0</ele><time>2026-04-04T08:39:40Z</time></trkpt><trkpt lat="44.32982362183449" lon="11.130425051307457"><ele>648.6666666666667</ele><time>2026-04-04T08:39:41Z</time></trkpt><trkpt lat="44.329779628044406" lon="11.130525795560414"><ele>647.3333333333334</ele><time>2026-04-04T08:41:31Z</time></trkpt><trkpt lat="44.329755348737955" lon="11.13062420313846"><ele>646.0</ele><time>2026-04-04T08:41:34Z</time></trkpt><trkpt lat="44.32971826197853" lon="11.130767688529959"><ele>642.4</ele><time>2026-04-04T08:41:36Z</time></trkpt><trkpt lat="44.329688064068236" lon="11.1308835650942"><ele>638.8</ele><time>2026-04-04T08:41:38Z</time></trkpt><trkpt lat="44.32971529950329" lon="11.130995825301653"><ele>635.1999999999999</ele><time>2026-04-04T08:41:40Z</time></trkpt><trkpt lat="44.32970844655569" lon="11.131106027773729"><ele>631.5999999999999</ele><time>2026-04-04T08:41:42Z</time></trkpt><trkpt lat="44.329669352293955" lon="11.131227924188353"><ele>628.0</ele><time>2026-04-04T08:41:44Z</time></trkpt><trkpt lat="44.329600278358136" lon="11.131347629214202"><ele>628.0</ele><time>2026-04-04T08:41:46Z</time></trkpt><trkpt lat="44.32954952583208" lon="11.131498070623662"><ele>628.0</ele><time>2026-04-04T08:41:48Z</time></trkpt><trkpt lat="44.32947613218176" lon="11.131604912117876"><ele>628.0</ele><time>2026-04-04T08:41:50Z</time></trkpt><trkpt lat="44.32941965300018" lon="11.131685757885737"><ele>628.0</ele><time>2026-04-04T08:41:52Z</time></trkpt><trkpt lat="44.32936016213696" lon="11.131761444377222"><ele>628.0</ele><time>2026-04-04T08:41:54Z</time></trkpt><trkpt lat="44.32927956643861" lon="11.13181835960144"><ele>627.6</ele><time>2026-04-04T08:41:56Z</time></trkpt><trkpt lat="44.3292611057074" lon="11.131934406891347"><ele>627.1999999999999</ele><time>2026-04-04T08:44:12.999Z</time></trkpt><trkpt lat="44.32932024140942" lon="11.131973901201949"><ele>626.8</ele><time>2026-04-04T08:44:17.999Z</time></trkpt><trkpt lat="44.32948259060127" lon="11.132015898837926"><ele>626.4</ele><time>2026-04-04T08:44:20.999Z</time></trkpt><trkpt lat="44.32958227299289" lon="11.131982217054768"><ele>626.0</ele><time>2026-04-04T08:44:48.999Z</time></trkpt><trkpt lat="44.32968685787596" lon="11.131941507618224"><ele>624.8333333333333</ele><time>2026-04-04T08:44:51.999Z</time></trkpt><trkpt lat="44.329747895152735" lon="11.131908151697838"><ele>623.6666666666666</ele><time>2026-04-04T08:44:53.999Z</time></trkpt><trkpt lat="44.32981681830497" lon="11.131873294425409"><ele>622.5</ele><time>2026-04-04T08:44:55.999Z</time></trkpt><trkpt lat="44.32991004153335" lon="11.131853857063067"><ele>621.3333333333334</ele><time>2026-04-04T08:44:58.999Z</time></trkpt><trkpt lat="44.329987577678885" lon="11.131748527702818"><ele>620.1666666666667</ele><time>2026-04-04T08:45:00.999Z</time></trkpt><trkpt lat="44.33002995166259" lon="11.131671727151852"><ele>619.0</ele><time>2026-04-04T08:45:01.999Z</time></trkpt><trkpt lat="44.33008296285452" lon="11.131612227924714"><ele>622.1666666666667</ele><time>2026-04-04T08:45:03.999Z</time></trkpt><trkpt lat="44.330129937631924" lon="11.131544790169222"><ele>625.3333333333334</ele><time>2026-04-04T08:45:09.999Z</time></trkpt><trkpt lat="44.3300601330962" lon="11.131541099003046"><ele>628.5</ele><time>2026-04-04T08:45:24.997Z</time></trkpt><trkpt lat="44.33012664114578" lon="11.131545858771418"><ele>631.6666666666666</ele><time>2026-04-04T08:45:45.999Z</time></trkpt><trkpt lat="44.33018504183265" lon="11.131507860414292"><ele>634.8333333333333</ele><time>2026-04-04T08:45:58.999Z</time></trkpt><trkpt lat="44.33026850552596" lon="11.131421947194546"><ele>638.0</ele><time>2026-04-04T08:46:28.999Z</time></trkpt><trkpt lat="44.33035682948197" lon="11.131366616401104"><ele>638.0</ele><time>2026-04-04T08:46:29.999Z</time></trkpt><trkpt lat="44.33043882893014" lon="11.131243379952824"><ele>638.0</ele><time>2026-04-04T08:46:30.999Z</time></trkpt><trkpt lat="44.33053143817703" lon="11.131190154842898"><ele>638.0</ele><time>2026-04-04T08:46:31.999Z</time></trkpt><trkpt lat="44.330593021172746" lon="11.131123858342464"><ele>638.0</ele><time>2026-04-04T08:46:32.999Z</time></trkpt><trkpt lat="44.33065888637075" lon="11.13107311116427"><ele>638.0</ele><time>2026-04-04T08:46:33.999Z</time></trkpt><trkpt lat="44.33073444620562" lon="11.131046494820833"><ele>632.8</ele><time>2026-04-04T08:46:34.999Z</time></trkpt><trkpt lat="44.33082765745675" lon="11.131013728107707"><ele>627.5999999999999</ele><time>2026-04-04T08:46:35.999Z</time></trkpt><trkpt lat="44.33090661114039" lon="11.130964264192409"><ele>622.4000000000001</ele><time>2026-04-04T08:46:36.999Z</time></trkpt><trkpt lat="44.33098195464952" lon="11.130895646381047"><ele>617.2</ele><time>2026-04-04T08:46:37.999Z</time></trkpt><trkpt lat="44.331051766096124" lon="11.130823922063868"><ele>612.0</ele><time>2026-04-04T08:46:38.999Z</time></trkpt><trkpt lat="44.33112435096686" lon="11.130741166594966"><ele>612.6666666666666</ele><time>2026-04-04T08:46:39.999Z</time></trkpt><trkpt lat="44.33119172719654" lon="11.130666428068151"><ele>613.3333333333334</ele><time>2026-04-04T08:46:40.999Z</time></trkpt><trkpt lat="44.33126050258223" lon="11.130603914877405"><ele>614.0</ele><time>2026-04-04T08:46:41.999Z</time></trkpt><trkpt lat="44.33135066245375" lon="11.130579039175872"><ele>614.6666666666667</ele><time>2026-04-04T08:46:43.999Z</time></trkpt><trkpt lat="44.33143802992822" lon="11.13052905064151"><ele>615.3333333333334</ele><time>2026-04-04T08:46:45.999Z</time></trkpt><trkpt lat="44.33151409087167" lon="11.130480639184174"><ele>616.0</ele><time>2026-04-04T08:46:46.999Z</time></trkpt><trkpt lat="44.33139893492497" lon="11.130394729335794"><ele>616.0</ele><time>2026-04-04T08:46:47.999Z</time></trkpt><trkpt lat="44.33141707372547" lon="11.130485777018384"><ele>616.0</ele><time>2026-04-04T08:46:48.999Z</time></trkpt><trkpt lat="44.33135439845649" lon="11.130465246552589"><ele>616.0</ele><time>2026-04-04T08:46:50.999Z</time></trkpt><trkpt lat="44.331355750541334" lon="11.130373934590272"><ele>616.0</ele><time>2026-04-04T08:47:19.999Z</time></trkpt><trkpt lat="44.33131362092016" lon="11.130445775524148"><ele>616.0</ele><time>2026-04-04T08:47:45Z</time></trkpt><trkpt lat="44.331400665203155" lon="11.130454639051823"><ele>616.0</ele><time>2026-04-04T08:47:47Z</time></trkpt><trkpt lat="44.33142993890841" lon="11.130547416170613"><ele>616.0</ele><time>2026-04-04T08:47:49Z</time></trkpt><trkpt lat="44.331474032962625" lon="11.130446849953453"><ele>616.0</ele><time>2026-04-04T08:47:55Z</time></trkpt><trkpt lat="44.33155930373381" lon="11.130283286989076"><ele>616.0</ele><time>2026-04-04T08:47:59Z</time></trkpt><trkpt lat="44.33147883480187" lon="11.130304702320862"><ele>616.0</ele><time>2026-04-04T08:48:00Z</time></trkpt><trkpt lat="44.33142650718816" lon="11.130366741014702"><ele>616.0</ele><time>2026-04-04T08:48:07Z</time></trkpt><trkpt lat="44.33141194119943" lon="11.130280190316862"><ele>616.0</ele><time>2026-04-04T08:48:17Z</time></trkpt><trkpt lat="44.33145759928823" lon="11.130174279777863"><ele>616.0</ele><time>2026-04-04T08:48:22Z</time></trkpt><trkpt lat="44.33178438144323" lon="11.130185884502911"><ele>616.0</ele><time>2026-04-04T08:48:43Z</time></trkpt><trkpt lat="44.33191847132592" lon="11.130179184413224"><ele>616.0</ele><time>2026-04-04T08:48:47Z</time></trkpt><trkpt lat="44.33203268861109" lon="11.130171450415421"><ele>616.0</ele><time>2026-04-04T08:48:48Z</time></trkpt><trkpt lat="44.332072806384055" lon="11.130095816683623"><ele>616.0</ele><time>2026-04-04T08:48:49Z</time></trkpt><trkpt lat="44.33217971167366" lon="11.130032944554012"><ele>616.0</ele><time>2026-04-04T08:48:51Z</time></trkpt><trkpt lat="44.33222528708105" lon="11.129934178353778"><ele>617.8333333333334</ele><time>2026-04-04T08:48:52Z</time></trkpt><trkpt lat="44.33231999178261" lon="11.129909250898384"><ele>619.6666666666667</ele><time>2026-04-04T08:48:53Z</time></trkpt><trkpt lat="44.332402770535786" lon="11.129824589957737"><ele>621.5</ele><time>2026-04-04T08:48:55Z</time></trkpt><trkpt lat="44.33245419470668" lon="11.129746036988623"><ele>623.3333333333334</ele><time>2026-04-04T08:48:56Z</time></trkpt><trkpt lat="44.33252349473539" lon="11.129678094927447"><ele>625.1666666666666</ele><time>2026-04-04T08:48:58Z</time></trkpt><trkpt lat="44.332521503609165" lon="11.129565165461202"><ele>627.0</ele><time>2026-04-04T08:48:59Z</time></trkpt><trkpt lat="44.332513763509155" lon="11.129459521608167"><ele>629.5</ele><time>2026-04-04T08:49:00Z</time></trkpt><trkpt lat="44.33251611595092" lon="11.129232838266539"><ele>632.0</ele><time>2026-04-04T08:49:02Z</time></trkpt><trkpt lat="44.33256152503273" lon="11.129126308085503"><ele>634.5</ele><time>2026-04-04T08:49:03Z</time></trkpt><trkpt lat="44.332623597522876" lon="11.129017745234247"><ele>637.0</ele><time>2026-04-04T08:49:04Z</time></trkpt><trkpt lat="44.332669561559" lon="11.128888614298708"><ele>641.8</ele><time>2026-04-04T08:49:05Z</time></trkpt><trkpt lat="44.33269560644836" lon="11.12876148948909"><ele>646.6</ele><time>2026-04-04T08:49:06Z</time></trkpt><trkpt lat="44.33274142386514" lon="11.128587129058003"><ele>651.4</ele><time>2026-04-04T08:49:07Z</time></trkpt><trkpt lat="44.33283108081727" lon="11.128479970174778"><ele>656.1999999999999</ele><time>2026-04-04T08:49:09Z</time></trkpt><trkpt lat="44.332753166139824" lon="11.128495834087264"><ele>661.0</ele><time>2026-04-04T08:49:17Z</time></trkpt><trkpt lat="44.33269573676789" lon="11.128561528066724"><ele>661.0</ele><time>2026-04-04T08:49:20Z</time></trkpt><trkpt lat="44.332700057850374" lon="11.128711874235039"><ele>661.0</ele><time>2026-04-04T08:49:22Z</time></trkpt><trkpt lat="44.33262833021203" lon="11.128840037717072"><ele>661.0</ele><time>2026-04-04T08:49:24Z</time></trkpt><trkpt lat="44.332582396735305" lon="11.12893294100886"><ele>661.0</ele><time>2026-04-04T08:49:26Z</time></trkpt><trkpt lat="44.332607573825506" lon="11.129079237926561"><ele>661.0</ele><time>2026-04-04T08:49:29Z</time></trkpt><trkpt lat="44.332570651419054" lon="11.129170745563018"><ele>655.0</ele><time>2026-04-04T08:49:31Z</time></trkpt><trkpt lat="44.33246904855759" lon="11.129230943287592"><ele>649.0</ele><time>2026-04-04T08:49:34Z</time></trkpt><trkpt lat="44.33241737415276" lon="11.129315850192468"><ele>643.0</ele><time>2026-04-04T08:49:36Z</time></trkpt><trkpt lat="44.33231122558668" lon="11.129437890604235"><ele>637.0</ele><time>2026-04-04T08:49:38Z</time></trkpt><trkpt lat="44.33229819260122" lon="11.1296906687065"><ele>637.0</ele><time>2026-04-04T08:49:39Z</time></trkpt><trkpt lat="44.33225011817988" lon="11.129799574710841"><ele>637.0</ele><time>2026-04-04T08:49:40Z</time></trkpt><trkpt lat="44.33220622109751" lon="11.129983022374233"><ele>637.0</ele><time>2026-04-04T08:49:41Z</time></trkpt><trkpt lat="44.33218896776783" lon="11.130106135696376"><ele>637.0</ele><time>2026-04-04T08:49:42Z</time></trkpt><trkpt lat="44.33215071473853" lon="11.130233525701518"><ele>637.0</ele><time>2026-04-04T08:49:43Z</time></trkpt><trkpt lat="44.332119314831736" lon="11.130373156574286"><ele>633.5</ele><time>2026-04-04T08:49:44Z</time></trkpt><trkpt lat="44.332064012433094" lon="11.130442414210206"><ele>630.0</ele><time>2026-04-04T08:49:45Z</time></trkpt><trkpt lat="44.33200246548924" lon="11.130538803508134"><ele>626.5</ele><time>2026-04-04T08:49:46Z</time></trkpt><trkpt lat="44.331946512895016" lon="11.13062246280205"><ele>623.0</ele><time>2026-04-04T08:49:47Z</time></trkpt><trkpt lat="44.33186545397828" lon="11.1306496055638"><ele>619.5</ele><time>2026-04-04T08:49:48Z</time></trkpt><trkpt lat="44.331786665320095" lon="11.13070223688444"><ele>616.0</ele><time>2026-04-04T08:49:49Z</time></trkpt><trkpt lat="44.331727919770955" lon="11.130744598329832"><ele>616.0</ele><time>2026-04-04T08:49:50Z</time></trkpt><trkpt lat="44.33166528893544" lon="11.130558734721657"><ele>616.0</ele><time>2026-04-04T08:49:51Z</time></trkpt><trkpt lat="44.3315629137599" lon="11.130499165089029"><ele>616.0</ele><time>2026-04-04T08:49:52Z</time></trkpt><trkpt lat="44.33147336738352" lon="11.13020803286142"><ele>616.0</ele><time>2026-04-04T08:49:53Z</time></trkpt><trkpt lat="44.3313991822908" lon="11.130202058974382"><ele>616.0</ele><time>2026-04-04T08:49:55Z</time></trkpt><trkpt lat="44.331294601969624" lon="11.130235356767928"><ele>616.0</ele><time>2026-04-04T08:50:12Z</time></trkpt><trkpt lat="44.331392645293015" lon="11.130290870164098"><ele>616.0</ele><time>2026-04-04T08:50:18Z</time></trkpt><trkpt lat="44.331460150685444" lon="11.130458174429155"><ele>616.0</ele><time>2026-04-04T08:50:46Z</time></trkpt><trkpt lat="44.33138621317052" lon="11.130466598192381"><ele>616.0</ele><time>2026-04-04T08:50:47Z</time></trkpt><trkpt lat="44.331358238768516" lon="11.13038537360153"><ele>616.0</ele><time>2026-04-04T08:50:50Z</time></trkpt><trkpt lat="44.331391168160984" lon="11.130534123873693"><ele>616.0</ele><time>2026-04-04T08:50:54Z</time></trkpt><trkpt lat="44.33147353624761" lon="11.130686249900554"><ele>616.0</ele><time>2026-04-04T08:50:56Z</time></trkpt><trkpt lat="44.331533950914576" lon="11.130770992965024"><ele>616.0</ele><time>2026-04-04T08:50:57Z</time></trkpt><trkpt lat="44.33159348544072" lon="11.130812321177114"><ele>613.8333333333334</ele><time>2026-04-04T08:50:59Z</time></trkpt><trkpt lat="44.33155764242058" lon="11.130899292904418"><ele>611.6666666666667</ele><time>2026-04-04T08:51:02Z</time></trkpt><trkpt lat="44.3315329588848" lon="11.131011140878575"><ele>609.5</ele><time>2026-04-04T08:51:03Z</time></trkpt><trkpt lat="44.33152917380202" lon="11.13111199823862"><ele>607.3333333333334</ele><time>2026-04-04T08:51:04Z</time></trkpt><trkpt lat="44.33153777486244" lon="11.13120169907757"><ele>605.1666666666666</ele><time>2026-04-04T08:51:05Z</time></trkpt><trkpt lat="44.33155007791766" lon="11.131315850736959"><ele>603.0</ele><time>2026-04-04T08:51:07Z</time></trkpt><trkpt lat="44.331538034817946" lon="11.131493601743218"><ele>602.8333333333334</ele><time>2026-04-04T08:51:09Z</time></trkpt><trkpt lat="44.3315348869168" lon="11.13162150544107"><ele>602.6666666666666</ele><time>2026-04-04T08:51:11Z</time></trkpt><trkpt lat="44.33151318738479" lon="11.131708881432846"><ele>602.5</ele><time>2026-04-04T08:51:12Z</time></trkpt><trkpt lat="44.33150642348235" lon="11.131800572566645"><ele>602.3333333333333</ele><time>2026-04-04T08:51:13Z</time></trkpt><trkpt lat="44.33145700640761" lon="11.131911945010367"><ele>602.1666666666666</ele><time>2026-04-04T08:51:15Z</time></trkpt><trkpt lat="44.33145024245751" lon="11.132079363541251"><ele>602.0</ele><time>2026-04-04T08:51:17Z</time></trkpt><trkpt lat="44.33149972487741" lon="11.132196742040493"><ele>602.0</ele><time>2026-04-04T08:51:19Z</time></trkpt><trkpt lat="44.331568784949965" lon="11.132284436449051"><ele>602.0</ele><time>2026-04-04T08:51:20Z</time></trkpt><trkpt lat="44.33160398267045" lon="11.132373069273772"><ele>602.0</ele><time>2026-04-04T08:51:21Z</time></trkpt><trkpt lat="44.33166757634431" lon="11.132458666418593"><ele>602.0</ele><time>2026-04-04T08:51:22Z</time></trkpt><trkpt lat="44.33169399591017" lon="11.13255419017416"><ele>602.0</ele><time>2026-04-04T08:51:23Z</time></trkpt><trkpt lat="44.331713037671115" lon="11.13266740783516"><ele>602.0</ele><time>2026-04-04T08:51:24Z</time></trkpt><trkpt lat="44.33175294684475" lon="11.132778769322917"><ele>602.1666666666666</ele><time>2026-04-04T08:51:26Z</time></trkpt><trkpt lat="44.33169652286876" lon="11.132836924079072"><ele>602.3333333333333</ele><time>2026-04-04T08:51:27Z</time></trkpt><trkpt lat="44.33163692939469" lon="11.132894018601114"><ele>602.5</ele><time>2026-04-04T08:51:28Z</time></trkpt><trkpt lat="44.331648128218895" lon="11.13301576227856"><ele>602.6666666666666</ele><time>2026-04-04T08:51:31Z</time></trkpt><trkpt lat="44.331700277449556" lon="11.133120322983658"><ele>602.8333333333334</ele><time>2026-04-04T08:51:33Z</time></trkpt><trkpt lat="44.331778124620065" lon="11.13318477461474"><ele>603.0</ele><time>2026-04-04T08:51:35Z</time></trkpt><trkpt lat="44.331809279182934" lon="11.133261320759676"><ele>603.1428571428572</ele><time>2026-04-04T08:51:37Z</time></trkpt><trkpt lat="44.33182745851373" lon="11.13334607155084"><ele>603.2857142857142</ele><time>2026-04-04T08:52:18Z</time></trkpt><trkpt lat="44.33177439527255" lon="11.133427331916657"><ele>603.4285714285714</ele><time>2026-04-04T08:52:20Z</time></trkpt><trkpt lat="44.33173919434977" lon="11.133518056796197"><ele>603.5714285714287</ele><time>2026-04-04T08:52:22Z</time></trkpt><trkpt lat="44.331716132657704" lon="11.133397929898797"><ele>603.7142857142858</ele><time>2026-04-04T08:52:28Z</time></trkpt><trkpt lat="44.33176325102897" lon="11.133473453475174"><ele>603.8571428571429</ele><time>2026-04-04T08:52:34Z</time></trkpt><trkpt lat="44.33177624878004" lon="11.133566074586415"><ele>604.0</ele><time>2026-04-04T08:53:17Z</time></trkpt><trkpt lat="44.33176121844094" lon="11.133668098747831"><ele>604.0</ele><time>2026-04-04T08:53:19Z</time></trkpt><trkpt lat="44.33170451449388" lon="11.133795787960317"><ele>604.0</ele><time>2026-04-04T08:53:20Z</time></trkpt><trkpt lat="44.33168794413485" lon="11.13389910490586"><ele>604.0</ele><time>2026-04-04T08:53:21Z</time></trkpt><trkpt lat="44.33155491459514" lon="11.13396357293217"><ele>604.0</ele><time>2026-04-04T08:53:22Z</time></trkpt><trkpt lat="44.33150242395783" lon="11.134037092263837"><ele>604.0</ele><time>2026-04-04T08:53:23Z</time></trkpt><trkpt lat="44.33142772778001" lon="11.134112834149427"><ele>604.0</ele><time>2026-04-04T08:53:25Z</time></trkpt><trkpt lat="44.33136570401381" lon="11.134072313526518"><ele>604.0</ele><time>2026-04-04T08:53:27Z</time></trkpt><trkpt lat="44.33132579812906" lon="11.134002802896106"><ele>604.0</ele><time>2026-04-04T08:53:29Z</time></trkpt><trkpt lat="44.33136570386038" lon="11.133889443984668"><ele>604.0</ele><time>2026-04-04T08:53:32Z</time></trkpt><trkpt lat="44.33143870635679" lon="11.133763442498804"><ele>604.0</ele><time>2026-04-04T08:53:34Z</time></trkpt><trkpt lat="44.33144824896392" lon="11.133662528615359"><ele>604.0</ele><time>2026-04-04T08:53:35Z</time></trkpt><trkpt lat="44.331439390567944" lon="11.133535369883843"><ele>603.8333333333334</ele><time>2026-04-04T08:53:37Z</time></trkpt><trkpt lat="44.33138455064099" lon="11.133441965299097"><ele>603.6666666666667</ele><time>2026-04-04T08:53:39Z</time></trkpt><trkpt lat="44.33136271399552" lon="11.133314850550846"><ele>603.5</ele><time>2026-04-04T08:53:41Z</time></trkpt><trkpt lat="44.33141783184409" lon="11.133190742717389"><ele>603.3333333333334</ele><time>2026-04-04T08:53:43Z</time></trkpt><trkpt lat="44.331398670615215" lon="11.133092869123232"><ele>603.1666666666666</ele><time>2026-04-04T08:53:46.001Z</time></trkpt><trkpt lat="44.331364230162286" lon="11.133199569137464"><ele>603.0</ele><time>2026-04-04T08:54:18Z</time></trkpt><trkpt lat="44.331324844149464" lon="11.133297646405381"><ele>603.1666666666666</ele><time>2026-04-04T08:58:46Z</time></trkpt><trkpt lat="44.33129142993945" lon="11.133409101302638"><ele>603.3333333333334</ele><time>2026-04-04T08:58:48Z</time></trkpt><trkpt lat="44.3313251443072" lon="11.13349380129819"><ele>603.5</ele><time>2026-04-04T08:58:49Z</time></trkpt><trkpt lat="44.331382018045424" lon="11.133610320318628"><ele>603.6666666666667</ele><time>2026-04-04T08:58:50Z</time></trkpt><trkpt lat="44.33140278931771" lon="11.133733053160697"><ele>603.8333333333334</ele><time>2026-04-04T08:58:52Z</time></trkpt><trkpt lat="44.33137308563591" lon="11.133819087675857"><ele>604.0</ele><time>2026-04-04T08:58:53Z</time></trkpt><trkpt lat="44.331329354162584" lon="11.133882973154018"><ele>604.0</ele><time>2026-04-04T08:58:54Z</time></trkpt><trkpt lat="44.331311070787756" lon="11.13400126735682"><ele>604.0</ele><time>2026-04-04T08:58:56Z</time></trkpt><trkpt lat="44.331350860328676" lon="11.134109987226438"><ele>604.0</ele><time>2026-04-04T08:58:58Z</time></trkpt><trkpt lat="44.33143955469212" lon="11.1341314235479"><ele>604.0</ele><time>2026-04-04T08:58:59Z</time></trkpt><trkpt lat="44.331567772291926" lon="11.134043928767234"><ele>604.0</ele><time>2026-04-04T08:59:00Z</time></trkpt><trkpt lat="44.33165126600928" lon="11.133969342982914"><ele>604.0</ele><time>2026-04-04T08:59:01Z</time></trkpt><trkpt lat="44.331736161124134" lon="11.133884787836367"><ele>604.0</ele><time>2026-04-04T08:59:03Z</time></trkpt><trkpt lat="44.33177055355981" lon="11.133803007364785"><ele>604.0</ele><time>2026-04-04T08:59:04Z</time></trkpt><trkpt lat="44.331794952322" lon="11.133647097625294"><ele>604.0</ele><time>2026-04-04T08:59:06Z</time></trkpt><trkpt lat="44.33184947604511" lon="11.133505294544324"><ele>604.0</ele><time>2026-04-04T08:59:08Z</time></trkpt><trkpt lat="44.33186643454783" lon="11.133369985140368"><ele>604.0</ele><time>2026-04-04T08:59:10Z</time></trkpt><trkpt lat="44.331949375116395" lon="11.133355314743321"><ele>604.0</ele><time>2026-04-04T08:59:14Z</time></trkpt><trkpt lat="44.332022829337355" lon="11.133351274988476"><ele>604.0</ele><time>2026-04-04T08:59:15Z</time></trkpt><trkpt lat="44.33210818495743" lon="11.133345814565365"><ele>604.0</ele><time>2026-04-04T08:59:16Z</time></trkpt><trkpt lat="44.33220047474774" lon="11.13336848319178"><ele>604.0</ele><time>2026-04-04T08:59:17Z</time></trkpt><trkpt lat="44.3322739704591" lon="11.133374664874843"><ele>604.0</ele><time>2026-04-04T08:59:18Z</time></trkpt><trkpt lat="44.3323439895069" lon="11.13337778249773"><ele>605.0</ele><time>2026-04-04T08:59:19Z</time></trkpt><trkpt lat="44.33245937349016" lon="11.133391516132031"><ele>606.0</ele><time>2026-04-04T08:59:21Z</time></trkpt><trkpt lat="44.332497899416005" lon="11.133468802337381"><ele>607.0</ele><time>2026-04-04T08:59:22Z</time></trkpt><trkpt lat="44.332530292794374" lon="11.133557979144797"><ele>608.0</ele><time>2026-04-04T08:59:24Z</time></trkpt><trkpt lat="44.332603441795285" lon="11.13357299637912"><ele>609.0</ele><time>2026-04-04T08:59:26Z</time></trkpt><trkpt lat="44.33268124605081" lon="11.133631337044937"><ele>610.0</ele><time>2026-04-04T08:59:28Z</time></trkpt><trkpt lat="44.33275798409955" lon="11.133710964526912"><ele>610.0</ele><time>2026-04-04T08:59:30Z</time></trkpt><trkpt lat="44.332805988959" lon="11.133920519922125"><ele>610.0</ele><time>2026-04-04T08:59:36Z</time></trkpt><trkpt lat="44.33287459927246" lon="11.1339865039132"><ele>610.0</ele><time>2026-04-04T08:59:37Z</time></trkpt><trkpt lat="44.33293410517733" lon="11.13402355703798"><ele>610.0</ele><time>2026-04-04T08:59:39Z</time></trkpt><trkpt lat="44.33302024263453" lon="11.134067333006394"><ele>610.0</ele><time>2026-04-04T08:59:41Z</time></trkpt><trkpt lat="44.333102401953944" lon="11.13408770531468"><ele>610.1666666666667</ele><time>2026-04-04T08:59:44Z</time></trkpt><trkpt lat="44.333181691343256" lon="11.134015796233106"><ele>610.3333333333334</ele><time>2026-04-04T08:59:51Z</time></trkpt><trkpt lat="44.33325728312985" lon="11.133917233471594"><ele>610.5</ele><time>2026-04-04T08:59:53Z</time></trkpt><trkpt lat="44.3333116794037" lon="11.133817078428734"><ele>610.6666666666666</ele><time>2026-04-04T08:59:54Z</time></trkpt><trkpt lat="44.333369415292005" lon="11.133772704510939"><ele>610.8333333333333</ele><time>2026-04-04T08:59:55Z</time></trkpt><trkpt lat="44.33343190191547" lon="11.13371912969695"><ele>611.0</ele><time>2026-04-04T08:59:56Z</time></trkpt><trkpt lat="44.333476066336495" lon="11.13359847128009"><ele>611.0</ele><time>2026-04-04T08:59:58Z</time></trkpt><trkpt lat="44.33348370142486" lon="11.133464543129099"><ele>611.0</ele><time>2026-04-04T09:00:00Z</time></trkpt><trkpt lat="44.33354061673733" lon="11.13327638925241"><ele>611.0</ele><time>2026-04-04T09:00:02Z</time></trkpt><trkpt lat="44.33356513184886" lon="11.133189987261366"><ele>611.0</ele><time>2026-04-04T09:00:04Z</time></trkpt><trkpt lat="44.33359004340832" lon="11.133105153442479"><ele>611.0</ele><time>2026-04-04T09:00:06Z</time></trkpt><trkpt lat="44.333612837981406" lon="11.132935123001173"><ele>613.6</ele><time>2026-04-04T09:00:10Z</time></trkpt><trkpt lat="44.3337098277898" lon="11.132825231357877"><ele>616.2</ele><time>2026-04-04T09:00:13Z</time></trkpt><trkpt lat="44.33371858730477" lon="11.132690549729835"><ele>618.8</ele><time>2026-04-04T09:00:15Z</time></trkpt><trkpt lat="44.33371259524842" lon="11.132593144635022"><ele>621.4</ele><time>2026-04-04T09:00:16Z</time></trkpt><trkpt lat="44.33369126571378" lon="11.132692231105887"><ele>624.0</ele><time>2026-04-04T09:00:19Z</time></trkpt><trkpt lat="44.33370413689442" lon="11.132533273376914"><ele>624.0</ele><time>2026-04-04T09:00:20Z</time></trkpt><trkpt lat="44.33369836930283" lon="11.132442819735331"><ele>624.0</ele><time>2026-04-04T09:00:21Z</time></trkpt><trkpt lat="44.333660620845315" lon="11.132368044164163"><ele>624.0</ele><time>2026-04-04T09:00:29Z</time></trkpt><trkpt lat="44.33375112729943" lon="11.13238685147185"><ele>624.0</ele><time>2026-04-04T09:01:07Z</time></trkpt><trkpt lat="44.333812816743766" lon="11.132202182593504"><ele>624.0</ele><time>2026-04-04T09:01:09Z</time></trkpt><trkpt lat="44.3338276326246" lon="11.132061157634428"><ele>624.3333333333334</ele><time>2026-04-04T09:01:10Z</time></trkpt><trkpt lat="44.333837903637765" lon="11.13194472015253"><ele>624.6666666666666</ele><time>2026-04-04T09:01:11Z</time></trkpt><trkpt lat="44.33384678042682" lon="11.131853129144112"><ele>625.0</ele><time>2026-04-04T09:01:12Z</time></trkpt><trkpt lat="44.33384892276462" lon="11.131760091974337"><ele>625.3333333333333</ele><time>2026-04-04T09:01:13Z</time></trkpt><trkpt lat="44.33382364730447" lon="11.131619548222307"><ele>625.6666666666666</ele><time>2026-04-04T09:01:15Z</time></trkpt><trkpt lat="44.333806563669285" lon="11.131474575562311"><ele>626.0</ele><time>2026-04-04T09:01:17Z</time></trkpt><trkpt lat="44.33376753077942" lon="11.131400839973088"><ele>626.0</ele><time>2026-04-04T09:01:20Z</time></trkpt><trkpt lat="44.333725826769935" lon="11.131333309332348"><ele>626.0</ele><time>2026-04-04T09:05:53.999Z</time></trkpt><trkpt lat="44.33381334177482" lon="11.13135997131131"><ele>626.0</ele><time>2026-04-04T09:06:15.999Z</time></trkpt><trkpt lat="44.33373458170148" lon="11.131408381620155"><ele>626.0</ele><time>2026-04-04T09:08:10Z</time></trkpt><trkpt lat="44.33369962246188" lon="11.131277556458478"><ele>626.0</ele><time>2026-04-04T09:08:14Z</time></trkpt><trkpt lat="44.33371496933925" lon="11.131401870100532"><ele>626.0</ele><time>2026-04-04T09:09:02Z</time></trkpt><trkpt lat="44.33371224376687" lon="11.131507816523076"><ele>626.5</ele><time>2026-04-04T09:09:05Z</time></trkpt><trkpt lat="44.333738708778675" lon="11.131623506127033"><ele>627.0</ele><time>2026-04-04T09:09:07Z</time></trkpt><trkpt lat="44.33374410046119" lon="11.131763226728639"><ele>627.5</ele><time>2026-04-04T09:09:09Z</time></trkpt><trkpt lat="44.3337445953585" lon="11.131852312286156"><ele>628.0</ele><time>2026-04-04T09:09:10Z</time></trkpt><trkpt lat="44.33373295953645" lon="11.131942607500319"><ele>628.5</ele><time>2026-04-04T09:09:11Z</time></trkpt><trkpt lat="44.33373924595454" lon="11.132065928414317"><ele>629.0</ele><time>2026-04-04T09:09:13Z</time></trkpt><trkpt lat="44.33371638213813" lon="11.132175243209849"><ele>629.0</ele><time>2026-04-04T09:09:15Z</time></trkpt><trkpt lat="44.33369826834399" lon="11.132272760059907"><ele>629.0</ele><time>2026-04-04T09:09:16Z</time></trkpt><trkpt lat="44.33368663267196" lon="11.13236815737036"><ele>629.0</ele><time>2026-04-04T09:09:18Z</time></trkpt><trkpt lat="44.33363338000793" lon="11.132421329472296"><ele>629.0</ele><time>2026-04-04T09:10:21Z</time></trkpt><trkpt lat="44.33363707911828" lon="11.13252181108582"><ele>629.0</ele><time>2026-04-04T09:10:23Z</time></trkpt><trkpt lat="44.33362635981232" lon="11.132627521134108"><ele>629.0</ele><time>2026-04-04T09:10:24Z</time></trkpt><trkpt lat="44.333590663885666" lon="11.132772033677563"><ele>628.0</ele><time>2026-04-04T09:10:26Z</time></trkpt><trkpt lat="44.33353533392797" lon="11.13286864420272"><ele>627.0</ele><time>2026-04-04T09:10:27Z</time></trkpt><trkpt lat="44.33347940007004" lon="11.13294053800421"><ele>626.0</ele><time>2026-04-04T09:10:28Z</time></trkpt><trkpt lat="44.33342576377081" lon="11.133097812190384"><ele>625.0</ele><time>2026-04-04T09:10:30Z</time></trkpt><trkpt lat="44.33340958791721" lon="11.133259061970382"><ele>624.0</ele><time>2026-04-04T09:10:32Z</time></trkpt><trkpt lat="44.33339131226978" lon="11.1334019990658"><ele>621.8333333333334</ele><time>2026-04-04T09:10:34.001Z</time></trkpt><trkpt lat="44.33346090198049" lon="11.133416819637231"><ele>619.6666666666666</ele><time>2026-04-04T09:10:35.001Z</time></trkpt><trkpt lat="44.333450191846495" lon="11.133299141394494"><ele>617.5</ele><time>2026-04-04T09:10:37.001Z</time></trkpt><trkpt lat="44.33339210439952" lon="11.133345360227796"><ele>615.3333333333333</ele><time>2026-04-04T09:11:16Z</time></trkpt><trkpt lat="44.33339965750266" lon="11.133435451690548"><ele>613.1666666666666</ele><time>2026-04-04T09:11:22Z</time></trkpt><trkpt lat="44.33339127205763" lon="11.133555976646322"><ele>611.0</ele><time>2026-04-04T09:11:25Z</time></trkpt><trkpt lat="44.3333834476246" lon="11.133663334899405"><ele>611.0</ele><time>2026-04-04T09:11:26Z</time></trkpt><trkpt lat="44.333334340941924" lon="11.13373100008327"><ele>611.0</ele><time>2026-04-04T09:11:27Z</time></trkpt><trkpt lat="44.33327705490672" lon="11.133772383151513"><ele>611.0</ele><time>2026-04-04T09:11:28Z</time></trkpt><trkpt lat="44.333209613954565" lon="11.133843175868417"><ele>611.0</ele><time>2026-04-04T09:11:30Z</time></trkpt><trkpt lat="44.33313714467654" lon="11.133894781273678"><ele>611.0</ele><time>2026-04-04T09:11:34Z</time></trkpt><trkpt lat="44.33312622768195" lon="11.133992595269108"><ele>611.0</ele><time>2026-04-04T09:11:37Z</time></trkpt><trkpt lat="44.33305271719971" lon="11.1340442984016"><ele>610.8333333333333</ele><time>2026-04-04T09:13:22Z</time></trkpt><trkpt lat="44.33295715269259" lon="11.133957503225888"><ele>610.6666666666666</ele><time>2026-04-04T09:13:24Z</time></trkpt><trkpt lat="44.33289022864797" lon="11.133904160347164"><ele>610.5</ele><time>2026-04-04T09:13:25Z</time></trkpt><trkpt lat="44.33283272173429" lon="11.133837930786889"><ele>610.3333333333334</ele><time>2026-04-04T09:13:26Z</time></trkpt><trkpt lat="44.332783093770175" lon="11.13377648949673"><ele>610.1666666666667</ele><time>2026-04-04T09:13:27Z</time></trkpt><trkpt lat="44.33273192706988" lon="11.133711194456282"><ele>610.0</ele><time>2026-04-04T09:13:28Z</time></trkpt><trkpt lat="44.332653223572734" lon="11.133583195783832"><ele>610.0</ele><time>2026-04-04T09:13:30Z</time></trkpt><trkpt lat="44.33252886912541" lon="11.133537283418951"><ele>610.0</ele><time>2026-04-04T09:13:32Z</time></trkpt><trkpt lat="44.33240346812339" lon="11.133479524273472"><ele>610.0</ele><time>2026-04-04T09:13:34Z</time></trkpt><trkpt lat="44.332322448013706" lon="11.133390965501558"><ele>610.0</ele><time>2026-04-04T09:13:36Z</time></trkpt><trkpt lat="44.332280214030654" lon="11.133297079515408"><ele>610.0</ele><time>2026-04-04T09:13:38Z</time></trkpt><trkpt lat="44.33221773004318" lon="11.133278859164381"><ele>609.0</ele><time>2026-04-04T09:13:39Z</time></trkpt><trkpt lat="44.332130587801934" lon="11.133268654077227"><ele>608.0</ele><time>2026-04-04T09:13:40Z</time></trkpt><trkpt lat="44.3320414488775" lon="11.133264888723193"><ele>607.0</ele><time>2026-04-04T09:13:41Z</time></trkpt><trkpt lat="44.331976482880066" lon="11.133250094034155"><ele>606.0</ele><time>2026-04-04T09:13:42Z</time></trkpt><trkpt lat="44.33189730938031" lon="11.133235308242623"><ele>605.0</ele><time>2026-04-04T09:13:43Z</time></trkpt><trkpt lat="44.33181023094475" lon="11.133230185136405"><ele>604.0</ele><time>2026-04-04T09:13:44Z</time></trkpt><trkpt lat="44.33180189554483" lon="11.133364643968196"><ele>604.0</ele><time>2026-04-04T09:13:46Z</time></trkpt><trkpt lat="44.33171705820427" lon="11.13334543384069"><ele>604.0</ele><time>2026-04-04T09:14:08Z</time></trkpt><trkpt lat="44.331658024817024" lon="11.133229554593656"><ele>604.0</ele><time>2026-04-04T09:14:10Z</time></trkpt><trkpt lat="44.33164264135644" lon="11.133123074264327"><ele>604.0</ele><time>2026-04-04T09:14:11Z</time></trkpt><trkpt lat="44.33165254057955" lon="11.133028121573147"><ele>604.0</ele><time>2026-04-04T09:14:12Z</time></trkpt><trkpt lat="44.33166758180174" lon="11.1329372170334"><ele>604.0</ele><time>2026-04-04T09:14:13Z</time></trkpt><trkpt lat="44.331675190041146" lon="11.132771359263408"><ele>603.8333333333334</ele><time>2026-04-04T09:14:15Z</time></trkpt><trkpt lat="44.331697074334485" lon="11.132684680860072"><ele>603.6666666666667</ele><time>2026-04-04T09:14:16Z</time></trkpt><trkpt lat="44.331731126192686" lon="11.132602713100782"><ele>603.5</ele><time>2026-04-04T09:14:17Z</time></trkpt><trkpt lat="44.331779422408815" lon="11.132524775237068"><ele>603.3333333333334</ele><time>2026-04-04T09:14:18Z</time></trkpt><trkpt lat="44.331772718259764" lon="11.132416381288394"><ele>603.1666666666666</ele><time>2026-04-04T09:14:19Z</time></trkpt><trkpt lat="44.33175763259638" lon="11.132245635258265"><ele>603.0</ele><time>2026-04-04T09:14:21Z</time></trkpt><trkpt lat="44.3316711668669" lon="11.132292892174112"><ele>602.75</ele><time>2026-04-04T09:14:27Z</time></trkpt><trkpt lat="44.33161322387321" lon="11.132174922364772"><ele>602.5</ele><time>2026-04-04T09:14:48Z</time></trkpt><trkpt lat="44.3315579249542" lon="11.132065457128778"><ele>602.25</ele><time>2026-04-04T09:14:50Z</time></trkpt><trkpt lat="44.331499651893076" lon="11.131903475666537"><ele>602.0</ele><time>2026-04-04T09:14:52Z</time></trkpt><trkpt lat="44.331534127943954" lon="11.131734999114832"><ele>602.25</ele><time>2026-04-04T09:14:54Z</time></trkpt><trkpt lat="44.33159648389551" lon="11.131555341725388"><ele>602.5</ele><time>2026-04-04T09:14:55Z</time></trkpt><trkpt lat="44.33164111360005" lon="11.13138858752054"><ele>602.75</ele><time>2026-04-04T09:14:56Z</time></trkpt><trkpt lat="44.33160093992893" lon="11.131251873207761"><ele>603.0</ele><time>2026-04-04T09:14:57Z</time></trkpt><trkpt lat="44.33161987594517" lon="11.131145075913032"><ele>603.0</ele><time>2026-04-04T09:14:58Z</time></trkpt><trkpt lat="44.33160590213489" lon="11.131010605862615"><ele>603.0</ele><time>2026-04-04T09:14:59Z</time></trkpt><trkpt lat="44.33159391850568" lon="11.130902794756466"><ele>603.0</ele><time>2026-04-04T09:15:00Z</time></trkpt><trkpt lat="44.331620684939644" lon="11.130740483074623"><ele>603.0</ele><time>2026-04-04T09:15:02Z</time></trkpt><trkpt lat="44.3316455013159" lon="11.130630553702765"><ele>603.0</ele><time>2026-04-04T09:15:04Z</time></trkpt><trkpt lat="44.3315765651527" lon="11.130574760150058"><ele>605.1666666666666</ele><time>2026-04-04T09:15:23Z</time></trkpt><trkpt lat="44.33149618909899" lon="11.130500972248985"><ele>607.3333333333334</ele><time>2026-04-04T09:15:26Z</time></trkpt><trkpt lat="44.33140774232352" lon="11.130381700770432"><ele>609.5</ele><time>2026-04-04T09:15:28Z</time></trkpt><trkpt lat="44.331364242011695" lon="11.130314080666576"><ele>611.6666666666667</ele><time>2026-04-04T09:15:30Z</time></trkpt><trkpt lat="44.33129996886752" lon="11.13028161073422"><ele>613.8333333333334</ele><time>2026-04-04T09:15:32Z</time></trkpt><trkpt lat="44.331371135513116" lon="11.130351677371905"><ele>616.0</ele><time>2026-04-04T09:15:34Z</time></trkpt><trkpt lat="44.331307163342764" lon="11.130277447169592"><ele>619.3333333333334</ele><time>2026-04-04T09:16:25Z</time></trkpt><trkpt lat="44.331265984217545" lon="11.130209229256067"><ele>622.6666666666667</ele><time>2026-04-04T09:16:33Z</time></trkpt><trkpt lat="44.33134009739951" lon="11.130225684494148"><ele>626.0</ele><time>2026-04-04T09:16:39.999Z</time></trkpt><trkpt lat="44.331288213503825" lon="11.130296958633716"><ele>629.3333333333334</ele><time>2026-04-04T09:16:47.999Z</time></trkpt><trkpt lat="44.33123160382941" lon="11.1304337371172"><ele>632.6666666666666</ele><time>2026-04-04T09:16:49.999Z</time></trkpt><trkpt lat="44.331210588355226" lon="11.1305201628118"><ele>636.0</ele><time>2026-04-04T09:16:51Z</time></trkpt><trkpt lat="44.3311997516103" lon="11.130659731378099"><ele>636.0</ele><time>2026-04-04T09:16:53Z</time></trkpt><trkpt lat="44.33114367095032" lon="11.130716804782931"><ele>636.0</ele><time>2026-04-04T09:16:55Z</time></trkpt><trkpt lat="44.33111137231089" lon="11.130814656522627"><ele>636.0</ele><time>2026-04-04T09:16:57Z</time></trkpt><trkpt lat="44.33108693439571" lon="11.130931577391419"><ele>636.0</ele><time>2026-04-04T09:16:59Z</time></trkpt><trkpt lat="44.331053533082965" lon="11.13101886932404"><ele>636.0</ele><time>2026-04-04T09:17:01Z</time></trkpt><trkpt lat="44.33101747436858" lon="11.131121217644155"><ele>636.0</ele><time>2026-04-04T09:17:03Z</time></trkpt><trkpt lat="44.33100720268245" lon="11.131227065974995"><ele>632.0</ele><time>2026-04-04T09:17:05Z</time></trkpt><trkpt lat="44.330935193016835" lon="11.131261257867568"><ele>628.0</ele><time>2026-04-04T09:17:09Z</time></trkpt><trkpt lat="44.33086234788973" lon="11.131287476984843"><ele>624.0</ele><time>2026-04-04T09:17:10Z</time></trkpt><trkpt lat="44.33080544724517" lon="11.131339744394955"><ele>620.0</ele><time>2026-04-04T09:17:11Z</time></trkpt><trkpt lat="44.330737169803534" lon="11.131398152684062"><ele>616.0</ele><time>2026-04-04T09:17:12Z</time></trkpt><trkpt lat="44.33069577290665" lon="11.131487162594526"><ele>612.0</ele><time>2026-04-04T09:17:13Z</time></trkpt><trkpt lat="44.33064648670947" lon="11.1316227102776"><ele>613.1666666666666</ele><time>2026-04-04T09:17:15Z</time></trkpt><trkpt lat="44.33062777900872" lon="11.131735121496787"><ele>614.3333333333334</ele><time>2026-04-04T09:17:16Z</time></trkpt><trkpt lat="44.33060779653299" lon="11.131840712508222"><ele>615.5</ele><time>2026-04-04T09:17:17Z</time></trkpt><trkpt lat="44.33056786985876" lon="11.131915924698161"><ele>616.6666666666667</ele><time>2026-04-04T09:17:18Z</time></trkpt><trkpt lat="44.33054126792125" lon="11.132009429838632"><ele>617.8333333333334</ele><time>2026-04-04T09:17:19Z</time></trkpt><trkpt lat="44.330519975228405" lon="11.132107312595053"><ele>619.0</ele><time>2026-04-04T09:17:21Z</time></trkpt><trkpt lat="44.33045748855356" lon="11.132179140600993"><ele>619.0</ele><time>2026-04-04T09:17:25Z</time></trkpt><trkpt lat="44.330378299057685" lon="11.13225406931539"><ele>619.0</ele><time>2026-04-04T09:17:27Z</time></trkpt><trkpt lat="44.33027934294854" lon="11.132310610553999"><ele>619.0</ele><time>2026-04-04T09:17:28Z</time></trkpt><trkpt lat="44.330193957039725" lon="11.132362000350666"><ele>619.0</ele><time>2026-04-04T09:17:29Z</time></trkpt><trkpt lat="44.330076015118784" lon="11.132440767299085"><ele>619.0</ele><time>2026-04-04T09:17:31Z</time></trkpt><trkpt lat="44.329985583247336" lon="11.132484863359156"><ele>612.0</ele><time>2026-04-04T09:17:32Z</time></trkpt><trkpt lat="44.329910400143525" lon="11.132646986295189"><ele>605.0</ele><time>2026-04-04T09:17:33Z</time></trkpt><trkpt lat="44.32989163234684" lon="11.132927912012171"><ele>598.0</ele><time>2026-04-04T09:17:35Z</time></trkpt><trkpt lat="44.32987501593827" lon="11.13308654908416"><ele>595.0</ele><time>2026-04-04T09:17:36Z</time></trkpt><trkpt lat="44.329863989240934" lon="11.133257425360748"><ele>592.0</ele><time>2026-04-04T09:17:37Z</time></trkpt><trkpt lat="44.32985081138028" lon="11.133352833566706"><ele>589.0</ele><time>2026-04-04T09:17:38Z</time></trkpt><trkpt lat="44.329813237394276" lon="11.133435061316876"><ele>586.0</ele><time>2026-04-04T09:17:39Z</time></trkpt><trkpt lat="44.3297701120992" lon="11.133511793351763"><ele>583.0</ele><time>2026-04-04T09:17:40Z</time></trkpt><trkpt lat="44.32973116336405" lon="11.133601439636017"><ele>580.0</ele><time>2026-04-04T09:17:41Z</time></trkpt><trkpt lat="44.32965823944375" lon="11.133725072041004"><ele>582.3333333333334</ele><time>2026-04-04T09:17:43Z</time></trkpt><trkpt lat="44.32962510110393" lon="11.133815979437072"><ele>584.6666666666667</ele><time>2026-04-04T09:17:44Z</time></trkpt><trkpt lat="44.329576473764185" lon="11.133895811885441"><ele>587.0</ele><time>2026-04-04T09:17:45Z</time></trkpt><trkpt lat="44.32953480935104" lon="11.134019212716717"><ele>589.3333333333334</ele><time>2026-04-04T09:17:46Z</time></trkpt><trkpt lat="44.32948830547673" lon="11.134101511995809"><ele>591.6666666666666</ele><time>2026-04-04T09:17:47Z</time></trkpt><trkpt lat="44.32945467610736" lon="11.13418929953048"><ele>594.0</ele><time>2026-04-04T09:17:48Z</time></trkpt><trkpt lat="44.329397698345126" lon="11.134263715010867"><ele>594.0</ele><time>2026-04-04T09:17:56Z</time></trkpt><trkpt lat="44.32933802927795" lon="11.134339340886882"><ele>594.0</ele><time>2026-04-04T09:17:58Z</time></trkpt><trkpt lat="44.32927446373224" lon="11.134449607619622"><ele>594.0</ele><time>2026-04-04T09:18:00Z</time></trkpt><trkpt lat="44.329179818392426" lon="11.134521843086707"><ele>594.0</ele><time>2026-04-04T09:18:02Z</time></trkpt><trkpt lat="44.329195095665085" lon="11.134378196435483"><ele>594.0</ele><time>2026-04-04T09:18:03Z</time></trkpt><trkpt lat="44.329240123163785" lon="11.134743052123376"><ele>594.0</ele><time>2026-04-04T09:18:07Z</time></trkpt><trkpt lat="44.32918054402777" lon="11.134794404581584"><ele>594.0</ele><time>2026-04-04T09:18:09Z</time></trkpt><trkpt lat="44.32911043528947" lon="11.134827534479573"><ele>594.0</ele><time>2026-04-04T09:18:10Z</time></trkpt><trkpt lat="44.32898585389792" lon="11.135320687242395"><ele>590.75</ele><time>2026-04-04T09:18:19Z</time></trkpt><trkpt lat="44.32910613743378" lon="11.135572760764688"><ele>587.5</ele><time>2026-04-04T09:18:20Z</time></trkpt><trkpt lat="44.32911971367269" lon="11.135696578054588"><ele>584.25</ele><time>2026-04-04T09:18:21Z</time></trkpt><trkpt lat="44.32909566731165" lon="11.135794551885594"><ele>581.0</ele><time>2026-04-04T09:18:22Z</time></trkpt><trkpt lat="44.329104935363766" lon="11.135947367337334"><ele>581.0</ele><time>2026-04-04T09:18:24Z</time></trkpt><trkpt lat="44.329110878042016" lon="11.136084650878118"><ele>581.0</ele><time>2026-04-04T09:18:28Z</time></trkpt><trkpt lat="44.32910193270648" lon="11.136186857871886"><ele>581.0</ele><time>2026-04-04T09:18:31Z</time></trkpt><trkpt lat="44.329031526137484" lon="11.136231658057422"><ele>581.0</ele><time>2026-04-04T09:18:34Z</time></trkpt><trkpt lat="44.32898928125536" lon="11.1363297812678"><ele>581.0</ele><time>2026-04-04T09:18:34.999Z</time></trkpt><trkpt lat="44.328890515230114" lon="11.136450279187867"><ele>587.3333333333333</ele><time>2026-04-04T09:18:36.999Z</time></trkpt><trkpt lat="44.32883009047178" lon="11.136597506032055"><ele>593.6666666666666</ele><time>2026-04-04T09:18:38.999Z</time></trkpt><trkpt lat="44.32881257079433" lon="11.13669120777348"><ele>600.0</ele><time>2026-04-04T09:18:40.999Z</time></trkpt><trkpt lat="44.328772113756145" lon="11.136766289572686"><ele>606.3333333333334</ele><time>2026-04-04T09:19:12Z</time></trkpt><trkpt lat="44.32883323382138" lon="11.13672740126866"><ele>612.6666666666667</ele><time>2026-04-04T09:20:07Z</time></trkpt><trkpt lat="44.32881353872166" lon="11.136639522536298"><ele>619.0</ele><time>2026-04-04T09:20:17Z</time></trkpt><trkpt lat="44.328772571439394" lon="11.136763000029656"><ele>619.0</ele><time>2026-04-04T09:21:28Z</time></trkpt><trkpt lat="44.32872350363504" lon="11.136832949831948"><ele>619.0</ele><time>2026-04-04T09:23:36Z</time></trkpt><trkpt lat="44.328715065964616" lon="11.136739942259055"><ele>619.0</ele><time>2026-04-04T09:23:55Z</time></trkpt><trkpt lat="44.32873136503025" lon="11.136843974648249"><ele>619.0</ele><time>2026-04-04T09:24:04Z</time></trkpt><trkpt lat="44.328768810982076" lon="11.136762696124837"><ele>619.0</ele><time>2026-04-04T09:24:21Z</time></trkpt><trkpt lat="44.32883215978423" lon="11.136732195561356"><ele>619.0</ele><time>2026-04-04T09:24:26Z</time></trkpt><trkpt lat="44.32884369111679" lon="11.13664530243209"><ele>619.0</ele><time>2026-04-04T09:24:43.999Z</time></trkpt><trkpt lat="44.32889097513345" lon="11.136585529284572"><ele>619.0</ele><time>2026-04-04T09:25:02.999Z</time></trkpt><trkpt lat="44.32884963068209" lon="11.136673579276996"><ele>619.0</ele><time>2026-04-04T09:25:26Z</time></trkpt><trkpt lat="44.3286887368909" lon="11.136605389532892"><ele>619.0</ele><time>2026-04-04T09:25:30Z</time></trkpt><trkpt lat="44.32863906699745" lon="11.136541389345672"><ele>619.0</ele><time>2026-04-04T09:25:34Z</time></trkpt><trkpt lat="44.32873646948814" lon="11.136794971473295"><ele>619.0</ele><time>2026-04-04T09:25:37Z</time></trkpt><trkpt lat="44.32869137598499" lon="11.136880329773092"><ele>619.0</ele><time>2026-04-04T09:25:49Z</time></trkpt><trkpt lat="44.32863309537301" lon="11.136829237402356"><ele>619.0</ele><time>2026-04-04T09:26:46Z</time></trkpt><trkpt lat="44.32862767172324" lon="11.136933725029772"><ele>619.0</ele><time>2026-04-04T09:26:55.999Z</time></trkpt><trkpt lat="44.32858057666816" lon="11.137005441844456"><ele>619.0</ele><time>2026-04-04T09:26:57.999Z</time></trkpt><trkpt lat="44.328529944333866" lon="11.137069577912117"><ele>619.0</ele><time>2026-04-04T09:26:58.999Z</time></trkpt><trkpt lat="44.32845340472998" lon="11.137142457780271"><ele>619.0</ele><time>2026-04-04T09:27:01.999Z</time></trkpt><trkpt lat="44.32836930820161" lon="11.137196528993334"><ele>619.0</ele><time>2026-04-04T09:27:04.999Z</time></trkpt><trkpt lat="44.328317677416315" lon="11.137251289710745"><ele>619.0</ele><time>2026-04-04T09:27:05.999Z</time></trkpt><trkpt lat="44.328341725982895" lon="11.137333650336622"><ele>619.0</ele><time>2026-04-04T09:27:06.999Z</time></trkpt><trkpt lat="44.328356634073124" lon="11.137438261801275"><ele>619.0</ele><time>2026-04-04T09:27:11.999Z</time></trkpt><trkpt lat="44.32844933730419" lon="11.137573743036992"><ele>619.0</ele><time>2026-04-04T09:27:15.999Z</time></trkpt><trkpt lat="44.32847250340874" lon="11.137713882188796"><ele>617.0</ele><time>2026-04-04T09:27:17.999Z</time></trkpt><trkpt lat="44.328567163484294" lon="11.137763227544477"><ele>615.0</ele><time>2026-04-04T09:27:19.999Z</time></trkpt><trkpt lat="44.32860867119908" lon="11.137858710910928"><ele>613.0</ele><time>2026-04-04T09:27:23Z</time></trkpt><trkpt lat="44.32862661831266" lon="11.137958925147172"><ele>611.0</ele><time>2026-04-04T09:27:25Z</time></trkpt><trkpt lat="44.32870997309784" lon="11.137971077274534"><ele>609.0</ele><time>2026-04-04T09:27:26Z</time></trkpt><trkpt lat="44.32883359391364" lon="11.137984736790015"><ele>605.6666666666666</ele><time>2026-04-04T09:27:28Z</time></trkpt><trkpt lat="44.328914369366046" lon="11.138035051492436"><ele>602.3333333333334</ele><time>2026-04-04T09:27:31Z</time></trkpt><trkpt lat="44.329003972436894" lon="11.138104683392744"><ele>599.0</ele><time>2026-04-04T09:27:32Z</time></trkpt><trkpt lat="44.329067028034416" lon="11.138106965323248"><ele>595.6666666666667</ele><time>2026-04-04T09:27:33Z</time></trkpt><trkpt lat="44.32912710331845" lon="11.138164181293504"><ele>592.3333333333334</ele><time>2026-04-04T09:27:35Z</time></trkpt><trkpt lat="44.32919564868496" lon="11.138246510605656"><ele>589.0</ele><time>2026-04-04T09:27:37Z</time></trkpt><trkpt lat="44.32924030731092" lon="11.138339753994414"><ele>589.0</ele><time>2026-04-04T09:27:39Z</time></trkpt><trkpt lat="44.32931679810225" lon="11.138365702401337"><ele>589.0</ele><time>2026-04-04T09:27:40Z</time></trkpt><trkpt lat="44.32940972388948" lon="11.138427537947964"><ele>589.0</ele><time>2026-04-04T09:27:42Z</time></trkpt><trkpt lat="44.32948428839757" lon="11.138492440284235"><ele>589.0</ele><time>2026-04-04T09:27:52Z</time></trkpt><trkpt lat="44.3295204030465" lon="11.138569777410744"><ele>589.0</ele><time>2026-04-04T09:27:53Z</time></trkpt><trkpt lat="44.32958034139921" lon="11.138646484206536"><ele>589.0</ele><time>2026-04-04T09:27:54Z</time></trkpt><trkpt lat="44.329611550000934" lon="11.138772459278448"><ele>589.0</ele><time>2026-04-04T09:27:56Z</time></trkpt><trkpt lat="44.3295934415154" lon="11.138893246049708"><ele>589.0</ele><time>2026-04-04T09:27:58Z</time></trkpt><trkpt lat="44.32954319215493" lon="11.13896265916025"><ele>589.0</ele><time>2026-04-04T09:27:59Z</time></trkpt><trkpt lat="44.32946239208932" lon="11.139022529948647"><ele>589.0</ele><time>2026-04-04T09:28:01Z</time></trkpt><trkpt lat="44.32936275872085" lon="11.139205165763855"><ele>589.0</ele><time>2026-04-04T09:28:03Z</time></trkpt><trkpt lat="44.329275537462095" lon="11.139300323082963"><ele>593.2</ele><time>2026-04-04T09:28:05Z</time></trkpt><trkpt lat="44.32921039792625" lon="11.139397003802936"><ele>597.4</ele><time>2026-04-04T09:28:07Z</time></trkpt><trkpt lat="44.32919221014129" lon="11.13951423512535"><ele>601.6</ele><time>2026-04-04T09:28:08Z</time></trkpt><trkpt lat="44.329181445578065" lon="11.139655758003313"><ele>605.8</ele><time>2026-04-04T09:28:09Z</time></trkpt><trkpt lat="44.329198728659286" lon="11.139811461583895"><ele>610.0</ele><time>2026-04-04T09:28:10Z</time></trkpt><trkpt lat="44.32919219199467" lon="11.139934393160605"><ele>610.0</ele><time>2026-04-04T09:28:11Z</time></trkpt><trkpt lat="44.32920464241809" lon="11.140057368549458"><ele>610.0</ele><time>2026-04-04T09:28:12Z</time></trkpt><trkpt lat="44.329217643703544" lon="11.140174042207837"><ele>610.0</ele><time>2026-04-04T09:28:13Z</time></trkpt><trkpt lat="44.329201727496695" lon="11.140277031884711"><ele>610.0</ele><time>2026-04-04T09:28:14Z</time></trkpt><trkpt lat="44.329215132696994" lon="11.140405129326965"><ele>610.0</ele><time>2026-04-04T09:28:15Z</time></trkpt><trkpt lat="44.329293200017595" lon="11.140538695058282"><ele>610.0</ele><time>2026-04-04T09:28:16Z</time></trkpt><trkpt lat="44.32933152863114" lon="11.140677139830906"><ele>610.0</ele><time>2026-04-04T09:28:18Z</time></trkpt><trkpt lat="44.3293127841448" lon="11.14079943043974"><ele>610.0</ele><time>2026-04-04T09:28:20Z</time></trkpt><trkpt lat="44.329305476270925" lon="11.140924254226835"><ele>610.0</ele><time>2026-04-04T09:28:22Z</time></trkpt><trkpt lat="44.3292791555311" lon="11.14084385170219"><ele>610.0</ele><time>2026-04-04T09:28:24Z</time></trkpt><trkpt lat="44.32921515719884" lon="11.140862336849162"><ele>610.0</ele><time>2026-04-04T09:28:28Z</time></trkpt><trkpt lat="44.32913639140444" lon="11.140882731618458"><ele>608.5</ele><time>2026-04-04T09:28:30Z</time></trkpt><trkpt lat="44.32904961669199" lon="11.140938054067199"><ele>607.0</ele><time>2026-04-04T09:28:31Z</time></trkpt><trkpt lat="44.32898158962614" lon="11.140867861997126"><ele>605.5</ele><time>2026-04-04T09:28:34Z</time></trkpt><trkpt lat="44.32892063508643" lon="11.14092444841666"><ele>604.0</ele><time>2026-04-04T09:28:38Z</time></trkpt><trkpt lat="44.32882295529973" lon="11.140852397690054"><ele>602.5</ele><time>2026-04-04T09:28:41Z</time></trkpt><trkpt lat="44.328763965841986" lon="11.140894573900027"><ele>601.0</ele><time>2026-04-04T09:28:42Z</time></trkpt><trkpt lat="44.32867835473408" lon="11.140971590464307"><ele>600.6</ele><time>2026-04-04T09:28:44Z</time></trkpt><trkpt lat="44.32864948355878" lon="11.141064053008996"><ele>600.2</ele><time>2026-04-04T09:28:45Z</time></trkpt><trkpt lat="44.32851225359627" lon="11.141128958023014"><ele>599.8</ele><time>2026-04-04T09:28:45.999Z</time></trkpt><trkpt lat="44.328456589084006" lon="11.14129808881831"><ele>599.4</ele><time>2026-04-04T09:28:47.999Z</time></trkpt><trkpt lat="44.328441613601065" lon="11.141192725963093"><ele>599.0</ele><time>2026-04-04T09:28:50.999Z</time></trkpt><trkpt lat="44.32838798427604" lon="11.141145146908297"><ele>599.0</ele><time>2026-04-04T09:28:51.999Z</time></trkpt><trkpt lat="44.32841047247575" lon="11.141061577327271"><ele>599.0</ele><time>2026-04-04T09:28:56.999Z</time></trkpt><trkpt lat="44.328411824307686" lon="11.14096200234803"><ele>599.0</ele><time>2026-04-04T09:29:00.999Z</time></trkpt><trkpt lat="44.32848718161671" lon="11.14091239278251"><ele>599.0</ele><time>2026-04-04T09:29:03.999Z</time></trkpt><trkpt lat="44.328561473306344" lon="11.140861101002063"><ele>599.0</ele><time>2026-04-04T09:29:05.999Z</time></trkpt><trkpt lat="44.328584307410296" lon="11.140734929610856"><ele>599.0</ele><time>2026-04-04T09:29:07.999Z</time></trkpt><trkpt lat="44.32863316634262" lon="11.140662048454107"><ele>601.6666666666666</ele><time>2026-04-04T09:29:09.999Z</time></trkpt><trkpt lat="44.32868280887768" lon="11.140592522219107"><ele>604.3333333333333</ele><time>2026-04-04T09:29:14.999Z</time></trkpt><trkpt lat="44.32874604158098" lon="11.140500566775033"><ele>607.0</ele><time>2026-04-04T09:29:21.999Z</time></trkpt><trkpt lat="44.32873633176903" lon="11.140411817764031"><ele>609.6666666666666</ele><time>2026-04-04T09:29:23.999Z</time></trkpt><trkpt lat="44.32878442408617" lon="11.14031335962151"><ele>612.3333333333334</ele><time>2026-04-04T09:29:27Z</time></trkpt><trkpt lat="44.328776325157875" lon="11.140217016559218"><ele>615.0</ele><time>2026-04-04T09:29:29Z</time></trkpt><trkpt lat="44.328749346120176" lon="11.14010586458109"><ele>615.0</ele><time>2026-04-04T09:29:31Z</time></trkpt><trkpt lat="44.328761800516205" lon="11.14001504679724"><ele>615.0</ele><time>2026-04-04T09:29:33Z</time></trkpt><trkpt lat="44.32874934924469" lon="11.139896191066198"><ele>615.0</ele><time>2026-04-04T09:29:35Z</time></trkpt><trkpt lat="44.328705132498015" lon="11.139772585756061"><ele>615.0</ele><time>2026-04-04T09:29:38Z</time></trkpt><trkpt lat="44.32868227657962" lon="11.139684162985322"><ele>615.0</ele><time>2026-04-04T09:29:40Z</time></trkpt><trkpt lat="44.328665467349005" lon="11.139561034597364"><ele>615.0</ele><time>2026-04-04T09:29:45Z</time></trkpt><trkpt lat="44.32861408056593" lon="11.139489109788036"><ele>618.6666666666666</ele><time>2026-04-04T09:29:48Z</time></trkpt><trkpt lat="44.32858589985951" lon="11.139406146156198"><ele>622.3333333333334</ele><time>2026-04-04T09:30:08Z</time></trkpt><trkpt lat="44.328622082906136" lon="11.139330700937109"><ele>626.0</ele><time>2026-04-04T09:37:22.999Z</time></trkpt><trkpt lat="44.32854869469739" lon="11.139290114630654"><ele>629.6666666666667</ele><time>2026-04-04T09:37:26.999Z</time></trkpt><trkpt lat="44.328491483463765" lon="11.139217031916964"><ele>633.3333333333334</ele><time>2026-04-04T09:37:31.999Z</time></trkpt><trkpt lat="44.328418864670915" lon="11.139134278518414"><ele>637.0</ele><time>2026-04-04T09:37:38.999Z</time></trkpt><trkpt lat="44.32834204895273" lon="11.13905333016551"><ele>635.5</ele><time>2026-04-04T09:37:41.999Z</time></trkpt><trkpt lat="44.3282740161236" lon="11.138978154463386"><ele>634.0</ele><time>2026-04-04T09:37:43.999Z</time></trkpt><trkpt lat="44.32820738996463" lon="11.138954251679015"><ele>632.5</ele><time>2026-04-04T09:37:45.999Z</time></trkpt><trkpt lat="44.32814208089517" lon="11.138934741148825"><ele>631.0</ele><time>2026-04-04T09:39:34.999Z</time></trkpt><trkpt lat="44.328080000778826" lon="11.138885874640012"><ele>629.5</ele><time>2026-04-04T09:39:38.999Z</time></trkpt><trkpt lat="44.327993384183706" lon="11.138881287370312"><ele>628.0</ele><time>2026-04-04T09:39:40.999Z</time></trkpt><trkpt lat="44.32790568216452" lon="11.138855414194586"><ele>627.9999999999999</ele><time>2026-04-04T09:39:42.999Z</time></trkpt><trkpt lat="44.327842479751055" lon="11.138887796550552"><ele>628.0</ele><time>2026-04-04T09:39:51.999Z</time></trkpt><trkpt lat="44.32789780536227" lon="11.138941402666891"><ele>628.0</ele><time>2026-04-04T09:39:58Z</time></trkpt><trkpt lat="44.327966959538976" lon="11.138988359488934"><ele>628.0</ele><time>2026-04-04T09:40:00Z</time></trkpt><trkpt lat="44.32802752005445" lon="11.139034919755876"><ele>628.0</ele><time>2026-04-04T09:40:01Z</time></trkpt><trkpt lat="44.32810379928508" lon="11.139044947736622"><ele>627.9999999999999</ele><time>2026-04-04T09:40:02Z</time></trkpt><trkpt lat="44.32818038347715" lon="11.139043853273362"><ele>628.0</ele><time>2026-04-04T09:40:03Z</time></trkpt><trkpt lat="44.32827426302164" lon="11.139036456083508"><ele>628.0</ele><time>2026-04-04T09:40:05Z</time></trkpt><trkpt lat="44.32831909433097" lon="11.139116957238233"><ele>628.0</ele><time>2026-04-04T09:40:10Z</time></trkpt><trkpt lat="44.32839178419751" lon="11.139120253679579"><ele>628.0</ele><time>2026-04-04T09:40:14Z</time></trkpt><trkpt lat="44.32833809490134" lon="11.139045399050731"><ele>628.0</ele><time>2026-04-04T09:40:17Z</time></trkpt><trkpt lat="44.32823264289214" lon="11.13898134869906"><ele>628.0</ele><time>2026-04-04T09:40:19Z</time></trkpt><trkpt lat="44.328145105254656" lon="11.138918595974323"><ele>628.0</ele><time>2026-04-04T09:40:21Z</time></trkpt><trkpt lat="44.32804908013627" lon="11.13888871405764"><ele>633.3333333333334</ele><time>2026-04-04T09:42:40Z</time></trkpt><trkpt lat="44.32794045874774" lon="11.138874487676759"><ele>638.6666666666667</ele><time>2026-04-04T09:42:42Z</time></trkpt><trkpt lat="44.327848704025" lon="11.138863584853313"><ele>644.0</ele><time>2026-04-04T09:42:44Z</time></trkpt><trkpt lat="44.32778271030095" lon="11.13884916077709"><ele>649.3333333333334</ele><time>2026-04-04T09:42:46Z</time></trkpt><trkpt lat="44.327748426665885" lon="11.138768112121266"><ele>654.6666666666666</ele><time>2026-04-04T09:44:27Z</time></trkpt><trkpt lat="44.327669684433985" lon="11.13870291013381"><ele>660.0</ele><time>2026-04-04T09:44:30Z</time></trkpt><trkpt lat="44.32760124327108" lon="11.138674880601432"><ele>660.0</ele><time>2026-04-04T09:44:32Z</time></trkpt><trkpt lat="44.3275438008094" lon="11.138611749758072"><ele>660.0</ele><time>2026-04-04T09:44:34Z</time></trkpt><trkpt lat="44.32746221548263" lon="11.138542942043307"><ele>660.0</ele><time>2026-04-04T09:44:36Z</time></trkpt><trkpt lat="44.32739377939818" lon="11.138528824550416"><ele>660.0</ele><time>2026-04-04T09:44:38Z</time></trkpt><trkpt lat="44.32729923895965" lon="11.138406795407954"><ele>660.0</ele><time>2026-04-04T09:44:41Z</time></trkpt><trkpt lat="44.32716536245711" lon="11.138324457161222"><ele>661.0000000000001</ele><time>2026-04-04T09:44:43Z</time></trkpt><trkpt lat="44.32712178403146" lon="11.138247890098093"><ele>662.0</ele><time>2026-04-04T09:44:45Z</time></trkpt><trkpt lat="44.32705923265356" lon="11.138237671573311"><ele>663.0</ele><time>2026-04-04T09:44:46Z</time></trkpt><trkpt lat="44.32702467087903" lon="11.138126316613857"><ele>664.0</ele><time>2026-04-04T09:44:50Z</time></trkpt><trkpt lat="44.32700968577636" lon="11.138031772047192"><ele>665.0</ele><time>2026-04-04T09:44:51Z</time></trkpt><trkpt lat="44.3269430230947" lon="11.138001972567599"><ele>666.0000000000001</ele><time>2026-04-04T09:44:54Z</time></trkpt><trkpt lat="44.3268690470693" lon="11.137989826868438"><ele>667.0</ele><time>2026-04-04T09:44:55Z</time></trkpt><trkpt lat="44.32687006121533" lon="11.137892212599901"><ele>669.0</ele><time>2026-04-04T09:44:56Z</time></trkpt><trkpt lat="44.326844808986316" lon="11.13778833707474"><ele>671.0</ele><time>2026-04-04T09:44:58Z</time></trkpt><trkpt lat="44.32679767143254" lon="11.137714433923586"><ele>673.0</ele><time>2026-04-04T09:45:01Z</time></trkpt><trkpt lat="44.32684900811525" lon="11.137615151777851"><ele>675.0</ele><time>2026-04-04T09:45:04Z</time></trkpt><trkpt lat="44.326867794720705" lon="11.137466552447838"><ele>677.0</ele><time>2026-04-04T09:45:06Z</time></trkpt><trkpt lat="44.326863397888836" lon="11.137366737001209"><ele>679.0</ele><time>2026-04-04T09:45:08Z</time></trkpt><trkpt lat="44.32685001287767" lon="11.137227001778939"><ele>679.0</ele><time>2026-04-04T09:45:11Z</time></trkpt><trkpt lat="44.32682895155188" lon="11.137126631163385"><ele>679.0</ele><time>2026-04-04T09:45:15Z</time></trkpt><trkpt lat="44.32685746437488" lon="11.137044630022858"><ele>679.0</ele><time>2026-04-04T09:45:19Z</time></trkpt><trkpt lat="44.3269035627307" lon="11.136947580088542"><ele>679.0</ele><time>2026-04-04T09:45:22Z</time></trkpt><trkpt lat="44.32696496426698" lon="11.136836819969961"><ele>679.0</ele><time>2026-04-04T09:45:24Z</time></trkpt><trkpt lat="44.32701572081734" lon="11.136736561205778"><ele>679.0</ele><time>2026-04-04T09:46:08.999Z</time></trkpt><trkpt lat="44.32705706975679" lon="11.13659108278678"><ele>678.5714285714286</ele><time>2026-04-04T09:46:10.999Z</time></trkpt><trkpt lat="44.32710103157856" lon="11.13652331747932"><ele>678.1428571428571</ele><time>2026-04-04T09:46:11.999Z</time></trkpt><trkpt lat="44.327166020181785" lon="11.136429670730525"><ele>677.7142857142858</ele><time>2026-04-04T09:46:13.999Z</time></trkpt><trkpt lat="44.32720382643357" lon="11.136346010506761"><ele>677.2857142857142</ele><time>2026-04-04T09:46:15Z</time></trkpt><trkpt lat="44.32723781288041" lon="11.136263124543717"><ele>676.8571428571429</ele><time>2026-04-04T09:46:15.999Z</time></trkpt><trkpt lat="44.327296894450626" lon="11.136207079170582"><ele>676.4285714285714</ele><time>2026-04-04T09:46:16.999Z</time></trkpt><trkpt lat="44.327360047001214" lon="11.136143778422822"><ele>676.0</ele><time>2026-04-04T09:46:17.999Z</time></trkpt><trkpt lat="44.32739117680253" lon="11.136045769934949"><ele>676.0</ele><time>2026-04-04T09:46:18.999Z</time></trkpt><trkpt lat="44.32737447646222" lon="11.1358602802803"><ele>676.0</ele><time>2026-04-04T09:46:19.999Z</time></trkpt><trkpt lat="44.32735183370778" lon="11.135764689147415"><ele>676.0</ele><time>2026-04-04T09:46:20.999Z</time></trkpt><trkpt lat="44.327312182285525" lon="11.135685754003228"><ele>676.0</ele><time>2026-04-04T09:46:21.999Z</time></trkpt><trkpt lat="44.32726038969545" lon="11.135622075856903"><ele>676.0</ele><time>2026-04-04T09:46:23Z</time></trkpt><trkpt lat="44.327223316133086" lon="11.135476215762075"><ele>671.5</ele><time>2026-04-04T09:46:25Z</time></trkpt><trkpt lat="44.32721709714566" lon="11.135312694810604"><ele>667.0</ele><time>2026-04-04T09:46:27Z</time></trkpt><trkpt lat="44.32721282977729" lon="11.135191726205033"><ele>662.5</ele><time>2026-04-04T09:46:28Z</time></trkpt><trkpt lat="44.32721575516402" lon="11.13502617553169"><ele>658.0</ele><time>2026-04-04T09:46:30Z</time></trkpt><trkpt lat="44.32719524302857" lon="11.134835533646221"><ele>657.5</ele><time>2026-04-04T09:46:32Z</time></trkpt><trkpt lat="44.32721953876578" lon="11.134733001132616"><ele>657.0</ele><time>2026-04-04T09:46:34Z</time></trkpt><trkpt lat="44.327219669818135" lon="11.13459551557117"><ele>656.5</ele><time>2026-04-04T09:46:40Z</time></trkpt><trkpt lat="44.32716469375166" lon="11.134507295253453"><ele>656.0</ele><time>2026-04-04T09:46:42Z</time></trkpt><trkpt lat="44.32711343775453" lon="11.134438838923446"><ele>655.5</ele><time>2026-04-04T09:46:44Z</time></trkpt><trkpt lat="44.32703706886015" lon="11.134400780570619"><ele>655.0</ele><time>2026-04-04T09:46:45Z</time></trkpt><trkpt lat="44.32696981238404" lon="11.134382388985793"><ele>655.0</ele><time>2026-04-04T09:46:46Z</time></trkpt><trkpt lat="44.326997842302156" lon="11.134463843502296"><ele>655.0</ele><time>2026-04-04T09:47:13Z</time></trkpt><trkpt lat="44.32694987524162" lon="11.13439081482483"><ele>655.0</ele><time>2026-04-04T09:47:17Z</time></trkpt><trkpt lat="44.326885002688876" lon="11.134288677538253"><ele>655.0</ele><time>2026-04-04T09:47:19Z</time></trkpt><trkpt lat="44.32682948117201" lon="11.134243428109766"><ele>655.0</ele><time>2026-04-04T09:47:20Z</time></trkpt><trkpt lat="44.32673718566469" lon="11.134191397967074"><ele>655.0</ele><time>2026-04-04T09:47:21Z</time></trkpt><trkpt lat="44.32663366918529" lon="11.134123553728152"><ele>655.0</ele><time>2026-04-04T09:47:23Z</time></trkpt><trkpt lat="44.3265687812971" lon="11.134112667307624"><ele>655.0</ele><time>2026-04-04T09:47:24Z</time></trkpt><trkpt lat="44.326490845613016" lon="11.134026149076359"><ele>655.0</ele><time>2026-04-04T09:47:26Z</time></trkpt><trkpt lat="44.32642810094586" lon="11.133941990467616"><ele>655.0</ele><time>2026-04-04T09:47:28Z</time></trkpt><trkpt lat="44.326374505199325" lon="11.133855728940874"><ele>655.0</ele><time>2026-04-04T09:47:30Z</time></trkpt><trkpt lat="44.3262514897975" lon="11.13384054550195"><ele>649.8</ele><time>2026-04-04T09:47:32Z</time></trkpt><trkpt lat="44.32617305596982" lon="11.133797885598181"><ele>644.6</ele><time>2026-04-04T09:47:35Z</time></trkpt><trkpt lat="44.32608846099919" lon="11.133762692460818"><ele>639.4</ele><time>2026-04-04T09:47:38Z</time></trkpt><trkpt lat="44.32608399045462" lon="11.133884586992556"><ele>634.2</ele><time>2026-04-04T09:48:07.999Z</time></trkpt><trkpt lat="44.326019459064945" lon="11.13389074694777"><ele>629.0</ele><time>2026-04-04T09:50:50Z</time></trkpt><trkpt lat="44.3258772485064" lon="11.133828494891844"><ele>629.0</ele><time>2026-04-04T09:50:52Z</time></trkpt><trkpt lat="44.32577193901973" lon="11.133781449964683"><ele>629.0</ele><time>2026-04-04T09:50:53Z</time></trkpt><trkpt lat="44.32570388728011" lon="11.133755472876514"><ele>629.0</ele><time>2026-04-04T09:50:54Z</time></trkpt><trkpt lat="44.32563310698257" lon="11.133694049896697"><ele>629.0</ele><time>2026-04-04T09:50:55Z</time></trkpt><trkpt lat="44.32557091149313" lon="11.133629796936113"><ele>629.0</ele><time>2026-04-04T09:50:56Z</time></trkpt><trkpt lat="44.32546138032086" lon="11.133614228372606"><ele>627.3333333333333</ele><time>2026-04-04T09:50:57Z</time></trkpt><trkpt lat="44.32539560849394" lon="11.133583958412625"><ele>625.6666666666666</ele><time>2026-04-04T09:50:58Z</time></trkpt><trkpt lat="44.325320851579015" lon="11.13351591515939"><ele>624.0</ele><time>2026-04-04T09:50:59Z</time></trkpt><trkpt lat="44.32525769842746" lon="11.13346965979595"><ele>622.3333333333334</ele><time>2026-04-04T09:51:00Z</time></trkpt><trkpt lat="44.325188064403164" lon="11.13340647603521"><ele>620.6666666666667</ele><time>2026-04-04T09:51:01Z</time></trkpt><trkpt lat="44.325138564706585" lon="11.133345337552672"><ele>619.0</ele><time>2026-04-04T09:51:02Z</time></trkpt><trkpt lat="44.325040225442066" lon="11.133309159494182"><ele>619.0</ele><time>2026-04-04T09:51:04Z</time></trkpt><trkpt lat="44.325108410634854" lon="11.133349124047731"><ele>619.0</ele><time>2026-04-04T09:51:07Z</time></trkpt><trkpt lat="44.32513422979135" lon="11.133459364079473"><ele>619.0</ele><time>2026-04-04T09:52:39Z</time></trkpt><trkpt lat="44.32513211255594" lon="11.13356640101192"><ele>619.0</ele><time>2026-04-04T09:52:41Z</time></trkpt><trkpt lat="44.32519642427994" lon="11.133709501597238"><ele>619.0</ele><time>2026-04-04T09:52:43Z</time></trkpt><trkpt lat="44.32523244668554" lon="11.13385935164244"><ele>619.0</ele><time>2026-04-04T09:52:45Z</time></trkpt><trkpt lat="44.32527519498006" lon="11.133947950188395"><ele>619.0</ele><time>2026-04-04T09:52:46Z</time></trkpt><trkpt lat="44.325325516398166" lon="11.134014791835188"><ele>619.0</ele><time>2026-04-04T09:52:47Z</time></trkpt><trkpt lat="44.325312718639466" lon="11.134153619606492"><ele>619.0</ele><time>2026-04-04T09:52:49Z</time></trkpt><trkpt lat="44.32536185942619" lon="11.134306169696387"><ele>619.0</ele><time>2026-04-04T09:52:51Z</time></trkpt><trkpt lat="44.325359603222054" lon="11.134464219670729"><ele>620.3333333333334</ele><time>2026-04-04T09:52:53Z</time></trkpt><trkpt lat="44.32533903593754" lon="11.134582588943454"><ele>621.6666666666667</ele><time>2026-04-04T09:52:55Z</time></trkpt><trkpt lat="44.325345790685816" lon="11.134686389102763"><ele>623.0</ele><time>2026-04-04T09:52:57Z</time></trkpt><trkpt lat="44.32540318568158" lon="11.134767132355282"><ele>624.3333333333334</ele><time>2026-04-04T09:52:59Z</time></trkpt><trkpt lat="44.32548846237313" lon="11.134799707429913"><ele>625.6666666666666</ele><time>2026-04-04T09:53:00Z</time></trkpt><trkpt lat="44.32555544497886" lon="11.134876190696804"><ele>627.0</ele><time>2026-04-04T09:53:02Z</time></trkpt><trkpt lat="44.32559619121162" lon="11.134958468593478"><ele>627.0</ele><time>2026-04-04T09:53:04Z</time></trkpt><trkpt lat="44.32564082521135" lon="11.135036853033684"><ele>627.0</ele><time>2026-04-04T09:53:06Z</time></trkpt><trkpt lat="44.32567812516831" lon="11.135108017539839"><ele>627.0</ele><time>2026-04-04T09:53:08Z</time></trkpt><trkpt lat="44.32562588889356" lon="11.13518866365198"><ele>627.0</ele><time>2026-04-04T09:53:11Z</time></trkpt><trkpt lat="44.325577103964314" lon="11.135275682637982"><ele>627.0</ele><time>2026-04-04T09:53:13Z</time></trkpt><trkpt lat="44.32553999861892" lon="11.135373463649186"><ele>627.0</ele><time>2026-04-04T09:53:15Z</time></trkpt><trkpt lat="44.32545286092659" lon="11.135388664914249"><ele>623.0</ele><time>2026-04-04T09:53:16Z</time></trkpt><trkpt lat="44.32546962145182" lon="11.135505557377558"><ele>619.0</ele><time>2026-04-04T09:53:19Z</time></trkpt><trkpt lat="44.32538848722185" lon="11.135507906873334"><ele>615.0</ele><time>2026-04-04T09:53:30Z</time></trkpt><trkpt lat="44.32537060682438" lon="11.13540178003421"><ele>611.0</ele><time>2026-04-04T09:53:31Z</time></trkpt><trkpt lat="44.32523625450433" lon="11.13534322939899"><ele>607.0</ele><time>2026-04-04T09:53:33Z</time></trkpt><trkpt lat="44.32500543865854" lon="11.134939917473375"><ele>607.2</ele><time>2026-04-04T09:53:34Z</time></trkpt><trkpt lat="44.32489444706301" lon="11.13483906644816"><ele>607.4000000000001</ele><time>2026-04-04T09:53:35Z</time></trkpt><trkpt lat="44.324838837733466" lon="11.134746142590835"><ele>607.5999999999999</ele><time>2026-04-04T09:53:36Z</time></trkpt><trkpt lat="44.32480207684039" lon="11.134652947424378"><ele>607.8</ele><time>2026-04-04T09:53:37Z</time></trkpt><trkpt lat="44.324707778481" lon="11.134552198998964"><ele>608.0</ele><time>2026-04-04T09:53:39Z</time></trkpt><trkpt lat="44.32465689783554" lon="11.134480056631123"><ele>603.8</ele><time>2026-04-04T09:53:40Z</time></trkpt><trkpt lat="44.32458483819583" lon="11.134375142654065"><ele>599.5999999999999</ele><time>2026-04-04T09:53:42Z</time></trkpt><trkpt lat="44.32446585099601" lon="11.13429911394678"><ele>595.4000000000001</ele><time>2026-04-04T09:53:44Z</time></trkpt><trkpt lat="44.3243478586957" lon="11.134327780525547"><ele>591.2</ele><time>2026-04-04T09:53:45Z</time></trkpt><trkpt lat="44.32426887829893" lon="11.134324788371137"><ele>587.0</ele><time>2026-04-04T09:53:46Z</time></trkpt><trkpt lat="44.32423712425142" lon="11.13440154414173"><ele>587.0</ele><time>2026-04-04T09:53:47Z</time></trkpt><trkpt lat="44.32419289775592" lon="11.13447388898628"><ele>587.0</ele><time>2026-04-04T09:53:48Z</time></trkpt><trkpt lat="44.32407860047892" lon="11.134560185207036"><ele>587.0</ele><time>2026-04-04T09:53:50Z</time></trkpt><trkpt lat="44.323983925211074" lon="11.134589096377992"><ele>587.0</ele><time>2026-04-04T09:53:52Z</time></trkpt><trkpt lat="44.323907896596694" lon="11.134549428125617"><ele>587.0</ele><time>2026-04-04T09:53:53Z</time></trkpt><trkpt lat="44.323799156781384" lon="11.134541731195156"><ele>584.2</ele><time>2026-04-04T09:53:55Z</time></trkpt><trkpt lat="44.32368271490683" lon="11.13454724555678"><ele>581.4000000000001</ele><time>2026-04-04T09:53:57Z</time></trkpt><trkpt lat="44.32356040291025" lon="11.134545350902506"><ele>578.5999999999999</ele><time>2026-04-04T09:53:59Z</time></trkpt><trkpt lat="44.32348505929092" lon="11.1345438075576"><ele>575.8</ele><time>2026-04-04T09:54:00Z</time></trkpt><trkpt lat="44.32340173788261" lon="11.134559901181325"><ele>573.0</ele><time>2026-04-04T09:54:01Z</time></trkpt><trkpt lat="44.323286133717005" lon="11.134556796734351"><ele>573.0</ele><time>2026-04-04T09:54:03Z</time></trkpt><trkpt lat="44.3231734559991" lon="11.134581470615064"><ele>573.0</ele><time>2026-04-04T09:54:05Z</time></trkpt><trkpt lat="44.32305489880977" lon="11.134589500040995"><ele>573.0</ele><time>2026-04-04T09:54:07Z</time></trkpt><trkpt lat="44.32293472866079" lon="11.134585809532732"><ele>573.0</ele><time>2026-04-04T09:54:09Z</time></trkpt><trkpt lat="44.32286409755216" lon="11.134653286882982"><ele>573.0</ele><time>2026-04-04T09:54:11Z</time></trkpt><trkpt lat="44.32278551002372" lon="11.134715332474432"><ele>570.6666666666666</ele><time>2026-04-04T09:54:12Z</time></trkpt><trkpt lat="44.32272069754665" lon="11.134719856801027"><ele>568.3333333333334</ele><time>2026-04-04T09:54:14Z</time></trkpt><trkpt lat="44.322632353436504" lon="11.13472213333295"><ele>566.0</ele><time>2026-04-04T09:54:17Z</time></trkpt><trkpt lat="44.32257718938706" lon="11.134775959545056"><ele>563.6666666666667</ele><time>2026-04-04T09:54:18Z</time></trkpt><trkpt lat="44.32246710984085" lon="11.134776638520295"><ele>561.3333333333334</ele><time>2026-04-04T09:54:20Z</time></trkpt><trkpt lat="44.32238240360122" lon="11.134789696568772"><ele>559.0</ele><time>2026-04-04T09:54:22Z</time></trkpt><trkpt lat="44.32231319740055" lon="11.134817719518168"><ele>557.0</ele><time>2026-04-04T09:54:25Z</time></trkpt><trkpt lat="44.32222137056147" lon="11.134819152080704"><ele>555.0</ele><time>2026-04-04T09:54:27Z</time></trkpt><trkpt lat="44.32217329531934" lon="11.13489332704155"><ele>553.0</ele><time>2026-04-04T09:54:29Z</time></trkpt><trkpt lat="44.32209490285734" lon="11.134930574094797"><ele>551.0</ele><time>2026-04-04T09:54:32Z</time></trkpt><trkpt lat="44.32201742924988" lon="11.134922444650183"><ele>549.0</ele><time>2026-04-04T09:54:34Z</time></trkpt><trkpt lat="44.3219479539595" lon="11.134919958097042"><ele>547.0</ele><time>2026-04-04T09:54:35Z</time></trkpt><trkpt lat="44.321842722628006" lon="11.134931165845298"><ele>547.0</ele><time>2026-04-04T09:54:37Z</time></trkpt><trkpt lat="44.32175955318726" lon="11.134959467510221"><ele>547.0</ele><time>2026-04-04T09:54:39Z</time></trkpt><trkpt lat="44.321688752992756" lon="11.1348965113938"><ele>547.0</ele><time>2026-04-04T09:54:42Z</time></trkpt><trkpt lat="44.321635875428285" lon="11.13481884165011"><ele>547.0</ele><time>2026-04-04T09:54:45Z</time></trkpt><trkpt lat="44.321582005674216" lon="11.134762316733495"><ele>547.0</ele><time>2026-04-04T09:54:48Z</time></trkpt><trkpt lat="44.32166481049691" lon="11.134739763238352"><ele>547.0</ele><time>2026-04-04T09:54:51Z</time></trkpt><trkpt lat="44.32171715950872" lon="11.134670091072662"><ele>546.8333333333334</ele><time>2026-04-04T09:54:54Z</time></trkpt><trkpt lat="44.32178850308656" lon="11.134635775908775"><ele>546.6666666666667</ele><time>2026-04-04T09:54:58Z</time></trkpt><trkpt lat="44.321852174910966" lon="11.134583886075633"><ele>546.5</ele><time>2026-04-04T09:55:00Z</time></trkpt><trkpt lat="44.32176038002667" lon="11.134549212791796"><ele>546.3333333333334</ele><time>2026-04-04T09:55:14Z</time></trkpt><trkpt lat="44.321726583156625" lon="11.134460844803831"><ele>546.1666666666666</ele><time>2026-04-04T09:55:17Z</time></trkpt><trkpt lat="44.32178844178729" lon="11.134413684923974"><ele>546.0</ele><time>2026-04-04T09:55:22Z</time></trkpt><trkpt lat="44.32182429904079" lon="11.134336095541986"><ele>546.0</ele><time>2026-04-04T09:55:32Z</time></trkpt><trkpt lat="44.321738755629404" lon="11.134343139976203"><ele>546.0</ele><time>2026-04-04T09:55:36Z</time></trkpt><trkpt lat="44.32163010428084" lon="11.134329263522824"><ele>546.0</ele><time>2026-04-04T09:55:38Z</time></trkpt><trkpt lat="44.32156433934822" lon="11.134342811054946"><ele>546.0</ele><time>2026-04-04T09:55:39Z</time></trkpt><trkpt lat="44.3214958881989" lon="11.134314578986316"><ele>546.0</ele><time>2026-04-04T09:55:40Z</time></trkpt><trkpt lat="44.32142634616107" lon="11.134238955557521"><ele>546.0</ele><time>2026-04-04T09:55:41Z</time></trkpt><trkpt lat="44.321500368583514" lon="11.134298302820632"><ele>546.0</ele><time>2026-04-04T09:55:53Z</time></trkpt><trkpt lat="44.32146600314601" lon="11.134205221776229"><ele>546.0</ele><time>2026-04-04T09:56:02Z</time></trkpt><trkpt lat="44.32146178150117" lon="11.134299941046566"><ele>546.0</ele><time>2026-04-04T09:56:07Z</time></trkpt><trkpt lat="44.32150588129104" lon="11.134409448185263"><ele>546.0</ele><time>2026-04-04T09:56:12Z</time></trkpt><trkpt lat="44.32158251586595" lon="11.13445593826248"><ele>546.0</ele><time>2026-04-04T09:56:15Z</time></trkpt><trkpt lat="44.3216184974736" lon="11.134547217074141"><ele>546.0</ele><time>2026-04-04T09:56:18Z</time></trkpt><trkpt lat="44.32172130700635" lon="11.134577086807665"><ele>546.0</ele><time>2026-04-04T09:56:19Z</time></trkpt><trkpt lat="44.3218851293969" lon="11.134526319424639"><ele>546.0</ele><time>2026-04-04T09:56:23Z</time></trkpt><trkpt lat="44.32182250251662" lon="11.134478562353006"><ele>546.0</ele><time>2026-04-04T09:56:25.999Z</time></trkpt><trkpt lat="44.32189763525518" lon="11.134540902948057"><ele>546.0</ele><time>2026-04-04T09:56:32.999Z</time></trkpt><trkpt lat="44.32197595712041" lon="11.134556515452555"><ele>546.0</ele><time>2026-04-04T09:56:34.999Z</time></trkpt><trkpt lat="44.32213284769545" lon="11.134490929407526"><ele>546.0</ele><time>2026-04-04T09:56:35.999Z</time></trkpt><trkpt lat="44.32219744989717" lon="11.134473696880582"><ele>546.0</ele><time>2026-04-04T09:56:38.999Z</time></trkpt><trkpt lat="44.32228177805654" lon="11.134475286655245"><ele>546.0</ele><time>2026-04-04T09:56:40.999Z</time></trkpt><trkpt lat="44.322377671701524" lon="11.134419484455986"><ele>546.0</ele><time>2026-04-04T09:56:46Z</time></trkpt><trkpt lat="44.322467502956776" lon="11.134407178435533"><ele>546.0</ele><time>2026-04-04T09:56:48Z</time></trkpt><trkpt lat="44.32253870427832" lon="11.134442185728366"><ele>546.0</ele><time>2026-04-04T09:56:50Z</time></trkpt><trkpt lat="44.322586575492004" lon="11.134359675874824"><ele>547.8571428571429</ele><time>2026-04-04T09:56:53Z</time></trkpt><trkpt lat="44.32253144286708" lon="11.134310575732709"><ele>549.7142857142858</ele><time>2026-04-04T09:57:25Z</time></trkpt><trkpt lat="44.32250129087783" lon="11.134411610655198"><ele>551.5714285714286</ele><time>2026-04-04T09:57:45Z</time></trkpt><trkpt lat="44.322574728320205" lon="11.13432691781019"><ele>553.4285714285714</ele><time>2026-04-04T09:57:55Z</time></trkpt><trkpt lat="44.32253235631245" lon="11.134247494984736"><ele>555.2857142857143</ele><time>2026-04-04T09:58:43.999Z</time></trkpt><trkpt lat="44.32247261035959" lon="11.134284632368825"><ele>557.1428571428571</ele><time>2026-04-04T09:58:53Z</time></trkpt><trkpt lat="44.32245783906944" lon="11.134373551798673"><ele>559.0</ele><time>2026-04-04T09:59:01Z</time></trkpt><trkpt lat="44.32254054047852" lon="11.134382673333564"><ele>559.0</ele><time>2026-04-04T09:59:14Z</time></trkpt><trkpt lat="44.3225918605887" lon="11.134327711334294"><ele>559.0</ele><time>2026-04-04T09:59:26Z</time></trkpt><trkpt lat="44.32249928512344" lon="11.134259325172065"><ele>559.0</ele><time>2026-04-04T10:00:03Z</time></trkpt><trkpt lat="44.32241475063845" lon="11.134204317737598"><ele>559.0</ele><time>2026-04-04T10:00:52Z</time></trkpt><trkpt lat="44.32234003474198" lon="11.134172253012688"><ele>559.0</ele><time>2026-04-04T10:00:53Z</time></trkpt><trkpt lat="44.32222745370181" lon="11.134128678906931"><ele>559.0</ele><time>2026-04-04T10:00:55Z</time></trkpt><trkpt lat="44.32223415754787" lon="11.134265184038087"><ele>559.0</ele><time>2026-04-04T10:00:57Z</time></trkpt><trkpt lat="44.3222519441531" lon="11.134363705517188"><ele>559.0</ele><time>2026-04-04T10:01:03Z</time></trkpt><trkpt lat="44.32215527732798" lon="11.134312690048759"><ele>559.0</ele><time>2026-04-04T10:01:06Z</time></trkpt><trkpt lat="44.322091514416556" lon="11.13432801927139"><ele>559.0</ele><time>2026-04-04T10:01:09Z</time></trkpt><trkpt lat="44.32213586900367" lon="11.134248394750575"><ele>559.0</ele><time>2026-04-04T10:01:10Z</time></trkpt><trkpt lat="44.32205386353725" lon="11.134208620163626"><ele>556.8333333333334</ele><time>2026-04-04T10:01:12Z</time></trkpt><trkpt lat="44.321953489646084" lon="11.134135653105014"><ele>554.6666666666667</ele><time>2026-04-04T10:01:13Z</time></trkpt><trkpt lat="44.3219796823025" lon="11.13421958864305"><ele>552.5</ele><time>2026-04-04T10:01:25Z</time></trkpt><trkpt lat="44.32190853022836" lon="11.134187255728486"><ele>550.3333333333334</ele><time>2026-04-04T10:01:32Z</time></trkpt><trkpt lat="44.32180536643959" lon="11.134189344134898"><ele>548.1666666666666</ele><time>2026-04-04T10:01:34Z</time></trkpt><trkpt lat="44.32174102526291" lon="11.134203961547716"><ele>546.0</ele><time>2026-04-04T10:01:36Z</time></trkpt><trkpt lat="44.32166262655255" lon="11.134213581581594"><ele>546.0</ele><time>2026-04-04T10:01:38Z</time></trkpt><trkpt lat="44.321593836709184" lon="11.134231229167405"><ele>546.0</ele><time>2026-04-04T10:01:40Z</time></trkpt><trkpt lat="44.32153037700035" lon="11.134265949869038"><ele>546.0</ele><time>2026-04-04T10:01:42Z</time></trkpt><trkpt lat="44.32147057490154" lon="11.134229975729442"><ele>546.0</ele><time>2026-04-04T10:01:44Z</time></trkpt><trkpt lat="44.32151492089026" lon="11.134301830781624"><ele>546.0</ele><time>2026-04-04T10:01:52Z</time></trkpt><trkpt lat="44.32163196518806" lon="11.134335760585577"><ele>546.0</ele><time>2026-04-04T10:01:55Z</time></trkpt><trkpt lat="44.321698212737324" lon="11.13436332830953"><ele>546.0</ele><time>2026-04-04T10:01:56Z</time></trkpt><trkpt lat="44.32175519627357" lon="11.13428871646404"><ele>546.0</ele><time>2026-04-04T10:01:58Z</time></trkpt><trkpt lat="44.32182920306346" lon="11.134268074949444"><ele>546.0</ele><time>2026-04-04T10:01:59Z</time></trkpt><trkpt lat="44.32194554580917" lon="11.134226787256368"><ele>546.0</ele><time>2026-04-04T10:02:01Z</time></trkpt><trkpt lat="44.32206539689974" lon="11.134258293917522"><ele>546.0</ele><time>2026-04-04T10:02:03Z</time></trkpt><trkpt lat="44.322068956500004" lon="11.134149662940924"><ele>546.0</ele><time>2026-04-04T10:02:05Z</time></trkpt><trkpt lat="44.32212858372185" lon="11.134178326011796"><ele>546.0</ele><time>2026-04-04T10:02:08Z</time></trkpt><trkpt lat="44.32220476803572" lon="11.134202177769671"><ele>546.0</ele><time>2026-04-04T10:02:12Z</time></trkpt><trkpt lat="44.32229018533104" lon="11.134192285563154"><ele>546.0</ele><time>2026-04-04T10:02:14Z</time></trkpt><trkpt lat="44.32246010027464" lon="11.134127854158406"><ele>546.0</ele><time>2026-04-04T10:02:16Z</time></trkpt><trkpt lat="44.322529552284884" lon="11.134121970675775"><ele>548.6</ele><time>2026-04-04T10:02:17Z</time></trkpt><trkpt lat="44.322600633473975" lon="11.134112073139464"><ele>551.2</ele><time>2026-04-04T10:02:18Z</time></trkpt><trkpt lat="44.32269753316979" lon="11.134091393486994"><ele>553.8</ele><time>2026-04-04T10:02:20Z</time></trkpt><trkpt lat="44.32280595236861" lon="11.134111964696324"><ele>556.4</ele><time>2026-04-04T10:02:22Z</time></trkpt><trkpt lat="44.32286916035588" lon="11.134187683737599"><ele>559.0</ele><time>2026-04-04T10:02:25Z</time></trkpt><trkpt lat="44.322952077579444" lon="11.134230054469057"><ele>559.0</ele><time>2026-04-04T10:02:27Z</time></trkpt><trkpt lat="44.32301679481573" lon="11.134253720075035"><ele>559.0</ele><time>2026-04-04T10:02:28Z</time></trkpt><trkpt lat="44.32309142314888" lon="11.13423152924301"><ele>559.0</ele><time>2026-04-04T10:02:29Z</time></trkpt><trkpt lat="44.32316487950734" lon="11.134244793159287"><ele>559.0</ele><time>2026-04-04T10:02:30Z</time></trkpt><trkpt lat="44.323239944063545" lon="11.134229080276699"><ele>559.0</ele><time>2026-04-04T10:02:31Z</time></trkpt><trkpt lat="44.323355966680346" lon="11.134227418593204"><ele>559.0</ele><time>2026-04-04T10:02:33Z</time></trkpt><trkpt lat="44.32346123302627" lon="11.134240020582416"><ele>561.8</ele><time>2026-04-04T10:02:48Z</time></trkpt><trkpt lat="44.32355126848964" lon="11.13428591379803"><ele>564.5999999999999</ele><time>2026-04-04T10:02:58.999Z</time></trkpt><trkpt lat="44.32363872962333" lon="11.134282748283354"><ele>567.4</ele><time>2026-04-04T10:03:01.999Z</time></trkpt><trkpt lat="44.323743342627786" lon="11.134276224923672"><ele>570.1999999999999</ele><time>2026-04-04T10:03:04Z</time></trkpt><trkpt lat="44.323853493091526" lon="11.134230383546779"><ele>573.0</ele><time>2026-04-04T10:03:06Z</time></trkpt><trkpt lat="44.323931290790526" lon="11.134219187240584"><ele>575.8</ele><time>2026-04-04T10:03:08Z</time></trkpt><trkpt lat="44.324013324828975" lon="11.134210712303831"><ele>578.5999999999999</ele><time>2026-04-04T10:03:09Z</time></trkpt><trkpt lat="44.324079040836736" lon="11.134210988825108"><ele>581.4000000000001</ele><time>2026-04-04T10:03:14Z</time></trkpt><trkpt lat="44.324147803333496" lon="11.134254304237757"><ele>584.2</ele><time>2026-04-04T10:03:17Z</time></trkpt><trkpt lat="44.32427455337247" lon="11.134229067876655"><ele>587.0</ele><time>2026-04-04T10:03:19Z</time></trkpt><trkpt lat="44.324348386017505" lon="11.13411136748959"><ele>587.0</ele><time>2026-04-04T10:03:21Z</time></trkpt><trkpt lat="44.32442934216804" lon="11.13412571396712"><ele>587.0</ele><time>2026-04-04T10:03:22Z</time></trkpt><trkpt lat="44.324483586598646" lon="11.134185240676565"><ele>587.0</ele><time>2026-04-04T10:03:23Z</time></trkpt><trkpt lat="44.32453739483952" lon="11.134240905526703"><ele>587.0</ele><time>2026-04-04T10:03:24Z</time></trkpt><trkpt lat="44.3245577904754" lon="11.134372401317462"><ele>587.0</ele><time>2026-04-04T10:03:26Z</time></trkpt><trkpt lat="44.32463362695423" lon="11.134436496923948"><ele>587.0</ele><time>2026-04-04T10:03:28Z</time></trkpt><trkpt lat="44.32472318503164" lon="11.13443948995785"><ele>590.3333333333333</ele><time>2026-04-04T10:03:29Z</time></trkpt><trkpt lat="44.32477781328045" lon="11.134487538991088"><ele>593.6666666666666</ele><time>2026-04-04T10:03:31Z</time></trkpt><trkpt lat="44.3248216146817" lon="11.134589139428101"><ele>597.0</ele><time>2026-04-04T10:03:33Z</time></trkpt><trkpt lat="44.324926408652374" lon="11.134645562510714"><ele>600.3333333333334</ele><time>2026-04-04T10:03:35Z</time></trkpt><trkpt lat="44.32495312424229" lon="11.134777009768829"><ele>603.6666666666667</ele><time>2026-04-04T10:03:36Z</time></trkpt><trkpt lat="44.32502404964849" lon="11.134812223314041"><ele>607.0</ele><time>2026-04-04T10:03:37Z</time></trkpt><trkpt lat="44.32501954422036" lon="11.134929970839835"><ele>607.0</ele><time>2026-04-04T10:03:38Z</time></trkpt><trkpt lat="44.32501774905208" lon="11.135074633443013"><ele>607.0</ele><time>2026-04-04T10:03:39Z</time></trkpt><trkpt lat="44.32522164696888" lon="11.135184458682359"><ele>607.0</ele><time>2026-04-04T10:03:40Z</time></trkpt><trkpt lat="44.3254111396244" lon="11.135341528856676"><ele>607.0</ele><time>2026-04-04T10:03:41Z</time></trkpt><trkpt lat="44.325536060642555" lon="11.135385950812488"><ele>607.0</ele><time>2026-04-04T10:03:42Z</time></trkpt><trkpt lat="44.32558744306392" lon="11.135441368502713"><ele>607.0</ele><time>2026-04-04T10:03:43Z</time></trkpt><trkpt lat="44.32569038047961" lon="11.135550034870967"><ele>607.0</ele><time>2026-04-04T10:03:45Z</time></trkpt><trkpt lat="44.325763087198055" lon="11.135596460563976"><ele>607.0</ele><time>2026-04-04T10:03:46Z</time></trkpt><trkpt lat="44.32587300103676" lon="11.13564459846377"><ele>611.0</ele><time>2026-04-04T10:03:47Z</time></trkpt><trkpt lat="44.32584738459371" lon="11.135802747025295"><ele>615.0</ele><time>2026-04-04T10:03:49Z</time></trkpt><trkpt lat="44.32573306620175" lon="11.135788071900574"><ele>619.0</ele><time>2026-04-04T10:03:51Z</time></trkpt><trkpt lat="44.32575568709024" lon="11.13569240173258"><ele>623.0</ele><time>2026-04-04T10:03:52Z</time></trkpt><trkpt lat="44.32569246546875" lon="11.135543084284556"><ele>627.0</ele><time>2026-04-04T10:03:53Z</time></trkpt><trkpt lat="44.3256375922717" lon="11.135611506153452"><ele>620.3333333333334</ele><time>2026-04-04T10:03:54Z</time></trkpt><trkpt lat="44.32555150494198" lon="11.135499714126789"><ele>613.6666666666667</ele><time>2026-04-04T10:03:55Z</time></trkpt><trkpt lat="44.32538398200233" lon="11.135439608705632"><ele>607.0</ele><time>2026-04-04T10:03:57Z</time></trkpt><trkpt lat="44.32511318052648" lon="11.13508055406697"><ele>607.0</ele><time>2026-04-04T10:03:58Z</time></trkpt><trkpt lat="44.32506664280598" lon="11.134946838193532"><ele>607.0</ele><time>2026-04-04T10:03:59Z</time></trkpt><trkpt lat="44.32496316515158" lon="11.134815731471079"><ele>607.0</ele><time>2026-04-04T10:04:00Z</time></trkpt><trkpt lat="44.32486716687654" lon="11.134772818917366"><ele>607.0</ele><time>2026-04-04T10:04:01Z</time></trkpt><trkpt lat="44.324788951287594" lon="11.13469476091538"><ele>607.0</ele><time>2026-04-04T10:04:02Z</time></trkpt><trkpt lat="44.324715026471864" lon="11.134643847376203"><ele>603.6666666666667</ele><time>2026-04-04T10:04:06Z</time></trkpt><trkpt lat="44.32463042632057" lon="11.13463199253484"><ele>600.3333333333334</ele><time>2026-04-04T10:04:07Z</time></trkpt><trkpt lat="44.3245574133736" lon="11.134672016050693"><ele>597.0</ele><time>2026-04-04T10:04:09Z</time></trkpt><trkpt lat="44.32447601289503" lon="11.13470146851816"><ele>593.6666666666666</ele><time>2026-04-04T10:04:11Z</time></trkpt><trkpt lat="44.32434638220519" lon="11.134664996902204"><ele>590.3333333333333</ele><time>2026-04-04T10:04:13Z</time></trkpt><trkpt lat="44.32430756245575" lon="11.134740755882891"><ele>587.0</ele><time>2026-04-04T10:04:15Z</time></trkpt><trkpt lat="44.324250656811124" lon="11.13469098830897"><ele>587.0</ele><time>2026-04-04T10:04:16Z</time></trkpt><trkpt lat="44.324171487855224" lon="11.134655560184585"><ele>587.0</ele><time>2026-04-04T10:04:18Z</time></trkpt><trkpt lat="44.324110759738765" lon="11.134610196605728"><ele>587.0</ele><time>2026-04-04T10:04:19Z</time></trkpt><trkpt lat="44.32404469873577" lon="11.134647802958606"><ele>587.0</ele><time>2026-04-04T10:04:21Z</time></trkpt><trkpt lat="44.323985475825836" lon="11.134703702869583"><ele>587.0</ele><time>2026-04-04T10:04:24Z</time></trkpt><trkpt lat="44.32392376511035" lon="11.134747268284839"><ele>587.0</ele><time>2026-04-04T10:04:25Z</time></trkpt><trkpt lat="44.323855207515194" lon="11.134848003320855"><ele>586.4</ele><time>2026-04-04T10:04:27Z</time></trkpt><trkpt lat="44.323813921759694" lon="11.134919397088796"><ele>585.8000000000001</ele><time>2026-04-04T10:04:28Z</time></trkpt><trkpt lat="44.323713998255585" lon="11.134800966711207"><ele>585.2</ele><time>2026-04-04T10:04:30Z</time></trkpt><trkpt lat="44.32364788157524" lon="11.134841457618034"><ele>584.6</ele><time>2026-04-04T10:04:32Z</time></trkpt><trkpt lat="44.323520148143295" lon="11.134816685382562"><ele>584.0</ele><time>2026-04-04T10:04:34Z</time></trkpt><trkpt lat="44.32341997303146" lon="11.134783820970465"><ele>581.25</ele><time>2026-04-04T10:04:35Z</time></trkpt><trkpt lat="44.32332708564433" lon="11.134676678487741"><ele>578.5</ele><time>2026-04-04T10:04:36Z</time></trkpt><trkpt lat="44.32323041353074" lon="11.134635195971747"><ele>575.75</ele><time>2026-04-04T10:04:38Z</time></trkpt><trkpt lat="44.32307863603866" lon="11.134632696688593"><ele>573.0</ele><time>2026-04-04T10:04:40Z</time></trkpt><trkpt lat="44.3230372162624" lon="11.134731166213916"><ele>572.0</ele><time>2026-04-04T10:04:42Z</time></trkpt><trkpt lat="44.322978538852716" lon="11.134767425335708"><ele>571.0</ele><time>2026-04-04T10:04:43Z</time></trkpt><trkpt lat="44.32290476650988" lon="11.134775992871779"><ele>570.0</ele><time>2026-04-04T10:04:44Z</time></trkpt><trkpt lat="44.32282185314929" lon="11.13482437260901"><ele>569.0</ele><time>2026-04-04T10:04:47Z</time></trkpt><trkpt lat="44.322741059983294" lon="11.134896153656545"><ele>568.0</ele><time>2026-04-04T10:04:49Z</time></trkpt><trkpt lat="44.32266268822875" lon="11.13493343548687"><ele>567.0</ele><time>2026-04-04T10:04:51Z</time></trkpt><trkpt lat="44.322559541595716" lon="11.13488508214972"><ele>565.4</ele><time>2026-04-04T10:04:52.999Z</time></trkpt><trkpt lat="44.322499652183375" lon="11.134823722058153"><ele>563.8000000000001</ele><time>2026-04-04T10:04:55.999Z</time></trkpt><trkpt lat="44.32242055638665" lon="11.134805177546946"><ele>562.2</ele><time>2026-04-04T10:04:57.999Z</time></trkpt><trkpt lat="44.322367580538774" lon="11.134864848047656"><ele>560.6</ele><time>2026-04-04T10:05:00.999Z</time></trkpt><trkpt lat="44.32216290691584" lon="11.134918012199208"><ele>559.0</ele><time>2026-04-04T10:05:05.999Z</time></trkpt><trkpt lat="44.322061914714936" lon="11.134736416306167"><ele>556.4</ele><time>2026-04-04T10:05:10Z</time></trkpt><trkpt lat="44.3219894264268" lon="11.134682155500528"><ele>553.8</ele><time>2026-04-04T10:05:11Z</time></trkpt><trkpt lat="44.32196173914585" lon="11.13453896694141"><ele>551.2</ele><time>2026-04-04T10:05:14Z</time></trkpt><trkpt lat="44.321863281996414" lon="11.134504653131216"><ele>548.6</ele><time>2026-04-04T10:05:16Z</time></trkpt><trkpt lat="44.3218186352832" lon="11.134352910494863"><ele>546.0</ele><time>2026-04-04T10:05:24Z</time></trkpt><trkpt lat="44.3217296146802" lon="11.134400220063997"><ele>546.0</ele><time>2026-04-04T10:06:09Z</time></trkpt><trkpt lat="44.32168210539178" lon="11.134513603246575"><ele>546.0</ele><time>2026-04-04T10:06:11Z</time></trkpt><trkpt lat="44.32159980085935" lon="11.134479469235385"><ele>546.0</ele><time>2026-04-04T10:06:12Z</time></trkpt><trkpt lat="44.32152907981745" lon="11.134506118671178"><ele>546.0</ele><time>2026-04-04T10:06:14Z</time></trkpt><trkpt lat="44.32144305098231" lon="11.134484439021762"><ele>546.0</ele><time>2026-04-04T10:06:15Z</time></trkpt><trkpt lat="44.32137297969858" lon="11.13450640399378"><ele>546.0</ele><time>2026-04-04T10:06:16Z</time></trkpt><trkpt lat="44.32145175448413" lon="11.134284852226143"><ele>546.0</ele><time>2026-04-04T10:06:18Z</time></trkpt><trkpt lat="44.321521682599354" lon="11.134256560728103"><ele>546.0</ele><time>2026-04-04T10:06:29Z</time></trkpt><trkpt lat="44.3216190639469" lon="11.13421569128679"><ele>546.0</ele><time>2026-04-04T10:06:32Z</time></trkpt><trkpt lat="44.32170187342334" lon="11.134232241582396"><ele>546.0</ele><time>2026-04-04T10:06:33Z</time></trkpt><trkpt lat="44.321787839628435" lon="11.134227895827863"><ele>546.0</ele><time>2026-04-04T10:06:34Z</time></trkpt><trkpt lat="44.32186827323474" lon="11.134219384842538"><ele>546.0</ele><time>2026-04-04T10:06:35Z</time></trkpt><trkpt lat="44.32197466719696" lon="11.13424115927554"><ele>546.0</ele><time>2026-04-04T10:06:36Z</time></trkpt><trkpt lat="44.322050520579566" lon="11.134220953948692"><ele>546.0</ele><time>2026-04-04T10:06:37Z</time></trkpt><trkpt lat="44.322154306667336" lon="11.134211730055998"><ele>546.0</ele><time>2026-04-04T10:06:39Z</time></trkpt><trkpt lat="44.32227200645721" lon="11.134197622617616"><ele>546.0</ele><time>2026-04-04T10:06:41Z</time></trkpt><trkpt lat="44.322413868769864" lon="11.134157052555501"><ele>546.0</ele><time>2026-04-04T10:06:42.999Z</time></trkpt><trkpt lat="44.32249914618068" lon="11.134130470642912"><ele>548.1666666666666</ele><time>2026-04-04T10:06:43.999Z</time></trkpt><trkpt lat="44.32256815924163" lon="11.134089538790654"><ele>550.3333333333334</ele><time>2026-04-04T10:06:45.999Z</time></trkpt><trkpt lat="44.32264455954542" lon="11.134077112852909"><ele>552.5</ele><time>2026-04-04T10:06:47.999Z</time></trkpt><trkpt lat="44.322687612975294" lon="11.134144990628933"><ele>554.6666666666667</ele><time>2026-04-04T10:06:51.999Z</time></trkpt><trkpt lat="44.322766726626114" lon="11.134160903015303"><ele>556.8333333333334</ele><time>2026-04-04T10:06:53.999Z</time></trkpt><trkpt lat="44.32286540295947" lon="11.134197254587345"><ele>559.0</ele><time>2026-04-04T10:06:54.999Z</time></trkpt><trkpt lat="44.322972295884156" lon="11.13422174126119"><ele>559.0</ele><time>2026-04-04T10:06:55.999Z</time></trkpt><trkpt lat="44.323049328937465" lon="11.134205888991637"><ele>559.0</ele><time>2026-04-04T10:06:56.999Z</time></trkpt><trkpt lat="44.323136549397574" lon="11.134233548522731"><ele>559.0</ele><time>2026-04-04T10:06:57.999Z</time></trkpt><trkpt lat="44.32320960669628" lon="11.134233630319777"><ele>559.0</ele><time>2026-04-04T10:06:58.999Z</time></trkpt><trkpt lat="44.32329304807717" lon="11.134267904921723"><ele>559.0</ele><time>2026-04-04T10:07:00.999Z</time></trkpt><trkpt lat="44.323408304336866" lon="11.134321848618987"><ele>559.0</ele><time>2026-04-04T10:07:01.999Z</time></trkpt><trkpt lat="44.32350678349631" lon="11.134281218501707"><ele>561.8</ele><time>2026-04-04T10:07:02.999Z</time></trkpt><trkpt lat="44.32359105940306" lon="11.134263634523476"><ele>564.5999999999999</ele><time>2026-04-04T10:07:06.021Z</time></trkpt><trkpt lat="44.323515737808016" lon="11.134259849931993"><ele>567.4</ele><time>2026-04-04T10:07:09.999Z</time></trkpt><trkpt lat="44.3236281949501" lon="11.134322151321271"><ele>570.1999999999999</ele><time>2026-04-04T10:07:19Z</time></trkpt><trkpt lat="44.32372190185613" lon="11.134258869805432"><ele>573.0</ele><time>2026-04-04T10:07:20Z</time></trkpt><trkpt lat="44.32379566652447" lon="11.134289111319285"><ele>573.0</ele><time>2026-04-04T10:07:21Z</time></trkpt><trkpt lat="44.32386805827737" lon="11.134261056634848"><ele>573.0</ele><time>2026-04-04T10:07:22Z</time></trkpt><trkpt lat="44.32397500992498" lon="11.134225062144623"><ele>573.0</ele><time>2026-04-04T10:07:24Z</time></trkpt><trkpt lat="44.324095719880965" lon="11.13422248328208"><ele>573.0</ele><time>2026-04-04T10:07:26Z</time></trkpt><trkpt lat="44.32417730008718" lon="11.134185308921063"><ele>573.0</ele><time>2026-04-04T10:07:27Z</time></trkpt><trkpt lat="44.324240112263794" lon="11.134153351193081"><ele>575.8</ele><time>2026-04-04T10:07:28Z</time></trkpt><trkpt lat="44.32435129076487" lon="11.134135059154037"><ele>578.5999999999999</ele><time>2026-04-04T10:07:30Z</time></trkpt><trkpt lat="44.32445480702111" lon="11.13410382515968"><ele>581.4000000000001</ele><time>2026-04-04T10:07:32Z</time></trkpt><trkpt lat="44.324581017402444" lon="11.134196962163456"><ele>584.2</ele><time>2026-04-04T10:07:34Z</time></trkpt><trkpt lat="44.3246407472023" lon="11.134247559522827"><ele>587.0</ele><time>2026-04-04T10:07:35Z</time></trkpt><trkpt lat="44.32465306201481" lon="11.134356985126523"><ele>587.0</ele><time>2026-04-04T10:07:37Z</time></trkpt><trkpt lat="44.32469754330758" lon="11.134454142087634"><ele>587.0</ele><time>2026-04-04T10:07:38Z</time></trkpt><trkpt lat="44.32476514815341" lon="11.13455071336229"><ele>587.0</ele><time>2026-04-04T10:07:40Z</time></trkpt><trkpt lat="44.32481760534982" lon="11.134618996506402"><ele>587.0</ele><time>2026-04-04T10:07:42Z</time></trkpt><trkpt lat="44.324895058679466" lon="11.134650862084635"><ele>587.0</ele><time>2026-04-04T10:07:44Z</time></trkpt><trkpt lat="44.32500570120625" lon="11.134697466364956"><ele>587.0</ele><time>2026-04-04T10:07:45Z</time></trkpt><trkpt lat="44.32513504291813" lon="11.13469899869461"><ele>591.0</ele><time>2026-04-04T10:07:47Z</time></trkpt><trkpt lat="44.32519539584732" lon="11.134750244602612"><ele>595.0</ele><time>2026-04-04T10:07:48Z</time></trkpt><trkpt lat="44.32528036337068" lon="11.1348574654969"><ele>599.0</ele><time>2026-04-04T10:07:50Z</time></trkpt><trkpt lat="44.325325939308186" lon="11.134940297019037"><ele>603.0</ele><time>2026-04-04T10:08:10Z</time></trkpt><trkpt lat="44.325402868367206" lon="11.135000541976531"><ele>607.0</ele><time>2026-04-04T10:08:12Z</time></trkpt><trkpt lat="44.32552628463079" lon="11.135049291533791"><ele>607.0</ele><time>2026-04-04T10:08:13Z</time></trkpt><trkpt lat="44.32557908777261" lon="11.134967443645653"><ele>607.0</ele><time>2026-04-04T10:08:14Z</time></trkpt><trkpt lat="44.32555512170076" lon="11.134807869958117"><ele>607.0</ele><time>2026-04-04T10:08:22Z</time></trkpt><trkpt lat="44.32553779681239" lon="11.13492545206819"><ele>607.0</ele><time>2026-04-04T10:09:17.999Z</time></trkpt><trkpt lat="44.3254575179579" lon="11.134916987663093"><ele>607.0</ele><time>2026-04-04T10:09:25Z</time></trkpt><trkpt lat="44.32541091732626" lon="11.134854487558663"><ele>607.0</ele><time>2026-04-04T10:09:28Z</time></trkpt><trkpt lat="44.32534280025186" lon="11.134878402170703"><ele>607.0</ele><time>2026-04-04T10:09:37Z</time></trkpt><trkpt lat="44.32537711533057" lon="11.13497234043997"><ele>607.0</ele><time>2026-04-04T10:09:45Z</time></trkpt><trkpt lat="44.32542747757405" lon="11.135072170589268"><ele>607.0</ele><time>2026-04-04T10:09:55Z</time></trkpt><trkpt lat="44.3254614107554" lon="11.135179262648661"><ele>607.0</ele><time>2026-04-04T10:09:58Z</time></trkpt><trkpt lat="44.32550834200932" lon="11.135357554641171"><ele>607.0</ele><time>2026-04-04T10:10:01Z</time></trkpt><trkpt lat="44.325467639736885" lon="11.13525222596224"><ele>607.0</ele><time>2026-04-04T10:10:06Z</time></trkpt><trkpt lat="44.32537466177895" lon="11.135215747494536"><ele>607.0</ele><time>2026-04-04T10:10:11Z</time></trkpt><trkpt lat="44.32530125021211" lon="11.135165460977241"><ele>607.0</ele><time>2026-04-04T10:10:12Z</time></trkpt><trkpt lat="44.32512222432974" lon="11.135032171326362"><ele>607.0</ele><time>2026-04-04T10:10:13Z</time></trkpt><trkpt lat="44.325038484787775" lon="11.134987028890004"><ele>607.0</ele><time>2026-04-04T10:10:14Z</time></trkpt><trkpt lat="44.324952558599385" lon="11.134937510250388"><ele>607.0</ele><time>2026-04-04T10:10:15Z</time></trkpt><trkpt lat="44.32488256873242" lon="11.134901241792281"><ele>607.0</ele><time>2026-04-04T10:10:16Z</time></trkpt><trkpt lat="44.324815238204444" lon="11.134868162168479"><ele>607.0</ele><time>2026-04-04T10:10:17Z</time></trkpt><trkpt lat="44.32472564511153" lon="11.134727381104936"><ele>607.0</ele><time>2026-04-04T10:10:19Z</time></trkpt><trkpt lat="44.32468271005533" lon="11.134632499423262"><ele>603.0</ele><time>2026-04-04T10:10:20Z</time></trkpt><trkpt lat="44.32459465336602" lon="11.134584353624971"><ele>599.0</ele><time>2026-04-04T10:10:21Z</time></trkpt><trkpt lat="44.32450770167393" lon="11.134505964216222"><ele>595.0</ele><time>2026-04-04T10:10:22Z</time></trkpt><trkpt lat="44.32444882457247" lon="11.134426690394525"><ele>591.0</ele><time>2026-04-04T10:10:23Z</time></trkpt><trkpt lat="44.324351933429185" lon="11.134417680143159"><ele>587.0</ele><time>2026-04-04T10:10:25Z</time></trkpt><trkpt lat="44.32427216315137" lon="11.134384304188929"><ele>587.0</ele><time>2026-04-04T10:10:26Z</time></trkpt><trkpt lat="44.32420471324291" lon="11.134452364944265"><ele>587.0</ele><time>2026-04-04T10:10:28Z</time></trkpt><trkpt lat="44.3241061709877" lon="11.13449374624528"><ele>587.0</ele><time>2026-04-04T10:10:30Z</time></trkpt><trkpt lat="44.3240193182833" lon="11.134536138571457"><ele>587.0</ele><time>2026-04-04T10:10:33Z</time></trkpt><trkpt lat="44.32395625716654" lon="11.134537367461009"><ele>587.0</ele><time>2026-04-04T10:10:34Z</time></trkpt><trkpt lat="44.323826074132924" lon="11.134482748314705"><ele>584.6666666666666</ele><time>2026-04-04T10:10:36Z</time></trkpt><trkpt lat="44.32375738979974" lon="11.134564365642412"><ele>582.3333333333333</ele><time>2026-04-04T10:10:40Z</time></trkpt><trkpt lat="44.3236635454892" lon="11.134574879867452"><ele>580.0</ele><time>2026-04-04T10:10:42Z</time></trkpt><trkpt lat="44.323558164403366" lon="11.134553516375806"><ele>577.6666666666666</ele><time>2026-04-04T10:10:44Z</time></trkpt><trkpt lat="44.32349927232686" lon="11.134595681437272"><ele>575.3333333333334</ele><time>2026-04-04T10:10:46Z</time></trkpt><trkpt lat="44.32344245820166" lon="11.134541859287719"><ele>573.0</ele><time>2026-04-04T10:10:47Z</time></trkpt><trkpt lat="44.32335584681128" lon="11.134627055912633"><ele>573.0</ele><time>2026-04-04T10:10:50Z</time></trkpt><trkpt lat="44.32327137454051" lon="11.134723993762458"><ele>573.0</ele><time>2026-04-04T10:10:52Z</time></trkpt><trkpt lat="44.32319015119594" lon="11.134762184541994"><ele>573.0</ele><time>2026-04-04T10:10:54Z</time></trkpt><trkpt lat="44.323130788390905" lon="11.134811130391762"><ele>573.0</ele><time>2026-04-04T10:10:55Z</time></trkpt><trkpt lat="44.32307511738481" lon="11.134873085322505"><ele>573.0</ele><time>2026-04-04T10:10:56Z</time></trkpt><trkpt lat="44.32301023006593" lon="11.134995474918073"><ele>573.0</ele><time>2026-04-04T10:10:59Z</time></trkpt><trkpt lat="44.322880655146584" lon="11.134929394260805"><ele>571.8</ele><time>2026-04-04T10:11:01Z</time></trkpt><trkpt lat="44.32279195416409" lon="11.13491812362082"><ele>570.5999999999999</ele><time>2026-04-04T10:11:03Z</time></trkpt><trkpt lat="44.32268985697333" lon="11.134906727926959"><ele>569.4000000000001</ele><time>2026-04-04T10:11:05Z</time></trkpt><trkpt lat="44.32259557935583" lon="11.134868349473045"><ele>568.2</ele><time>2026-04-04T10:11:07Z</time></trkpt><trkpt lat="44.322514898692944" lon="11.134916706804763"><ele>567.0</ele><time>2026-04-04T10:11:11.999Z</time></trkpt><trkpt lat="44.32245665601555" lon="11.13500259841042"><ele>567.0</ele><time>2026-04-04T10:11:14.999Z</time></trkpt><trkpt lat="44.3223013089669" lon="11.135206085020103"><ele>567.0</ele><time>2026-04-04T10:11:15.999Z</time></trkpt><trkpt lat="44.322125332825664" lon="11.13506598601448"><ele>567.0</ele><time>2026-04-04T10:11:16.999Z</time></trkpt><trkpt lat="44.32195250243677" lon="11.13501128245763"><ele>561.75</ele><time>2026-04-04T10:11:17.999Z</time></trkpt><trkpt lat="44.321770593612015" lon="11.13486283093923"><ele>556.5</ele><time>2026-04-04T10:11:18.999Z</time></trkpt><trkpt lat="44.321637061132556" lon="11.134804292307852"><ele>551.25</ele><time>2026-04-04T10:11:19.999Z</time></trkpt><trkpt lat="44.3215415327203" lon="11.134821888096498"><ele>546.0</ele><time>2026-04-04T10:11:20.999Z</time></trkpt><trkpt lat="44.32148044287958" lon="11.134800611374072"><ele>546.0</ele><time>2026-04-04T10:11:22.999Z</time></trkpt><trkpt lat="44.32144129233586" lon="11.134706605729454"><ele>546.0</ele><time>2026-04-04T10:11:24.999Z</time></trkpt><trkpt lat="44.321400384171156" lon="11.13462920334397"><ele>546.0</ele><time>2026-04-04T10:11:27Z</time></trkpt><trkpt lat="44.32145519991626" lon="11.134581613690422"><ele>546.0</ele><time>2026-04-04T10:11:29Z</time></trkpt><trkpt lat="44.32156412962992" lon="11.134629458740003"><ele>546.0</ele><time>2026-04-04T10:11:30Z</time></trkpt><trkpt lat="44.32167348613243" lon="11.134699241793383"><ele>546.0</ele><time>2026-04-04T10:11:32Z</time></trkpt><trkpt lat="44.32174477050138" lon="11.134668910585608"><ele>546.0</ele><time>2026-04-04T10:11:35Z</time></trkpt><trkpt lat="44.32166523278331" lon="11.134723708101003"><ele>546.0</ele><time>2026-04-04T10:11:39Z</time></trkpt><trkpt lat="44.321727522779234" lon="11.13470780376321"><ele>546.0</ele><time>2026-04-04T10:11:48Z</time></trkpt><trkpt lat="44.32179068620096" lon="11.134748107508019"><ele>546.0</ele><time>2026-04-04T10:12:11Z</time></trkpt><trkpt lat="44.32186428274075" lon="11.134792640806431"><ele>546.0</ele><time>2026-04-04T10:12:18Z</time></trkpt><trkpt lat="44.32193524281136" lon="11.134768218698518"><ele>546.0</ele><time>2026-04-04T10:12:19Z</time></trkpt><trkpt lat="44.32195461142368" lon="11.134871338466194"><ele>546.0</ele><time>2026-04-04T10:12:21Z</time></trkpt><trkpt lat="44.321974002343076" lon="11.135002164484368"><ele>546.0</ele><time>2026-04-04T10:12:24Z</time></trkpt><trkpt lat="44.32205166639356" lon="11.134926853370041"><ele>546.0</ele><time>2026-04-04T10:12:27Z</time></trkpt><trkpt lat="44.32198180829818" lon="11.13503505048481"><ele>546.0</ele><time>2026-04-04T10:12:36Z</time></trkpt><trkpt lat="44.32193144104614" lon="11.134981532018834"><ele>546.0</ele><time>2026-04-04T10:12:57Z</time></trkpt><trkpt lat="44.32185908243217" lon="11.134974163999848"><ele>546.0</ele><time>2026-04-04T10:13:01Z</time></trkpt><trkpt lat="44.321829370196404" lon="11.134880547154888"><ele>546.0</ele><time>2026-04-04T10:13:03Z</time></trkpt><trkpt lat="44.32176750761773" lon="11.134859099116632"><ele>546.0</ele><time>2026-04-04T10:13:04Z</time></trkpt><trkpt lat="44.32169074557937" lon="11.134793235472554"><ele>546.0</ele><time>2026-04-04T10:13:08Z</time></trkpt><trkpt lat="44.32162130622757" lon="11.13475804560417"><ele>546.0</ele><time>2026-04-04T10:13:11Z</time></trkpt><trkpt lat="44.32166623331024" lon="11.13465956118341"><ele>546.0</ele><time>2026-04-04T10:13:15Z</time></trkpt><trkpt lat="44.32172499770222" lon="11.134621004332326"><ele>546.0</ele><time>2026-04-04T10:14:18Z</time></trkpt><trkpt lat="44.32178657464295" lon="11.13458892461424"><ele>546.0</ele><time>2026-04-04T10:14:22Z</time></trkpt><trkpt lat="44.32185407893238" lon="11.134506199741839"><ele>546.0</ele><time>2026-04-04T10:14:24Z</time></trkpt><trkpt lat="44.3219064183932" lon="11.134402756644738"><ele>546.0</ele><time>2026-04-04T10:14:37.016Z</time></trkpt><trkpt lat="44.3218291663759" lon="11.134358827839357"><ele>546.0</ele><time>2026-04-04T10:14:39.022Z</time></trkpt><trkpt lat="44.32179921196642" lon="11.13426448840174"><ele>546.0</ele><time>2026-04-04T10:14:42Z</time></trkpt><trkpt lat="44.321761113143026" lon="11.134169837845452"><ele>546.0</ele><time>2026-04-04T10:14:44Z</time></trkpt><trkpt lat="44.321700781805866" lon="11.134264431892921"><ele>546.0</ele><time>2026-04-04T10:14:48Z</time></trkpt><trkpt lat="44.321584390079664" lon="11.134299250979623"><ele>546.0</ele><time>2026-04-04T10:14:50Z</time></trkpt><trkpt lat="44.32151528177712" lon="11.134239597178992"><ele>546.0</ele><time>2026-04-04T10:14:51Z</time></trkpt><trkpt lat="44.32142963424415" lon="11.134188284651664"><ele>546.0</ele><time>2026-04-04T10:14:53Z</time></trkpt><trkpt lat="44.32136967140709" lon="11.134088531916708"><ele>546.0</ele><time>2026-04-04T10:15:03Z</time></trkpt><trkpt lat="44.32130747585381" lon="11.134020531078471"><ele>546.0</ele><time>2026-04-04T10:15:08Z</time></trkpt><trkpt lat="44.32121803744086" lon="11.133993415871023"><ele>546.0</ele><time>2026-04-04T10:15:09Z</time></trkpt><trkpt lat="44.32111540669425" lon="11.133986669245528"><ele>547.6666666666666</ele><time>2026-04-04T10:15:10Z</time></trkpt><trkpt lat="44.321003043744014" lon="11.133901923090285"><ele>549.3333333333334</ele><time>2026-04-04T10:15:12Z</time></trkpt><trkpt lat="44.320933596966555" lon="11.133858954597983"><ele>551.0</ele><time>2026-04-04T10:15:13Z</time></trkpt><trkpt lat="44.32087156548382" lon="11.133877428705091"><ele>552.6666666666667</ele><time>2026-04-04T10:15:14Z</time></trkpt><trkpt lat="44.320797422766674" lon="11.13384423257527"><ele>554.3333333333334</ele><time>2026-04-04T10:15:15Z</time></trkpt><trkpt lat="44.32073189080353" lon="11.13380401194885"><ele>556.0</ele><time>2026-04-04T10:15:16Z</time></trkpt><trkpt lat="44.320669901837434" lon="11.133828865711518"><ele>556.0</ele><time>2026-04-04T10:15:17Z</time></trkpt><trkpt lat="44.320709966312776" lon="11.133718116069169"><ele>556.0</ele><time>2026-04-04T10:15:18.999Z</time></trkpt><trkpt lat="44.3206163254904" lon="11.133725679503186"><ele>556.0</ele><time>2026-04-04T10:15:19.999Z</time></trkpt><trkpt lat="44.32046237042981" lon="11.133748002660264"><ele>556.0</ele><time>2026-04-04T10:15:20.999Z</time></trkpt><trkpt lat="44.32036444371468" lon="11.133651684755723"><ele>550.0</ele><time>2026-04-04T10:15:22.999Z</time></trkpt><trkpt lat="44.320259197568255" lon="11.133613670764134"><ele>544.0</ele><time>2026-04-04T10:15:23.999Z</time></trkpt><trkpt lat="44.320166542120965" lon="11.133580838067989"><ele>538.0</ele><time>2026-04-04T10:15:24.999Z</time></trkpt><trkpt lat="44.32006484674367" lon="11.133638999641743"><ele>532.0</ele><time>2026-04-04T10:15:26.999Z</time></trkpt><trkpt lat="44.31999529032312" lon="11.133644964803487"><ele>526.0</ele><time>2026-04-04T10:15:27.999Z</time></trkpt><trkpt lat="44.31992914123596" lon="11.133629486905306"><ele>526.0</ele><time>2026-04-04T10:15:28.999Z</time></trkpt><trkpt lat="44.32001641994661" lon="11.133576464337075"><ele>526.0</ele><time>2026-04-04T10:15:31.999Z</time></trkpt><trkpt lat="44.31996169693323" lon="11.13352155407974"><ele>526.0</ele><time>2026-04-04T10:15:39Z</time></trkpt><trkpt lat="44.31986357766444" lon="11.133496892782702"><ele>526.0</ele><time>2026-04-04T10:15:41Z</time></trkpt><trkpt lat="44.319774684902086" lon="11.13347987086154"><ele>526.0</ele><time>2026-04-04T10:15:42Z</time></trkpt><trkpt lat="44.319628092901176" lon="11.133368569356964"><ele>528.8</ele><time>2026-04-04T10:15:43Z</time></trkpt><trkpt lat="44.31957132769441" lon="11.13328389106571"><ele>531.6</ele><time>2026-04-04T10:15:44Z</time></trkpt><trkpt lat="44.319522339609144" lon="11.133181989029213"><ele>534.4</ele><time>2026-04-04T10:15:45Z</time></trkpt><trkpt lat="44.319443979181386" lon="11.13311865023406"><ele>537.2</ele><time>2026-04-04T10:15:47Z</time></trkpt><trkpt lat="44.31933905095667" lon="11.13308865272807"><ele>540.0</ele><time>2026-04-04T10:15:50Z</time></trkpt><trkpt lat="44.3194714908929" lon="11.133196493828033"><ele>537.6666666666666</ele><time>2026-04-04T10:16:06Z</time></trkpt><trkpt lat="44.31952301477312" lon="11.133276156672704"><ele>535.3333333333334</ele><time>2026-04-04T10:16:08Z</time></trkpt><trkpt lat="44.31961161677672" lon="11.133345064850538"><ele>533.0</ele><time>2026-04-04T10:16:11Z</time></trkpt><trkpt lat="44.31966482718984" lon="11.133451850856169"><ele>530.6666666666667</ele><time>2026-04-04T10:16:13Z</time></trkpt><trkpt lat="44.319732760546906" lon="11.13346319136665"><ele>528.3333333333334</ele><time>2026-04-04T10:16:16Z</time></trkpt><trkpt lat="44.31980466753702" lon="11.133469892877397"><ele>526.0</ele><time>2026-04-04T10:16:19Z</time></trkpt><trkpt lat="44.319878029943716" lon="11.133440750974383"><ele>526.0</ele><time>2026-04-04T10:16:20Z</time></trkpt><trkpt lat="44.31995133833663" lon="11.133445186031201"><ele>526.0</ele><time>2026-04-04T10:16:21Z</time></trkpt><trkpt lat="44.32001857452226" lon="11.133422245837098"><ele>526.0</ele><time>2026-04-04T10:16:22Z</time></trkpt><trkpt lat="44.32009821440291" lon="11.13346786834483"><ele>526.0</ele><time>2026-04-04T10:16:23Z</time></trkpt><trkpt lat="44.32023202168225" lon="11.133504992400391"><ele>526.0</ele><time>2026-04-04T10:16:25Z</time></trkpt><trkpt lat="44.320163095144764" lon="11.133569946496257"><ele>526.0</ele><time>2026-04-04T10:16:47Z</time></trkpt><trkpt lat="44.32007865240113" lon="11.133553745970362"><ele>526.0</ele><time>2026-04-04T10:16:49Z</time></trkpt><trkpt lat="44.319998637012645" lon="11.133517092365508"><ele>526.0</ele><time>2026-04-04T10:16:51Z</time></trkpt><trkpt lat="44.31990957015328" lon="11.133516888308035"><ele>526.0</ele><time>2026-04-04T10:16:53Z</time></trkpt><trkpt lat="44.31976046167382" lon="11.133438910069993"><ele>526.0</ele><time>2026-04-04T10:16:55Z</time></trkpt><trkpt lat="44.3197939835784" lon="11.133529604252589"><ele>526.0</ele><time>2026-04-04T10:17:27Z</time></trkpt><trkpt lat="44.31987575826184" lon="11.133578107536259"><ele>526.0</ele><time>2026-04-04T10:17:28Z</time></trkpt><trkpt lat="44.319982714363064" lon="11.133601852697462"><ele>526.0</ele><time>2026-04-04T10:17:28.999Z</time></trkpt><trkpt lat="44.32011615933234" lon="11.133588680313652"><ele>526.0</ele><time>2026-04-04T10:17:30.999Z</time></trkpt><trkpt lat="44.32018214731923" lon="11.13360412412165"><ele>526.0</ele><time>2026-04-04T10:17:31.999Z</time></trkpt><trkpt lat="44.32025269193931" lon="11.133587639688542"><ele>526.0</ele><time>2026-04-04T10:17:33.999Z</time></trkpt><trkpt lat="44.32020003209025" lon="11.133515777983414"><ele>526.0</ele><time>2026-04-04T10:17:39.999Z</time></trkpt><trkpt lat="44.32013706539961" lon="11.133551589561593"><ele>526.0</ele><time>2026-04-04T10:17:49Z</time></trkpt><trkpt lat="44.3200753934755" lon="11.133471884420238"><ele>526.0</ele><time>2026-04-04T10:17:54Z</time></trkpt><trkpt lat="44.31998689370907" lon="11.13345489485153"><ele>526.0</ele><time>2026-04-04T10:17:55Z</time></trkpt><trkpt lat="44.319879368230154" lon="11.133450365448807"><ele>526.0</ele><time>2026-04-04T10:17:56Z</time></trkpt><trkpt lat="44.31980750842498" lon="11.133421187066743"><ele>526.0</ele><time>2026-04-04T10:17:57Z</time></trkpt><trkpt lat="44.319704042097534" lon="11.133363872531532"><ele>526.0</ele><time>2026-04-04T10:17:58Z</time></trkpt><trkpt lat="44.31972040577247" lon="11.133455709484599"><ele>526.0</ele><time>2026-04-04T10:17:59Z</time></trkpt><trkpt lat="44.319651848567574" lon="11.133496832086218"><ele>526.0</ele><time>2026-04-04T10:18:05Z</time></trkpt><trkpt lat="44.319705395612765" lon="11.133442657359177"><ele>526.0</ele><time>2026-04-04T10:18:08Z</time></trkpt><trkpt lat="44.3197173803526" lon="11.13354143841525"><ele>526.0</ele><time>2026-04-04T10:18:16Z</time></trkpt><trkpt lat="44.31981508271709" lon="11.133523845202522"><ele>526.0</ele><time>2026-04-04T10:18:23Z</time></trkpt><trkpt lat="44.31989480815331" lon="11.13355257856598"><ele>526.0</ele><time>2026-04-04T10:18:42Z</time></trkpt><trkpt lat="44.319954837502294" lon="11.13361135662252"><ele>526.0</ele><time>2026-04-04T10:18:44Z</time></trkpt><trkpt lat="44.32008352945889" lon="11.133595903397087"><ele>526.0</ele><time>2026-04-04T10:18:46Z</time></trkpt><trkpt lat="44.320156377156486" lon="11.133583116058167"><ele>526.0</ele><time>2026-04-04T10:18:48Z</time></trkpt><trkpt lat="44.32023319001856" lon="11.133562671398721"><ele>526.0</ele><time>2026-04-04T10:19:32.999Z</time></trkpt><trkpt lat="44.32014336447118" lon="11.133522776093827"><ele>526.0</ele><time>2026-04-04T10:19:41.999Z</time></trkpt><trkpt lat="44.32006738273603" lon="11.13355605084547"><ele>526.0</ele><time>2026-04-04T10:19:46.999Z</time></trkpt><trkpt lat="44.320135657702025" lon="11.133568094733755"><ele>526.0</ele><time>2026-04-04T10:19:59Z</time></trkpt><trkpt lat="44.3200797591719" lon="11.133519543326011"><ele>526.0</ele><time>2026-04-04T10:20:02Z</time></trkpt><trkpt lat="44.320000948167866" lon="11.133452770916486"><ele>526.0</ele><time>2026-04-04T10:20:06Z</time></trkpt><trkpt lat="44.31992470556536" lon="11.133415918194027"><ele>526.0</ele><time>2026-04-04T10:20:08Z</time></trkpt><trkpt lat="44.319743880150824" lon="11.133332778952113"><ele>526.0</ele><time>2026-04-04T10:20:09Z</time></trkpt><trkpt lat="44.319703296107164" lon="11.133402237412419"><ele>526.0</ele><time>2026-04-04T10:20:13Z</time></trkpt><trkpt lat="44.31974899034291" lon="11.133483977632658"><ele>526.0</ele><time>2026-04-04T10:20:20Z</time></trkpt><trkpt lat="44.31982187275188" lon="11.133491775139179"><ele>526.0</ele><time>2026-04-04T10:20:26Z</time></trkpt><trkpt lat="44.31984713539999" lon="11.133581436639586"><ele>526.0</ele><time>2026-04-04T10:20:28Z</time></trkpt><trkpt lat="44.319946063756426" lon="11.13357735031245"><ele>526.0</ele><time>2026-04-04T10:20:41Z</time></trkpt><trkpt lat="44.320011165214986" lon="11.133612338629552"><ele>526.0</ele><time>2026-04-04T10:20:42Z</time></trkpt><trkpt lat="44.320115785079004" lon="11.133597444551391"><ele>526.0</ele><time>2026-04-04T10:20:43Z</time></trkpt><trkpt lat="44.32018920733066" lon="11.133611412556512"><ele>526.0</ele><time>2026-04-04T10:20:45Z</time></trkpt><trkpt lat="44.32013439258835" lon="11.133546970981705"><ele>526.0</ele><time>2026-04-04T10:21:24Z</time></trkpt><trkpt lat="44.32006093361423" lon="11.133490884975203"><ele>526.0</ele><time>2026-04-04T10:21:26Z</time></trkpt><trkpt lat="44.31998321910954" lon="11.133408524219632"><ele>526.0</ele><time>2026-04-04T10:21:28Z</time></trkpt><trkpt lat="44.3199192113323" lon="11.133372925900755"><ele>526.0</ele><time>2026-04-04T10:21:29Z</time></trkpt><trkpt lat="44.319849164329455" lon="11.133395708748816"><ele>526.0</ele><time>2026-04-04T10:21:30.999Z</time></trkpt><trkpt lat="44.319777340359416" lon="11.133365033804354"><ele>526.0</ele><time>2026-04-04T10:21:33.999Z</time></trkpt><trkpt lat="44.31982749693022" lon="11.133439133042488"><ele>526.0</ele><time>2026-04-04T10:21:39.999Z</time></trkpt><trkpt lat="44.3196702301689" lon="11.133381134265802"><ele>526.0</ele><time>2026-04-04T10:22:20Z</time></trkpt><trkpt lat="44.31956165236252" lon="11.133196874807792"><ele>528.8</ele><time>2026-04-04T10:22:22Z</time></trkpt><trkpt lat="44.31951870560978" lon="11.133104625827754"><ele>531.6</ele><time>2026-04-04T10:22:24Z</time></trkpt><trkpt lat="44.31944356017046" lon="11.13302596269264"><ele>534.4</ele><time>2026-04-04T10:22:26Z</time></trkpt><trkpt lat="44.31937333471891" lon="11.133028210722701"><ele>537.2</ele><time>2026-04-04T10:22:27Z</time></trkpt><trkpt lat="44.31927302889222" lon="11.133131664025706"><ele>540.0</ele><time>2026-04-04T10:22:28Z</time></trkpt><trkpt lat="44.319172745160884" lon="11.133178889474545"><ele>540.0</ele><time>2026-04-04T10:22:30Z</time></trkpt><trkpt lat="44.319097229581246" lon="11.133202236838658"><ele>540.0</ele><time>2026-04-04T10:22:32Z</time></trkpt><trkpt lat="44.3190368839527" lon="11.133111235238578"><ele>540.0</ele><time>2026-04-04T10:22:34Z</time></trkpt><trkpt lat="44.3189787961215" lon="11.133075340619415"><ele>540.0</ele><time>2026-04-04T10:22:38Z</time></trkpt><trkpt lat="44.31891115606837" lon="11.133032076977875"><ele>540.0</ele><time>2026-04-04T10:22:40Z</time></trkpt><trkpt lat="44.31883814114421" lon="11.132994494908873"><ele>540.0</ele><time>2026-04-04T10:22:42Z</time></trkpt><trkpt lat="44.31872795334379" lon="11.13299894211188"><ele>536.0</ele><time>2026-04-04T10:22:44Z</time></trkpt><trkpt lat="44.31865425337074" lon="11.133033004921337"><ele>532.0</ele><time>2026-04-04T10:22:46Z</time></trkpt><trkpt lat="44.31859408945322" lon="11.133003097281785"><ele>528.0</ele><time>2026-04-04T10:22:50Z</time></trkpt><trkpt lat="44.31861451040665" lon="11.132915172004754"><ele>524.0</ele><time>2026-04-04T10:22:54Z</time></trkpt><trkpt lat="44.31855607432322" lon="11.132875415851252"><ele>520.0</ele><time>2026-04-04T10:22:56Z</time></trkpt><trkpt lat="44.31847602086488" lon="11.13280043700706"><ele>516.0</ele><time>2026-04-04T10:22:59Z</time></trkpt><trkpt lat="44.31847070943794" lon="11.132895660843516"><ele>512.0</ele><time>2026-04-04T10:23:06Z</time></trkpt><trkpt lat="44.31853488252581" lon="11.132939220209586"><ele>511.99999999999994</ele><time>2026-04-04T10:23:17Z</time></trkpt><trkpt lat="44.31859725156006" lon="11.132966871838365"><ele>512.0</ele><time>2026-04-04T10:23:19Z</time></trkpt><trkpt lat="44.31864621819333" lon="11.133065025418523"><ele>512.0</ele><time>2026-04-04T10:23:22Z</time></trkpt><trkpt lat="44.318726725075905" lon="11.133092480436314"><ele>512.0</ele><time>2026-04-04T10:23:24Z</time></trkpt><trkpt lat="44.31882040664011" lon="11.133120478768483"><ele>511.99999999999994</ele><time>2026-04-04T10:23:26Z</time></trkpt><trkpt lat="44.31889226274845" lon="11.13312813927725"><ele>512.0</ele><time>2026-04-04T10:23:28Z</time></trkpt><trkpt lat="44.318981064955494" lon="11.133141329246826"><ele>510.99999999999994</ele><time>2026-04-04T10:23:32Z</time></trkpt><trkpt lat="44.319029426288246" lon="11.133200631673652"><ele>510.0</ele><time>2026-04-04T10:23:34Z</time></trkpt><trkpt lat="44.31909863823515" lon="11.133232789169748"><ele>509.0</ele><time>2026-04-04T10:23:37Z</time></trkpt><trkpt lat="44.31920328805708" lon="11.133224197236455"><ele>508.0</ele><time>2026-04-04T10:23:38Z</time></trkpt><trkpt lat="44.31930577088935" lon="11.133228768828255"><ele>506.99999999999994</ele><time>2026-04-04T10:23:39Z</time></trkpt><trkpt lat="44.31938826078383" lon="11.133193905254737"><ele>506.0</ele><time>2026-04-04T10:23:40Z</time></trkpt><trkpt lat="44.31948228334006" lon="11.133206011745305"><ele>505.99999999999994</ele><time>2026-04-04T10:23:41Z</time></trkpt><trkpt lat="44.31955366867724" lon="11.133250108043244"><ele>506.0</ele><time>2026-04-04T10:23:42Z</time></trkpt><trkpt lat="44.31961997329863" lon="11.133304681267466"><ele>506.0</ele><time>2026-04-04T10:23:42.999Z</time></trkpt><trkpt lat="44.31968673782466" lon="11.133380743643366"><ele>506.0</ele><time>2026-04-04T10:23:43.999Z</time></trkpt><trkpt lat="44.31972970246632" lon="11.133475272406303"><ele>505.99999999999994</ele><time>2026-04-04T10:23:45.999Z</time></trkpt><trkpt lat="44.31980570504277" lon="11.133482271706887"><ele>506.0</ele><time>2026-04-04T10:23:46.999Z</time></trkpt><trkpt lat="44.319869994935246" lon="11.13350880878122"><ele>509.3333333333333</ele><time>2026-04-04T10:23:47.999Z</time></trkpt><trkpt lat="44.31993638804467" lon="11.133532704798183"><ele>512.6666666666666</ele><time>2026-04-04T10:23:48.999Z</time></trkpt><trkpt lat="44.320017567135174" lon="11.133583709901862"><ele>516.0</ele><time>2026-04-04T10:23:50.999Z</time></trkpt><trkpt lat="44.320092778436695" lon="11.133663193426072"><ele>519.3333333333334</ele><time>2026-04-04T10:23:52.999Z</time></trkpt><trkpt lat="44.32008802650071" lon="11.133762651599096"><ele>522.6666666666667</ele><time>2026-04-04T10:23:53.999Z</time></trkpt><trkpt lat="44.320173302719525" lon="11.133828432493242"><ele>526.0</ele><time>2026-04-04T10:23:55.999Z</time></trkpt><trkpt lat="44.32030411654214" lon="11.13386202083953"><ele>526.0</ele><time>2026-04-04T10:23:57.999Z</time></trkpt><trkpt lat="44.320374086253786" lon="11.133864998790555"><ele>526.0</ele><time>2026-04-04T10:23:58.999Z</time></trkpt><trkpt lat="44.32045576809015" lon="11.13386948903917"><ele>526.0</ele><time>2026-04-04T10:23:59.999Z</time></trkpt><trkpt lat="44.32055950386753" lon="11.133876426678455"><ele>526.0</ele><time>2026-04-04T10:24:01Z</time></trkpt><trkpt lat="44.32064423096453" lon="11.133864158653212"><ele>526.0</ele><time>2026-04-04T10:24:02Z</time></trkpt><trkpt lat="44.32072193409232" lon="11.133852749198878"><ele>526.0</ele><time>2026-04-04T10:24:03Z</time></trkpt><trkpt lat="44.32081651058143" lon="11.13395010945086"><ele>526.1666666666667</ele><time>2026-04-04T10:24:05Z</time></trkpt><trkpt lat="44.32088581607207" lon="11.134035966908778"><ele>526.3333333333334</ele><time>2026-04-04T10:24:07Z</time></trkpt><trkpt lat="44.320956990907405" lon="11.134059072179266"><ele>526.5</ele><time>2026-04-04T10:24:08Z</time></trkpt><trkpt lat="44.32104123479932" lon="11.134091278606915"><ele>526.6666666666666</ele><time>2026-04-04T10:24:09Z</time></trkpt><trkpt lat="44.32112391736136" lon="11.134131095859663"><ele>526.8333333333333</ele><time>2026-04-04T10:24:10Z</time></trkpt><trkpt lat="44.32118591847371" lon="11.134154858570092"><ele>527.0</ele><time>2026-04-04T10:24:11Z</time></trkpt><trkpt lat="44.32128277147717" lon="11.134166450844289"><ele>527.0000000000001</ele><time>2026-04-04T10:24:13Z</time></trkpt><trkpt lat="44.32134638494689" lon="11.134188753731076"><ele>527.0</ele><time>2026-04-04T10:24:17Z</time></trkpt><trkpt lat="44.32141114713894" lon="11.134219827852258"><ele>527.0</ele><time>2026-04-04T10:24:20Z</time></trkpt><trkpt lat="44.32150515290568" lon="11.134256198218772"><ele>527.0</ele><time>2026-04-04T10:24:23Z</time></trkpt><trkpt lat="44.32153797146884" lon="11.134179755212479"><ele>527.0</ele><time>2026-04-04T10:24:43Z</time></trkpt><trkpt lat="44.32148368813891" lon="11.13412511571742"><ele>527.0000000000001</ele><time>2026-04-04T10:25:02Z</time></trkpt><trkpt lat="44.32141823879744" lon="11.134122674918881"><ele>527.0</ele><time>2026-04-04T10:25:10Z</time></trkpt><trkpt lat="44.32135816406517" lon="11.134074804949757"><ele>527.0</ele><time>2026-04-04T10:25:13Z</time></trkpt><trkpt lat="44.321300702447644" lon="11.134003965820538"><ele>527.0</ele><time>2026-04-04T10:25:16Z</time></trkpt><trkpt lat="44.32121897138485" lon="11.134028960768628"><ele>527.0</ele><time>2026-04-04T10:25:27Z</time></trkpt><trkpt lat="44.321250602430155" lon="11.134116197979823"><ele>527.0</ele><time>2026-04-04T10:25:35Z</time></trkpt><trkpt lat="44.32133322709768" lon="11.134163755475814"><ele>527.0</ele><time>2026-04-04T10:25:37Z</time></trkpt><trkpt lat="44.321399788121376" lon="11.134181765704358"><ele>527.0</ele><time>2026-04-04T10:25:42Z</time></trkpt><trkpt lat="44.32147932271867" lon="11.134223879326088"><ele>530.8000000000001</ele><time>2026-04-04T10:25:59.999Z</time></trkpt><trkpt lat="44.32153529813776" lon="11.134270387854814"><ele>534.6</ele><time>2026-04-04T10:26:00.999Z</time></trkpt><trkpt lat="44.32160249791354" lon="11.13427688511138"><ele>538.4000000000001</ele><time>2026-04-04T10:26:01.999Z</time></trkpt><trkpt lat="44.32167109414621" lon="11.134288280081334"><ele>542.2</ele><time>2026-04-04T10:26:02.999Z</time></trkpt><trkpt lat="44.32178791130721" lon="11.134294454978372"><ele>546.0</ele><time>2026-04-04T10:26:04.999Z</time></trkpt><trkpt lat="44.32193564884665" lon="11.134252304033211"><ele>546.0</ele><time>2026-04-04T10:26:07Z</time></trkpt><trkpt lat="44.322014230225065" lon="11.134232228741263"><ele>546.0</ele><time>2026-04-04T10:26:08Z</time></trkpt><trkpt lat="44.322117942150584" lon="11.13412914352539"><ele>546.0</ele><time>2026-04-04T10:26:10Z</time></trkpt><trkpt lat="44.3222005715351" lon="11.134110544839203"><ele>546.0</ele><time>2026-04-04T10:26:11Z</time></trkpt><trkpt lat="44.32227790485758" lon="11.134096061695562"><ele>546.0</ele><time>2026-04-04T10:26:12Z</time></trkpt><trkpt lat="44.32234719591377" lon="11.134094197359023"><ele>546.0</ele><time>2026-04-04T10:26:13Z</time></trkpt><trkpt lat="44.322423970544456" lon="11.134029418285895"><ele>548.6</ele><time>2026-04-04T10:26:14Z</time></trkpt><trkpt lat="44.32255002820385" lon="11.13404565725193"><ele>551.2</ele><time>2026-04-04T10:26:16Z</time></trkpt><trkpt lat="44.32262950441545" lon="11.13411594768344"><ele>553.8</ele><time>2026-04-04T10:26:17Z</time></trkpt><trkpt lat="44.32270673431125" lon="11.134110193192198"><ele>556.4</ele><time>2026-04-04T10:26:18Z</time></trkpt><trkpt lat="44.32280841327653" lon="11.134157344024887"><ele>559.0</ele><time>2026-04-04T10:26:20Z</time></trkpt><trkpt lat="44.3229188722615" lon="11.134151974814461"><ele>559.0</ele><time>2026-04-04T10:26:22Z</time></trkpt><trkpt lat="44.323015884203194" lon="11.13415782350861"><ele>559.0</ele><time>2026-04-04T10:26:23Z</time></trkpt><trkpt lat="44.32312810235078" lon="11.134127605355356"><ele>559.0</ele><time>2026-04-04T10:26:24Z</time></trkpt><trkpt lat="44.32322863118539" lon="11.134174072208975"><ele>559.0</ele><time>2026-04-04T10:26:26Z</time></trkpt><trkpt lat="44.32338213369982" lon="11.134207233985656"><ele>561.3333333333334</ele><time>2026-04-04T10:26:28Z</time></trkpt><trkpt lat="44.32349331772804" lon="11.134218533137911"><ele>563.6666666666667</ele><time>2026-04-04T10:26:30Z</time></trkpt><trkpt lat="44.32356531539025" lon="11.134225016563326"><ele>566.0</ele><time>2026-04-04T10:26:31Z</time></trkpt><trkpt lat="44.323622882395185" lon="11.134277086690535"><ele>568.3333333333334</ele><time>2026-04-04T10:26:32Z</time></trkpt><trkpt lat="44.32372212284019" lon="11.134259534207013"><ele>570.6666666666666</ele><time>2026-04-04T10:26:33Z</time></trkpt><trkpt lat="44.32378623932862" lon="11.134272422851916"><ele>573.0</ele><time>2026-04-04T10:26:34Z</time></trkpt><trkpt lat="44.323886086729075" lon="11.134263975782627"><ele>575.8</ele><time>2026-04-04T10:26:36Z</time></trkpt><trkpt lat="44.32394490479126" lon="11.1342318226534"><ele>578.5999999999999</ele><time>2026-04-04T10:26:37Z</time></trkpt><trkpt lat="44.32403847711612" lon="11.134210475703334"><ele>581.4000000000001</ele><time>2026-04-04T10:26:40Z</time></trkpt><trkpt lat="44.32410386815558" lon="11.134170369235576"><ele>584.2</ele><time>2026-04-04T10:26:42Z</time></trkpt><trkpt lat="44.32423947581206" lon="11.134116804248073"><ele>587.0</ele><time>2026-04-04T10:26:45Z</time></trkpt><trkpt lat="44.32436724784805" lon="11.134182264135843"><ele>587.0</ele><time>2026-04-04T10:26:46Z</time></trkpt><trkpt lat="44.32448092909203" lon="11.134123225929635"><ele>587.0</ele><time>2026-04-04T10:26:48Z</time></trkpt><trkpt lat="44.32457464930522" lon="11.134159931977454"><ele>587.0</ele><time>2026-04-04T10:26:50Z</time></trkpt><trkpt lat="44.324663261375214" lon="11.134182157472281"><ele>587.0</ele><time>2026-04-04T10:26:52Z</time></trkpt><trkpt lat="44.32468916149634" lon="11.134307820321139"><ele>587.0</ele><time>2026-04-04T10:26:56Z</time></trkpt><trkpt lat="44.32476187694915" lon="11.134367016186708"><ele>590.5</ele><time>2026-04-04T10:26:58Z</time></trkpt><trkpt lat="44.324839705130216" lon="11.134411603959403"><ele>594.0</ele><time>2026-04-04T10:26:59Z</time></trkpt><trkpt lat="44.324894176379736" lon="11.13450261150804"><ele>597.5</ele><time>2026-04-04T10:27:03Z</time></trkpt><trkpt lat="44.32496255676207" lon="11.134536247393198"><ele>601.0</ele><time>2026-04-04T10:27:05Z</time></trkpt><trkpt lat="44.32503415467514" lon="11.134556402420385"><ele>604.5</ele><time>2026-04-04T10:27:08Z</time></trkpt><trkpt lat="44.32511998015353" lon="11.134579447442134"><ele>608.0</ele><time>2026-04-04T10:27:10Z</time></trkpt><trkpt lat="44.32519308907272" lon="11.134569266129883"><ele>608.0</ele><time>2026-04-04T10:27:12Z</time></trkpt><trkpt lat="44.32529625204334" lon="11.134567136811457"><ele>608.0</ele><time>2026-04-04T10:27:15.016Z</time></trkpt><trkpt lat="44.32534693785955" lon="11.13463358417285"><ele>608.0</ele><time>2026-04-04T10:27:16.021Z</time></trkpt><trkpt lat="44.32539561573749" lon="11.134701613612904"><ele>608.0</ele><time>2026-04-04T10:27:17Z</time></trkpt><trkpt lat="44.32546291065901" lon="11.134760950291556"><ele>608.0</ele><time>2026-04-04T10:27:19Z</time></trkpt><trkpt lat="44.32552530494469" lon="11.13479435788084"><ele>608.0</ele><time>2026-04-04T10:27:22Z</time></trkpt><trkpt lat="44.325591503751355" lon="11.134770049191708"><ele>608.0</ele><time>2026-04-04T10:27:35Z</time></trkpt><trkpt lat="44.325514027433606" lon="11.134730358704216"><ele>608.0</ele><time>2026-04-04T10:27:38Z</time></trkpt><trkpt lat="44.3254109155781" lon="11.134566587964201"><ele>608.0</ele><time>2026-04-04T10:27:41Z</time></trkpt><trkpt lat="44.325374667957334" lon="11.134423102277811"><ele>608.0</ele><time>2026-04-04T10:27:44Z</time></trkpt><trkpt lat="44.325414720219655" lon="11.134291185520858"><ele>608.0</ele><time>2026-04-04T10:27:46Z</time></trkpt><trkpt lat="44.32539395178396" lon="11.13410679755342"><ele>608.0</ele><time>2026-04-04T10:27:48Z</time></trkpt><trkpt lat="44.32537597599673" lon="11.134015233378276"><ele>608.0</ele><time>2026-04-04T10:27:49Z</time></trkpt><trkpt lat="44.32537463247141" lon="11.133908230943602"><ele>608.0</ele><time>2026-04-04T10:27:50Z</time></trkpt><trkpt lat="44.32532231019746" lon="11.133852203401185"><ele>608.0</ele><time>2026-04-04T10:27:52Z</time></trkpt><trkpt lat="44.32531850254793" lon="11.133752493889574"><ele>608.0</ele><time>2026-04-04T10:28:10.999Z</time></trkpt><trkpt lat="44.32526004237944" lon="11.133640217070846"><ele>609.8333333333333</ele><time>2026-04-04T10:28:13Z</time></trkpt><trkpt lat="44.3251983472202" lon="11.133541956759052"><ele>611.6666666666666</ele><time>2026-04-04T10:28:15Z</time></trkpt><trkpt lat="44.32514873430219" lon="11.133453022057498"><ele>613.5</ele><time>2026-04-04T10:28:17Z</time></trkpt><trkpt lat="44.325178611336035" lon="11.133366736948568"><ele>615.3333333333334</ele><time>2026-04-04T10:28:19Z</time></trkpt><trkpt lat="44.32522339907408" lon="11.133455896325536"><ele>617.1666666666667</ele><time>2026-04-04T10:28:29Z</time></trkpt><trkpt lat="44.32531796185284" lon="11.133521349255743"><ele>619.0</ele><time>2026-04-04T10:28:32Z</time></trkpt><trkpt lat="44.32535679655141" lon="11.133620957627711"><ele>619.0</ele><time>2026-04-04T10:28:34Z</time></trkpt><trkpt lat="44.32543136746974" lon="11.133649271365826"><ele>619.0</ele><time>2026-04-04T10:28:37Z</time></trkpt><trkpt lat="44.32551822053765" lon="11.133670087472627"><ele>619.0</ele><time>2026-04-04T10:28:39Z</time></trkpt><trkpt lat="44.32559060929401" lon="11.13374074538902"><ele>619.0</ele><time>2026-04-04T10:28:42Z</time></trkpt><trkpt lat="44.32566039445973" lon="11.13375270366783"><ele>619.0</ele><time>2026-04-04T10:28:49Z</time></trkpt><trkpt lat="44.32573982327" lon="11.133808986324814"><ele>619.0</ele><time>2026-04-04T10:28:52Z</time></trkpt><trkpt lat="44.32581320250023" lon="11.133843601178175"><ele>620.6666666666667</ele><time>2026-04-04T10:28:54Z</time></trkpt><trkpt lat="44.32592747159873" lon="11.133843801176976"><ele>622.3333333333334</ele><time>2026-04-04T10:28:56Z</time></trkpt><trkpt lat="44.32603269544563" lon="11.133880394892168"><ele>624.0</ele><time>2026-04-04T10:28:58Z</time></trkpt><trkpt lat="44.32611949892131" lon="11.133850646857727"><ele>625.6666666666666</ele><time>2026-04-04T10:29:01Z</time></trkpt><trkpt lat="44.326178427613335" lon="11.133803537656558"><ele>627.3333333333333</ele><time>2026-04-04T10:29:03Z</time></trkpt><trkpt lat="44.32622829428885" lon="11.13386501409493"><ele>629.0</ele><time>2026-04-04T10:29:06Z</time></trkpt><trkpt lat="44.32632280020882" lon="11.133885988399554"><ele>629.0</ele><time>2026-04-04T10:29:08Z</time></trkpt><trkpt lat="44.326369727362106" lon="11.133997054863556"><ele>629.0</ele><time>2026-04-04T10:29:11Z</time></trkpt><trkpt lat="44.3264565875749" lon="11.134040562087344"><ele>629.0</ele><time>2026-04-04T10:29:13Z</time></trkpt><trkpt lat="44.32652206750701" lon="11.134111726699292"><ele>629.0</ele><time>2026-04-04T10:29:15Z</time></trkpt><trkpt lat="44.326603096435846" lon="11.134111982990241"><ele>629.0</ele><time>2026-04-04T10:29:18Z</time></trkpt><trkpt lat="44.3266773689506" lon="11.134160916377196"><ele>629.0</ele><time>2026-04-04T10:29:22Z</time></trkpt><trkpt lat="44.32673932331374" lon="11.134230993073583"><ele>633.3333333333333</ele><time>2026-04-04T10:29:25Z</time></trkpt><trkpt lat="44.3267767042921" lon="11.134348738116998"><ele>637.6666666666666</ele><time>2026-04-04T10:29:29Z</time></trkpt><trkpt lat="44.32684803913567" lon="11.134377486541942"><ele>642.0</ele><time>2026-04-04T10:29:30Z</time></trkpt><trkpt lat="44.32694398702582" lon="11.134389354949334"><ele>646.3333333333334</ele><time>2026-04-04T10:29:33Z</time></trkpt><trkpt lat="44.326980400096126" lon="11.134293648496827"><ele>650.6666666666667</ele><time>2026-04-04T10:29:36Z</time></trkpt><trkpt lat="44.32690230396114" lon="11.134279122748966"><ele>655.0</ele><time>2026-04-04T10:29:41Z</time></trkpt><trkpt lat="44.32685421868884" lon="11.134168297522166"><ele>655.0</ele><time>2026-04-04T10:29:48Z</time></trkpt><trkpt lat="44.32678430127584" lon="11.1341552372602"><ele>655.0</ele><time>2026-04-04T10:29:49Z</time></trkpt><trkpt lat="44.32671861935562" lon="11.134158815103882"><ele>655.0</ele><time>2026-04-04T10:29:51Z</time></trkpt><trkpt lat="44.32664462243224" lon="11.134111564253075"><ele>655.0</ele><time>2026-04-04T10:29:53Z</time></trkpt><trkpt lat="44.32656101591076" lon="11.134070285283478"><ele>655.0</ele><time>2026-04-04T10:29:55Z</time></trkpt><trkpt lat="44.326490820220464" lon="11.134033760130638"><ele>655.0</ele><time>2026-04-04T10:29:58Z</time></trkpt><trkpt lat="44.32641860040242" lon="11.133994814164131"><ele>655.0</ele><time>2026-04-04T10:30:01Z</time></trkpt><trkpt lat="44.32634162585834" lon="11.133983818086161"><ele>655.0</ele><time>2026-04-04T10:30:04Z</time></trkpt><trkpt lat="44.32638316350175" lon="11.134054889115925"><ele>655.0</ele><time>2026-04-04T10:30:10Z</time></trkpt><trkpt lat="44.326456112355935" lon="11.134076165119906"><ele>655.0</ele><time>2026-04-04T10:30:13Z</time></trkpt><trkpt lat="44.32652347892238" lon="11.134079845861116"><ele>655.0</ele><time>2026-04-04T10:30:16Z</time></trkpt><trkpt lat="44.32657853415383" lon="11.134136922258365"><ele>655.0</ele><time>2026-04-04T10:30:19Z</time></trkpt><trkpt lat="44.326642889896384" lon="11.13420455035384"><ele>655.0</ele><time>2026-04-04T10:30:22Z</time></trkpt><trkpt lat="44.32674858003995" lon="11.134309275818653"><ele>655.0</ele><time>2026-04-04T10:30:24Z</time></trkpt><trkpt lat="44.32683355041612" lon="11.134373613004106"><ele>655.0</ele><time>2026-04-04T10:30:25Z</time></trkpt><trkpt lat="44.32691889874259" lon="11.134427086321521"><ele>655.0</ele><time>2026-04-04T10:30:26Z</time></trkpt><trkpt lat="44.326971299962665" lon="11.134479186266667"><ele>655.0</ele><time>2026-04-04T10:30:27Z</time></trkpt><trkpt lat="44.32706885885145" lon="11.134510964836943"><ele>655.0</ele><time>2026-04-04T10:30:30Z</time></trkpt><trkpt lat="44.32713136719709" lon="11.134526678360997"><ele>655.0</ele><time>2026-04-04T10:30:32Z</time></trkpt><trkpt lat="44.3272040392472" lon="11.13461244825652"><ele>655.0</ele><time>2026-04-04T10:30:36Z</time></trkpt><trkpt lat="44.32724005530493" lon="11.134716105900473"><ele>655.0</ele><time>2026-04-04T10:30:38Z</time></trkpt><trkpt lat="44.32721477195052" lon="11.13481137445641"><ele>655.0</ele><time>2026-04-04T10:30:41Z</time></trkpt><trkpt lat="44.32718633404843" lon="11.134905680364472"><ele>655.0</ele><time>2026-04-04T10:30:47Z</time></trkpt><trkpt lat="44.32717245302014" lon="11.135056948687193"><ele>655.0</ele><time>2026-04-04T10:30:50Z</time></trkpt><trkpt lat="44.32719400884941" lon="11.135181535274057"><ele>655.0</ele><time>2026-04-04T10:30:51Z</time></trkpt><trkpt lat="44.32719302221658" lon="11.135286872318304"><ele>655.6</ele><time>2026-04-04T10:30:53Z</time></trkpt><trkpt lat="44.32719199864913" lon="11.135413543291326"><ele>656.2</ele><time>2026-04-04T10:30:55Z</time></trkpt><trkpt lat="44.32716429410007" lon="11.13559054744234"><ele>656.8</ele><time>2026-04-04T10:30:57Z</time></trkpt><trkpt lat="44.3271814090409" lon="11.135704603791396"><ele>657.4</ele><time>2026-04-04T10:30:58Z</time></trkpt><trkpt lat="44.327077153168226" lon="11.135830105062185"><ele>658.0</ele><time>2026-04-04T10:30:59Z</time></trkpt><trkpt lat="44.32709332843146" lon="11.135927339776755"><ele>658.8</ele><time>2026-04-04T10:31:01Z</time></trkpt><trkpt lat="44.327073060310575" lon="11.136034376280328"><ele>659.5999999999999</ele><time>2026-04-04T10:31:06Z</time></trkpt><trkpt lat="44.327020366391515" lon="11.136181520315729"><ele>660.4000000000001</ele><time>2026-04-04T10:31:08Z</time></trkpt><trkpt lat="44.32698269483674" lon="11.136259450315226"><ele>661.2</ele><time>2026-04-04T10:31:09Z</time></trkpt><trkpt lat="44.326911256893524" lon="11.136381668287925"><ele>662.0</ele><time>2026-04-04T10:31:11Z</time></trkpt><trkpt lat="44.32685532690538" lon="11.136471442480458"><ele>665.4000000000001</ele><time>2026-04-04T10:31:13Z</time></trkpt><trkpt lat="44.32678900162788" lon="11.136573602925411"><ele>668.8000000000001</ele><time>2026-04-04T10:31:15Z</time></trkpt><trkpt lat="44.3267319660922" lon="11.136660989954848"><ele>672.2</ele><time>2026-04-04T10:31:17Z</time></trkpt><trkpt lat="44.326652620361465" lon="11.136775094546035"><ele>675.6</ele><time>2026-04-04T10:31:19Z</time></trkpt><trkpt lat="44.32657138953384" lon="11.136886743880872"><ele>679.0</ele><time>2026-04-04T10:31:21Z</time></trkpt><trkpt lat="44.326516266107845" lon="11.136960299542555"><ele>679.0</ele><time>2026-04-04T10:31:23Z</time></trkpt><trkpt lat="44.32645109336194" lon="11.137046914755356"><ele>679.0</ele><time>2026-04-04T10:31:25Z</time></trkpt><trkpt lat="44.32653955470056" lon="11.137328853726313"><ele>679.0</ele><time>2026-04-04T10:31:27Z</time></trkpt><trkpt lat="44.326471653577634" lon="11.137336375015893"><ele>679.0</ele><time>2026-04-04T10:31:29Z</time></trkpt><trkpt lat="44.326392775212014" lon="11.137373950089659"><ele>679.6</ele><time>2026-04-04T10:31:31Z</time></trkpt><trkpt lat="44.3263239404386" lon="11.137472692079715"><ele>680.2</ele><time>2026-04-04T10:31:33Z</time></trkpt><trkpt lat="44.326211566466085" lon="11.13754210700174"><ele>680.8000000000001</ele><time>2026-04-04T10:31:38Z</time></trkpt><trkpt lat="44.32611863298154" lon="11.137493633313213"><ele>681.4000000000001</ele><time>2026-04-04T10:31:40Z</time></trkpt><trkpt lat="44.326146095287505" lon="11.137595777302673"><ele>682.0</ele><time>2026-04-04T10:32:25Z</time></trkpt><trkpt lat="44.326241615033254" lon="11.13769333155331"><ele>682.0</ele><time>2026-04-04T10:32:27Z</time></trkpt><trkpt lat="44.326343387832566" lon="11.137700735570832"><ele>682.0</ele><time>2026-04-04T10:32:28Z</time></trkpt><trkpt lat="44.32642919801319" lon="11.1377170163506"><ele>682.0</ele><time>2026-04-04T10:32:29Z</time></trkpt><trkpt lat="44.32649441713595" lon="11.137734474333625"><ele>682.0</ele><time>2026-04-04T10:32:30Z</time></trkpt><trkpt lat="44.32657093244442" lon="11.137765652885184"><ele>682.0</ele><time>2026-04-04T10:32:31Z</time></trkpt><trkpt lat="44.326688319963274" lon="11.137834353266117"><ele>682.6</ele><time>2026-04-04T10:32:33Z</time></trkpt><trkpt lat="44.32680471327272" lon="11.137911964322099"><ele>683.2</ele><time>2026-04-04T10:32:35Z</time></trkpt><trkpt lat="44.32687397575891" lon="11.137968416587844"><ele>683.8</ele><time>2026-04-04T10:32:37Z</time></trkpt><trkpt lat="44.32694653994667" lon="11.138020047979825"><ele>684.4</ele><time>2026-04-04T10:32:39Z</time></trkpt><trkpt lat="44.32696975706458" lon="11.138159958649101"><ele>685.0</ele><time>2026-04-04T10:32:41Z</time></trkpt><trkpt lat="44.32701697920882" lon="11.138224067625545"><ele>682.0</ele><time>2026-04-04T10:32:42Z</time></trkpt><trkpt lat="44.32710408350913" lon="11.138276072282517"><ele>679.0</ele><time>2026-04-04T10:32:44Z</time></trkpt><trkpt lat="44.32716619622171" lon="11.138305058858524"><ele>676.0</ele><time>2026-04-04T10:32:47Z</time></trkpt><trkpt lat="44.32724734000952" lon="11.13835501007204"><ele>673.0</ele><time>2026-04-04T10:32:49Z</time></trkpt><trkpt lat="44.32729985554711" lon="11.138414938041095"><ele>670.0</ele><time>2026-04-04T10:32:50Z</time></trkpt><trkpt lat="44.32735797497259" lon="11.138522870074844"><ele>667.0</ele><time>2026-04-04T10:32:52Z</time></trkpt><trkpt lat="44.32742532071388" lon="11.138550533249841"><ele>665.8333333333334</ele><time>2026-04-04T10:32:54Z</time></trkpt><trkpt lat="44.32749305435454" lon="11.138595441342925"><ele>664.6666666666667</ele><time>2026-04-04T10:32:56Z</time></trkpt><trkpt lat="44.32755539116713" lon="11.138639634134066"><ele>663.5</ele><time>2026-04-04T10:32:58Z</time></trkpt><trkpt lat="44.32761156779821" lon="11.138698358691611"><ele>662.3333333333334</ele><time>2026-04-04T10:33:00Z</time></trkpt><trkpt lat="44.327675872302756" lon="11.13871139132462"><ele>661.1666666666666</ele><time>2026-04-04T10:33:02Z</time></trkpt><trkpt lat="44.32775989544789" lon="11.13878459061504"><ele>660.0</ele><time>2026-04-04T10:33:06Z</time></trkpt><trkpt lat="44.327838152396346" lon="11.138816041592873"><ele>660.0</ele><time>2026-04-04T10:33:08Z</time></trkpt><trkpt lat="44.32789580949233" lon="11.138884827705622"><ele>660.0</ele><time>2026-04-04T10:33:12Z</time></trkpt><trkpt lat="44.327848431587825" lon="11.13898580772467"><ele>660.0</ele><time>2026-04-04T10:33:17Z</time></trkpt><trkpt lat="44.32779223010058" lon="11.138933404839813"><ele>660.0</ele><time>2026-04-04T10:33:18Z</time></trkpt><trkpt lat="44.32776892240521" lon="11.138845419361415"><ele>660.0</ele><time>2026-04-04T10:33:50Z</time></trkpt><trkpt lat="44.32766788415462" lon="11.138832693588975"><ele>660.0</ele><time>2026-04-04T10:34:22Z</time></trkpt><trkpt lat="44.32758888847143" lon="11.13887662462198"><ele>660.0</ele><time>2026-04-04T10:34:23Z</time></trkpt><trkpt lat="44.32748565483256" lon="11.138910436625439"><ele>660.0</ele><time>2026-04-04T10:34:24Z</time></trkpt><trkpt lat="44.32741799339923" lon="11.1389231277348"><ele>660.0</ele><time>2026-04-04T10:34:25Z</time></trkpt><trkpt lat="44.32730650854956" lon="11.138963341094703"><ele>660.0</ele><time>2026-04-04T10:34:27Z</time></trkpt><trkpt lat="44.32724241092499" lon="11.138960866606562"><ele>660.0</ele><time>2026-04-04T10:34:28Z</time></trkpt><trkpt lat="44.32717690562768" lon="11.138855696892323"><ele>661.1666666666666</ele><time>2026-04-04T10:34:29Z</time></trkpt><trkpt lat="44.32706546870511" lon="11.138871917669876"><ele>662.3333333333334</ele><time>2026-04-04T10:34:31Z</time></trkpt><trkpt lat="44.327013431638434" lon="11.138940705733093"><ele>663.5</ele><time>2026-04-04T10:34:32Z</time></trkpt><trkpt lat="44.326953259604025" lon="11.139057681821889"><ele>664.6666666666667</ele><time>2026-04-04T10:34:34Z</time></trkpt><trkpt lat="44.32690416688516" lon="11.139114667299658"><ele>665.8333333333334</ele><time>2026-04-04T10:34:35Z</time></trkpt><trkpt lat="44.326834998533" lon="11.13913136286432"><ele>667.0</ele><time>2026-04-04T10:34:37Z</time></trkpt><trkpt lat="44.326795746231504" lon="11.139041889125489"><ele>667.0000000000001</ele><time>2026-04-04T10:34:40Z</time></trkpt><trkpt lat="44.32676137461833" lon="11.138909008874167"><ele>667.0</ele><time>2026-04-04T10:34:41Z</time></trkpt><trkpt lat="44.32670576599546" lon="11.138857980216844"><ele>667.0</ele><time>2026-04-04T10:34:42Z</time></trkpt><trkpt lat="44.32664445444218" lon="11.138820137982329"><ele>667.0</ele><time>2026-04-04T10:34:43Z</time></trkpt><trkpt lat="44.32658171393744" lon="11.138784092161256"><ele>667.0</ele><time>2026-04-04T10:34:44Z</time></trkpt><trkpt lat="44.326516873143305" lon="11.138757971781077"><ele>667.0000000000001</ele><time>2026-04-04T10:34:47Z</time></trkpt><trkpt lat="44.32644153208811" lon="11.138745433864372"><ele>667.0</ele><time>2026-04-04T10:34:49Z</time></trkpt><trkpt lat="44.32636430746684" lon="11.138730366803124"><ele>668.2</ele><time>2026-04-04T10:34:51Z</time></trkpt><trkpt lat="44.326225325769464" lon="11.138736420955782"><ele>669.4000000000001</ele><time>2026-04-04T10:34:52Z</time></trkpt><trkpt lat="44.32611039686207" lon="11.138773462858337"><ele>670.5999999999999</ele><time>2026-04-04T10:34:53Z</time></trkpt><trkpt lat="44.32603295257757" lon="11.138814614027664"><ele>671.8</ele><time>2026-04-04T10:34:54Z</time></trkpt><trkpt lat="44.325940022828405" lon="11.138825787907727"><ele>673.0</ele><time>2026-04-04T10:34:55Z</time></trkpt><trkpt lat="44.32585671337023" lon="11.138850485833807"><ele>673.0</ele><time>2026-04-04T10:34:56Z</time></trkpt><trkpt lat="44.32578277696449" lon="11.138867926133564"><ele>673.0</ele><time>2026-04-04T10:34:57Z</time></trkpt><trkpt lat="44.325716855019515" lon="11.138869259383025"><ele>673.0</ele><time>2026-04-04T10:34:58Z</time></trkpt><trkpt lat="44.325628107209894" lon="11.138946912884386"><ele>673.0</ele><time>2026-04-04T10:35:00Z</time></trkpt><trkpt lat="44.32555936957908" lon="11.13904331913939"><ele>673.0</ele><time>2026-04-04T10:35:01Z</time></trkpt><trkpt lat="44.32554622352252" lon="11.139154544339462"><ele>673.0</ele><time>2026-04-04T10:35:02Z</time></trkpt><trkpt lat="44.325552778408465" lon="11.13927862335019"><ele>671.4</ele><time>2026-04-04T10:35:03Z</time></trkpt><trkpt lat="44.32554844600083" lon="11.139394250653973"><ele>669.8</ele><time>2026-04-04T10:35:05Z</time></trkpt><trkpt lat="44.32550116679383" lon="11.139492658485038"><ele>668.2</ele><time>2026-04-04T10:35:07Z</time></trkpt><trkpt lat="44.325449163875604" lon="11.139624153932374"><ele>666.6</ele><time>2026-04-04T10:35:09Z</time></trkpt><trkpt lat="44.32535425159965" lon="11.139812830387537"><ele>665.0</ele><time>2026-04-04T10:35:11Z</time></trkpt><trkpt lat="44.32532973790767" lon="11.139908830009322"><ele>662.6666666666666</ele><time>2026-04-04T10:35:12Z</time></trkpt><trkpt lat="44.32530538752205" lon="11.140004355573552"><ele>660.3333333333333</ele><time>2026-04-04T10:35:13Z</time></trkpt><trkpt lat="44.3252905980163" lon="11.14010914288262"><ele>658.0</ele><time>2026-04-04T10:35:14Z</time></trkpt><trkpt lat="44.325262304808795" lon="11.140285536750326"><ele>655.6666666666666</ele><time>2026-04-04T10:35:16Z</time></trkpt><trkpt lat="44.32525470236931" lon="11.140377949480046"><ele>653.3333333333334</ele><time>2026-04-04T10:35:17Z</time></trkpt><trkpt lat="44.32523149427133" lon="11.140465847936458"><ele>651.0</ele><time>2026-04-04T10:35:18Z</time></trkpt><trkpt lat="44.32517112091411" lon="11.140558679345702"><ele>651.0</ele><time>2026-04-04T10:35:19Z</time></trkpt><trkpt lat="44.32508815790205" lon="11.14069859947126"><ele>651.0</ele><time>2026-04-04T10:35:21Z</time></trkpt><trkpt lat="44.325017860697564" lon="11.14080286388878"><ele>651.0</ele><time>2026-04-04T10:35:22Z</time></trkpt><trkpt lat="44.32494787399991" lon="11.140897374988944"><ele>651.0</ele><time>2026-04-04T10:35:23Z</time></trkpt><trkpt lat="44.32489515970059" lon="11.140999835462202"><ele>651.0</ele><time>2026-04-04T10:35:24Z</time></trkpt><trkpt lat="44.32477599031861" lon="11.141002303567626"><ele>644.5999999999999</ele><time>2026-04-04T10:35:26Z</time></trkpt><trkpt lat="44.32469017859009" lon="11.141100363721382"><ele>638.1999999999999</ele><time>2026-04-04T10:35:28Z</time></trkpt><trkpt lat="44.32464218905306" lon="11.141180730255263"><ele>631.8</ele><time>2026-04-04T10:35:30Z</time></trkpt><trkpt lat="44.324597358032925" lon="11.141300158807601"><ele>625.4</ele><time>2026-04-04T10:35:32Z</time></trkpt><trkpt lat="44.32456776403366" lon="11.141424163372518"><ele>619.0</ele><time>2026-04-04T10:35:34Z</time></trkpt><trkpt lat="44.324590088265076" lon="11.141601822197785"><ele>616.1428571428571</ele><time>2026-04-04T10:35:36Z</time></trkpt><trkpt lat="44.324600407737556" lon="11.14168905543965"><ele>613.2857142857143</ele><time>2026-04-04T10:35:38Z</time></trkpt><trkpt lat="44.32454293950736" lon="11.141633076398902"><ele>610.4285714285714</ele><time>2026-04-04T10:35:48Z</time></trkpt><trkpt lat="44.32460400396717" lon="11.141674869986591"><ele>607.5714285714286</ele><time>2026-04-04T10:36:00Z</time></trkpt><trkpt lat="44.32464501393526" lon="11.14180879960444"><ele>604.7142857142857</ele><time>2026-04-04T10:36:03Z</time></trkpt><trkpt lat="44.32467361012567" lon="11.141901678894039"><ele>601.8571428571429</ele><time>2026-04-04T10:36:04Z</time></trkpt><trkpt lat="44.32465960484159" lon="11.141999584983719"><ele>599.0</ele><time>2026-04-04T10:36:05Z</time></trkpt><trkpt lat="44.3246364880634" lon="11.142100382416784"><ele>599.0</ele><time>2026-04-04T10:36:07Z</time></trkpt><trkpt lat="44.32452744465196" lon="11.14216886071464"><ele>599.0</ele><time>2026-04-04T10:36:09Z</time></trkpt><trkpt lat="44.324520138788316" lon="11.142297585980844"><ele>599.0</ele><time>2026-04-04T10:36:13Z</time></trkpt><trkpt lat="44.32452024091363" lon="11.142444074100299"><ele>599.0</ele><time>2026-04-04T10:36:15Z</time></trkpt><trkpt lat="44.32454897204705" lon="11.14256914930757"><ele>599.0</ele><time>2026-04-04T10:36:17Z</time></trkpt><trkpt lat="44.32458418922547" lon="11.142693946556564"><ele>601.4</ele><time>2026-04-04T10:36:18.999Z</time></trkpt><trkpt lat="44.32465477275662" lon="11.142806925401414"><ele>603.8</ele><time>2026-04-04T10:36:20.999Z</time></trkpt><trkpt lat="44.32466529656183" lon="11.142935336731746"><ele>606.2</ele><time>2026-04-04T10:36:22.999Z</time></trkpt><trkpt lat="44.324766420181234" lon="11.143029500204825"><ele>608.6</ele><time>2026-04-04T10:36:24.999Z</time></trkpt><trkpt lat="44.32483781282741" lon="11.143044270960875"><ele>611.0</ele><time>2026-04-04T10:36:25.999Z</time></trkpt><trkpt lat="44.32493539660291" lon="11.143143861451627"><ele>611.0</ele><time>2026-04-04T10:36:27.999Z</time></trkpt><trkpt lat="44.325012132508846" lon="11.143152074310896"><ele>611.0</ele><time>2026-04-04T10:36:28.999Z</time></trkpt><trkpt lat="44.325076389676205" lon="11.143154789931016"><ele>611.0</ele><time>2026-04-04T10:36:29.999Z</time></trkpt><trkpt lat="44.32515457183181" lon="11.143218825559291"><ele>611.0</ele><time>2026-04-04T10:36:31.999Z</time></trkpt><trkpt lat="44.3251976282018" lon="11.143319469555637"><ele>611.0</ele><time>2026-04-04T10:36:33.999Z</time></trkpt><trkpt lat="44.325289778093016" lon="11.143394049679396"><ele>611.0</ele><time>2026-04-04T10:36:35.999Z</time></trkpt><trkpt lat="44.325364088436636" lon="11.143465877024642"><ele>607.5</ele><time>2026-04-04T10:36:38Z</time></trkpt><trkpt lat="44.3253758293386" lon="11.143553899106168"><ele>604.0</ele><time>2026-04-04T10:36:39Z</time></trkpt><trkpt lat="44.32531331481453" lon="11.143689316488596"><ele>600.5</ele><time>2026-04-04T10:36:41Z</time></trkpt><trkpt lat="44.32529288831007" lon="11.143775389574948"><ele>597.0</ele><time>2026-04-04T10:36:42Z</time></trkpt><trkpt lat="44.3252965381237" lon="11.143883638456254"><ele>593.5</ele><time>2026-04-04T10:36:44Z</time></trkpt><trkpt lat="44.32530956973603" lon="11.14398114439579"><ele>590.0</ele><time>2026-04-04T10:36:47Z</time></trkpt><trkpt lat="44.32540020969953" lon="11.144000345652735"><ele>590.1666666666666</ele><time>2026-04-04T10:36:50Z</time></trkpt><trkpt lat="44.325446944105366" lon="11.144089411487725"><ele>590.3333333333333</ele><time>2026-04-04T10:36:52Z</time></trkpt><trkpt lat="44.3255049762478" lon="11.144169607815282"><ele>590.5</ele><time>2026-04-04T10:36:54Z</time></trkpt><trkpt lat="44.32557758441582" lon="11.144243227084475"><ele>590.6666666666666</ele><time>2026-04-04T10:36:56Z</time></trkpt><trkpt lat="44.32553961346112" lon="11.144313845516681"><ele>590.8333333333334</ele><time>2026-04-04T10:36:58Z</time></trkpt><trkpt lat="44.32555717780535" lon="11.144416415288072"><ele>591.0</ele><time>2026-04-04T10:37:00Z</time></trkpt><trkpt lat="44.32556513121304" lon="11.14451196217461"><ele>591.0</ele><time>2026-04-04T10:37:02Z</time></trkpt><trkpt lat="44.325601828743025" lon="11.144644726213308"><ele>591.0</ele><time>2026-04-04T10:37:05Z</time></trkpt><trkpt lat="44.32560009288817" lon="11.144733136870958"><ele>591.0</ele><time>2026-04-04T10:37:08Z</time></trkpt><trkpt lat="44.325616463536235" lon="11.14482432429651"><ele>591.0</ele><time>2026-04-04T10:37:10Z</time></trkpt><trkpt lat="44.32557583157067" lon="11.144892652794201"><ele>591.0</ele><time>2026-04-04T10:37:11Z</time></trkpt><trkpt lat="44.32558369597452" lon="11.145021577783663"><ele>591.0</ele><time>2026-04-04T10:37:12Z</time></trkpt><trkpt lat="44.32561437310004" lon="11.145156161939331"><ele>587.8</ele><time>2026-04-04T10:37:13Z</time></trkpt><trkpt lat="44.32565073695573" lon="11.145273202187596"><ele>584.6</ele><time>2026-04-04T10:37:14Z</time></trkpt><trkpt lat="44.32570879808005" lon="11.14541165908322"><ele>581.4</ele><time>2026-04-04T10:37:15Z</time></trkpt><trkpt lat="44.32573504896424" lon="11.145534312390446"><ele>578.2</ele><time>2026-04-04T10:37:16Z</time></trkpt><trkpt lat="44.32571629589811" lon="11.145706101064803"><ele>575.0</ele><time>2026-04-04T10:37:18Z</time></trkpt><trkpt lat="44.32572992710875" lon="11.145810784432372"><ele>573.6</ele><time>2026-04-04T10:37:19Z</time></trkpt><trkpt lat="44.3257174085675" lon="11.145917037218796"><ele>572.2</ele><time>2026-04-04T10:37:20Z</time></trkpt><trkpt lat="44.32574767753422" lon="11.146023491835402"><ele>570.8</ele><time>2026-04-04T10:37:21Z</time></trkpt><trkpt lat="44.32574453558995" lon="11.146123971382988"><ele>569.4</ele><time>2026-04-04T10:37:22Z</time></trkpt><trkpt lat="44.325655086814656" lon="11.146279285697016"><ele>568.0</ele><time>2026-04-04T10:37:24Z</time></trkpt><trkpt lat="44.3256025557292" lon="11.146373730692314"><ele>568.0</ele><time>2026-04-04T10:37:25Z</time></trkpt><trkpt lat="44.32558985234853" lon="11.146477765156888"><ele>568.0</ele><time>2026-04-04T10:37:26Z</time></trkpt><trkpt lat="44.32552585031926" lon="11.146630422125197"><ele>568.0</ele><time>2026-04-04T10:37:28Z</time></trkpt><trkpt lat="44.32550113491011" lon="11.146733363310707"><ele>568.0</ele><time>2026-04-04T10:37:29Z</time></trkpt><trkpt lat="44.32543716250633" lon="11.146843412110952"><ele>568.0</ele><time>2026-04-04T10:37:31Z</time></trkpt><trkpt lat="44.32534631974886" lon="11.146924120019824"><ele>561.8333333333334</ele><time>2026-04-04T10:37:33Z</time></trkpt><trkpt lat="44.32532623710635" lon="11.147012871472395"><ele>555.6666666666667</ele><time>2026-04-04T10:37:34Z</time></trkpt><trkpt lat="44.32531633876982" lon="11.14714414204804"><ele>549.5</ele><time>2026-04-04T10:37:35Z</time></trkpt><trkpt lat="44.32530488674131" lon="11.14727315971314"><ele>543.3333333333334</ele><time>2026-04-04T10:37:36Z</time></trkpt><trkpt lat="44.32528450677135" lon="11.147395206356858"><ele>537.1666666666666</ele><time>2026-04-04T10:37:37Z</time></trkpt><trkpt lat="44.325264934472386" lon="11.147519404485411"><ele>531.0</ele><time>2026-04-04T10:37:38Z</time></trkpt><trkpt lat="44.325218005532655" lon="11.14760174300824"><ele>531.0</ele><time>2026-04-04T10:37:39Z</time></trkpt><trkpt lat="44.32518319520249" lon="11.147697060972671"><ele>531.0</ele><time>2026-04-04T10:37:40Z</time></trkpt><trkpt lat="44.32513941374664" lon="11.14782416053044"><ele>531.0</ele><time>2026-04-04T10:37:41Z</time></trkpt><trkpt lat="44.32513937744538" lon="11.147979120687785"><ele>531.0</ele><time>2026-04-04T10:37:42Z</time></trkpt><trkpt lat="44.32510969169735" lon="11.148094032644396"><ele>531.0</ele><time>2026-04-04T10:37:43Z</time></trkpt><trkpt lat="44.325057344398644" lon="11.14818539318901"><ele>533.8333333333334</ele><time>2026-04-04T10:37:44Z</time></trkpt><trkpt lat="44.32499408823422" lon="11.148280183798922"><ele>536.6666666666666</ele><time>2026-04-04T10:37:45Z</time></trkpt><trkpt lat="44.324937684389205" lon="11.148364972058495"><ele>539.5</ele><time>2026-04-04T10:37:46Z</time></trkpt><trkpt lat="44.32488359511096" lon="11.148470953585475"><ele>542.3333333333333</ele><time>2026-04-04T10:37:47Z</time></trkpt><trkpt lat="44.32483369515963" lon="11.14855657920591"><ele>545.1666666666666</ele><time>2026-04-04T10:37:48Z</time></trkpt><trkpt lat="44.32480280417818" lon="11.14863587453193"><ele>548.0</ele><time>2026-04-04T10:37:49Z</time></trkpt><trkpt lat="44.32472706730296" lon="11.148734164479231"><ele>547.0</ele><time>2026-04-04T10:37:51Z</time></trkpt><trkpt lat="44.32462436334001" lon="11.148756468508482"><ele>546.0</ele><time>2026-04-04T10:37:53Z</time></trkpt><trkpt lat="44.32457109139853" lon="11.14888476588232"><ele>545.0</ele><time>2026-04-04T10:37:55Z</time></trkpt><trkpt lat="44.324549793576416" lon="11.149003551596344"><ele>544.0</ele><time>2026-04-04T10:37:57Z</time></trkpt><trkpt lat="44.324643029578" lon="11.149071108746298"><ele>543.0</ele><time>2026-04-04T10:37:59Z</time></trkpt><trkpt lat="44.324732601872434" lon="11.149092605971319"><ele>543.0</ele><time>2026-04-04T10:38:02Z</time></trkpt><trkpt lat="44.32477527542989" lon="11.149200315258787"><ele>543.0</ele><time>2026-04-04T10:38:04Z</time></trkpt><trkpt lat="44.324801184114015" lon="11.149283579245429"><ele>543.0</ele><time>2026-04-04T10:38:05Z</time></trkpt><trkpt lat="44.324850203700734" lon="11.149355465050222"><ele>543.0</ele><time>2026-04-04T10:38:06Z</time></trkpt><trkpt lat="44.324910334202954" lon="11.149399744990367"><ele>543.0</ele><time>2026-04-04T10:38:07Z</time></trkpt><trkpt lat="44.32498395929083" lon="11.149517435394767"><ele>543.0</ele><time>2026-04-04T10:38:09Z</time></trkpt><trkpt lat="44.32499145932131" lon="11.149621735098709"><ele>543.0</ele><time>2026-04-04T10:38:11Z</time></trkpt><trkpt lat="44.32489432983848" lon="11.149711799734112"><ele>543.0</ele><time>2026-04-04T10:38:12Z</time></trkpt><trkpt lat="44.32476125973695" lon="11.149751863364232"><ele>543.0</ele><time>2026-04-04T10:38:13Z</time></trkpt><trkpt lat="44.324695212127715" lon="11.149827467596564"><ele>543.0</ele><time>2026-04-04T10:38:14Z</time></trkpt><trkpt lat="44.32463878949315" lon="11.149894955174009"><ele>543.0</ele><time>2026-04-04T10:38:15Z</time></trkpt><trkpt lat="44.32457287546821" lon="11.14989330723362"><ele>536.6666666666666</ele><time>2026-04-04T10:38:25.999Z</time></trkpt><trkpt lat="44.32449721154504" lon="11.149966670445263"><ele>530.3333333333334</ele><time>2026-04-04T10:38:34.999Z</time></trkpt><trkpt lat="44.32447629359426" lon="11.150056717288345"><ele>524.0</ele><time>2026-04-04T10:38:37.999Z</time></trkpt><trkpt lat="44.324470831993175" lon="11.15016819965338"><ele>517.6666666666667</ele><time>2026-04-04T10:38:40.999Z</time></trkpt><trkpt lat="44.3244696785648" lon="11.150268502558376"><ele>511.33333333333337</ele><time>2026-04-04T10:38:43Z</time></trkpt><trkpt lat="44.32445825683378" lon="11.15036761165484"><ele>505.0</ele><time>2026-04-04T10:38:45Z</time></trkpt><trkpt lat="44.32450865577738" lon="11.150471047008956"><ele>505.00000000000006</ele><time>2026-04-04T10:38:47Z</time></trkpt><trkpt lat="44.32453563877269" lon="11.15057841368411"><ele>505.0</ele><time>2026-04-04T10:38:49Z</time></trkpt><trkpt lat="44.3245752635378" lon="11.150682676071717"><ele>505.0</ele><time>2026-04-04T10:38:51Z</time></trkpt><trkpt lat="44.32461957861506" lon="11.1507532605753"><ele>505.0</ele><time>2026-04-04T10:38:53Z</time></trkpt><trkpt lat="44.324685506415754" lon="11.1507714208062"><ele>505.00000000000006</ele><time>2026-04-04T10:38:57Z</time></trkpt><trkpt lat="44.32465635400705" lon="11.150688129671584"><ele>505.0</ele><time>2026-04-04T10:39:01Z</time></trkpt><trkpt lat="44.32461311790213" lon="11.150567243386707"><ele>505.00000000000006</ele><time>2026-04-04T10:39:02Z</time></trkpt><trkpt lat="44.32458918762595" lon="11.150464472138456"><ele>505.0</ele><time>2026-04-04T10:39:03Z</time></trkpt><trkpt lat="44.32459391510616" lon="11.15037292041252"><ele>505.0</ele><time>2026-04-04T10:39:04Z</time></trkpt><trkpt lat="44.32458885442262" lon="11.150239800631141"><ele>505.0</ele><time>2026-04-04T10:39:06Z</time></trkpt><trkpt lat="44.32461268955819" lon="11.15015138029996"><ele>505.00000000000006</ele><time>2026-04-04T10:39:08Z</time></trkpt><trkpt lat="44.32462947924375" lon="11.150020793052049"><ele>505.0</ele><time>2026-04-04T10:39:10Z</time></trkpt><trkpt lat="44.32464384517482" lon="11.149878197010379"><ele>507.4</ele><time>2026-04-04T10:39:12Z</time></trkpt><trkpt lat="44.32470957312078" lon="11.149735247039429"><ele>509.8</ele><time>2026-04-04T10:39:14Z</time></trkpt><trkpt lat="44.32486025322378" lon="11.149727856417986"><ele>512.2</ele><time>2026-04-04T10:39:17Z</time></trkpt><trkpt lat="44.32489195180632" lon="11.1496363971777"><ele>514.6</ele><time>2026-04-04T10:39:19Z</time></trkpt><trkpt lat="44.32489489403773" lon="11.149517054118007"><ele>517.0</ele><time>2026-04-04T10:39:21Z</time></trkpt><trkpt lat="44.32483383858777" lon="11.149431576590956"><ele>517.0</ele><time>2026-04-04T10:39:24Z</time></trkpt><trkpt lat="44.32475675123952" lon="11.149340457209828"><ele>517.0</ele><time>2026-04-04T10:39:26Z</time></trkpt><trkpt lat="44.32469972991708" lon="11.149247282252142"><ele>517.0</ele><time>2026-04-04T10:39:29Z</time></trkpt><trkpt lat="44.32477908792602" lon="11.149182672307427"><ele>517.0</ele><time>2026-04-04T10:39:33Z</time></trkpt><trkpt lat="44.32479397115755" lon="11.149077774377272"><ele>517.0</ele><time>2026-04-04T10:39:36Z</time></trkpt><trkpt lat="44.32477057734425" lon="11.148967472323827"><ele>517.0</ele><time>2026-04-04T10:39:40Z</time></trkpt><trkpt lat="44.32470078797724" lon="11.148908278735894"><ele>514.6666666666667</ele><time>2026-04-04T10:39:44Z</time></trkpt><trkpt lat="44.32465459645588" lon="11.148830569658537"><ele>512.3333333333334</ele><time>2026-04-04T10:39:45Z</time></trkpt><trkpt lat="44.32462585296075" lon="11.148749464432608"><ele>510.0</ele><time>2026-04-04T10:39:47Z</time></trkpt><trkpt lat="44.32470357446162" lon="11.14870884787059"><ele>507.66666666666663</ele><time>2026-04-04T10:39:51Z</time></trkpt><trkpt lat="44.32481308050412" lon="11.148648319875461"><ele>505.3333333333333</ele><time>2026-04-04T10:39:53Z</time></trkpt><trkpt lat="44.32487378323167" lon="11.148575334391253"><ele>503.0</ele><time>2026-04-04T10:39:55Z</time></trkpt><trkpt lat="44.324925194473664" lon="11.14843868867053"><ele>508.59999999999997</ele><time>2026-04-04T10:39:57Z</time></trkpt><trkpt lat="44.32501280545467" lon="11.148314452735718"><ele>514.1999999999999</ele><time>2026-04-04T10:39:59Z</time></trkpt><trkpt lat="44.325068193048416" lon="11.14822422675194"><ele>519.8</ele><time>2026-04-04T10:40:00Z</time></trkpt><trkpt lat="44.32514420802547" lon="11.14819076694146"><ele>525.4</ele><time>2026-04-04T10:40:01Z</time></trkpt><trkpt lat="44.3251757249097" lon="11.148096495466811"><ele>531.0</ele><time>2026-04-04T10:40:02Z</time></trkpt><trkpt lat="44.32521543331397" lon="11.147974244785448"><ele>531.0</ele><time>2026-04-04T10:40:03Z</time></trkpt><trkpt lat="44.325243831377215" lon="11.147854670877335"><ele>531.0</ele><time>2026-04-04T10:40:04Z</time></trkpt><trkpt lat="44.325273938855524" lon="11.147704503561094"><ele>531.0</ele><time>2026-04-04T10:40:06Z</time></trkpt><trkpt lat="44.325294067795014" lon="11.1476160109319"><ele>531.0</ele><time>2026-04-04T10:40:07Z</time></trkpt><trkpt lat="44.32529933385761" lon="11.147526147951266"><ele>531.0</ele><time>2026-04-04T10:40:08Z</time></trkpt><trkpt lat="44.32534048382527" lon="11.147375776232764"><ele>531.0</ele><time>2026-04-04T10:40:10Z</time></trkpt><trkpt lat="44.32538459157858" lon="11.147251646584744"><ele>531.0</ele><time>2026-04-04T10:40:12Z</time></trkpt><trkpt lat="44.3253567589579" lon="11.147351643041013"><ele>531.0</ele><time>2026-04-04T10:40:14Z</time></trkpt><trkpt lat="44.325435798014496" lon="11.147467777858965"><ele>531.0</ele><time>2026-04-04T10:40:15.999Z</time></trkpt><trkpt lat="44.32540748169667" lon="11.147327920185106"><ele>531.0</ele><time>2026-04-04T10:40:16.999Z</time></trkpt><trkpt lat="44.32556368647602" lon="11.147283760994265"><ele>525.3333333333334</ele><time>2026-04-04T10:40:17.999Z</time></trkpt><trkpt lat="44.32550381315414" lon="11.146906448147023"><ele>519.6666666666667</ele><time>2026-04-04T10:40:18.999Z</time></trkpt><trkpt lat="44.32554926670528" lon="11.14669808732307"><ele>514.0</ele><time>2026-04-04T10:40:19.999Z</time></trkpt><trkpt lat="44.32559531529948" lon="11.146589083371731"><ele>524.8</ele><time>2026-04-04T10:40:20.999Z</time></trkpt><trkpt lat="44.32563027000213" lon="11.146470005519308"><ele>535.5999999999999</ele><time>2026-04-04T10:40:21.999Z</time></trkpt><trkpt lat="44.32565674100252" lon="11.146387847371365"><ele>546.4</ele><time>2026-04-04T10:40:22.999Z</time></trkpt><trkpt lat="44.32567354605391" lon="11.146286836818621"><ele>557.1999999999999</ele><time>2026-04-04T10:40:23.999Z</time></trkpt><trkpt lat="44.32570508975272" lon="11.146128096588344"><ele>568.0</ele><time>2026-04-04T10:40:25.999Z</time></trkpt><trkpt lat="44.32575759466427" lon="11.145998435714642"><ele>568.0</ele><time>2026-04-04T10:40:27.999Z</time></trkpt><trkpt lat="44.32579038307216" lon="11.14585858579219"><ele>568.0</ele><time>2026-04-04T10:40:29.999Z</time></trkpt><trkpt lat="44.32582975024176" lon="11.145774015878862"><ele>568.0</ele><time>2026-04-04T10:40:31.999Z</time></trkpt><trkpt lat="44.32576210962452" lon="11.145877144203808"><ele>568.0</ele><time>2026-04-04T10:40:33.999Z</time></trkpt><trkpt lat="44.32569512898932" lon="11.145879812904491"><ele>568.0</ele><time>2026-04-04T10:40:44.999Z</time></trkpt><trkpt lat="44.325702830403394" lon="11.146035621340191"><ele>568.0</ele><time>2026-04-04T10:40:49Z</time></trkpt><trkpt lat="44.325693953802926" lon="11.14613776591826"><ele>568.0</ele><time>2026-04-04T10:40:50Z</time></trkpt><trkpt lat="44.32566143331678" lon="11.146217677472292"><ele>568.0</ele><time>2026-04-04T10:40:51Z</time></trkpt><trkpt lat="44.32556119014432" lon="11.146338533298449"><ele>568.0</ele><time>2026-04-04T10:40:52Z</time></trkpt><trkpt lat="44.32553284189246" lon="11.146434783255563"><ele>568.0</ele><time>2026-04-04T10:40:53Z</time></trkpt><trkpt lat="44.3255445978379" lon="11.14656857617988"><ele>568.0</ele><time>2026-04-04T10:40:54Z</time></trkpt><trkpt lat="44.32551117343807" lon="11.14665856541947"><ele>560.2857142857142</ele><time>2026-04-04T10:40:55Z</time></trkpt><trkpt lat="44.32549278560473" lon="11.146745111633022"><ele>552.5714285714286</ele><time>2026-04-04T10:40:56Z</time></trkpt><trkpt lat="44.325456127082504" lon="11.146830671731266"><ele>544.8571428571429</ele><time>2026-04-04T10:40:58Z</time></trkpt><trkpt lat="44.32539064907814" lon="11.146896603900052"><ele>537.1428571428571</ele><time>2026-04-04T10:41:00Z</time></trkpt><trkpt lat="44.32534569404009" lon="11.14696154198596"><ele>529.4285714285714</ele><time>2026-04-04T10:41:01Z</time></trkpt><trkpt lat="44.32533723851755" lon="11.147088932536137"><ele>521.7142857142857</ele><time>2026-04-04T10:41:02Z</time></trkpt><trkpt lat="44.325311835907236" lon="11.147182936070656"><ele>514.0</ele><time>2026-04-04T10:41:03Z</time></trkpt><trkpt lat="44.3252917791137" lon="11.147293266828106"><ele>517.4</ele><time>2026-04-04T10:41:04Z</time></trkpt><trkpt lat="44.325279470398655" lon="11.147435227607321"><ele>520.8</ele><time>2026-04-04T10:41:05Z</time></trkpt><trkpt lat="44.32525940916557" lon="11.147560507202252"><ele>524.2</ele><time>2026-04-04T10:41:06Z</time></trkpt><trkpt lat="44.32522206500728" lon="11.14768164936503"><ele>527.6</ele><time>2026-04-04T10:41:07Z</time></trkpt><trkpt lat="44.325182893622575" lon="11.147802363603256"><ele>531.0</ele><time>2026-04-04T10:41:08Z</time></trkpt><trkpt lat="44.325147676200366" lon="11.14793336707937"><ele>531.0</ele><time>2026-04-04T10:41:09Z</time></trkpt><trkpt lat="44.32512048330989" lon="11.148042126381036"><ele>531.0</ele><time>2026-04-04T10:41:10Z</time></trkpt><trkpt lat="44.325081373102876" lon="11.148163650303593"><ele>531.0</ele><time>2026-04-04T10:41:11Z</time></trkpt><trkpt lat="44.32504174191429" lon="11.148262387218073"><ele>531.0</ele><time>2026-04-04T10:41:12Z</time></trkpt><trkpt lat="44.324976652506066" lon="11.148368751014974"><ele>531.0</ele><time>2026-04-04T10:41:13Z</time></trkpt><trkpt lat="44.324919423234284" lon="11.148471315371864"><ele>533.8333333333334</ele><time>2026-04-04T10:41:14Z</time></trkpt><trkpt lat="44.324856851338495" lon="11.148549950321229"><ele>536.6666666666666</ele><time>2026-04-04T10:41:15Z</time></trkpt><trkpt lat="44.32479948765537" lon="11.14862006632975"><ele>539.5</ele><time>2026-04-04T10:41:16Z</time></trkpt><trkpt lat="44.324765622396704" lon="11.148695862999832"><ele>542.3333333333333</ele><time>2026-04-04T10:41:17Z</time></trkpt><trkpt lat="44.324676306448424" lon="11.148759300111546"><ele>545.1666666666666</ele><time>2026-04-04T10:41:19Z</time></trkpt><trkpt lat="44.32458379370848" lon="11.148840301734996"><ele>548.0</ele><time>2026-04-04T10:41:21Z</time></trkpt><trkpt lat="44.32454171346773" lon="11.148933468178807"><ele>546.75</ele><time>2026-04-04T10:41:23Z</time></trkpt><trkpt lat="44.32453430847398" lon="11.149028260632738"><ele>545.5</ele><time>2026-04-04T10:41:25Z</time></trkpt><trkpt lat="44.324630888550786" lon="11.149064341357823"><ele>544.25</ele><time>2026-04-04T10:41:27Z</time></trkpt><trkpt lat="44.324801839427565" lon="11.149250180970308"><ele>543.0</ele><time>2026-04-04T10:41:35Z</time></trkpt><trkpt lat="44.32482397994926" lon="11.149355635736441"><ele>543.0</ele><time>2026-04-04T10:41:38Z</time></trkpt><trkpt lat="44.324780037704606" lon="11.149450602115056"><ele>543.0</ele><time>2026-04-04T10:41:41Z</time></trkpt><trkpt lat="44.32473205205065" lon="11.14951517562884"><ele>543.0</ele><time>2026-04-04T10:41:42Z</time></trkpt><trkpt lat="44.32468246061764" lon="11.149605236206511"><ele>543.0</ele><time>2026-04-04T10:41:43Z</time></trkpt><trkpt lat="44.324636787632045" lon="11.149702896302236"><ele>543.0</ele><time>2026-04-04T10:41:44Z</time></trkpt><trkpt lat="44.32456926048529" lon="11.149794824683562"><ele>543.0</ele><time>2026-04-04T10:41:45Z</time></trkpt><trkpt lat="44.32453052950304" lon="11.149877976204898"><ele>536.6666666666666</ele><time>2026-04-04T10:41:46Z</time></trkpt><trkpt lat="44.32449924113311" lon="11.150050376474999"><ele>530.3333333333334</ele><time>2026-04-04T10:41:48Z</time></trkpt><trkpt lat="44.324488644235934" lon="11.150138724562657"><ele>524.0</ele><time>2026-04-04T10:41:49Z</time></trkpt><trkpt lat="44.32447608671064" lon="11.150233645140716"><ele>517.6666666666667</ele><time>2026-04-04T10:41:51Z</time></trkpt><trkpt lat="44.32450746994887" lon="11.15035530889398"><ele>511.33333333333337</ele><time>2026-04-04T10:41:53Z</time></trkpt><trkpt lat="44.324530547552804" lon="11.150447592444651"><ele>505.0</ele><time>2026-04-04T10:41:55Z</time></trkpt><trkpt lat="44.32456617223494" lon="11.150520682304663"><ele>505.0</ele><time>2026-04-04T10:41:56Z</time></trkpt><trkpt lat="44.32460211922509" lon="11.150650760991784"><ele>505.0</ele><time>2026-04-04T10:41:58Z</time></trkpt><trkpt lat="44.32462695957165" lon="11.15083774788396"><ele>505.0</ele><time>2026-04-04T10:42:00Z</time></trkpt><trkpt lat="44.32476337239952" lon="11.150954776930329"><ele>505.0</ele><time>2026-04-04T10:42:02Z</time></trkpt><trkpt lat="44.324827960314536" lon="11.151059372949153"><ele>509.0</ele><time>2026-04-04T10:42:03Z</time></trkpt><trkpt lat="44.3251502947098" lon="11.151095330325177"><ele>513.0</ele><time>2026-04-04T10:42:09Z</time></trkpt><trkpt lat="44.32519363707596" lon="11.15117720926154"><ele>517.0</ele><time>2026-04-04T10:42:10Z</time></trkpt><trkpt lat="44.3252005116193" lon="11.151297872088108"><ele>517.0</ele><time>2026-04-04T10:42:11Z</time></trkpt><trkpt lat="44.32522105966565" lon="11.151439547051272"><ele>517.0</ele><time>2026-04-04T10:42:12Z</time></trkpt><trkpt lat="44.325252453494116" lon="11.151597413938093"><ele>517.0</ele><time>2026-04-04T10:42:13Z</time></trkpt><trkpt lat="44.325244754838785" lon="11.151805762565239"><ele>517.0</ele><time>2026-04-04T10:42:14Z</time></trkpt><trkpt lat="44.32526961171117" lon="11.151919468451089"><ele>516.0</ele><time>2026-04-04T10:42:15Z</time></trkpt><trkpt lat="44.32528755389039" lon="11.152035643687011"><ele>515.0</ele><time>2026-04-04T10:42:16Z</time></trkpt><trkpt lat="44.32530490019281" lon="11.1521474143482"><ele>514.0</ele><time>2026-04-04T10:42:17Z</time></trkpt><trkpt lat="44.32532870329843" lon="11.152260418937152"><ele>513.0</ele><time>2026-04-04T10:42:18Z</time></trkpt><trkpt lat="44.32539149340906" lon="11.152423003079601"><ele>512.0</ele><time>2026-04-04T10:42:19Z</time></trkpt><trkpt lat="44.32546620868977" lon="11.152601135833148"><ele>511.8</ele><time>2026-04-04T10:42:21Z</time></trkpt><trkpt lat="44.32552419308918" lon="11.152690232377282"><ele>511.6</ele><time>2026-04-04T10:42:22Z</time></trkpt><trkpt lat="44.32555764867458" lon="11.152789129691902"><ele>511.40000000000003</ele><time>2026-04-04T10:42:23Z</time></trkpt><trkpt lat="44.325550613361045" lon="11.152903969633543"><ele>511.20000000000005</ele><time>2026-04-04T10:42:24Z</time></trkpt><trkpt lat="44.3255545566841" lon="11.152995761742968"><ele>511.0</ele><time>2026-04-04T10:42:25Z</time></trkpt><trkpt lat="44.32555877562988" lon="11.153199131600346"><ele>507.33333333333337</ele><time>2026-04-04T10:42:27Z</time></trkpt><trkpt lat="44.3255570663228" lon="11.153295185819518"><ele>503.6666666666667</ele><time>2026-04-04T10:42:28Z</time></trkpt><trkpt lat="44.32554024557738" lon="11.15342756256135"><ele>500.0</ele><time>2026-04-04T10:42:28.999Z</time></trkpt><trkpt lat="44.32555993988465" lon="11.153526571542137"><ele>496.33333333333337</ele><time>2026-04-04T10:42:29.999Z</time></trkpt><trkpt lat="44.32559225396612" lon="11.153625628151946"><ele>492.6666666666667</ele><time>2026-04-04T10:42:30.999Z</time></trkpt><trkpt lat="44.32562513052972" lon="11.153803110489891"><ele>489.0</ele><time>2026-04-04T10:42:32.999Z</time></trkpt><trkpt lat="44.3256135364141" lon="11.153901617341932"><ele>489.0</ele><time>2026-04-04T10:42:35.999Z</time></trkpt><trkpt lat="44.32554395656344" lon="11.153783329354921"><ele>489.0</ele><time>2026-04-04T10:42:38.999Z</time></trkpt><trkpt lat="44.325477449287575" lon="11.15376271011194"><ele>489.0</ele><time>2026-04-04T10:42:40.999Z</time></trkpt><trkpt lat="44.325414837010904" lon="11.153786902936762"><ele>489.0</ele><time>2026-04-04T10:42:44.999Z</time></trkpt><trkpt lat="44.325295825396246" lon="11.153714556155977"><ele>489.0</ele><time>2026-04-04T10:42:49.999Z</time></trkpt><trkpt lat="44.32503890393847" lon="11.153697841763512"><ele>489.0</ele><time>2026-04-04T10:42:50.999Z</time></trkpt><trkpt lat="44.32498884073386" lon="11.153536253920223"><ele>489.0</ele><time>2026-04-04T10:42:51.999Z</time></trkpt><trkpt lat="44.32476328879069" lon="11.153486416336944"><ele>489.0</ele><time>2026-04-04T10:42:53.999Z</time></trkpt><trkpt lat="44.324700229269" lon="11.153415914622663"><ele>489.0</ele><time>2026-04-04T10:42:55Z</time></trkpt><trkpt lat="44.32458195212129" lon="11.153376491869931"><ele>485.79999999999995</ele><time>2026-04-04T10:42:56Z</time></trkpt><trkpt lat="44.32449293145864" lon="11.153357103639184"><ele>482.59999999999997</ele><time>2026-04-04T10:42:57Z</time></trkpt><trkpt lat="44.32437234692692" lon="11.153346035645912"><ele>479.4</ele><time>2026-04-04T10:42:58Z</time></trkpt><trkpt lat="44.32426889743532" lon="11.15333071725277"><ele>476.2</ele><time>2026-04-04T10:42:59Z</time></trkpt><trkpt lat="44.32415040366277" lon="11.153336887282036"><ele>473.0</ele><time>2026-04-04T10:43:00Z</time></trkpt><trkpt lat="44.32398494007452" lon="11.153279860622561"><ele>467.5</ele><time>2026-04-04T10:43:01Z</time></trkpt><trkpt lat="44.32387160244776" lon="11.153302981928128"><ele>462.0</ele><time>2026-04-04T10:43:02Z</time></trkpt><trkpt lat="44.323786353466005" lon="11.153399524438715"><ele>456.5</ele><time>2026-04-04T10:43:03Z</time></trkpt><trkpt lat="44.32365140824938" lon="11.153431129621042"><ele>451.0</ele><time>2026-04-04T10:43:04Z</time></trkpt><trkpt lat="44.32352236245299" lon="11.153466625248045"><ele>451.0</ele><time>2026-04-04T10:43:05Z</time></trkpt><trkpt lat="44.32342189434355" lon="11.15344197825526"><ele>451.0</ele><time>2026-04-04T10:43:06Z</time></trkpt><trkpt lat="44.323368270649546" lon="11.153527934713896"><ele>451.0</ele><time>2026-04-04T10:43:08Z</time></trkpt><trkpt lat="44.323313881109435" lon="11.153614517194796"><ele>451.0</ele><time>2026-04-04T10:43:10Z</time></trkpt><trkpt lat="44.32319388820092" lon="11.153615935857255"><ele>451.0</ele><time>2026-04-04T10:43:12Z</time></trkpt><trkpt lat="44.32308771315852" lon="11.153623452681904"><ele>451.0</ele><time>2026-04-04T10:43:14Z</time></trkpt><trkpt lat="44.32312616923326" lon="11.15370876090704"><ele>451.0</ele><time>2026-04-04T10:43:16Z</time></trkpt><trkpt lat="44.32332962210438" lon="11.153381656877558"><ele>451.0</ele><time>2026-04-04T10:43:19Z</time></trkpt><trkpt lat="44.32328020496432" lon="11.153436205018991"><ele>451.0</ele><time>2026-04-04T10:43:27Z</time></trkpt><trkpt lat="44.32328263543564" lon="11.153524446977249"><ele>451.00000000000006</ele><time>2026-04-04T10:43:44Z</time></trkpt><trkpt lat="44.32324585328242" lon="11.153643928120138"><ele>451.0</ele><time>2026-04-04T10:43:46Z</time></trkpt><trkpt lat="44.32324097961698" lon="11.153752674604105"><ele>451.0</ele><time>2026-04-04T10:43:48Z</time></trkpt><trkpt lat="44.32320813882377" lon="11.153856348556648"><ele>451.0</ele><time>2026-04-04T10:43:50Z</time></trkpt><trkpt lat="44.323162924753966" lon="11.153944914389957"><ele>451.00000000000006</ele><time>2026-04-04T10:43:52Z</time></trkpt><trkpt lat="44.323115580496534" lon="11.15403031558433"><ele>451.0</ele><time>2026-04-04T10:43:54Z</time></trkpt><trkpt lat="44.32316411844544" lon="11.1540937498658"><ele>445.5</ele><time>2026-04-04T10:43:55Z</time></trkpt><trkpt lat="44.32331614590902" lon="11.154160494493178"><ele>440.0</ele><time>2026-04-04T10:43:58Z</time></trkpt><trkpt lat="44.32337726647651" lon="11.154232553149651"><ele>434.5</ele><time>2026-04-04T10:44:00Z</time></trkpt><trkpt lat="44.32348183169882" lon="11.154270972193972"><ele>429.0</ele><time>2026-04-04T10:44:02Z</time></trkpt><trkpt lat="44.3235709709298" lon="11.154361161144836"><ele>429.0</ele><time>2026-04-04T10:44:04Z</time></trkpt><trkpt lat="44.32366714887523" lon="11.154410214496188"><ele>429.0</ele><time>2026-04-04T10:44:06Z</time></trkpt><trkpt lat="44.3237331204921" lon="11.154441386727507"><ele>429.0</ele><time>2026-04-04T10:44:08Z</time></trkpt><trkpt lat="44.3237459576987" lon="11.154561761332037"><ele>429.0</ele><time>2026-04-04T10:44:10Z</time></trkpt><trkpt lat="44.32371277635168" lon="11.15466900152217"><ele>429.0</ele><time>2026-04-04T10:44:12Z</time></trkpt><trkpt lat="44.32370633587099" lon="11.154787803103849"><ele>429.0</ele><time>2026-04-04T10:44:14Z</time></trkpt><trkpt lat="44.323722497378476" lon="11.154874777672378"><ele>429.0</ele><time>2026-04-04T10:44:16Z</time></trkpt><trkpt lat="44.32387467827358" lon="11.155046764084684"><ele>429.0</ele><time>2026-04-04T10:44:38Z</time></trkpt><trkpt lat="44.323923618617144" lon="11.155158020147702"><ele>429.0</ele><time>2026-04-04T10:44:39Z</time></trkpt><trkpt lat="44.32387648526388" lon="11.155266705883452"><ele>429.0</ele><time>2026-04-04T10:44:42Z</time></trkpt><trkpt lat="44.32381240613082" lon="11.155426755773226"><ele>426.3333333333333</ele><time>2026-04-04T10:44:44Z</time></trkpt><trkpt lat="44.32377219117031" lon="11.155517567059007"><ele>423.66666666666663</ele><time>2026-04-04T10:44:45Z</time></trkpt><trkpt lat="44.32370540748227" lon="11.155522508850064"><ele>421.0</ele><time>2026-04-04T10:44:46Z</time></trkpt><trkpt lat="44.32363311913791" lon="11.155631520834426"><ele>418.3333333333333</ele><time>2026-04-04T10:44:47.999Z</time></trkpt><trkpt lat="44.32357763795295" lon="11.155700996215392"><ele>415.66666666666663</ele><time>2026-04-04T10:44:48.999Z</time></trkpt><trkpt lat="44.323534955224" lon="11.155767976389154"><ele>413.0</ele><time>2026-04-04T10:44:49.999Z</time></trkpt><trkpt lat="44.323487011098756" lon="11.155866671901467"><ele>411.49999999999994</ele><time>2026-04-04T10:44:51.999Z</time></trkpt><trkpt lat="44.32350448792628" lon="11.156004717854948"><ele>410.0</ele><time>2026-04-04T10:44:53.999Z</time></trkpt><trkpt lat="44.32354289772631" lon="11.156150679012475"><ele>408.5</ele><time>2026-04-04T10:44:54.999Z</time></trkpt><trkpt lat="44.32357194116508" lon="11.156251685100877"><ele>407.0</ele><time>2026-04-04T10:44:55.999Z</time></trkpt><trkpt lat="44.323621235596896" lon="11.15632810722817"><ele>405.49999999999994</ele><time>2026-04-04T10:44:56.999Z</time></trkpt><trkpt lat="44.32367369799526" lon="11.156384845335714"><ele>404.0</ele><time>2026-04-04T10:44:57.999Z</time></trkpt><trkpt lat="44.32372635525076" lon="11.156446667038445"><ele>404.2</ele><time>2026-04-04T10:44:58.999Z</time></trkpt><trkpt lat="44.32374897814725" lon="11.156582438558384"><ele>404.4</ele><time>2026-04-04T10:45:01Z</time></trkpt><trkpt lat="44.32371579997958" lon="11.156713854699703"><ele>404.6</ele><time>2026-04-04T10:45:03Z</time></trkpt><trkpt lat="44.323666177094815" lon="11.156813070684816"><ele>404.8</ele><time>2026-04-04T10:45:04Z</time></trkpt><trkpt lat="44.32362106410162" lon="11.156924981096"><ele>405.0</ele><time>2026-04-04T10:45:05Z</time></trkpt><trkpt lat="44.32358980498836" lon="11.157040451365665"><ele>405.0</ele><time>2026-04-04T10:45:06Z</time></trkpt><trkpt lat="44.323571890397005" lon="11.157179433569784"><ele>405.0</ele><time>2026-04-04T10:45:07Z</time></trkpt><trkpt lat="44.32356471342121" lon="11.157349266378562"><ele>405.0</ele><time>2026-04-04T10:45:09Z</time></trkpt><trkpt lat="44.32359269136766" lon="11.15747369400473"><ele>405.0</ele><time>2026-04-04T10:45:11Z</time></trkpt><trkpt lat="44.3235716989986" lon="11.157622992662523"><ele>405.0</ele><time>2026-04-04T10:45:13Z</time></trkpt><trkpt lat="44.32352217860721" lon="11.15773520155153"><ele>407.0</ele><time>2026-04-04T10:45:14Z</time></trkpt><trkpt lat="44.32353453669891" lon="11.157852639814985"><ele>409.0</ele><time>2026-04-04T10:45:15Z</time></trkpt><trkpt lat="44.32349998702006" lon="11.157951288588555"><ele>411.0</ele><time>2026-04-04T10:45:16Z</time></trkpt><trkpt lat="44.32346974774664" lon="11.158074011604734"><ele>413.0</ele><time>2026-04-04T10:45:17Z</time></trkpt><trkpt lat="44.32345107722989" lon="11.158235452137204"><ele>415.0</ele><time>2026-04-04T10:45:18Z</time></trkpt><trkpt lat="44.32342934472152" lon="11.15837694074003"><ele>418.8</ele><time>2026-04-04T10:45:19Z</time></trkpt><trkpt lat="44.32339535988832" lon="11.158526518098068"><ele>422.6</ele><time>2026-04-04T10:45:20Z</time></trkpt><trkpt lat="44.32339096362012" lon="11.158669713154339"><ele>426.4</ele><time>2026-04-04T10:45:21Z</time></trkpt><trkpt lat="44.323361299798925" lon="11.158798724705237"><ele>430.2</ele><time>2026-04-04T10:45:22Z</time></trkpt><trkpt lat="44.32329905197939" lon="11.158839318069605"><ele>434.0</ele><time>2026-04-04T10:45:23Z</time></trkpt><trkpt lat="44.323265749943985" lon="11.158949265209646"><ele>434.0</ele><time>2026-04-04T10:45:24Z</time></trkpt><trkpt lat="44.323197242182204" lon="11.158959716359862"><ele>434.0</ele><time>2026-04-04T10:45:25Z</time></trkpt><trkpt lat="44.32310457158987" lon="11.159036212315744"><ele>434.0</ele><time>2026-04-04T10:45:26Z</time></trkpt><trkpt lat="44.32299692197291" lon="11.158969110423898"><ele>434.0</ele><time>2026-04-04T10:45:27Z</time></trkpt><trkpt lat="44.32290593305376" lon="11.159008557404327"><ele>434.0</ele><time>2026-04-04T10:45:28Z</time></trkpt><trkpt lat="44.32280336613955" lon="11.1590031731308"><ele>433.2</ele><time>2026-04-04T10:45:30Z</time></trkpt><trkpt lat="44.32276860548703" lon="11.159122951911932"><ele>432.4</ele><time>2026-04-04T10:45:31Z</time></trkpt><trkpt lat="44.322734888093215" lon="11.159249185741947"><ele>431.6</ele><time>2026-04-04T10:45:32Z</time></trkpt><trkpt lat="44.322686631367716" lon="11.159400118544353"><ele>430.8</ele><time>2026-04-04T10:45:33Z</time></trkpt><trkpt lat="44.32262766230705" lon="11.159480873335024"><ele>430.0</ele><time>2026-04-04T10:45:34Z</time></trkpt><trkpt lat="44.322633868866795" lon="11.159590022068151"><ele>430.00000000000006</ele><time>2026-04-04T10:45:35Z</time></trkpt><trkpt lat="44.32269318790948" lon="11.159643796829684"><ele>430.0</ele><time>2026-04-04T10:45:37Z</time></trkpt><trkpt lat="44.32277455610087" lon="11.159583600185519"><ele>430.0</ele><time>2026-04-04T10:45:43Z</time></trkpt><trkpt lat="44.322800933276234" lon="11.159496965254688"><ele>430.0</ele><time>2026-04-04T10:45:45Z</time></trkpt><trkpt lat="44.322858794094714" lon="11.15939972983374"><ele>430.00000000000006</ele><time>2026-04-04T10:45:46Z</time></trkpt><trkpt lat="44.32289739526019" lon="11.159304995188762"><ele>430.0</ele><time>2026-04-04T10:45:48Z</time></trkpt><trkpt lat="44.32290287965039" lon="11.159180511972208"><ele>430.00000000000006</ele><time>2026-04-04T10:45:50Z</time></trkpt><trkpt lat="44.322824525239014" lon="11.159163502480176"><ele>430.0</ele><time>2026-04-04T10:46:02Z</time></trkpt><trkpt lat="44.322763953897" lon="11.159264014292734"><ele>430.0</ele><time>2026-04-04T10:46:04Z</time></trkpt><trkpt lat="44.32272127581801" lon="11.159357717288824"><ele>430.0</ele><time>2026-04-04T10:46:05Z</time></trkpt><trkpt lat="44.32269757902629" lon="11.159457488289977"><ele>430.00000000000006</ele><time>2026-04-04T10:46:06Z</time></trkpt><trkpt lat="44.322760175293155" lon="11.159424002938824"><ele>430.0</ele><time>2026-04-04T10:46:13Z</time></trkpt><trkpt lat="44.32268458499298" lon="11.159556991780738"><ele>430.0</ele><time>2026-04-04T10:46:24Z</time></trkpt><trkpt lat="44.32274922636811" lon="11.159627489373772"><ele>430.0</ele><time>2026-04-04T10:46:26Z</time></trkpt><trkpt lat="44.32284894415656" lon="11.159632491047395"><ele>430.0</ele><time>2026-04-04T10:46:28Z</time></trkpt><trkpt lat="44.32298008144647" lon="11.159619428609309"><ele>430.0</ele><time>2026-04-04T10:46:30Z</time></trkpt><trkpt lat="44.32310372236136" lon="11.159608817225724"><ele>430.0</ele><time>2026-04-04T10:46:31Z</time></trkpt><trkpt lat="44.323203115859016" lon="11.159611312867627"><ele>435.4</ele><time>2026-04-04T10:46:32Z</time></trkpt><trkpt lat="44.323311477953304" lon="11.159584396905316"><ele>440.8</ele><time>2026-04-04T10:46:33Z</time></trkpt><trkpt lat="44.323422482962016" lon="11.159531032849888"><ele>446.20000000000005</ele><time>2026-04-04T10:46:34Z</time></trkpt><trkpt lat="44.32348600308602" lon="11.159418928612157"><ele>451.6</ele><time>2026-04-04T10:46:35Z</time></trkpt><trkpt lat="44.323560041231275" lon="11.159362391166802"><ele>457.0</ele><time>2026-04-04T10:46:36Z</time></trkpt><trkpt lat="44.32362627801255" lon="11.159336961280994"><ele>457.0</ele><time>2026-04-04T10:46:37Z</time></trkpt><trkpt lat="44.32371085272633" lon="11.159337855827587"><ele>457.00000000000006</ele><time>2026-04-04T10:46:38Z</time></trkpt><trkpt lat="44.32379179472554" lon="11.159384466835935"><ele>457.00000000000006</ele><time>2026-04-04T10:46:39Z</time></trkpt><trkpt lat="44.32390634264141" lon="11.159479626293079"><ele>457.0</ele><time>2026-04-04T10:46:40Z</time></trkpt><trkpt lat="44.32401219803327" lon="11.159500168873938"><ele>457.0</ele><time>2026-04-04T10:46:41Z</time></trkpt><trkpt lat="44.32410191367956" lon="11.15949500737302"><ele>461.83333333333337</ele><time>2026-04-04T10:46:42Z</time></trkpt><trkpt lat="44.324206642654254" lon="11.159471935819695"><ele>466.6666666666667</ele><time>2026-04-04T10:46:43Z</time></trkpt><trkpt lat="44.324290174361565" lon="11.159454574438485"><ele>471.5</ele><time>2026-04-04T10:46:43.999Z</time></trkpt><trkpt lat="44.324375189655036" lon="11.159457026739226"><ele>476.33333333333337</ele><time>2026-04-04T10:46:44.999Z</time></trkpt><trkpt lat="44.32444390254342" lon="11.159462615922973"><ele>481.1666666666667</ele><time>2026-04-04T10:46:45.999Z</time></trkpt><trkpt lat="44.32451485699993" lon="11.159517625684824"><ele>486.0</ele><time>2026-04-04T10:46:46.999Z</time></trkpt><trkpt lat="44.32460187544947" lon="11.159519134355332"><ele>486.0</ele><time>2026-04-04T10:46:47.999Z</time></trkpt><trkpt lat="44.32442635514327" lon="11.159489176783811"><ele>486.0</ele><time>2026-04-04T10:47:00.999Z</time></trkpt><trkpt lat="44.32432610258466" lon="11.159456639480352"><ele>486.0</ele><time>2026-04-04T10:47:01.999Z</time></trkpt><trkpt lat="44.32424851883713" lon="11.159370566209454"><ele>486.0</ele><time>2026-04-04T10:47:03.999Z</time></trkpt><trkpt lat="44.324182788416394" lon="11.159334763170076"><ele>486.0</ele><time>2026-04-04T10:47:04.999Z</time></trkpt><trkpt lat="44.324083865947074" lon="11.15933741582394"><ele>486.0</ele><time>2026-04-04T10:47:05.999Z</time></trkpt><trkpt lat="44.32400821542872" lon="11.159375799383508"><ele>486.0</ele><time>2026-04-04T10:47:07Z</time></trkpt><trkpt lat="44.32391245937603" lon="11.15946060107833"><ele>486.0</ele><time>2026-04-04T10:47:08Z</time></trkpt><trkpt lat="44.323836550296186" lon="11.15947494674593"><ele>486.0</ele><time>2026-04-04T10:47:09Z</time></trkpt><trkpt lat="44.32376197201506" lon="11.159442392384534"><ele>486.0</ele><time>2026-04-04T10:47:10Z</time></trkpt><trkpt lat="44.32368296810863" lon="11.159421691214117"><ele>486.0</ele><time>2026-04-04T10:47:11Z</time></trkpt><trkpt lat="44.32356054878954" lon="11.159392248277038"><ele>480.20000000000005</ele><time>2026-04-04T10:47:13Z</time></trkpt><trkpt lat="44.32344895138963" lon="11.159414435770724"><ele>474.40000000000003</ele><time>2026-04-04T10:47:15Z</time></trkpt><trkpt lat="44.32337565336798" lon="11.159430448425335"><ele>468.6</ele><time>2026-04-04T10:47:16Z</time></trkpt><trkpt lat="44.32325086744792" lon="11.15947058855323"><ele>462.8</ele><time>2026-04-04T10:47:18Z</time></trkpt><trkpt lat="44.32317452780149" lon="11.159521715312836"><ele>457.0</ele><time>2026-04-04T10:47:19Z</time></trkpt><trkpt lat="44.32305667933631" lon="11.15947390707282"><ele>451.6</ele><time>2026-04-04T10:47:21Z</time></trkpt><trkpt lat="44.32298955660637" lon="11.15947068153845"><ele>446.20000000000005</ele><time>2026-04-04T10:47:22Z</time></trkpt><trkpt lat="44.32288351948002" lon="11.159499199872625"><ele>440.8</ele><time>2026-04-04T10:47:24Z</time></trkpt><trkpt lat="44.32279045520514" lon="11.159496618340963"><ele>435.4</ele><time>2026-04-04T10:47:26Z</time></trkpt><trkpt lat="44.32273326788558" lon="11.159571853344099"><ele>430.0</ele><time>2026-04-04T10:47:28Z</time></trkpt><trkpt lat="44.32283925711373" lon="11.159372458126997"><ele>430.0</ele><time>2026-04-04T10:47:34Z</time></trkpt><trkpt lat="44.32287426126914" lon="11.15928402795424"><ele>430.0</ele><time>2026-04-04T10:47:35Z</time></trkpt><trkpt lat="44.32290673566013" lon="11.159160182994432"><ele>430.0</ele><time>2026-04-04T10:47:36Z</time></trkpt><trkpt lat="44.32293854708865" lon="11.159045177699266"><ele>430.0</ele><time>2026-04-04T10:47:37Z</time></trkpt><trkpt lat="44.32301532280554" lon="11.159053214421274"><ele>430.0</ele><time>2026-04-04T10:47:38Z</time></trkpt><trkpt lat="44.32313944841733" lon="11.159068997332158"><ele>430.8</ele><time>2026-04-04T10:47:39Z</time></trkpt><trkpt lat="44.323219916530036" lon="11.159028984331492"><ele>431.6</ele><time>2026-04-04T10:47:40Z</time></trkpt><trkpt lat="44.32330500699154" lon="11.158978757340511"><ele>432.4</ele><time>2026-04-04T10:47:41Z</time></trkpt><trkpt lat="44.323381554007995" lon="11.158944177088426"><ele>433.2</ele><time>2026-04-04T10:47:42Z</time></trkpt><trkpt lat="44.3234453863837" lon="11.158982778679016"><ele>434.0</ele><time>2026-04-04T10:47:43Z</time></trkpt><trkpt lat="44.32354510333566" lon="11.158862317594759"><ele>434.0</ele><time>2026-04-04T10:47:45Z</time></trkpt><trkpt lat="44.323610449081066" lon="11.158595043187772"><ele>434.0</ele><time>2026-04-04T10:47:47Z</time></trkpt><trkpt lat="44.323593597429216" lon="11.15842306249107"><ele>434.0</ele><time>2026-04-04T10:47:48Z</time></trkpt><trkpt lat="44.323580728106684" lon="11.158272613861925"><ele>434.0</ele><time>2026-04-04T10:47:49Z</time></trkpt><trkpt lat="44.32360748984877" lon="11.15811368192827"><ele>430.2</ele><time>2026-04-04T10:47:50Z</time></trkpt><trkpt lat="44.32362233588325" lon="11.157972122977487"><ele>426.4</ele><time>2026-04-04T10:47:51Z</time></trkpt><trkpt lat="44.32362115503127" lon="11.157841561472441"><ele>422.6</ele><time>2026-04-04T10:47:52Z</time></trkpt><trkpt lat="44.323621304284785" lon="11.157716879339286"><ele>418.8</ele><time>2026-04-04T10:47:53Z</time></trkpt><trkpt lat="44.323630870809176" lon="11.157562521343461"><ele>415.0</ele><time>2026-04-04T10:47:54Z</time></trkpt><trkpt lat="44.323653208850075" lon="11.157443994686346"><ele>413.33333333333337</ele><time>2026-04-04T10:47:55Z</time></trkpt><trkpt lat="44.32365942279005" lon="11.157320573955452"><ele>411.6666666666667</ele><time>2026-04-04T10:47:56Z</time></trkpt><trkpt lat="44.32366746489245" lon="11.157191269187035"><ele>410.0</ele><time>2026-04-04T10:47:57Z</time></trkpt><trkpt lat="44.323645791920285" lon="11.157084765395947"><ele>408.33333333333337</ele><time>2026-04-04T10:47:58Z</time></trkpt><trkpt lat="44.32363288698761" lon="11.15699522976122"><ele>406.6666666666667</ele><time>2026-04-04T10:47:59Z</time></trkpt><trkpt lat="44.32361673140621" lon="11.156872716753261"><ele>405.0</ele><time>2026-04-04T10:48:01Z</time></trkpt><trkpt lat="44.32365686451101" lon="11.156782800795517"><ele>404.99999999999994</ele><time>2026-04-04T10:48:02Z</time></trkpt><trkpt lat="44.323686109413345" lon="11.156692123402523"><ele>405.0</ele><time>2026-04-04T10:48:03Z</time></trkpt><trkpt lat="44.32372377936588" lon="11.156606697475517"><ele>405.0</ele><time>2026-04-04T10:48:04Z</time></trkpt><trkpt lat="44.32374332879538" lon="11.156520262957144"><ele>405.0</ele><time>2026-04-04T10:48:05Z</time></trkpt><trkpt lat="44.32377762929573" lon="11.156435519887507"><ele>405.0</ele><time>2026-04-04T10:48:06Z</time></trkpt><trkpt lat="44.32381679307257" lon="11.156355244059737"><ele>404.99999999999994</ele><time>2026-04-04T10:48:07Z</time></trkpt><trkpt lat="44.32382193652039" lon="11.156239420159544"><ele>405.0</ele><time>2026-04-04T10:48:08Z</time></trkpt><trkpt lat="44.32381303709137" lon="11.156144092129646"><ele>404.8</ele><time>2026-04-04T10:48:09Z</time></trkpt><trkpt lat="44.323822247232606" lon="11.156052982648525"><ele>404.6</ele><time>2026-04-04T10:48:10Z</time></trkpt><trkpt lat="44.32382408358841" lon="11.155944455869248"><ele>404.4</ele><time>2026-04-04T10:48:12Z</time></trkpt><trkpt lat="44.32371910485716" lon="11.155890392923068"><ele>404.2</ele><time>2026-04-04T10:48:13Z</time></trkpt><trkpt lat="44.32367023027387" lon="11.155814453706776"><ele>404.0</ele><time>2026-04-04T10:48:15Z</time></trkpt><trkpt lat="44.323605430892776" lon="11.15565691772429"><ele>405.79999999999995</ele><time>2026-04-04T10:48:17Z</time></trkpt><trkpt lat="44.323720073951456" lon="11.15555302798082"><ele>407.59999999999997</ele><time>2026-04-04T10:48:19Z</time></trkpt><trkpt lat="44.3237652314204" lon="11.155488011166824"><ele>409.4</ele><time>2026-04-04T10:48:20Z</time></trkpt><trkpt lat="44.32382897922107" lon="11.155395636667162"><ele>411.2</ele><time>2026-04-04T10:48:21Z</time></trkpt><trkpt lat="44.323901139507065" lon="11.155327845849623"><ele>413.0</ele><time>2026-04-04T10:48:22Z</time></trkpt><trkpt lat="44.32398691071715" lon="11.155218274326389"><ele>416.2</ele><time>2026-04-04T10:48:24Z</time></trkpt><trkpt lat="44.32402115465302" lon="11.15512869385019"><ele>419.4</ele><time>2026-04-04T10:48:25Z</time></trkpt><trkpt lat="44.324002867613935" lon="11.154994398521373"><ele>422.59999999999997</ele><time>2026-04-04T10:48:26Z</time></trkpt><trkpt lat="44.32398496615624" lon="11.154874289478524"><ele>425.79999999999995</ele><time>2026-04-04T10:48:27Z</time></trkpt><trkpt lat="44.32393055495897" lon="11.154771369655926"><ele>429.0</ele><time>2026-04-04T10:48:28Z</time></trkpt><trkpt lat="44.323830818845416" lon="11.154676507016571"><ele>429.0</ele><time>2026-04-04T10:48:30Z</time></trkpt><trkpt lat="44.323784877341225" lon="11.154756858210602"><ele>429.0</ele><time>2026-04-04T10:48:32Z</time></trkpt><trkpt lat="44.32319155079666" lon="11.154891142650698"><ele>422.4</ele><time>2026-04-04T10:49:29Z</time></trkpt><trkpt lat="44.32299513869477" lon="11.154919234066305"><ele>415.79999999999995</ele><time>2026-04-04T10:49:30Z</time></trkpt><trkpt lat="44.322927252885634" lon="11.154964070688983"><ele>409.20000000000005</ele><time>2026-04-04T10:49:31Z</time></trkpt><trkpt lat="44.322857575752316" lon="11.154966050421596"><ele>402.6</ele><time>2026-04-04T10:49:32Z</time></trkpt><trkpt lat="44.32278468412909" lon="11.154996460527073"><ele>396.0</ele><time>2026-04-04T10:49:33Z</time></trkpt><trkpt lat="44.3227165588117" lon="11.155062245639055"><ele>396.0</ele><time>2026-04-04T10:49:35Z</time></trkpt><trkpt lat="44.322724674871395" lon="11.155228431805508"><ele>396.0</ele><time>2026-04-04T10:49:37Z</time></trkpt><trkpt lat="44.32271784152958" lon="11.155371362537487"><ele>396.0</ele><time>2026-04-04T10:49:39Z</time></trkpt><trkpt lat="44.322742856369544" lon="11.155541104029329"><ele>396.0</ele><time>2026-04-04T10:49:41Z</time></trkpt><trkpt lat="44.322731807450204" lon="11.155701406491865"><ele>393.4</ele><time>2026-04-04T10:49:43Z</time></trkpt><trkpt lat="44.32269085154701" lon="11.155793992662815"><ele>390.8</ele><time>2026-04-04T10:49:44Z</time></trkpt><trkpt lat="44.322629475277736" lon="11.155998828988022"><ele>388.2</ele><time>2026-04-04T10:49:45Z</time></trkpt><trkpt lat="44.322592984359275" lon="11.156104667528835"><ele>385.59999999999997</ele><time>2026-04-04T10:49:46Z</time></trkpt><trkpt lat="44.32250536632474" lon="11.15620958852586"><ele>383.0</ele><time>2026-04-04T10:49:48Z</time></trkpt><trkpt lat="44.32244315082096" lon="11.156187537908563"><ele>383.0</ele><time>2026-04-04T10:49:49Z</time></trkpt><trkpt lat="44.322403162538244" lon="11.156110041765887"><ele>383.0</ele><time>2026-04-04T10:49:50Z</time></trkpt><trkpt lat="44.322358025218946" lon="11.156210525480647"><ele>383.0</ele><time>2026-04-04T10:49:55Z</time></trkpt><trkpt lat="44.322278382066784" lon="11.156165243656453"><ele>383.0</ele><time>2026-04-04T10:49:57Z</time></trkpt><trkpt lat="44.322241241104734" lon="11.156263290418135"><ele>383.0</ele><time>2026-04-04T10:49:59Z</time></trkpt><trkpt lat="44.32221413079418" lon="11.156354267865998"><ele>383.0</ele><time>2026-04-04T10:50:00Z</time></trkpt><trkpt lat="44.322131442337685" lon="11.156388759028568"><ele>380.1428571428571</ele><time>2026-04-04T10:50:03Z</time></trkpt><trkpt lat="44.32205923534343" lon="11.156437466982075"><ele>377.2857142857143</ele><time>2026-04-04T10:50:05Z</time></trkpt><trkpt lat="44.32199322618772" lon="11.156467090190953"><ele>374.42857142857144</ele><time>2026-04-04T10:50:07Z</time></trkpt><trkpt lat="44.321930818544594" lon="11.156455452761122"><ele>371.57142857142856</ele><time>2026-04-04T10:50:09Z</time></trkpt><trkpt lat="44.32187012595082" lon="11.156393007312692"><ele>368.7142857142857</ele><time>2026-04-04T10:50:13Z</time></trkpt><trkpt lat="44.32181695669009" lon="11.156320358500055"><ele>365.85714285714283</ele><time>2026-04-04T10:50:16Z</time></trkpt><trkpt lat="44.32174886559747" lon="11.156306318894117"><ele>363.0</ele><time>2026-04-04T10:50:17Z</time></trkpt><trkpt lat="44.32165064662938" lon="11.156337774391593"><ele>363.0</ele><time>2026-04-04T10:50:18Z</time></trkpt><trkpt lat="44.32149114182694" lon="11.156328725609827"><ele>363.0</ele><time>2026-04-04T10:50:20Z</time></trkpt><trkpt lat="44.321385637170664" lon="11.156250203512188"><ele>363.0</ele><time>2026-04-04T10:50:22Z</time></trkpt><trkpt lat="44.321327661633326" lon="11.156199235390783"><ele>363.0</ele><time>2026-04-04T10:50:23Z</time></trkpt><trkpt lat="44.32120970914904" lon="11.15610364436928"><ele>360.2</ele><time>2026-04-04T10:50:25Z</time></trkpt><trkpt lat="44.321113166987345" lon="11.156055723609594"><ele>357.4</ele><time>2026-04-04T10:50:26Z</time></trkpt><trkpt lat="44.321016082102716" lon="11.156007496250947"><ele>354.59999999999997</ele><time>2026-04-04T10:50:28Z</time></trkpt><trkpt lat="44.32097153387139" lon="11.156087885160767"><ele>351.79999999999995</ele><time>2026-04-04T10:50:32Z</time></trkpt><trkpt lat="44.32085679363341" lon="11.156086058439039"><ele>349.0</ele><time>2026-04-04T10:50:37Z</time></trkpt><trkpt lat="44.32076023882152" lon="11.156050680526993"><ele>349.0</ele><time>2026-04-04T10:50:39Z</time></trkpt><trkpt lat="44.320615049406" lon="11.15603946803788"><ele>349.0</ele><time>2026-04-04T10:50:41Z</time></trkpt><trkpt lat="44.32053163727977" lon="11.156047309394221"><ele>349.0</ele><time>2026-04-04T10:50:42Z</time></trkpt><trkpt lat="44.32045177421991" lon="11.156084453607543"><ele>349.0</ele><time>2026-04-04T10:50:43Z</time></trkpt><trkpt lat="44.3203596062077" lon="11.156054055304773"><ele>349.0</ele><time>2026-04-04T10:50:44Z</time></trkpt><trkpt lat="44.32024505475891" lon="11.156143383061718"><ele>346.0</ele><time>2026-04-04T10:50:44.999Z</time></trkpt><trkpt lat="44.32014814046732" lon="11.156224486612212"><ele>343.0</ele><time>2026-04-04T10:50:45.999Z</time></trkpt><trkpt lat="44.32007289655651" lon="11.156308623578077"><ele>340.0</ele><time>2026-04-04T10:50:46.999Z</time></trkpt><trkpt lat="44.32000971345335" lon="11.156319196226995"><ele>337.0</ele><time>2026-04-04T10:50:47.999Z</time></trkpt><trkpt lat="44.319939934356036" lon="11.156308530018572"><ele>334.0</ele><time>2026-04-04T10:50:48.999Z</time></trkpt><trkpt lat="44.3199316163473" lon="11.156422696234015"><ele>331.0</ele><time>2026-04-04T10:50:50.999Z</time></trkpt><trkpt lat="44.31999744528932" lon="11.156501160521689"><ele>333.6</ele><time>2026-04-04T10:50:51.999Z</time></trkpt><trkpt lat="44.320037033892106" lon="11.156600295650438"><ele>336.20000000000005</ele><time>2026-04-04T10:50:52.999Z</time></trkpt><trkpt lat="44.32006993767597" lon="11.156724941113847"><ele>338.79999999999995</ele><time>2026-04-04T10:50:53.999Z</time></trkpt><trkpt lat="44.32011871674679" lon="11.156828280474233"><ele>341.4</ele><time>2026-04-04T10:50:54.999Z</time></trkpt><trkpt lat="44.32020910737714" lon="11.156933276267326"><ele>344.0</ele><time>2026-04-04T10:50:55.999Z</time></trkpt><trkpt lat="44.32031429251283" lon="11.15700364134782"><ele>344.0</ele><time>2026-04-04T10:50:56.999Z</time></trkpt><trkpt lat="44.320392611619496" lon="11.157106635659582"><ele>344.0</ele><time>2026-04-04T10:50:57.999Z</time></trkpt><trkpt lat="44.3204713113958" lon="11.157185342045805"><ele>344.0</ele><time>2026-04-04T10:50:58.999Z</time></trkpt><trkpt lat="44.320521226413135" lon="11.157270787797385"><ele>344.0</ele><time>2026-04-04T10:50:59.999Z</time></trkpt><trkpt lat="44.32056588013822" lon="11.157359520061219"><ele>344.0</ele><time>2026-04-04T10:51:00.999Z</time></trkpt><trkpt lat="44.32054461862426" lon="11.157468301559948"><ele>344.0</ele><time>2026-04-04T10:51:02.999Z</time></trkpt><trkpt lat="44.320402193469135" lon="11.15750963903808"><ele>344.0</ele><time>2026-04-04T10:51:04.999Z</time></trkpt><trkpt lat="44.32027928633783" lon="11.157523344084204"><ele>344.0</ele><time>2026-04-04T10:51:06.999Z</time></trkpt><trkpt lat="44.320206502179225" lon="11.157563434120911"><ele>344.0</ele><time>2026-04-04T10:51:07.999Z</time></trkpt><trkpt lat="44.3201259440644" lon="11.157590008148274"><ele>344.0</ele><time>2026-04-04T10:51:08.999Z</time></trkpt><trkpt lat="44.32005931353685" lon="11.15762521827719"><ele>344.0</ele><time>2026-04-04T10:51:09.999Z</time></trkpt><trkpt lat="44.31997317425508" lon="11.157675887890774"><ele>344.0</ele><time>2026-04-04T10:51:10.999Z</time></trkpt><trkpt lat="44.31990716394833" lon="11.157733170435515"><ele>344.0</ele><time>2026-04-04T10:51:11.999Z</time></trkpt><trkpt lat="44.31981475834716" lon="11.157772431807729"><ele>344.0</ele><time>2026-04-04T10:51:12.999Z</time></trkpt><trkpt lat="44.31972230862932" lon="11.157812940416244"><ele>344.0</ele><time>2026-04-04T10:51:13.999Z</time></trkpt><trkpt lat="44.31966497225126" lon="11.157880741021012"><ele>344.0</ele><time>2026-04-04T10:51:14.999Z</time></trkpt><trkpt lat="44.31961551694058" lon="11.157946457797198"><ele>344.0</ele><time>2026-04-04T10:51:15.999Z</time></trkpt><trkpt lat="44.31955504112537" lon="11.158002070253504"><ele>344.0</ele><time>2026-04-04T10:51:16.999Z</time></trkpt><trkpt lat="44.319491246339496" lon="11.158068238769827"><ele>345.0</ele><time>2026-04-04T10:51:17.999Z</time></trkpt><trkpt lat="44.319440366034954" lon="11.158154569938576"><ele>346.0</ele><time>2026-04-04T10:51:19Z</time></trkpt><trkpt lat="44.31937924964005" lon="11.158223520351607"><ele>347.0</ele><time>2026-04-04T10:51:20Z</time></trkpt><trkpt lat="44.319325688787245" lon="11.158337505833543"><ele>348.0</ele><time>2026-04-04T10:51:21Z</time></trkpt><trkpt lat="44.31926775949712" lon="11.158449544739126"><ele>349.0</ele><time>2026-04-04T10:51:22Z</time></trkpt><trkpt lat="44.319230684454084" lon="11.158541142768659"><ele>350.0</ele><time>2026-04-04T10:51:23Z</time></trkpt><trkpt lat="44.31919327196242" lon="11.158638882810978"><ele>350.0</ele><time>2026-04-04T10:51:24Z</time></trkpt><trkpt lat="44.31912983243605" lon="11.158722074560027"><ele>350.0</ele><time>2026-04-04T10:51:25Z</time></trkpt><trkpt lat="44.31907625326058" lon="11.158818385699744"><ele>350.0</ele><time>2026-04-04T10:51:26Z</time></trkpt><trkpt lat="44.318980755760414" lon="11.158825491169898"><ele>350.0</ele><time>2026-04-04T10:51:27Z</time></trkpt><trkpt lat="44.31886783786067" lon="11.158824133976028"><ele>350.0</ele><time>2026-04-04T10:51:28Z</time></trkpt><trkpt lat="44.3187932120184" lon="11.158868043863684"><ele>348.5</ele><time>2026-04-04T10:51:29Z</time></trkpt><trkpt lat="44.318738328907116" lon="11.15893219767897"><ele>347.0</ele><time>2026-04-04T10:51:30Z</time></trkpt><trkpt lat="44.31871882562855" lon="11.15911258454175"><ele>345.5</ele><time>2026-04-04T10:51:32Z</time></trkpt><trkpt lat="44.31872733280241" lon="11.159230849279023"><ele>344.0</ele><time>2026-04-04T10:51:33Z</time></trkpt><trkpt lat="44.31871314610412" lon="11.159334002829688"><ele>342.5</ele><time>2026-04-04T10:51:34Z</time></trkpt><trkpt lat="44.318674576260506" lon="11.159418796111813"><ele>341.0</ele><time>2026-04-04T10:51:35Z</time></trkpt><trkpt lat="44.31862798991282" lon="11.159528922262709"><ele>341.0</ele><time>2026-04-04T10:51:36Z</time></trkpt><trkpt lat="44.318575740112635" lon="11.159678171863561"><ele>341.0</ele><time>2026-04-04T10:51:37Z</time></trkpt><trkpt lat="44.31853524019448" lon="11.159819606154443"><ele>341.0</ele><time>2026-04-04T10:51:38Z</time></trkpt><trkpt lat="44.318469503276305" lon="11.159978872558801"><ele>341.0</ele><time>2026-04-04T10:51:39Z</time></trkpt><trkpt lat="44.31842215041264" lon="11.16015325934366"><ele>341.6</ele><time>2026-04-04T10:51:40Z</time></trkpt><trkpt lat="44.318386333746396" lon="11.160330963519707"><ele>342.20000000000005</ele><time>2026-04-04T10:51:41Z</time></trkpt><trkpt lat="44.3183482401033" lon="11.160496976314764"><ele>342.79999999999995</ele><time>2026-04-04T10:51:42Z</time></trkpt><trkpt lat="44.318342119846314" lon="11.16061035797597"><ele>343.4</ele><time>2026-04-04T10:51:43Z</time></trkpt><trkpt lat="44.318363110261004" lon="11.160724971703477"><ele>344.0</ele><time>2026-04-04T10:51:46Z</time></trkpt><trkpt lat="44.31843089144959" lon="11.160738989767259"><ele>344.0</ele><time>2026-04-04T10:51:48Z</time></trkpt><trkpt lat="44.31850406691604" lon="11.160682497085576"><ele>344.0</ele><time>2026-04-04T10:51:50Z</time></trkpt><trkpt lat="44.3185689037451" lon="11.160681595141426"><ele>344.0</ele><time>2026-04-04T10:51:52Z</time></trkpt><trkpt lat="44.3185993735421" lon="11.160760356129174"><ele>344.0</ele><time>2026-04-04T10:51:54Z</time></trkpt><trkpt lat="44.31862345496125" lon="11.160852581586669"><ele>344.0</ele><time>2026-04-04T10:51:58Z</time></trkpt><trkpt lat="44.31868887040516" lon="11.160935253348613"><ele>344.0</ele><time>2026-04-04T10:52:04Z</time></trkpt><trkpt lat="44.31878539109158" lon="11.160892912886732"><ele>344.0</ele><time>2026-04-04T10:52:10Z</time></trkpt><trkpt lat="44.318859688245645" lon="11.160754073655388"><ele>344.0</ele><time>2026-04-04T10:52:15Z</time></trkpt><trkpt lat="44.31889859412508" lon="11.160679594131706"><ele>344.0</ele><time>2026-04-04T10:52:16Z</time></trkpt><trkpt lat="44.31893954352186" lon="11.16057608098041"><ele>344.0</ele><time>2026-04-04T10:52:20Z</time></trkpt><trkpt lat="44.31891552959052" lon="11.16048416384218"><ele>344.0</ele><time>2026-04-04T10:52:23Z</time></trkpt><trkpt lat="44.31885521537031" lon="11.160569005895724"><ele>344.0</ele><time>2026-04-04T10:52:25Z</time></trkpt><trkpt lat="44.31878518847661" lon="11.160618519722641"><ele>344.0</ele><time>2026-04-04T10:52:28Z</time></trkpt><trkpt lat="44.31875464107145" lon="11.160719176569359"><ele>344.0</ele><time>2026-04-04T10:52:30Z</time></trkpt><trkpt lat="44.318696906027135" lon="11.160669524840362"><ele>344.0</ele><time>2026-04-04T10:52:34Z</time></trkpt><trkpt lat="44.31860275150112" lon="11.160612259380228"><ele>344.0</ele><time>2026-04-04T10:52:35Z</time></trkpt><trkpt lat="44.31852106134587" lon="11.160611961644854"><ele>344.0</ele><time>2026-04-04T10:52:36Z</time></trkpt><trkpt lat="44.3184436438526" lon="11.160731142615235"><ele>344.0</ele><time>2026-04-04T10:52:38Z</time></trkpt><trkpt lat="44.31844323486596" lon="11.160821889159903"><ele>344.79999999999995</ele><time>2026-04-04T10:52:39Z</time></trkpt><trkpt lat="44.31845486328934" lon="11.160989643737672"><ele>345.59999999999997</ele><time>2026-04-04T10:52:41Z</time></trkpt><trkpt lat="44.31846650097791" lon="11.161077572515511"><ele>346.4</ele><time>2026-04-04T10:52:42Z</time></trkpt><trkpt lat="44.31853301436165" lon="11.161161899562272"><ele>347.2</ele><time>2026-04-04T10:52:43Z</time></trkpt><trkpt lat="44.31857054366168" lon="11.161329261526461"><ele>348.0</ele><time>2026-04-04T10:52:45Z</time></trkpt><trkpt lat="44.31859236824629" lon="11.161415319107302"><ele>348.0</ele><time>2026-04-04T10:52:46Z</time></trkpt><trkpt lat="44.31863399739449" lon="11.16153901321528"><ele>348.0</ele><time>2026-04-04T10:52:48Z</time></trkpt><trkpt lat="44.318308281679855" lon="11.161553899698946"><ele>348.0</ele><time>2026-04-04T10:52:57Z</time></trkpt><trkpt lat="44.31823370605816" lon="11.161575197726009"><ele>348.0</ele><time>2026-04-04T10:52:57.999Z</time></trkpt><trkpt lat="44.31814390197526" lon="11.161634022263694"><ele>348.0</ele><time>2026-04-04T10:52:58.999Z</time></trkpt><trkpt lat="44.318055842761495" lon="11.161716673237462"><ele>348.0</ele><time>2026-04-04T10:52:59.999Z</time></trkpt><trkpt lat="44.31798443627528" lon="11.161770329960701"><ele>348.0</ele><time>2026-04-04T10:53:00.999Z</time></trkpt><trkpt lat="44.31785932389186" lon="11.161755701052577"><ele>348.0</ele><time>2026-04-04T10:53:02.999Z</time></trkpt><trkpt lat="44.31778009718022" lon="11.161744460325567"><ele>344.8333333333333</ele><time>2026-04-04T10:53:03.999Z</time></trkpt><trkpt lat="44.31771545084872" lon="11.161698754199588"><ele>341.6666666666667</ele><time>2026-04-04T10:53:04.999Z</time></trkpt><trkpt lat="44.31760126068193" lon="11.161668213755032"><ele>338.5</ele><time>2026-04-04T10:53:06.999Z</time></trkpt><trkpt lat="44.31748712995851" lon="11.161692295997394"><ele>335.33333333333337</ele><time>2026-04-04T10:53:08.999Z</time></trkpt><trkpt lat="44.31742262052452" lon="11.161719613153576"><ele>332.1666666666667</ele><time>2026-04-04T10:53:09.999Z</time></trkpt><trkpt lat="44.31737049848099" lon="11.161641574395558"><ele>329.0</ele><time>2026-04-04T10:53:10.999Z</time></trkpt><trkpt lat="44.31729833763181" lon="11.161552370072513"><ele>324.59999999999997</ele><time>2026-04-04T10:53:12.999Z</time></trkpt><trkpt lat="44.31718434003067" lon="11.161515270010785"><ele>320.2</ele><time>2026-04-04T10:53:14.999Z</time></trkpt><trkpt lat="44.31708940821073" lon="11.161541807673194"><ele>315.79999999999995</ele><time>2026-04-04T10:53:16.999Z</time></trkpt><trkpt lat="44.316976522220244" lon="11.161510812466588"><ele>311.4</ele><time>2026-04-04T10:53:18.999Z</time></trkpt><trkpt lat="44.31688894759875" lon="11.161462995131751"><ele>307.0</ele><time>2026-04-04T10:53:20.999Z</time></trkpt><trkpt lat="44.31682372793684" lon="11.161422763274306"><ele>305.6</ele><time>2026-04-04T10:53:22.999Z</time></trkpt><trkpt lat="44.31673461871488" lon="11.161385963674839"><ele>304.2</ele><time>2026-04-04T10:53:25Z</time></trkpt><trkpt lat="44.316626362278775" lon="11.161384056478838"><ele>302.8</ele><time>2026-04-04T10:53:27Z</time></trkpt><trkpt lat="44.316559735995625" lon="11.161240336873096"><ele>301.4</ele><time>2026-04-04T10:53:29Z</time></trkpt><trkpt lat="44.3165467177571" lon="11.161141786857268"><ele>300.0</ele><time>2026-04-04T10:53:30Z</time></trkpt><trkpt lat="44.31652252892288" lon="11.16104876650388"><ele>300.0</ele><time>2026-04-04T10:53:31Z</time></trkpt><trkpt lat="44.3164789719188" lon="11.16094967539968"><ele>300.0</ele><time>2026-04-04T10:53:32Z</time></trkpt><trkpt lat="44.31642725444161" lon="11.160879460682628"><ele>300.0</ele><time>2026-04-04T10:53:33Z</time></trkpt><trkpt lat="44.31634805981661" lon="11.160730631800375"><ele>300.0</ele><time>2026-04-04T10:53:35Z</time></trkpt><trkpt lat="44.31631624315056" lon="11.16059301909061"><ele>300.0</ele><time>2026-04-04T10:53:37Z</time></trkpt><trkpt lat="44.31633958331996" lon="11.16045545409323"><ele>293.3333333333333</ele><time>2026-04-04T10:53:39Z</time></trkpt><trkpt lat="44.31626369708281" lon="11.160423153857797"><ele>286.6666666666667</ele><time>2026-04-04T10:53:41Z</time></trkpt><trkpt lat="44.31622862792863" lon="11.1604983056791"><ele>280.0</ele><time>2026-04-04T10:53:42Z</time></trkpt><trkpt lat="44.31617768952645" lon="11.160580018197084"><ele>273.33333333333337</ele><time>2026-04-04T10:53:43Z</time></trkpt><trkpt lat="44.31616248452236" lon="11.160721102636694"><ele>266.6666666666667</ele><time>2026-04-04T10:53:45Z</time></trkpt><trkpt lat="44.31616614817575" lon="11.160893939580456"><ele>260.0</ele><time>2026-04-04T10:53:47Z</time></trkpt><trkpt lat="44.31619353930305" lon="11.161076209379813"><ele>260.0</ele><time>2026-04-04T10:53:49Z</time></trkpt><trkpt lat="44.31614451909552" lon="11.161254426574583"><ele>260.0</ele><time>2026-04-04T10:53:50Z</time></trkpt><trkpt lat="44.31611969322258" lon="11.161423689203916"><ele>260.0</ele><time>2026-04-04T10:53:51Z</time></trkpt><trkpt lat="44.31608559699466" lon="11.161605774879575"><ele>260.0</ele><time>2026-04-04T10:53:52Z</time></trkpt><trkpt lat="44.31606117932466" lon="11.161688621277374"><ele>261.0</ele><time>2026-04-04T10:53:53Z</time></trkpt><trkpt lat="44.31600459647846" lon="11.16177704103568"><ele>262.0</ele><time>2026-04-04T10:53:54Z</time></trkpt><trkpt lat="44.31597578456257" lon="11.161878308670843"><ele>263.0</ele><time>2026-04-04T10:53:55Z</time></trkpt><trkpt lat="44.31594983760202" lon="11.161979543304051"><ele>264.0</ele><time>2026-04-04T10:53:56Z</time></trkpt><trkpt lat="44.315924531666006" lon="11.162133626128226"><ele>265.0</ele><time>2026-04-04T10:53:58Z</time></trkpt><trkpt lat="44.31589912547671" lon="11.162246066322066"><ele>266.0</ele><time>2026-04-04T10:54:00Z</time></trkpt><trkpt lat="44.315822392207615" lon="11.162358524885061"><ele>265.5</ele><time>2026-04-04T10:54:02Z</time></trkpt><trkpt lat="44.315739225216376" lon="11.162389984770773"><ele>265.0</ele><time>2026-04-04T10:54:07Z</time></trkpt><trkpt lat="44.31566520403265" lon="11.162390441416202"><ele>264.5</ele><time>2026-04-04T10:54:11Z</time></trkpt><trkpt lat="44.31555339741694" lon="11.16234198995761"><ele>264.0</ele><time>2026-04-04T10:54:14Z</time></trkpt><trkpt lat="44.31549646899883" lon="11.162254536278395"><ele>263.5</ele><time>2026-04-04T10:54:17Z</time></trkpt><trkpt lat="44.31542728861908" lon="11.162220652083969"><ele>263.0</ele><time>2026-04-04T10:54:19Z</time></trkpt><trkpt lat="44.31534475277216" lon="11.162167688337536"><ele>259.83333333333337</ele><time>2026-04-04T10:54:20Z</time></trkpt><trkpt lat="44.315263096046145" lon="11.162131797236372"><ele>256.6666666666667</ele><time>2026-04-04T10:54:21Z</time></trkpt><trkpt lat="44.31518632805311" lon="11.162045464018586"><ele>253.5</ele><time>2026-04-04T10:54:22Z</time></trkpt><trkpt lat="44.315133535913866" lon="11.161994983706618"><ele>250.33333333333331</ele><time>2026-04-04T10:54:23Z</time></trkpt><trkpt lat="44.31507364697575" lon="11.161918810308048"><ele>247.16666666666666</ele><time>2026-04-04T10:54:25Z</time></trkpt><trkpt lat="44.315000050490575" lon="11.161803513874464"><ele>244.0</ele><time>2026-04-04T10:54:28Z</time></trkpt><trkpt lat="44.31495233080289" lon="11.161702724284817"><ele>244.0</ele><time>2026-04-04T10:54:30Z</time></trkpt><trkpt lat="44.314894288232125" lon="11.161617541410031"><ele>243.99999999999997</ele><time>2026-04-04T10:54:32Z</time></trkpt><trkpt lat="44.31487208515272" lon="11.161703856099983"><ele>243.99999999999997</ele><time>2026-04-04T10:54:48Z</time></trkpt><trkpt lat="44.31493711407797" lon="11.161804190700241"><ele>244.0</ele><time>2026-04-04T10:55:00.999Z</time></trkpt><trkpt lat="44.31497799204035" lon="11.161887999807831"><ele>244.0</ele><time>2026-04-04T10:55:02.999Z</time></trkpt><trkpt lat="44.31507777548449" lon="11.162007488407962"><ele>243.99999999999997</ele><time>2026-04-04T10:55:05.999Z</time></trkpt><trkpt lat="44.31512818924079" lon="11.162078035459393"><ele>244.0</ele><time>2026-04-04T10:55:08.999Z</time></trkpt><trkpt lat="44.31515248215872" lon="11.16217062762446"><ele>244.0</ele><time>2026-04-04T10:55:11.999Z</time></trkpt><trkpt lat="44.31516285456792" lon="11.162259847846206"><ele>244.0</ele><time>2026-04-04T10:55:13.999Z</time></trkpt><trkpt lat="44.31517932700047" lon="11.162388104223307"><ele>243.99999999999997</ele><time>2026-04-04T10:55:15.999Z</time></trkpt><trkpt lat="44.31520234548877" lon="11.16249399703905"><ele>244.0</ele><time>2026-04-04T10:55:17.999Z</time></trkpt><trkpt lat="44.31524451433986" lon="11.16261542688205"><ele>242.49999999999997</ele><time>2026-04-04T10:55:19.999Z</time></trkpt><trkpt lat="44.3152809404684" lon="11.162707563619792"><ele>241.0</ele><time>2026-04-04T10:55:22.999Z</time></trkpt><trkpt lat="44.31534107682024" lon="11.162777162842938"><ele>239.5</ele><time>2026-04-04T10:55:23.999Z</time></trkpt><trkpt lat="44.31538932772518" lon="11.162896997106209"><ele>238.0</ele><time>2026-04-04T10:55:28.999Z</time></trkpt><trkpt lat="44.31545653677132" lon="11.162930907129093"><ele>236.49999999999997</ele><time>2026-04-04T10:55:31Z</time></trkpt><trkpt lat="44.31552974691573" lon="11.163015457167322"><ele>235.0</ele><time>2026-04-04T10:55:33Z</time></trkpt><trkpt lat="44.315600771594994" lon="11.163102634651882"><ele>235.99999999999997</ele><time>2026-04-04T10:55:39Z</time></trkpt><trkpt lat="44.315687928565296" lon="11.163144541244868"><ele>237.0</ele><time>2026-04-04T10:55:42Z</time></trkpt><trkpt lat="44.315749575714186" lon="11.1632147811317"><ele>238.0</ele><time>2026-04-04T10:55:44Z</time></trkpt><trkpt lat="44.31569926110332" lon="11.16327101792866"><ele>239.0</ele><time>2026-04-04T10:55:45Z</time></trkpt><trkpt lat="44.31564338938163" lon="11.163403588936738"><ele>239.99999999999997</ele><time>2026-04-04T10:55:47Z</time></trkpt><trkpt lat="44.31559447664057" lon="11.163488108738026"><ele>241.0</ele><time>2026-04-04T10:55:48Z</time></trkpt><trkpt lat="44.31555922755434" lon="11.163584044908244"><ele>236.99999999999997</ele><time>2026-04-04T10:55:49Z</time></trkpt><trkpt lat="44.31552049844688" lon="11.163655317686823"><ele>233.0</ele><time>2026-04-04T10:55:50Z</time></trkpt><trkpt lat="44.31546378849264" lon="11.163700098161687"><ele>229.0</ele><time>2026-04-04T10:55:51Z</time></trkpt><trkpt lat="44.315354284923046" lon="11.163594419918132"><ele>225.0</ele><time>2026-04-04T10:55:53Z</time></trkpt><trkpt lat="44.315319437308446" lon="11.16348064625652"><ele>220.99999999999997</ele><time>2026-04-04T10:55:56Z</time></trkpt><trkpt lat="44.315270957134395" lon="11.163416291204797"><ele>217.0</ele><time>2026-04-04T10:55:58Z</time></trkpt><trkpt lat="44.31518840859545" lon="11.163375685264844"><ele>216.99999999999997</ele><time>2026-04-04T10:56:00Z</time></trkpt><trkpt lat="44.31511449736024" lon="11.163362736920401"><ele>217.0</ele><time>2026-04-04T10:56:02Z</time></trkpt><trkpt lat="44.31503673238761" lon="11.163327496325362"><ele>217.0</ele><time>2026-04-04T10:56:03Z</time></trkpt><trkpt lat="44.314995822260464" lon="11.163222431328911"><ele>217.0</ele><time>2026-04-04T10:56:05Z</time></trkpt><trkpt lat="44.314922193051544" lon="11.163232775059416"><ele>216.99999999999997</ele><time>2026-04-04T10:56:07Z</time></trkpt><trkpt lat="44.314847636568395" lon="11.163237612715982"><ele>217.0</ele><time>2026-04-04T10:56:09Z</time></trkpt><trkpt lat="44.314764269640385" lon="11.163352141785506"><ele>214.99999999999997</ele><time>2026-04-04T10:56:11Z</time></trkpt><trkpt lat="44.314700254146985" lon="11.16338793968906"><ele>213.0</ele><time>2026-04-04T10:56:13Z</time></trkpt><trkpt lat="44.31468216155745" lon="11.163281992121117"><ele>211.0</ele><time>2026-04-04T10:56:16Z</time></trkpt><trkpt lat="44.31460259809239" lon="11.163218474289454"><ele>209.0</ele><time>2026-04-04T10:56:20Z</time></trkpt><trkpt lat="44.31449889300284" lon="11.163188802276625"><ele>206.99999999999997</ele><time>2026-04-04T10:56:23Z</time></trkpt><trkpt lat="44.31453818880126" lon="11.163086521313549"><ele>205.0</ele><time>2026-04-04T10:56:25Z</time></trkpt><trkpt lat="44.31453395247376" lon="11.162928036478679"><ele>204.99999999999997</ele><time>2026-04-04T10:56:29Z</time></trkpt><trkpt lat="44.31449499313513" lon="11.163036788428078"><ele>205.0</ele><time>2026-04-04T10:56:32Z</time></trkpt><trkpt lat="44.31452583939153" lon="11.163120065536575"><ele>205.0</ele><time>2026-04-04T10:56:34Z</time></trkpt><trkpt lat="44.31456837055863" lon="11.163254366449436"><ele>205.0</ele><time>2026-04-04T10:56:37Z</time></trkpt><trkpt lat="44.31462030777535" lon="11.163344402192527"><ele>204.99999999999997</ele><time>2026-04-04T10:56:39Z</time></trkpt><trkpt lat="44.31459762971012" lon="11.16344822227512"><ele>205.0</ele><time>2026-04-04T10:56:41Z</time></trkpt><trkpt lat="44.31469408227247" lon="11.163499726463062"><ele>204.83333333333331</ele><time>2026-04-04T10:56:43Z</time></trkpt><trkpt lat="44.31468022912381" lon="11.163588419820051"><ele>204.66666666666666</ele><time>2026-04-04T10:56:45Z</time></trkpt><trkpt lat="44.31469898304687" lon="11.16370756594972"><ele>204.5</ele><time>2026-04-04T10:56:47Z</time></trkpt><trkpt lat="44.31470113187339" lon="11.163814168723214"><ele>204.33333333333331</ele><time>2026-04-04T10:56:48Z</time></trkpt><trkpt lat="44.31472575205369" lon="11.163915588187585"><ele>204.16666666666666</ele><time>2026-04-04T10:56:49Z</time></trkpt><trkpt lat="44.31474613273618" lon="11.164039061385168"><ele>204.0</ele><time>2026-04-04T10:56:50Z</time></trkpt><trkpt lat="44.31472496838986" lon="11.164157693148196"><ele>200.66666666666666</ele><time>2026-04-04T10:56:51Z</time></trkpt><trkpt lat="44.31467228942455" lon="11.16431274898842"><ele>197.33333333333334</ele><time>2026-04-04T10:56:53Z</time></trkpt><trkpt lat="44.31458788364854" lon="11.1642650064808"><ele>194.0</ele><time>2026-04-04T10:56:54Z</time></trkpt><trkpt lat="44.31450211383713" lon="11.164217750661868"><ele>190.66666666666669</ele><time>2026-04-04T10:56:56Z</time></trkpt><trkpt lat="44.314471863488144" lon="11.164311250987547"><ele>187.33333333333334</ele><time>2026-04-04T10:57:05Z</time></trkpt><trkpt lat="44.314413784767225" lon="11.164362486184556"><ele>184.0</ele><time>2026-04-04T10:57:27.999Z</time></trkpt><trkpt lat="44.3143390746852" lon="11.1643708410253"><ele>184.0</ele><time>2026-04-04T10:57:29.999Z</time></trkpt><trkpt lat="44.314276196757774" lon="11.164398054090812"><ele>184.0</ele><time>2026-04-04T10:57:30.999Z</time></trkpt><trkpt lat="44.31417744774247" lon="11.164385954903894"><ele>184.0</ele><time>2026-04-04T10:57:32.999Z</time></trkpt><trkpt lat="44.31411204046448" lon="11.164351836993447"><ele>184.0</ele><time>2026-04-04T10:57:33.999Z</time></trkpt><trkpt lat="44.314041132088825" lon="11.164326120328033"><ele>184.0</ele><time>2026-04-04T10:57:34.999Z</time></trkpt><trkpt lat="44.31396424330424" lon="11.164283582219438"><ele>184.0</ele><time>2026-04-04T10:57:37Z</time></trkpt><trkpt lat="44.31387222251397" lon="11.164325567921"><ele>180.79999999999998</ele><time>2026-04-04T10:57:40Z</time></trkpt><trkpt lat="44.31380386982376" lon="11.164388151672785"><ele>177.6</ele><time>2026-04-04T10:57:41Z</time></trkpt><trkpt lat="44.3136938932074" lon="11.164384781985179"><ele>174.4</ele><time>2026-04-04T10:57:42Z</time></trkpt><trkpt lat="44.31362628015615" lon="11.16440884450444"><ele>171.2</ele><time>2026-04-04T10:57:43Z</time></trkpt><trkpt lat="44.313525372841916" lon="11.164371470138338"><ele>168.0</ele><time>2026-04-04T10:57:45Z</time></trkpt><trkpt lat="44.31341807817711" lon="11.164354708542954"><ele>168.0</ele><time>2026-04-04T10:57:47Z</time></trkpt><trkpt lat="44.31329615321285" lon="11.164335661169563"><ele>168.0</ele><time>2026-04-04T10:57:49Z</time></trkpt><trkpt lat="44.31345684354991" lon="11.164370915899424"><ele>168.0</ele><time>2026-04-04T10:57:50Z</time></trkpt><trkpt lat="44.313404807762474" lon="11.164263730566383"><ele>168.0</ele><time>2026-04-04T10:57:52Z</time></trkpt><trkpt lat="44.313359077717806" lon="11.164173880949742"><ele>170.0</ele><time>2026-04-04T10:57:53Z</time></trkpt><trkpt lat="44.31326882904544" lon="11.163890016412818"><ele>172.0</ele><time>2026-04-04T10:57:55Z</time></trkpt><trkpt lat="44.31318574334346" lon="11.163703007491899"><ele>174.0</ele><time>2026-04-04T10:57:56Z</time></trkpt><trkpt lat="44.31314185482225" lon="11.163599257040946"><ele>174.0</ele><time>2026-04-04T10:57:57Z</time></trkpt><trkpt lat="44.31308164116985" lon="11.163492005831966"><ele>174.0</ele><time>2026-04-04T10:57:58Z</time></trkpt><trkpt lat="44.313049985978616" lon="11.16338929584082"><ele>174.0</ele><time>2026-04-04T10:57:59Z</time></trkpt><trkpt lat="44.31302203955633" lon="11.163282301979514"><ele>174.0</ele><time>2026-04-04T10:58:00Z</time></trkpt><trkpt lat="44.31298741764281" lon="11.16318195054644"><ele>174.0</ele><time>2026-04-04T10:58:01Z</time></trkpt><trkpt lat="44.31284455151943" lon="11.163537525869492"><ele>169.5</ele><time>2026-04-04T10:58:04Z</time></trkpt><trkpt lat="44.31278928260392" lon="11.163660632000093"><ele>165.0</ele><time>2026-04-04T10:58:06Z</time></trkpt><trkpt lat="44.31282684145714" lon="11.163798650557125"><ele>160.5</ele><time>2026-04-04T10:58:08Z</time></trkpt><trkpt lat="44.31285766778965" lon="11.163917416002247"><ele>156.0</ele><time>2026-04-04T10:58:10Z</time></trkpt><trkpt lat="44.312683909059764" lon="11.163975001311062"><ele>155.66666666666666</ele><time>2026-04-04T10:58:11Z</time></trkpt><trkpt lat="44.312618606402744" lon="11.164063083573357"><ele>155.33333333333331</ele><time>2026-04-04T10:58:13Z</time></trkpt><trkpt lat="44.31251242346023" lon="11.164206306641407"><ele>155.0</ele><time>2026-04-04T10:58:15Z</time></trkpt><trkpt lat="44.31283590719122" lon="11.16426130837697"><ele>155.0</ele><time>2026-04-04T10:58:16Z</time></trkpt><trkpt lat="44.31229926615305" lon="11.164541751662899"><ele>155.0</ele><time>2026-04-04T10:58:17Z</time></trkpt><trkpt lat="44.31227473887238" lon="11.16466510735733"><ele>155.0</ele><time>2026-04-04T10:58:19Z</time></trkpt><trkpt lat="44.31231597796607" lon="11.164820625951132"><ele>155.0</ele><time>2026-04-04T10:58:21Z</time></trkpt><trkpt lat="44.31233884895766" lon="11.164925807557301"><ele>155.0</ele><time>2026-04-04T10:58:22Z</time></trkpt><trkpt lat="44.31240223679195" lon="11.165027957431029"><ele>155.0</ele><time>2026-04-04T10:58:24Z</time></trkpt><trkpt lat="44.312462917081646" lon="11.16506290447999"><ele>155.0</ele><time>2026-04-04T10:58:25Z</time></trkpt><trkpt lat="44.312575312977124" lon="11.1650488024047"><ele>155.0</ele><time>2026-04-04T10:58:26Z</time></trkpt><trkpt lat="44.31266560469495" lon="11.165001148005468"><ele>155.0</ele><time>2026-04-04T10:58:27Z</time></trkpt><trkpt lat="44.31272049910949" lon="11.164946863494237"><ele>155.0</ele><time>2026-04-04T10:58:28Z</time></trkpt><trkpt lat="44.31280341847774" lon="11.164883308966305"><ele>155.0</ele><time>2026-04-04T10:58:30Z</time></trkpt><trkpt lat="44.3128778488349" lon="11.164701490740978"><ele>155.0</ele><time>2026-04-04T10:58:33Z</time></trkpt><trkpt lat="44.31284171429686" lon="11.164590270934713"><ele>155.0</ele><time>2026-04-04T10:58:34Z</time></trkpt><trkpt lat="44.312766057851235" lon="11.164479506658987"><ele>155.0</ele><time>2026-04-04T10:58:35Z</time></trkpt><trkpt lat="44.312685931810385" lon="11.164374943799237"><ele>155.0</ele><time>2026-04-04T10:58:36Z</time></trkpt><trkpt lat="44.31261092863191" lon="11.164265241718672"><ele>155.0</ele><time>2026-04-04T10:58:37Z</time></trkpt><trkpt lat="44.3125329894173" lon="11.164166115705646"><ele>155.0</ele><time>2026-04-04T10:58:38Z</time></trkpt><trkpt lat="44.31245419232007" lon="11.164053684759704"><ele>155.0</ele><time>2026-04-04T10:58:39Z</time></trkpt><trkpt lat="44.31237329632088" lon="11.163968969926474"><ele>155.0</ele><time>2026-04-04T10:58:40Z</time></trkpt><trkpt lat="44.312310072411535" lon="11.16389087496334"><ele>155.0</ele><time>2026-04-04T10:58:41Z</time></trkpt><trkpt lat="44.3122495758781" lon="11.163795855328942"><ele>155.0</ele><time>2026-04-04T10:58:42Z</time></trkpt><trkpt lat="44.31217624361738" lon="11.16370263508485"><ele>155.33333333333331</ele><time>2026-04-04T10:58:43Z</time></trkpt><trkpt lat="44.31210909578161" lon="11.163617878801453"><ele>155.66666666666666</ele><time>2026-04-04T10:58:44Z</time></trkpt><trkpt lat="44.312044017248574" lon="11.163536702138778"><ele>156.0</ele><time>2026-04-04T10:58:45Z</time></trkpt><trkpt lat="44.311983415802686" lon="11.163461110052532"><ele>156.33333333333334</ele><time>2026-04-04T10:58:46Z</time></trkpt><trkpt lat="44.31193279896918" lon="11.16339653726233"><ele>156.66666666666669</ele><time>2026-04-04T10:58:47Z</time></trkpt><trkpt lat="44.31185020260725" lon="11.163292225415672"><ele>157.0</ele><time>2026-04-04T10:58:49Z</time></trkpt><trkpt lat="44.311814873517136" lon="11.163213257664806"><ele>157.0</ele><time>2026-04-04T10:58:51Z</time></trkpt><trkpt lat="44.31176067695778" lon="11.163142356316172"><ele>157.0</ele><time>2026-04-04T10:58:53Z</time></trkpt><trkpt lat="44.31187240532956" lon="11.162827000638982"><ele>157.0</ele><time>2026-04-04T10:58:54Z</time></trkpt><trkpt lat="44.311765448001495" lon="11.162695056316657"><ele>156.99999999999997</ele><time>2026-04-04T10:58:56Z</time></trkpt><trkpt lat="44.3117189317494" lon="11.16260008132593"><ele>157.0</ele><time>2026-04-04T10:58:57Z</time></trkpt><trkpt lat="44.31167848908263" lon="11.1625043726825"><ele>157.0</ele><time>2026-04-04T10:58:58Z</time></trkpt><trkpt lat="44.31164697187412" lon="11.162412865012536"><ele>157.0</ele><time>2026-04-04T10:58:59Z</time></trkpt><trkpt lat="44.31164235991384" lon="11.162316185527823"><ele>157.0</ele><time>2026-04-04T10:59:00Z</time></trkpt><trkpt lat="44.31162211748699" lon="11.162217244596576"><ele>156.99999999999997</ele><time>2026-04-04T10:59:01Z</time></trkpt><trkpt lat="44.311604283973914" lon="11.16212593937792"><ele>157.0</ele><time>2026-04-04T10:59:02Z</time></trkpt><trkpt lat="44.3115835144878" lon="11.162016542987473"><ele>157.0</ele><time>2026-04-04T10:59:03Z</time></trkpt><trkpt lat="44.311551991568265" lon="11.161927865584987"><ele>157.0</ele><time>2026-04-04T10:59:04Z</time></trkpt><trkpt lat="44.311524526876994" lon="11.16176727535042"><ele>157.0</ele><time>2026-04-04T10:59:05.999Z</time></trkpt><trkpt lat="44.31151148064931" lon="11.161646379365939"><ele>157.0</ele><time>2026-04-04T10:59:07.999Z</time></trkpt><trkpt lat="44.31148442027649" lon="11.161511151174889"><ele>157.0</ele><time>2026-04-04T10:59:09.999Z</time></trkpt><trkpt lat="44.31145073907302" lon="11.161430352157968"><ele>157.0</ele><time>2026-04-04T10:59:10.999Z</time></trkpt><trkpt lat="44.31142746286087" lon="11.161279402681323"><ele>158.0</ele><time>2026-04-04T10:59:12.999Z</time></trkpt><trkpt lat="44.3114002707499" lon="11.161160344513634"><ele>159.0</ele><time>2026-04-04T10:59:14.999Z</time></trkpt><trkpt lat="44.311377103349685" lon="11.161066072762322"><ele>160.0</ele><time>2026-04-04T10:59:16.999Z</time></trkpt><trkpt lat="44.31137205706937" lon="11.160961374227186"><ele>161.0</ele><time>2026-04-04T10:59:25.999Z</time></trkpt><trkpt lat="44.31111628234827" lon="11.160790217686097"><ele>160.60000000000002</ele><time>2026-04-04T10:59:32.999Z</time></trkpt><trkpt lat="44.31103095410619" lon="11.160664040934288"><ele>160.20000000000002</ele><time>2026-04-04T10:59:34.999Z</time></trkpt><trkpt lat="44.31098304368938" lon="11.160590811526406"><ele>159.8</ele><time>2026-04-04T10:59:35.999Z</time></trkpt><trkpt lat="44.31093495551569" lon="11.160526260706327"><ele>159.4</ele><time>2026-04-04T10:59:36.999Z</time></trkpt><trkpt lat="44.31086516801918" lon="11.16042829518646"><ele>159.0</ele><time>2026-04-04T10:59:38.999Z</time></trkpt><trkpt lat="44.31076099197826" lon="11.160430808571768"><ele>159.0</ele><time>2026-04-04T10:59:40.999Z</time></trkpt><trkpt lat="44.31079661309781" lon="11.160508080364169"><ele>159.0</ele><time>2026-04-04T10:59:45Z</time></trkpt><trkpt lat="44.31088626470078" lon="11.160654283320634"><ele>159.0</ele><time>2026-04-04T10:59:48Z</time></trkpt><trkpt lat="44.31092333430017" lon="11.16072774835105"><ele>159.0</ele><time>2026-04-04T10:59:49Z</time></trkpt><trkpt lat="44.31097365286562" lon="11.160845268773441"><ele>159.0</ele><time>2026-04-04T10:59:51Z</time></trkpt><trkpt lat="44.31105142811899" lon="11.160957012722058"><ele>159.33333333333334</ele><time>2026-04-04T10:59:53Z</time></trkpt><trkpt lat="44.31116541797189" lon="11.161044576481011"><ele>159.66666666666666</ele><time>2026-04-04T10:59:55Z</time></trkpt><trkpt lat="44.31124013785815" lon="11.16102786892869"><ele>160.0</ele><time>2026-04-04T10:59:56Z</time></trkpt><trkpt lat="44.31130699305491" lon="11.161019003539922"><ele>160.33333333333331</ele><time>2026-04-04T10:59:57Z</time></trkpt><trkpt lat="44.31136134941994" lon="11.161068967953447"><ele>160.66666666666666</ele><time>2026-04-04T10:59:59Z</time></trkpt><trkpt lat="44.31140159264455" lon="11.161165630554443"><ele>161.0</ele><time>2026-04-04T11:00:47Z</time></trkpt><trkpt lat="44.31140155981608" lon="11.161062119624644"><ele>161.0</ele><time>2026-04-04T11:01:34.999Z</time></trkpt><trkpt lat="44.31134598871702" lon="11.161108800623046"><ele>161.0</ele><time>2026-04-04T11:08:58Z</time></trkpt><trkpt lat="44.3113923107039" lon="11.161194302923311"><ele>161.0</ele><time>2026-04-04T11:10:05.999Z</time></trkpt><trkpt lat="44.3114405713587" lon="11.161261717458304"><ele>161.0</ele><time>2026-04-04T11:10:13Z</time></trkpt><trkpt lat="44.31145445243596" lon="11.161357978609166"><ele>161.0</ele><time>2026-04-04T11:10:15Z</time></trkpt><trkpt lat="44.31146415034309" lon="11.161482933550818"><ele>161.0</ele><time>2026-04-04T11:10:17Z</time></trkpt><trkpt lat="44.31150323742774" lon="11.161608398761825"><ele>160.33333333333331</ele><time>2026-04-04T11:10:19Z</time></trkpt><trkpt lat="44.311527757710834" lon="11.161715589752575"><ele>159.66666666666666</ele><time>2026-04-04T11:10:21Z</time></trkpt><trkpt lat="44.31154727127743" lon="11.161850890232941"><ele>159.0</ele><time>2026-04-04T11:10:23Z</time></trkpt><trkpt lat="44.311560275575445" lon="11.161949143703188"><ele>158.33333333333334</ele><time>2026-04-04T11:10:24Z</time></trkpt><trkpt lat="44.31158320579349" lon="11.162052155890887"><ele>157.66666666666669</ele><time>2026-04-04T11:10:25Z</time></trkpt><trkpt lat="44.311603185866" lon="11.16216292226999"><ele>157.0</ele><time>2026-04-04T11:10:26Z</time></trkpt><trkpt lat="44.311600263492466" lon="11.162282027280533"><ele>157.0</ele><time>2026-04-04T11:10:27Z</time></trkpt><trkpt lat="44.31161979540644" lon="11.162373231416838"><ele>157.0</ele><time>2026-04-04T11:10:28Z</time></trkpt><trkpt lat="44.31163937708191" lon="11.162460079485601"><ele>157.0</ele><time>2026-04-04T11:10:29Z</time></trkpt><trkpt lat="44.311669845717574" lon="11.16261983277687"><ele>157.0</ele><time>2026-04-04T11:10:31Z</time></trkpt><trkpt lat="44.311716410689435" lon="11.162699970120192"><ele>157.0</ele><time>2026-04-04T11:10:32Z</time></trkpt><trkpt lat="44.311774013175594" lon="11.162750567970836"><ele>157.0</ele><time>2026-04-04T11:10:33Z</time></trkpt><trkpt lat="44.31182524603335" lon="11.162817592993225"><ele>157.0</ele><time>2026-04-04T11:10:34Z</time></trkpt><trkpt lat="44.311905941741145" lon="11.162884598108782"><ele>157.0</ele><time>2026-04-04T11:10:36Z</time></trkpt><trkpt lat="44.31188510361477" lon="11.163037693209892"><ele>157.0</ele><time>2026-04-04T11:10:37Z</time></trkpt><trkpt lat="44.31183794381185" lon="11.163146621000667"><ele>157.0</ele><time>2026-04-04T11:10:39Z</time></trkpt><trkpt lat="44.31178186775528" lon="11.16322916509821"><ele>157.0</ele><time>2026-04-04T11:10:41Z</time></trkpt><trkpt lat="44.311825934940465" lon="11.163346849992996"><ele>157.0</ele><time>2026-04-04T11:10:46Z</time></trkpt><trkpt lat="44.31187641465683" lon="11.163409648194452"><ele>157.0</ele><time>2026-04-04T11:10:47Z</time></trkpt><trkpt lat="44.31194766047069" lon="11.163497479814326"><ele>157.0</ele><time>2026-04-04T11:10:48Z</time></trkpt><trkpt lat="44.312015835037585" lon="11.163588250172722"><ele>157.0</ele><time>2026-04-04T11:10:49Z</time></trkpt><trkpt lat="44.312104778000155" lon="11.163687731836916"><ele>157.0</ele><time>2026-04-04T11:10:50Z</time></trkpt><trkpt lat="44.31218792584982" lon="11.163786934388481"><ele>156.75</ele><time>2026-04-04T11:10:51Z</time></trkpt><trkpt lat="44.312289156202084" lon="11.1639028793356"><ele>156.5</ele><time>2026-04-04T11:10:52Z</time></trkpt><trkpt lat="44.31237589981895" lon="11.164028444260298"><ele>156.25</ele><time>2026-04-04T11:10:53Z</time></trkpt><trkpt lat="44.312457892697765" lon="11.164137059391678"><ele>156.0</ele><time>2026-04-04T11:10:54Z</time></trkpt><trkpt lat="44.31254896919849" lon="11.164260659635149"><ele>155.75</ele><time>2026-04-04T11:10:55Z</time></trkpt><trkpt lat="44.31261429025969" lon="11.164376465408495"><ele>155.5</ele><time>2026-04-04T11:10:56Z</time></trkpt><trkpt lat="44.31269351859862" lon="11.164515573053357"><ele>155.25</ele><time>2026-04-04T11:10:57Z</time></trkpt><trkpt lat="44.312756669706495" lon="11.164647270258229"><ele>155.0</ele><time>2026-04-04T11:10:58Z</time></trkpt><trkpt lat="44.3128218225694" lon="11.164771208455914"><ele>155.6</ele><time>2026-04-04T11:10:59Z</time></trkpt><trkpt lat="44.31288354263677" lon="11.16490241222574"><ele>156.2</ele><time>2026-04-04T11:11:00Z</time></trkpt><trkpt lat="44.31294191087848" lon="11.16502892127889"><ele>156.8</ele><time>2026-04-04T11:11:01Z</time></trkpt><trkpt lat="44.3130014428944" lon="11.165156024905702"><ele>157.4</ele><time>2026-04-04T11:11:02Z</time></trkpt><trkpt lat="44.31305441105757" lon="11.165295177765397"><ele>158.0</ele><time>2026-04-04T11:11:03Z</time></trkpt><trkpt lat="44.31311107136681" lon="11.165454133075956"><ele>159.25</ele><time>2026-04-04T11:11:04Z</time></trkpt><trkpt lat="44.313166461919465" lon="11.16561688042076"><ele>160.5</ele><time>2026-04-04T11:11:05Z</time></trkpt><trkpt lat="44.31320986037723" lon="11.165763784659761"><ele>161.75</ele><time>2026-04-04T11:11:06Z</time></trkpt><trkpt lat="44.313239924294884" lon="11.165922782637061"><ele>163.0</ele><time>2026-04-04T11:11:07Z</time></trkpt><trkpt lat="44.31326970223508" lon="11.166095892160412"><ele>163.25</ele><time>2026-04-04T11:11:08Z</time></trkpt><trkpt lat="44.31327204366135" lon="11.166275722379675"><ele>163.5</ele><time>2026-04-04T11:11:09Z</time></trkpt><trkpt lat="44.31326965310795" lon="11.166434090387238"><ele>163.75</ele><time>2026-04-04T11:11:10Z</time></trkpt><trkpt lat="44.31325023976538" lon="11.166603518512451"><ele>164.0</ele><time>2026-04-04T11:11:11Z</time></trkpt><trkpt lat="44.313249875516064" lon="11.166746060562394"><ele>164.0</ele><time>2026-04-04T11:11:12Z</time></trkpt><trkpt lat="44.313256346379944" lon="11.166865734150475"><ele>164.0</ele><time>2026-04-04T11:11:13Z</time></trkpt><trkpt lat="44.313306845926554" lon="11.166971945739657"><ele>164.0</ele><time>2026-04-04T11:11:14Z</time></trkpt><trkpt lat="44.313418494530836" lon="11.166987207717424"><ele>164.0</ele><time>2026-04-04T11:11:15Z</time></trkpt><trkpt lat="44.31351960661569" lon="11.166940933388284"><ele>164.0</ele><time>2026-04-04T11:11:16Z</time></trkpt><trkpt lat="44.31361120077652" lon="11.166963158576467"><ele>164.0</ele><time>2026-04-04T11:11:17Z</time></trkpt><trkpt lat="44.31370478793146" lon="11.167074513064982"><ele>164.0</ele><time>2026-04-04T11:11:18Z</time></trkpt><trkpt lat="44.31374738120655" lon="11.167234645336698"><ele>164.0</ele><time>2026-04-04T11:11:19Z</time></trkpt><trkpt lat="44.31380396860494" lon="11.167382709821972"><ele>164.0</ele><time>2026-04-04T11:11:20Z</time></trkpt><trkpt lat="44.313868614234096" lon="11.167503548070842"><ele>166.75</ele><time>2026-04-04T11:11:21Z</time></trkpt><trkpt lat="44.313946415386404" lon="11.167626719357518"><ele>169.5</ele><time>2026-04-04T11:11:22Z</time></trkpt><trkpt lat="44.314051900064804" lon="11.167768415165092"><ele>172.25</ele><time>2026-04-04T11:11:23Z</time></trkpt><trkpt lat="44.314143191394216" lon="11.167862754393541"><ele>175.0</ele><time>2026-04-04T11:11:24Z</time></trkpt><trkpt lat="44.31419450590529" lon="11.16794812948927"><ele>175.0</ele><time>2026-04-04T11:11:25Z</time></trkpt><trkpt lat="44.31427111814734" lon="11.167969093656911"><ele>175.0</ele><time>2026-04-04T11:11:26Z</time></trkpt><trkpt lat="44.31433914033254" lon="11.167952897870979"><ele>175.0</ele><time>2026-04-04T11:11:27Z</time></trkpt><trkpt lat="44.31440285790139" lon="11.167880314920456"><ele>175.0</ele><time>2026-04-04T11:11:28Z</time></trkpt><trkpt lat="44.314428030014156" lon="11.167787742329022"><ele>175.0</ele><time>2026-04-04T11:11:29Z</time></trkpt><trkpt lat="44.3143730026017" lon="11.167660122684897"><ele>175.0</ele><time>2026-04-04T11:11:30Z</time></trkpt><trkpt lat="44.31425697852569" lon="11.167563947111537"><ele>175.0</ele><time>2026-04-04T11:11:31Z</time></trkpt><trkpt lat="44.31418059882651" lon="11.167472151416373"><ele>175.0</ele><time>2026-04-04T11:11:32Z</time></trkpt><trkpt lat="44.31412114383175" lon="11.167368854471395"><ele>175.0</ele><time>2026-04-04T11:11:33Z</time></trkpt><trkpt lat="44.31407471517557" lon="11.167245027173989"><ele>175.0</ele><time>2026-04-04T11:11:34Z</time></trkpt><trkpt lat="44.31402063777521" lon="11.167105186386395"><ele>175.0</ele><time>2026-04-04T11:11:35Z</time></trkpt><trkpt lat="44.313954585718584" lon="11.166970278402685"><ele>172.8</ele><time>2026-04-04T11:11:36Z</time></trkpt><trkpt lat="44.31387810212276" lon="11.166861572172547"><ele>170.6</ele><time>2026-04-04T11:11:37Z</time></trkpt><trkpt lat="44.313796009080804" lon="11.166754938198373"><ele>168.39999999999998</ele><time>2026-04-04T11:11:38Z</time></trkpt><trkpt lat="44.31372355029038" lon="11.166670047707637"><ele>166.2</ele><time>2026-04-04T11:11:39Z</time></trkpt><trkpt lat="44.31367138764604" lon="11.166588993397994"><ele>164.0</ele><time>2026-04-04T11:11:40Z</time></trkpt><trkpt lat="44.313691918960856" lon="11.16643380691994"><ele>164.0</ele><time>2026-04-04T11:11:42Z</time></trkpt><trkpt lat="44.31373975379385" lon="11.166293262395943"><ele>164.0</ele><time>2026-04-04T11:11:43Z</time></trkpt><trkpt lat="44.31373661282839" lon="11.166160583837494"><ele>164.0</ele><time>2026-04-04T11:11:44Z</time></trkpt><trkpt lat="44.31376491259893" lon="11.166000180545007"><ele>164.0</ele><time>2026-04-04T11:11:45Z</time></trkpt><trkpt lat="44.31380163004483" lon="11.165821324354617"><ele>163.75</ele><time>2026-04-04T11:11:46Z</time></trkpt><trkpt lat="44.31384660928518" lon="11.165651716273647"><ele>163.5</ele><time>2026-04-04T11:11:47Z</time></trkpt><trkpt lat="44.313891675393776" lon="11.165492630383268"><ele>163.25</ele><time>2026-04-04T11:11:48Z</time></trkpt><trkpt lat="44.31389102940164" lon="11.16531826123913"><ele>163.0</ele><time>2026-04-04T11:11:49Z</time></trkpt><trkpt lat="44.313853431861524" lon="11.165147627621916"><ele>163.0</ele><time>2026-04-04T11:11:50Z</time></trkpt><trkpt lat="44.31379580624125" lon="11.164979531954323"><ele>163.0</ele><time>2026-04-04T11:11:51Z</time></trkpt><trkpt lat="44.31372063310972" lon="11.16482656778697"><ele>163.0</ele><time>2026-04-04T11:11:52Z</time></trkpt><trkpt lat="44.31364292513779" lon="11.164675317226523"><ele>163.0</ele><time>2026-04-04T11:11:53Z</time></trkpt><trkpt lat="44.31356756184674" lon="11.164525064855598"><ele>164.25</ele><time>2026-04-04T11:11:54Z</time></trkpt><trkpt lat="44.31349799542544" lon="11.164384787601586"><ele>165.5</ele><time>2026-04-04T11:11:55Z</time></trkpt><trkpt lat="44.31342469590773" lon="11.164234718852779"><ele>166.75</ele><time>2026-04-04T11:11:56Z</time></trkpt><trkpt lat="44.31335226939182" lon="11.164080847453954"><ele>168.0</ele><time>2026-04-04T11:11:57Z</time></trkpt><trkpt lat="44.31327247517572" lon="11.163923304580479"><ele>169.5</ele><time>2026-04-04T11:11:57.999Z</time></trkpt><trkpt lat="44.31319946591279" lon="11.163758868444583"><ele>171.0</ele><time>2026-04-04T11:11:58.999Z</time></trkpt><trkpt lat="44.313132197614856" lon="11.163599768202188"><ele>172.5</ele><time>2026-04-04T11:11:59.999Z</time></trkpt><trkpt lat="44.31306675955214" lon="11.163435871071723"><ele>174.0</ele><time>2026-04-04T11:12:00.999Z</time></trkpt><trkpt lat="44.31300406661" lon="11.163263419950692"><ele>173.5</ele><time>2026-04-04T11:12:01.999Z</time></trkpt><trkpt lat="44.312964907162545" lon="11.163083335071168"><ele>173.0</ele><time>2026-04-04T11:12:02.999Z</time></trkpt><trkpt lat="44.31296069198279" lon="11.162885095134685"><ele>172.5</ele><time>2026-04-04T11:12:03.999Z</time></trkpt><trkpt lat="44.31301222938543" lon="11.162695991776873"><ele>172.0</ele><time>2026-04-04T11:12:04.999Z</time></trkpt><trkpt lat="44.31308844402291" lon="11.162521459210806"><ele>170.75</ele><time>2026-04-04T11:12:05.999Z</time></trkpt><trkpt lat="44.313121514206706" lon="11.162326539271865"><ele>169.5</ele><time>2026-04-04T11:12:06.999Z</time></trkpt><trkpt lat="44.31316004130853" lon="11.162133737169317"><ele>168.25</ele><time>2026-04-04T11:12:07.999Z</time></trkpt><trkpt lat="44.31319817522447" lon="11.161952648612042"><ele>167.0</ele><time>2026-04-04T11:12:08.999Z</time></trkpt><trkpt lat="44.313258757060865" lon="11.161784266836898"><ele>167.0</ele><time>2026-04-04T11:12:09.999Z</time></trkpt><trkpt lat="44.31332119815211" lon="11.161630173305989"><ele>167.0</ele><time>2026-04-04T11:12:10.999Z</time></trkpt><trkpt lat="44.31339116958403" lon="11.161474836627251"><ele>167.0</ele><time>2026-04-04T11:12:11.999Z</time></trkpt><trkpt lat="44.31344307648012" lon="11.161294605514199"><ele>167.0</ele><time>2026-04-04T11:12:12.999Z</time></trkpt><trkpt lat="44.31347034591213" lon="11.16110772659239"><ele>164.75</ele><time>2026-04-04T11:12:13.999Z</time></trkpt><trkpt lat="44.31350585145946" lon="11.16092372003889"><ele>162.5</ele><time>2026-04-04T11:12:14.999Z</time></trkpt><trkpt lat="44.31355056947935" lon="11.160750647414131"><ele>160.25</ele><time>2026-04-04T11:12:15.999Z</time></trkpt><trkpt lat="44.31357970080912" lon="11.160559946967908"><ele>158.0</ele><time>2026-04-04T11:12:16.999Z</time></trkpt><trkpt lat="44.31360814472247" lon="11.160381865022416"><ele>158.0</ele><time>2026-04-04T11:12:17.999Z</time></trkpt><trkpt lat="44.31362210279474" lon="11.160196537112476"><ele>158.0</ele><time>2026-04-04T11:12:19Z</time></trkpt><trkpt lat="44.313619622416255" lon="11.160022005585995"><ele>158.0</ele><time>2026-04-04T11:12:20Z</time></trkpt><trkpt lat="44.313612380316314" lon="11.159848235376488"><ele>158.0</ele><time>2026-04-04T11:12:21Z</time></trkpt><trkpt lat="44.3135877179146" lon="11.159677693925646"><ele>158.75</ele><time>2026-04-04T11:12:22Z</time></trkpt><trkpt lat="44.313543413268896" lon="11.159524572958475"><ele>159.5</ele><time>2026-04-04T11:12:23Z</time></trkpt><trkpt lat="44.31349450532447" lon="11.159365276205678"><ele>160.25</ele><time>2026-04-04T11:12:24Z</time></trkpt><trkpt lat="44.313450441278995" lon="11.15920846410929"><ele>161.0</ele><time>2026-04-04T11:12:25Z</time></trkpt><trkpt lat="44.31339656638533" lon="11.15904976551305"><ele>163.5</ele><time>2026-04-04T11:12:26Z</time></trkpt><trkpt lat="44.31333814904123" lon="11.15890309228915"><ele>166.0</ele><time>2026-04-04T11:12:27Z</time></trkpt><trkpt lat="44.313269080454226" lon="11.158769658324104"><ele>168.5</ele><time>2026-04-04T11:12:28Z</time></trkpt><trkpt lat="44.313188974582346" lon="11.158651139486173"><ele>171.0</ele><time>2026-04-04T11:12:29Z</time></trkpt><trkpt lat="44.313101142627765" lon="11.158532953581783"><ele>173.5</ele><time>2026-04-04T11:12:30Z</time></trkpt><trkpt lat="44.31301045141302" lon="11.158428980840693"><ele>176.0</ele><time>2026-04-04T11:12:31Z</time></trkpt><trkpt lat="44.312913527540815" lon="11.15833508353503"><ele>178.5</ele><time>2026-04-04T11:12:32Z</time></trkpt><trkpt lat="44.31281364561488" lon="11.158251222721267"><ele>181.0</ele><time>2026-04-04T11:12:33Z</time></trkpt><trkpt lat="44.31271071379868" lon="11.158178014583365"><ele>181.0</ele><time>2026-04-04T11:12:34Z</time></trkpt><trkpt lat="44.312604691023886" lon="11.158115341845878"><ele>181.0</ele><time>2026-04-04T11:12:35Z</time></trkpt><trkpt lat="44.312491557900294" lon="11.158059529519054"><ele>181.0</ele><time>2026-04-04T11:12:36Z</time></trkpt><trkpt lat="44.31237646587238" lon="11.158009953601681"><ele>181.0</ele><time>2026-04-04T11:12:37Z</time></trkpt><trkpt lat="44.31225995052232" lon="11.157960641407872"><ele>177.0</ele><time>2026-04-04T11:12:38Z</time></trkpt><trkpt lat="44.31214472148796" lon="11.157912766839322"><ele>173.0</ele><time>2026-04-04T11:12:39Z</time></trkpt><trkpt lat="44.31203409583577" lon="11.157859830168922"><ele>169.0</ele><time>2026-04-04T11:12:40Z</time></trkpt><trkpt lat="44.31191998472954" lon="11.157811491978283"><ele>165.0</ele><time>2026-04-04T11:12:41Z</time></trkpt><trkpt lat="44.31180654053279" lon="11.157768615949774"><ele>165.0</ele><time>2026-04-04T11:12:42Z</time></trkpt><trkpt lat="44.311696649210035" lon="11.157728223217006"><ele>165.0</ele><time>2026-04-04T11:12:43Z</time></trkpt><trkpt lat="44.31157315070122" lon="11.157694195764337"><ele>165.0</ele><time>2026-04-04T11:12:44Z</time></trkpt><trkpt lat="44.31145322986903" lon="11.157674593431933"><ele>165.0</ele><time>2026-04-04T11:12:45Z</time></trkpt><trkpt lat="44.31132782509394" lon="11.157671075919339"><ele>164.5</ele><time>2026-04-04T11:12:46Z</time></trkpt><trkpt lat="44.31120803783121" lon="11.15766606153826"><ele>164.0</ele><time>2026-04-04T11:12:47Z</time></trkpt><trkpt lat="44.311086255241875" lon="11.157667862297233"><ele>163.5</ele><time>2026-04-04T11:12:48Z</time></trkpt><trkpt lat="44.310964609266556" lon="11.157665269928343"><ele>163.0</ele><time>2026-04-04T11:12:49Z</time></trkpt><trkpt lat="44.310845524841085" lon="11.157664876178812"><ele>163.0</ele><time>2026-04-04T11:12:50Z</time></trkpt><trkpt lat="44.31072861411875" lon="11.157667904085928"><ele>163.0</ele><time>2026-04-04T11:12:51Z</time></trkpt><trkpt lat="44.31061274907277" lon="11.157669898477728"><ele>163.0</ele><time>2026-04-04T11:12:52Z</time></trkpt><trkpt lat="44.31049370244507" lon="11.157673802204714"><ele>163.0</ele><time>2026-04-04T11:12:53Z</time></trkpt><trkpt lat="44.31037907152221" lon="11.157672299297088"><ele>163.0</ele><time>2026-04-04T11:12:54Z</time></trkpt><trkpt lat="44.31026601425417" lon="11.157673354601053"><ele>163.0</ele><time>2026-04-04T11:12:55Z</time></trkpt><trkpt lat="44.31015095327882" lon="11.15767549580048"><ele>163.0</ele><time>2026-04-04T11:12:56Z</time></trkpt><trkpt lat="44.31003812243814" lon="11.157679420007888"><ele>163.0</ele><time>2026-04-04T11:12:57Z</time></trkpt><trkpt lat="44.30992964274003" lon="11.15767847071895"><ele>163.0</ele><time>2026-04-04T11:12:58Z</time></trkpt><trkpt lat="44.30981485724814" lon="11.15768083710411"><ele>166.25</ele><time>2026-04-04T11:12:59Z</time></trkpt><trkpt lat="44.30970099842328" lon="11.157685950869602"><ele>169.5</ele><time>2026-04-04T11:13:00Z</time></trkpt><trkpt lat="44.30958656467767" lon="11.157689119029472"><ele>172.75</ele><time>2026-04-04T11:13:01Z</time></trkpt><trkpt lat="44.30947582769192" lon="11.157686567041734"><ele>176.0</ele><time>2026-04-04T11:13:02Z</time></trkpt><trkpt lat="44.30936228391226" lon="11.157686640501815"><ele>176.0</ele><time>2026-04-04T11:13:03Z</time></trkpt><trkpt lat="44.30924655160713" lon="11.15768399453019"><ele>176.0</ele><time>2026-04-04T11:13:04Z</time></trkpt><trkpt lat="44.309136430276006" lon="11.157676269714257"><ele>176.0</ele><time>2026-04-04T11:13:05Z</time></trkpt><trkpt lat="44.30902494464377" lon="11.157667375033668"><ele>176.0</ele><time>2026-04-04T11:13:06Z</time></trkpt><trkpt lat="44.30891647560893" lon="11.157660671690376"><ele>176.0</ele><time>2026-04-04T11:13:07Z</time></trkpt><trkpt lat="44.30881675245916" lon="11.157655677999125"><ele>177.5</ele><time>2026-04-04T11:13:08Z</time></trkpt><trkpt lat="44.308697262363054" lon="11.15764976361691"><ele>179.0</ele><time>2026-04-04T11:13:09Z</time></trkpt><trkpt lat="44.30858836367877" lon="11.157631748858822"><ele>180.5</ele><time>2026-04-04T11:13:10Z</time></trkpt><trkpt lat="44.30848005209123" lon="11.157611266283409"><ele>182.0</ele><time>2026-04-04T11:13:11Z</time></trkpt><trkpt lat="44.30836853915734" lon="11.157588997405332"><ele>182.0</ele><time>2026-04-04T11:13:12Z</time></trkpt><trkpt lat="44.30825993966799" lon="11.157575564956218"><ele>182.0</ele><time>2026-04-04T11:13:13Z</time></trkpt><trkpt lat="44.30814943323093" lon="11.15755987660618"><ele>182.0</ele><time>2026-04-04T11:13:14Z</time></trkpt><trkpt lat="44.308036815121696" lon="11.157527490019067"><ele>182.0</ele><time>2026-04-04T11:13:15Z</time></trkpt><trkpt lat="44.30792310476542" lon="11.157495244522615"><ele>180.2</ele><time>2026-04-04T11:13:16Z</time></trkpt><trkpt lat="44.30780697841338" lon="11.157463553331986"><ele>178.39999999999998</ele><time>2026-04-04T11:13:17Z</time></trkpt><trkpt lat="44.30769862337846" lon="11.157422656431617"><ele>176.60000000000002</ele><time>2026-04-04T11:13:18Z</time></trkpt><trkpt lat="44.307595922414194" lon="11.157369330873543"><ele>174.8</ele><time>2026-04-04T11:13:19Z</time></trkpt><trkpt lat="44.307502845286265" lon="11.157297028341816"><ele>173.0</ele><time>2026-04-04T11:13:20Z</time></trkpt><trkpt lat="44.30740926828085" lon="11.157219912825312"><ele>175.0</ele><time>2026-04-04T11:13:21Z</time></trkpt><trkpt lat="44.30730585511087" lon="11.157129106720948"><ele>177.0</ele><time>2026-04-04T11:13:22Z</time></trkpt><trkpt lat="44.30720581846401" lon="11.157045036997246"><ele>179.0</ele><time>2026-04-04T11:13:23Z</time></trkpt><trkpt lat="44.30710211520291" lon="11.156962609202571"><ele>181.0</ele><time>2026-04-04T11:13:24Z</time></trkpt><trkpt lat="44.30699668405756" lon="11.156884693698867"><ele>181.0</ele><time>2026-04-04T11:13:25Z</time></trkpt><trkpt lat="44.30689312382288" lon="11.156805726751788"><ele>181.0</ele><time>2026-04-04T11:13:26Z</time></trkpt><trkpt lat="44.306786562442056" lon="11.156736410479976"><ele>181.0</ele><time>2026-04-04T11:13:27Z</time></trkpt><trkpt lat="44.30667777021261" lon="11.156670191458565"><ele>181.0</ele><time>2026-04-04T11:13:28Z</time></trkpt><trkpt lat="44.30657064313611" lon="11.156609820983865"><ele>181.0</ele><time>2026-04-04T11:13:29Z</time></trkpt><trkpt lat="44.30646090105435" lon="11.156551483577392"><ele>181.0</ele><time>2026-04-04T11:13:30Z</time></trkpt><trkpt lat="44.30634658386554" lon="11.156505711491334"><ele>181.0</ele><time>2026-04-04T11:13:31Z</time></trkpt><trkpt lat="44.306211005783716" lon="11.156469440384734"><ele>181.0</ele><time>2026-04-04T11:13:32Z</time></trkpt><trkpt lat="44.30605832775413" lon="11.156436038804271"><ele>180.8</ele><time>2026-04-04T11:13:33Z</time></trkpt><trkpt lat="44.30593289868632" lon="11.156394236085807"><ele>180.60000000000002</ele><time>2026-04-04T11:13:34Z</time></trkpt><trkpt lat="44.30582972983528" lon="11.156340799930964"><ele>180.4</ele><time>2026-04-04T11:13:35Z</time></trkpt><trkpt lat="44.305729298913235" lon="11.15628657736894"><ele>180.2</ele><time>2026-04-04T11:13:36Z</time></trkpt><trkpt lat="44.30564599985351" lon="11.15621809851789"><ele>180.0</ele><time>2026-04-04T11:13:37Z</time></trkpt><trkpt lat="44.30556961433804" lon="11.156148602371385"><ele>180.0</ele><time>2026-04-04T11:13:38Z</time></trkpt><trkpt lat="44.30551292661152" lon="11.156071771827056"><ele>180.0</ele><time>2026-04-04T11:13:39Z</time></trkpt><trkpt lat="44.30543752556022" lon="11.155963061098612"><ele>180.0</ele><time>2026-04-04T11:13:40Z</time></trkpt><trkpt lat="44.30536551831457" lon="11.155868921313665"><ele>180.0</ele><time>2026-04-04T11:13:41Z</time></trkpt><trkpt lat="44.305295504261444" lon="11.155771120767712"><ele>180.0</ele><time>2026-04-04T11:13:42Z</time></trkpt><trkpt lat="44.30523567469563" lon="11.15566047143984"><ele>180.4</ele><time>2026-04-04T11:13:43Z</time></trkpt><trkpt lat="44.30517850491611" lon="11.155537515892368"><ele>180.8</ele><time>2026-04-04T11:13:44Z</time></trkpt><trkpt lat="44.30512986940745" lon="11.155406389003518"><ele>181.2</ele><time>2026-04-04T11:13:45Z</time></trkpt><trkpt lat="44.305089128082116" lon="11.155269915420389"><ele>181.6</ele><time>2026-04-04T11:13:46Z</time></trkpt><trkpt lat="44.30504715324767" lon="11.155120269674999"><ele>182.0</ele><time>2026-04-04T11:13:47Z</time></trkpt><trkpt lat="44.30501648721816" lon="11.154982040206228"><ele>181.39999999999998</ele><time>2026-04-04T11:13:47.999Z</time></trkpt><trkpt lat="44.30500344634222" lon="11.154848301176381"><ele>180.79999999999998</ele><time>2026-04-04T11:13:48.999Z</time></trkpt><trkpt lat="44.3049873103797" lon="11.154723305933041"><ele>180.2</ele><time>2026-04-04T11:13:49.999Z</time></trkpt><trkpt lat="44.30497521146862" lon="11.154599106776319"><ele>179.6</ele><time>2026-04-04T11:13:50.999Z</time></trkpt><trkpt lat="44.30496715943194" lon="11.154456117669097"><ele>179.0</ele><time>2026-04-04T11:13:51.999Z</time></trkpt><trkpt lat="44.30496093354715" lon="11.154316068133678"><ele>179.0</ele><time>2026-04-04T11:13:52.999Z</time></trkpt><trkpt lat="44.30495700503679" lon="11.154176612345989"><ele>179.0</ele><time>2026-04-04T11:13:53.999Z</time></trkpt><trkpt lat="44.304953629624116" lon="11.154037407109518"><ele>179.0</ele><time>2026-04-04T11:13:54.999Z</time></trkpt><trkpt lat="44.304951712247295" lon="11.1538969746725"><ele>179.0</ele><time>2026-04-04T11:13:55.999Z</time></trkpt><trkpt lat="44.30494635073684" lon="11.153755376909217"><ele>179.0</ele><time>2026-04-04T11:13:56.999Z</time></trkpt><trkpt lat="44.304969760591554" lon="11.153612709508229"><ele>178.79999999999998</ele><time>2026-04-04T11:13:57.999Z</time></trkpt><trkpt lat="44.3049712372345" lon="11.153465472633988"><ele>178.6</ele><time>2026-04-04T11:13:58.999Z</time></trkpt><trkpt lat="44.30500091645046" lon="11.153323701788347"><ele>178.4</ele><time>2026-04-04T11:13:59.999Z</time></trkpt><trkpt lat="44.30500634601211" lon="11.153163246691262"><ele>178.2</ele><time>2026-04-04T11:14:00.999Z</time></trkpt><trkpt lat="44.30502529836793" lon="11.15301045528602"><ele>178.0</ele><time>2026-04-04T11:14:01.999Z</time></trkpt><trkpt lat="44.30504336571509" lon="11.152860798450536"><ele>178.75</ele><time>2026-04-04T11:14:02.999Z</time></trkpt><trkpt lat="44.30505468864126" lon="11.152694329545314"><ele>179.5</ele><time>2026-04-04T11:14:03.999Z</time></trkpt><trkpt lat="44.30506872777055" lon="11.15253689254595"><ele>180.25</ele><time>2026-04-04T11:14:04.999Z</time></trkpt><trkpt lat="44.30508330844706" lon="11.152369466000811"><ele>181.0</ele><time>2026-04-04T11:14:05.999Z</time></trkpt><trkpt lat="44.305098005691256" lon="11.152203921847107"><ele>181.75</ele><time>2026-04-04T11:14:06.999Z</time></trkpt><trkpt lat="44.30511099481146" lon="11.15204842255731"><ele>182.5</ele><time>2026-04-04T11:14:07.999Z</time></trkpt><trkpt lat="44.305130841806175" lon="11.151885903083608"><ele>183.25</ele><time>2026-04-04T11:14:08.999Z</time></trkpt><trkpt lat="44.30514291593257" lon="11.15170733857776"><ele>184.0</ele><time>2026-04-04T11:14:09.999Z</time></trkpt><trkpt lat="44.305163619023766" lon="11.15154945067589"><ele>184.0</ele><time>2026-04-04T11:14:10.999Z</time></trkpt><trkpt lat="44.305178446718564" lon="11.151391730760228"><ele>184.0</ele><time>2026-04-04T11:14:11.999Z</time></trkpt><trkpt lat="44.30519266997723" lon="11.151236620765202"><ele>184.0</ele><time>2026-04-04T11:14:12.999Z</time></trkpt><trkpt lat="44.305207751516996" lon="11.151071892643433"><ele>184.0</ele><time>2026-04-04T11:14:13.999Z</time></trkpt><trkpt lat="44.30522135152934" lon="11.1509166044983"><ele>184.0</ele><time>2026-04-04T11:14:14.999Z</time></trkpt><trkpt lat="44.30523331754781" lon="11.150754451972473"><ele>184.0</ele><time>2026-04-04T11:14:15.999Z</time></trkpt><trkpt lat="44.30524547949107" lon="11.150608200850746"><ele>184.0</ele><time>2026-04-04T11:14:16.999Z</time></trkpt><trkpt lat="44.30526081017392" lon="11.15045812311595"><ele>184.0</ele><time>2026-04-04T11:14:17.999Z</time></trkpt><trkpt lat="44.30528086195476" lon="11.150306299449962"><ele>184.0</ele><time>2026-04-04T11:14:18.999Z</time></trkpt><trkpt lat="44.30529771729571" lon="11.150154954779083"><ele>185.2</ele><time>2026-04-04T11:14:19.999Z</time></trkpt><trkpt lat="44.30531039033086" lon="11.150000313763812"><ele>186.39999999999998</ele><time>2026-04-04T11:14:20.999Z</time></trkpt><trkpt lat="44.305320281204565" lon="11.149842833451066"><ele>187.6</ele><time>2026-04-04T11:14:21.999Z</time></trkpt><trkpt lat="44.30533809159853" lon="11.149710688207467"><ele>188.8</ele><time>2026-04-04T11:14:22.999Z</time></trkpt><trkpt lat="44.30535436818889" lon="11.149558305371906"><ele>190.0</ele><time>2026-04-04T11:14:23.999Z</time></trkpt><trkpt lat="44.30536687082425" lon="11.149420723113774"><ele>190.2</ele><time>2026-04-04T11:14:25Z</time></trkpt><trkpt lat="44.305381163855394" lon="11.149279012107947"><ele>190.4</ele><time>2026-04-04T11:14:26Z</time></trkpt><trkpt lat="44.30540157847538" lon="11.149149358795292"><ele>190.60000000000002</ele><time>2026-04-04T11:14:27Z</time></trkpt><trkpt lat="44.30542073160746" lon="11.14900143279127"><ele>190.8</ele><time>2026-04-04T11:14:28Z</time></trkpt><trkpt lat="44.305430338421566" lon="11.14885536656959"><ele>191.0</ele><time>2026-04-04T11:14:29Z</time></trkpt><trkpt lat="44.30543452278936" lon="11.148700465160333"><ele>191.0</ele><time>2026-04-04T11:14:30Z</time></trkpt><trkpt lat="44.305438589742465" lon="11.14854291455074"><ele>191.0</ele><time>2026-04-04T11:14:31Z</time></trkpt><trkpt lat="44.305431171741716" lon="11.14840075109492"><ele>191.0</ele><time>2026-04-04T11:14:32Z</time></trkpt><trkpt lat="44.3054011266948" lon="11.148267578593053"><ele>191.0</ele><time>2026-04-04T11:14:33Z</time></trkpt><trkpt lat="44.30536162132314" lon="11.14814113378732"><ele>191.0</ele><time>2026-04-04T11:14:34Z</time></trkpt><trkpt lat="44.305309633825544" lon="11.14801695838796"><ele>193.75</ele><time>2026-04-04T11:14:35Z</time></trkpt><trkpt lat="44.305217881905506" lon="11.147909769203393"><ele>196.5</ele><time>2026-04-04T11:14:36Z</time></trkpt><trkpt lat="44.30513045795208" lon="11.147803208584458"><ele>199.25</ele><time>2026-04-04T11:14:37Z</time></trkpt><trkpt lat="44.3050225838392" lon="11.147705275214815"><ele>202.0</ele><time>2026-04-04T11:14:38Z</time></trkpt><trkpt lat="44.30491920347666" lon="11.147609798796438"><ele>202.0</ele><time>2026-04-04T11:14:39Z</time></trkpt><trkpt lat="44.30480948622067" lon="11.14751393273293"><ele>202.0</ele><time>2026-04-04T11:14:40Z</time></trkpt><trkpt lat="44.30470640277191" lon="11.147426643508204"><ele>202.0</ele><time>2026-04-04T11:14:41Z</time></trkpt><trkpt lat="44.3046010864133" lon="11.147344977011043"><ele>202.0</ele><time>2026-04-04T11:14:42Z</time></trkpt><trkpt lat="44.30450948296244" lon="11.147260191447927"><ele>201.2</ele><time>2026-04-04T11:14:43Z</time></trkpt><trkpt lat="44.30439628560452" lon="11.147220489499018"><ele>200.39999999999998</ele><time>2026-04-04T11:14:44Z</time></trkpt><trkpt lat="44.304313927386666" lon="11.147194507684851"><ele>199.60000000000002</ele><time>2026-04-04T11:14:45Z</time></trkpt><trkpt lat="44.30423105768376" lon="11.147159821835801"><ele>198.8</ele><time>2026-04-04T11:14:46Z</time></trkpt><trkpt lat="44.30414730964742" lon="11.14711842547687"><ele>198.0</ele><time>2026-04-04T11:14:47Z</time></trkpt><trkpt lat="44.304075867208816" lon="11.147048181084752"><ele>198.0</ele><time>2026-04-04T11:14:48Z</time></trkpt><trkpt lat="44.304017454903494" lon="11.146997667380747"><ele>198.0</ele><time>2026-04-04T11:14:49Z</time></trkpt><trkpt lat="44.30396407144398" lon="11.146941126729663"><ele>198.0</ele><time>2026-04-04T11:14:50Z</time></trkpt><trkpt lat="44.30391419130048" lon="11.146880377971067"><ele>198.0</ele><time>2026-04-04T11:14:51Z</time></trkpt><trkpt lat="44.30387069269765" lon="11.146811476643474"><ele>198.0</ele><time>2026-04-04T11:14:52Z</time></trkpt><trkpt lat="44.303786359817785" lon="11.146651833845004"><ele>198.0</ele><time>2026-04-04T11:14:54Z</time></trkpt><trkpt lat="44.30371792106939" lon="11.146560591144246"><ele>197.75</ele><time>2026-04-04T11:14:55Z</time></trkpt><trkpt lat="44.30364788035546" lon="11.146429873519367"><ele>197.5</ele><time>2026-04-04T11:14:56Z</time></trkpt><trkpt lat="44.30358097493898" lon="11.146288903036226"><ele>197.25</ele><time>2026-04-04T11:14:57Z</time></trkpt><trkpt lat="44.30350084517405" lon="11.146169413113078"><ele>197.0</ele><time>2026-04-04T11:14:58Z</time></trkpt><trkpt lat="44.30339938329133" lon="11.146052357492916"><ele>197.0</ele><time>2026-04-04T11:14:59Z</time></trkpt><trkpt lat="44.30327911913532" lon="11.145971477149669"><ele>197.0</ele><time>2026-04-04T11:15:00Z</time></trkpt><trkpt lat="44.303168454655" lon="11.145862807924818"><ele>197.0</ele><time>2026-04-04T11:15:01Z</time></trkpt><trkpt lat="44.303063652245086" lon="11.14576810049437"><ele>197.0</ele><time>2026-04-04T11:15:02Z</time></trkpt><trkpt lat="44.302948172048524" lon="11.145698067503282"><ele>196.0</ele><time>2026-04-04T11:15:03Z</time></trkpt><trkpt lat="44.30287304924997" lon="11.145605579250406"><ele>195.0</ele><time>2026-04-04T11:15:04Z</time></trkpt><trkpt lat="44.30279631409506" lon="11.145486067195472"><ele>194.0</ele><time>2026-04-04T11:15:05Z</time></trkpt><trkpt lat="44.30274561816924" lon="11.145336236720725"><ele>193.0</ele><time>2026-04-04T11:15:06Z</time></trkpt><trkpt lat="44.302699983544215" lon="11.145159192337445"><ele>193.0</ele><time>2026-04-04T11:15:07Z</time></trkpt><trkpt lat="44.302666506918804" lon="11.144983531942733"><ele>193.0</ele><time>2026-04-04T11:15:08Z</time></trkpt><trkpt lat="44.30265369243991" lon="11.144798076078533"><ele>193.0</ele><time>2026-04-04T11:15:09Z</time></trkpt><trkpt lat="44.30262541658712" lon="11.144624516576771"><ele>193.0</ele><time>2026-04-04T11:15:10Z</time></trkpt><trkpt lat="44.30261154005612" lon="11.144451980999062"><ele>192.75</ele><time>2026-04-04T11:15:11Z</time></trkpt><trkpt lat="44.302608980337034" lon="11.144299510319927"><ele>192.5</ele><time>2026-04-04T11:15:12Z</time></trkpt><trkpt lat="44.302612781340365" lon="11.1441263344119"><ele>192.25</ele><time>2026-04-04T11:15:13Z</time></trkpt><trkpt lat="44.30262486090694" lon="11.143943923312507"><ele>192.0</ele><time>2026-04-04T11:15:14Z</time></trkpt><trkpt lat="44.3026289287924" lon="11.143757193291771"><ele>191.75</ele><time>2026-04-04T11:15:15Z</time></trkpt><trkpt lat="44.30264835338455" lon="11.143602567340315"><ele>191.5</ele><time>2026-04-04T11:15:16Z</time></trkpt><trkpt lat="44.30264658458269" lon="11.14342254498627"><ele>191.25</ele><time>2026-04-04T11:15:17Z</time></trkpt><trkpt lat="44.302645722336905" lon="11.14324131879545"><ele>191.0</ele><time>2026-04-04T11:15:18Z</time></trkpt><trkpt lat="44.30264951282256" lon="11.143073779832974"><ele>191.75</ele><time>2026-04-04T11:15:19Z</time></trkpt><trkpt lat="44.30264877250542" lon="11.142900974225673"><ele>192.5</ele><time>2026-04-04T11:15:20Z</time></trkpt><trkpt lat="44.30265361811504" lon="11.142736465939787"><ele>193.25</ele><time>2026-04-04T11:15:21Z</time></trkpt><trkpt lat="44.302652836440714" lon="11.142560569920084"><ele>194.0</ele><time>2026-04-04T11:15:22Z</time></trkpt><trkpt lat="44.302652935476004" lon="11.142387757145944"><ele>192.75</ele><time>2026-04-04T11:15:23Z</time></trkpt><trkpt lat="44.30265416954218" lon="11.142220662365128"><ele>191.5</ele><time>2026-04-04T11:15:24Z</time></trkpt><trkpt lat="44.30265345572318" lon="11.142052717583502"><ele>190.25</ele><time>2026-04-04T11:15:25Z</time></trkpt><trkpt lat="44.30265246025425" lon="11.141880510040544"><ele>189.0</ele><time>2026-04-04T11:15:26Z</time></trkpt><trkpt lat="44.30265724108387" lon="11.141709001391481"><ele>189.0</ele><time>2026-04-04T11:15:27Z</time></trkpt><trkpt lat="44.30266929905153" lon="11.141544665883599"><ele>189.0</ele><time>2026-04-04T11:15:28Z</time></trkpt><trkpt lat="44.302680891021545" lon="11.141361973176188"><ele>189.0</ele><time>2026-04-04T11:15:29Z</time></trkpt><trkpt lat="44.302717481204624" lon="11.14120063652383"><ele>189.0</ele><time>2026-04-04T11:15:30Z</time></trkpt><trkpt lat="44.302744407253634" lon="11.141054676599264"><ele>189.0</ele><time>2026-04-04T11:15:31Z</time></trkpt><trkpt lat="44.302761883051" lon="11.140892432026746"><ele>189.0</ele><time>2026-04-04T11:15:32Z</time></trkpt><trkpt lat="44.30277199051989" lon="11.140728858970611"><ele>189.0</ele><time>2026-04-04T11:15:33Z</time></trkpt><trkpt lat="44.30277059986796" lon="11.140549339050816"><ele>189.0</ele><time>2026-04-04T11:15:34Z</time></trkpt><trkpt lat="44.30275124214348" lon="11.1403486798554"><ele>190.75</ele><time>2026-04-04T11:15:35Z</time></trkpt><trkpt lat="44.3027242701432" lon="11.140154603088561"><ele>192.5</ele><time>2026-04-04T11:15:36Z</time></trkpt><trkpt lat="44.3027022044893" lon="11.139965437097663"><ele>194.25</ele><time>2026-04-04T11:15:37Z</time></trkpt><trkpt lat="44.30264729333292" lon="11.139783693567296"><ele>196.0</ele><time>2026-04-04T11:15:38Z</time></trkpt><trkpt lat="44.30257031562425" lon="11.139633258410996"><ele>200.0</ele><time>2026-04-04T11:15:39Z</time></trkpt><trkpt lat="44.30247879861608" lon="11.139501497055624"><ele>204.0</ele><time>2026-04-04T11:15:40Z</time></trkpt><trkpt lat="44.30239806947046" lon="11.139375273324095"><ele>208.0</ele><time>2026-04-04T11:15:41Z</time></trkpt><trkpt lat="44.302315218676426" lon="11.139257942103162"><ele>212.0</ele><time>2026-04-04T11:15:42Z</time></trkpt><trkpt lat="44.30225149090941" lon="11.139119719138076"><ele>206.8</ele><time>2026-04-04T11:15:43Z</time></trkpt><trkpt lat="44.30217675495722" lon="11.138995445186422"><ele>201.6</ele><time>2026-04-04T11:15:44Z</time></trkpt><trkpt lat="44.30210434047077" lon="11.138876273254713"><ele>196.4</ele><time>2026-04-04T11:15:45Z</time></trkpt><trkpt lat="44.30203980334747" lon="11.138750249068885"><ele>191.20000000000002</ele><time>2026-04-04T11:15:46Z</time></trkpt><trkpt lat="44.30198578930969" lon="11.138617853403218"><ele>186.0</ele><time>2026-04-04T11:15:47Z</time></trkpt><trkpt lat="44.30194532630574" lon="11.138478834955695"><ele>186.0</ele><time>2026-04-04T11:15:48Z</time></trkpt><trkpt lat="44.301899830275346" lon="11.138335897284263"><ele>186.0</ele><time>2026-04-04T11:15:49Z</time></trkpt><trkpt lat="44.30185659349594" lon="11.138186652118458"><ele>186.0</ele><time>2026-04-04T11:15:50Z</time></trkpt><trkpt lat="44.30181705725516" lon="11.138035666392984"><ele>186.0</ele><time>2026-04-04T11:15:51Z</time></trkpt><trkpt lat="44.30177886984113" lon="11.1378819487763"><ele>188.25</ele><time>2026-04-04T11:15:51.999Z</time></trkpt><trkpt lat="44.30174166325711" lon="11.137724957854232"><ele>190.5</ele><time>2026-04-04T11:15:52.999Z</time></trkpt><trkpt lat="44.30171746552697" lon="11.13756332151119"><ele>192.75</ele><time>2026-04-04T11:15:53.999Z</time></trkpt><trkpt lat="44.30170285317322" lon="11.137397113321638"><ele>195.0</ele><time>2026-04-04T11:15:54.999Z</time></trkpt><trkpt lat="44.30169488750826" lon="11.137228763498184"><ele>195.75</ele><time>2026-04-04T11:15:55.999Z</time></trkpt><trkpt lat="44.301687470642655" lon="11.137060316407174"><ele>196.5</ele><time>2026-04-04T11:15:56.999Z</time></trkpt><trkpt lat="44.30166753509029" lon="11.13689473941526"><ele>197.25</ele><time>2026-04-04T11:15:57.999Z</time></trkpt><trkpt lat="44.301639917588105" lon="11.136721845450415"><ele>198.0</ele><time>2026-04-04T11:15:58.999Z</time></trkpt><trkpt lat="44.301613390912166" lon="11.136557553563811"><ele>198.0</ele><time>2026-04-04T11:15:59.999Z</time></trkpt><trkpt lat="44.3015843601092" lon="11.136393532537761"><ele>198.0</ele><time>2026-04-04T11:16:00.999Z</time></trkpt><trkpt lat="44.301559750395334" lon="11.136231450392108"><ele>198.0</ele><time>2026-04-04T11:16:01.999Z</time></trkpt><trkpt lat="44.3015590353256" lon="11.136054962864463"><ele>198.0</ele><time>2026-04-04T11:16:02.999Z</time></trkpt><trkpt lat="44.30157834872808" lon="11.135886174134187"><ele>198.0</ele><time>2026-04-04T11:16:03.999Z</time></trkpt><trkpt lat="44.30160113254619" lon="11.135725028385936"><ele>198.0</ele><time>2026-04-04T11:16:04.999Z</time></trkpt><trkpt lat="44.3016061678061" lon="11.135558676224896"><ele>198.0</ele><time>2026-04-04T11:16:05.999Z</time></trkpt><trkpt lat="44.30159145426215" lon="11.135389139715295"><ele>198.0</ele><time>2026-04-04T11:16:06.999Z</time></trkpt><trkpt lat="44.30155520057561" lon="11.135220822048952"><ele>198.75</ele><time>2026-04-04T11:16:07.999Z</time></trkpt><trkpt lat="44.30150397324752" lon="11.135063136575305"><ele>199.5</ele><time>2026-04-04T11:16:08.999Z</time></trkpt><trkpt lat="44.301424853349495" lon="11.134927860993368"><ele>200.25</ele><time>2026-04-04T11:16:09.999Z</time></trkpt><trkpt lat="44.30132230719383" lon="11.134808087416557"><ele>201.0</ele><time>2026-04-04T11:16:10.999Z</time></trkpt><trkpt lat="44.30120732861645" lon="11.134726910031212"><ele>196.0</ele><time>2026-04-04T11:16:11.999Z</time></trkpt><trkpt lat="44.30109417539358" lon="11.134628731942403"><ele>191.0</ele><time>2026-04-04T11:16:12.999Z</time></trkpt><trkpt lat="44.300992445748015" lon="11.134508303685733"><ele>186.0</ele><time>2026-04-04T11:16:13.999Z</time></trkpt><trkpt lat="44.30090422009164" lon="11.134355698908918"><ele>181.0</ele><time>2026-04-04T11:16:14.999Z</time></trkpt><trkpt lat="44.30086203901821" lon="11.134171275705059"><ele>180.75</ele><time>2026-04-04T11:16:15.999Z</time></trkpt><trkpt lat="44.30085421637282" lon="11.133979605439743"><ele>180.5</ele><time>2026-04-04T11:16:16.999Z</time></trkpt><trkpt lat="44.300875811028476" lon="11.133773749456715"><ele>180.25</ele><time>2026-04-04T11:16:17.999Z</time></trkpt><trkpt lat="44.30091669941029" lon="11.133595759635362"><ele>180.0</ele><time>2026-04-04T11:16:18.999Z</time></trkpt><trkpt lat="44.300964425078796" lon="11.133448927305773"><ele>180.0</ele><time>2026-04-04T11:16:19.999Z</time></trkpt><trkpt lat="44.301030423153385" lon="11.133328137238276"><ele>180.0</ele><time>2026-04-04T11:16:20.999Z</time></trkpt><trkpt lat="44.301108474633466" lon="11.133222332510142"><ele>180.0</ele><time>2026-04-04T11:16:21.999Z</time></trkpt><trkpt lat="44.30117993591683" lon="11.13312737818969"><ele>180.0</ele><time>2026-04-04T11:16:22.999Z</time></trkpt><trkpt lat="44.30125317111579" lon="11.133019183223361"><ele>180.0</ele><time>2026-04-04T11:16:23.999Z</time></trkpt><trkpt lat="44.301329188751076" lon="11.132900516943442"><ele>180.5</ele><time>2026-04-04T11:16:24.999Z</time></trkpt><trkpt lat="44.301409796108956" lon="11.132781421680804"><ele>181.0</ele><time>2026-04-04T11:16:25.999Z</time></trkpt><trkpt lat="44.301485744093206" lon="11.132651522623714"><ele>181.5</ele><time>2026-04-04T11:16:26.999Z</time></trkpt><trkpt lat="44.30156645186507" lon="11.13252651055772"><ele>182.0</ele><time>2026-04-04T11:16:27.999Z</time></trkpt><trkpt lat="44.30164467423732" lon="11.132379947782196"><ele>182.0</ele><time>2026-04-04T11:16:28.999Z</time></trkpt><trkpt lat="44.30172893641595" lon="11.132212504348795"><ele>182.0</ele><time>2026-04-04T11:16:29.999Z</time></trkpt><trkpt lat="44.30177811257914" lon="11.132042559007456"><ele>182.0</ele><time>2026-04-04T11:16:31Z</time></trkpt><trkpt lat="44.30178906733824" lon="11.131863147234613"><ele>182.0</ele><time>2026-04-04T11:16:32Z</time></trkpt><trkpt lat="44.30176860383716" lon="11.131676600149715"><ele>182.5</ele><time>2026-04-04T11:16:33Z</time></trkpt><trkpt lat="44.3017305593592" lon="11.13148905219915"><ele>183.0</ele><time>2026-04-04T11:16:34Z</time></trkpt><trkpt lat="44.301693036462964" lon="11.131311804254441"><ele>183.5</ele><time>2026-04-04T11:16:35Z</time></trkpt><trkpt lat="44.301660931859026" lon="11.131138516201421"><ele>184.0</ele><time>2026-04-04T11:16:36Z</time></trkpt><trkpt lat="44.301640754501356" lon="11.130955144761497"><ele>184.0</ele><time>2026-04-04T11:16:37Z</time></trkpt><trkpt lat="44.30165205154804" lon="11.130767309986263"><ele>184.0</ele><time>2026-04-04T11:16:38Z</time></trkpt><trkpt lat="44.30168614818382" lon="11.130593569259132"><ele>184.0</ele><time>2026-04-04T11:16:39Z</time></trkpt><trkpt lat="44.301738332760586" lon="11.130436826520366"><ele>184.0</ele><time>2026-04-04T11:16:40Z</time></trkpt><trkpt lat="44.30181808970264" lon="11.130299047215914"><ele>183.75</ele><time>2026-04-04T11:16:41Z</time></trkpt><trkpt lat="44.301886479325255" lon="11.130148485279701"><ele>183.5</ele><time>2026-04-04T11:16:42Z</time></trkpt><trkpt lat="44.301953497411375" lon="11.129985854824945"><ele>183.25</ele><time>2026-04-04T11:16:43Z</time></trkpt><trkpt lat="44.3020194098361" lon="11.129820451370836"><ele>183.0</ele><time>2026-04-04T11:16:44Z</time></trkpt><trkpt lat="44.30207073459008" lon="11.12965328356909"><ele>182.33333333333334</ele><time>2026-04-04T11:16:45Z</time></trkpt><trkpt lat="44.302103604394205" lon="11.12947065150815"><ele>181.66666666666669</ele><time>2026-04-04T11:16:46Z</time></trkpt><trkpt lat="44.30209704786553" lon="11.129265370894334"><ele>181.0</ele><time>2026-04-04T11:16:47Z</time></trkpt><trkpt lat="44.30206177819065" lon="11.1290261878796"><ele>181.0</ele><time>2026-04-04T11:16:48Z</time></trkpt><trkpt lat="44.302018560336414" lon="11.12880672123787"><ele>181.0</ele><time>2026-04-04T11:16:49Z</time></trkpt><trkpt lat="44.30198851538477" lon="11.128595524404279"><ele>181.0</ele><time>2026-04-04T11:16:50Z</time></trkpt><trkpt lat="44.301961146958845" lon="11.128401944669475"><ele>180.75</ele><time>2026-04-04T11:16:51Z</time></trkpt><trkpt lat="44.3019341326831" lon="11.128216568968845"><ele>180.5</ele><time>2026-04-04T11:16:52Z</time></trkpt><trkpt lat="44.301912682449256" lon="11.128036793467315"><ele>180.25</ele><time>2026-04-04T11:16:53Z</time></trkpt><trkpt lat="44.30189632228084" lon="11.127862696062811"><ele>180.0</ele><time>2026-04-04T11:16:54Z</time></trkpt><trkpt lat="44.30188108709466" lon="11.127694143150027"><ele>180.0</ele><time>2026-04-04T11:16:55Z</time></trkpt><trkpt lat="44.30186187405485" lon="11.127528637122106"><ele>180.0</ele><time>2026-04-04T11:16:56Z</time></trkpt><trkpt lat="44.301841624198005" lon="11.127372709629505"><ele>180.0</ele><time>2026-04-04T11:16:57Z</time></trkpt><trkpt lat="44.30182933922533" lon="11.127228235724614"><ele>180.0</ele><time>2026-04-04T11:16:58Z</time></trkpt><trkpt lat="44.30184039160594" lon="11.127105265500582"><ele>180.0</ele><time>2026-04-04T11:16:59Z</time></trkpt><trkpt lat="44.30183488569452" lon="11.12695790219226"><ele>179.75</ele><time>2026-04-04T11:17:01Z</time></trkpt><trkpt lat="44.302106739996105" lon="11.126928402533089"><ele>179.5</ele><time>2026-04-04T11:17:44Z</time></trkpt><trkpt lat="44.30210951854916" lon="11.126832270403723"><ele>179.25</ele><time>2026-04-04T11:20:24.999Z</time></trkpt><trkpt lat="44.30210353677208" lon="11.126930009380459"><ele>179.0</ele><time>2026-04-04T11:20:31.999Z</time></trkpt><trkpt lat="44.302091793288575" lon="11.126813017840252"><ele>179.0</ele><time>2026-04-04T11:22:18.999Z</time></trkpt><trkpt lat="44.30210493084748" lon="11.126900159636072"><ele>179.0</ele><time>2026-04-04T11:22:37.999Z</time></trkpt></trkseg></trk></gpx>